<?xml version="1.0" encoding="UTF-8" standalone="no" ?>
<gpx xmlns="http://www.topografix.com/GPX/1/1" xmlns:xsi="http://www.w3.org/2001/XMLSchema-instance" xsi:schemaLocation="http://www.topografix.com/GPX/1/1 http://www.topografix.com/GPX/1/1/gpx.xsd" version="1.1" creator="VisuGPX - https://www.visugpx.com">
  <metadata>
    <name>Tour du Sud Vercors</name>
    <desc><![CDATA[Tour du Pas de l\'Aiguille, en boucle, par Pré Peyret, Bachassons, Pas de la Ville et Rochers du Parquet]]></desc>
  </metadata>
  <trk>
    <name><![CDATA[NOV-18-12 17:04:48]]></name>
    <trkseg>
      <trkpt lat="44.80061" lon="5.49642">
        <ele>1627.65</ele>
        <time>2012-11-18T08:50:29Z</time>
      </trkpt>
      <trkpt lat="44.80061" lon="5.49641">
        <ele>1627.65</ele>
        <time>2012-11-18T08:50:30Z</time>
      </trkpt>
      <trkpt lat="44.80061" lon="5.49642">
        <ele>1627.65</ele>
        <time>2012-11-18T08:50:31Z</time>
      </trkpt>
      <trkpt lat="44.80061" lon="5.49641">
        <ele>1626.69</ele>
        <time>2012-11-18T08:50:43Z</time>
      </trkpt>
      <trkpt lat="44.80062" lon="5.49642">
        <ele>1629.09</ele>
        <time>2012-11-18T08:50:50Z</time>
      </trkpt>
      <trkpt lat="44.8006" lon="5.49642">
        <ele>1624.77</ele>
        <time>2012-11-18T08:51:39Z</time>
      </trkpt>
      <trkpt lat="44.8006" lon="5.49642">
        <ele>1628.13</ele>
        <time>2012-11-18T08:52:09Z</time>
      </trkpt>
      <trkpt lat="44.8006" lon="5.49643">
        <ele>1628.61</ele>
        <time>2012-11-18T08:52:33Z</time>
      </trkpt>
      <trkpt lat="44.8006" lon="5.49644">
        <ele>1628.13</ele>
        <time>2012-11-18T08:52:34Z</time>
      </trkpt>
      <trkpt lat="44.8006" lon="5.49648">
        <ele>1629.09</ele>
        <time>2012-11-18T08:52:37Z</time>
      </trkpt>
      <trkpt lat="44.80056" lon="5.49656">
        <ele>1630.53</ele>
        <time>2012-11-18T08:52:48Z</time>
      </trkpt>
      <trkpt lat="44.8006" lon="5.49654">
        <ele>1630.05</ele>
        <time>2012-11-18T08:53:34Z</time>
      </trkpt>
      <trkpt lat="44.80063" lon="5.49651">
        <ele>1629.57</ele>
        <time>2012-11-18T08:53:36Z</time>
      </trkpt>
      <trkpt lat="44.80066" lon="5.49647">
        <ele>1628.61</ele>
        <time>2012-11-18T08:53:39Z</time>
      </trkpt>
      <trkpt lat="44.80067" lon="5.49641">
        <ele>1629.09</ele>
        <time>2012-11-18T08:53:43Z</time>
      </trkpt>
      <trkpt lat="44.8007" lon="5.49639">
        <ele>1629.57</ele>
        <time>2012-11-18T08:53:46Z</time>
      </trkpt>
      <trkpt lat="44.80073" lon="5.49633">
        <ele>1629.57</ele>
        <time>2012-11-18T08:53:51Z</time>
      </trkpt>
      <trkpt lat="44.80078" lon="5.49628">
        <ele>1629.57</ele>
        <time>2012-11-18T08:53:56Z</time>
      </trkpt>
      <trkpt lat="44.8008" lon="5.49626">
        <ele>1629.57</ele>
        <time>2012-11-18T08:53:58Z</time>
      </trkpt>
      <trkpt lat="44.80083" lon="5.49619">
        <ele>1629.09</ele>
        <time>2012-11-18T08:54:03Z</time>
      </trkpt>
      <trkpt lat="44.80083" lon="5.49617">
        <ele>1629.09</ele>
        <time>2012-11-18T08:54:05Z</time>
      </trkpt>
      <trkpt lat="44.80082" lon="5.49604">
        <ele>1626.21</ele>
        <time>2012-11-18T08:54:13Z</time>
      </trkpt>
      <trkpt lat="44.80086" lon="5.49597">
        <ele>1624.28</ele>
        <time>2012-11-18T08:54:18Z</time>
      </trkpt>
      <trkpt lat="44.80098" lon="5.49576">
        <ele>1623.32</ele>
        <time>2012-11-18T08:54:34Z</time>
      </trkpt>
      <trkpt lat="44.801" lon="5.49575">
        <ele>1623.8</ele>
        <time>2012-11-18T08:54:35Z</time>
      </trkpt>
      <trkpt lat="44.80105" lon="5.49564">
        <ele>1624.77</ele>
        <time>2012-11-18T08:54:45Z</time>
      </trkpt>
      <trkpt lat="44.80112" lon="5.49548">
        <ele>1626.69</ele>
        <time>2012-11-18T08:54:58Z</time>
      </trkpt>
      <trkpt lat="44.80115" lon="5.49544">
        <ele>1626.69</ele>
        <time>2012-11-18T08:55:07Z</time>
      </trkpt>
      <trkpt lat="44.80117" lon="5.49537">
        <ele>1626.69</ele>
        <time>2012-11-18T08:55:12Z</time>
      </trkpt>
      <trkpt lat="44.80121" lon="5.49532">
        <ele>1626.69</ele>
        <time>2012-11-18T08:55:17Z</time>
      </trkpt>
      <trkpt lat="44.80129" lon="5.49516">
        <ele>1626.69</ele>
        <time>2012-11-18T08:55:30Z</time>
      </trkpt>
      <trkpt lat="44.80132" lon="5.49513">
        <ele>1627.65</ele>
        <time>2012-11-18T08:55:49Z</time>
      </trkpt>
      <trkpt lat="44.80133" lon="5.49512">
        <ele>1627.17</ele>
        <time>2012-11-18T08:56:00Z</time>
      </trkpt>
      <trkpt lat="44.80135" lon="5.49493">
        <ele>1628.13</ele>
        <time>2012-11-18T08:56:13Z</time>
      </trkpt>
      <trkpt lat="44.80134" lon="5.49492">
        <ele>1628.13</ele>
        <time>2012-11-18T08:56:16Z</time>
      </trkpt>
      <trkpt lat="44.80138" lon="5.4949">
        <ele>1628.13</ele>
        <time>2012-11-18T08:56:21Z</time>
      </trkpt>
      <trkpt lat="44.80141" lon="5.49481">
        <ele>1626.69</ele>
        <time>2012-11-18T08:56:27Z</time>
      </trkpt>
      <trkpt lat="44.8015" lon="5.49462">
        <ele>1624.28</ele>
        <time>2012-11-18T08:56:39Z</time>
      </trkpt>
      <trkpt lat="44.80158" lon="5.49447">
        <ele>1623.8</ele>
        <time>2012-11-18T08:56:49Z</time>
      </trkpt>
      <trkpt lat="44.80171" lon="5.49434">
        <ele>1624.28</ele>
        <time>2012-11-18T08:57:04Z</time>
      </trkpt>
      <trkpt lat="44.80176" lon="5.49425">
        <ele>1623.8</ele>
        <time>2012-11-18T08:57:11Z</time>
      </trkpt>
      <trkpt lat="44.80183" lon="5.49396">
        <ele>1623.8</ele>
        <time>2012-11-18T08:57:27Z</time>
      </trkpt>
      <trkpt lat="44.80184" lon="5.49393">
        <ele>1623.32</ele>
        <time>2012-11-18T08:57:29Z</time>
      </trkpt>
      <trkpt lat="44.80183" lon="5.49391">
        <ele>1624.28</ele>
        <time>2012-11-18T08:57:31Z</time>
      </trkpt>
      <trkpt lat="44.80189" lon="5.49368">
        <ele>1625.73</ele>
        <time>2012-11-18T08:57:47Z</time>
      </trkpt>
      <trkpt lat="44.80189" lon="5.49364">
        <ele>1627.17</ele>
        <time>2012-11-18T08:57:52Z</time>
      </trkpt>
      <trkpt lat="44.80189" lon="5.49361">
        <ele>1625.73</ele>
        <time>2012-11-18T08:58:04Z</time>
      </trkpt>
      <trkpt lat="44.80192" lon="5.49356">
        <ele>1625.25</ele>
        <time>2012-11-18T08:58:09Z</time>
      </trkpt>
      <trkpt lat="44.80201" lon="5.49349">
        <ele>1624.77</ele>
        <time>2012-11-18T08:58:18Z</time>
      </trkpt>
      <trkpt lat="44.80218" lon="5.4934">
        <ele>1623.8</ele>
        <time>2012-11-18T08:58:34Z</time>
      </trkpt>
      <trkpt lat="44.8022" lon="5.49338">
        <ele>1624.28</ele>
        <time>2012-11-18T08:58:40Z</time>
      </trkpt>
      <trkpt lat="44.8022" lon="5.49331">
        <ele>1624.28</ele>
        <time>2012-11-18T08:58:44Z</time>
      </trkpt>
      <trkpt lat="44.80222" lon="5.4932">
        <ele>1625.25</ele>
        <time>2012-11-18T08:58:52Z</time>
      </trkpt>
      <trkpt lat="44.80227" lon="5.49312">
        <ele>1626.21</ele>
        <time>2012-11-18T08:58:59Z</time>
      </trkpt>
      <trkpt lat="44.80233" lon="5.49306">
        <ele>1627.65</ele>
        <time>2012-11-18T08:59:07Z</time>
      </trkpt>
      <trkpt lat="44.80237" lon="5.49305">
        <ele>1628.61</ele>
        <time>2012-11-18T08:59:13Z</time>
      </trkpt>
      <trkpt lat="44.8024" lon="5.49304">
        <ele>1628.61</ele>
        <time>2012-11-18T08:59:20Z</time>
      </trkpt>
      <trkpt lat="44.80237" lon="5.49294">
        <ele>1629.09</ele>
        <time>2012-11-18T08:59:27Z</time>
      </trkpt>
      <trkpt lat="44.80234" lon="5.49288">
        <ele>1629.09</ele>
        <time>2012-11-18T08:59:31Z</time>
      </trkpt>
      <trkpt lat="44.80235" lon="5.49278">
        <ele>1627.17</ele>
        <time>2012-11-18T08:59:39Z</time>
      </trkpt>
      <trkpt lat="44.80244" lon="5.49257">
        <ele>1626.21</ele>
        <time>2012-11-18T08:59:55Z</time>
      </trkpt>
      <trkpt lat="44.80245" lon="5.49253">
        <ele>1626.21</ele>
        <time>2012-11-18T08:59:58Z</time>
      </trkpt>
      <trkpt lat="44.8025" lon="5.4923">
        <ele>1625.25</ele>
        <time>2012-11-18T09:00:13Z</time>
      </trkpt>
      <trkpt lat="44.80254" lon="5.49212">
        <ele>1623.32</ele>
        <time>2012-11-18T09:00:25Z</time>
      </trkpt>
      <trkpt lat="44.80256" lon="5.49209">
        <ele>1622.84</ele>
        <time>2012-11-18T09:00:27Z</time>
      </trkpt>
      <trkpt lat="44.80257" lon="5.492">
        <ele>1621.4</ele>
        <time>2012-11-18T09:00:32Z</time>
      </trkpt>
      <trkpt lat="44.80254" lon="5.49189">
        <ele>1620.92</ele>
        <time>2012-11-18T09:00:39Z</time>
      </trkpt>
      <trkpt lat="44.8026" lon="5.4917">
        <ele>1619</ele>
        <time>2012-11-18T09:00:52Z</time>
      </trkpt>
      <trkpt lat="44.80264" lon="5.49162">
        <ele>1618.52</ele>
        <time>2012-11-18T09:00:57Z</time>
      </trkpt>
      <trkpt lat="44.80269" lon="5.49149">
        <ele>1617.07</ele>
        <time>2012-11-18T09:01:06Z</time>
      </trkpt>
      <trkpt lat="44.80272" lon="5.4914">
        <ele>1616.11</ele>
        <time>2012-11-18T09:01:12Z</time>
      </trkpt>
      <trkpt lat="44.80277" lon="5.49131">
        <ele>1616.59</ele>
        <time>2012-11-18T09:01:19Z</time>
      </trkpt>
      <trkpt lat="44.80279" lon="5.49119">
        <ele>1615.63</ele>
        <time>2012-11-18T09:01:27Z</time>
      </trkpt>
      <trkpt lat="44.8028" lon="5.49105">
        <ele>1614.19</ele>
        <time>2012-11-18T09:01:36Z</time>
      </trkpt>
      <trkpt lat="44.80287" lon="5.49083">
        <ele>1614.19</ele>
        <time>2012-11-18T09:01:50Z</time>
      </trkpt>
      <trkpt lat="44.80287" lon="5.49075">
        <ele>1614.19</ele>
        <time>2012-11-18T09:01:56Z</time>
      </trkpt>
      <trkpt lat="44.80288" lon="5.49071">
        <ele>1613.23</ele>
        <time>2012-11-18T09:01:59Z</time>
      </trkpt>
      <trkpt lat="44.80288" lon="5.49062">
        <ele>1612.27</ele>
        <time>2012-11-18T09:02:05Z</time>
      </trkpt>
      <trkpt lat="44.80292" lon="5.49037">
        <ele>1610.83</ele>
        <time>2012-11-18T09:02:20Z</time>
      </trkpt>
      <trkpt lat="44.80293" lon="5.49035">
        <ele>1610.83</ele>
        <time>2012-11-18T09:02:21Z</time>
      </trkpt>
      <trkpt lat="44.80289" lon="5.49024">
        <ele>1609.86</ele>
        <time>2012-11-18T09:02:27Z</time>
      </trkpt>
      <trkpt lat="44.80287" lon="5.49">
        <ele>1608.42</ele>
        <time>2012-11-18T09:02:41Z</time>
      </trkpt>
      <trkpt lat="44.80285" lon="5.48974">
        <ele>1610.35</ele>
        <time>2012-11-18T09:02:57Z</time>
      </trkpt>
      <trkpt lat="44.80287" lon="5.48968">
        <ele>1610.83</ele>
        <time>2012-11-18T09:03:01Z</time>
      </trkpt>
      <trkpt lat="44.8029" lon="5.48946">
        <ele>1613.23</ele>
        <time>2012-11-18T09:03:16Z</time>
      </trkpt>
      <trkpt lat="44.80288" lon="5.48932">
        <ele>1614.67</ele>
        <time>2012-11-18T09:03:26Z</time>
      </trkpt>
      <trkpt lat="44.80286" lon="5.48922">
        <ele>1615.63</ele>
        <time>2012-11-18T09:03:34Z</time>
      </trkpt>
      <trkpt lat="44.80286" lon="5.48911">
        <ele>1615.63</ele>
        <time>2012-11-18T09:03:42Z</time>
      </trkpt>
      <trkpt lat="44.80286" lon="5.48895">
        <ele>1616.11</ele>
        <time>2012-11-18T09:03:53Z</time>
      </trkpt>
      <trkpt lat="44.80288" lon="5.48882">
        <ele>1615.15</ele>
        <time>2012-11-18T09:04:06Z</time>
      </trkpt>
      <trkpt lat="44.80291" lon="5.48878">
        <ele>1614.19</ele>
        <time>2012-11-18T09:04:10Z</time>
      </trkpt>
      <trkpt lat="44.80293" lon="5.48875">
        <ele>1614.67</ele>
        <time>2012-11-18T09:04:12Z</time>
      </trkpt>
      <trkpt lat="44.8029" lon="5.48861">
        <ele>1614.67</ele>
        <time>2012-11-18T09:04:25Z</time>
      </trkpt>
      <trkpt lat="44.8029" lon="5.48856">
        <ele>1614.19</ele>
        <time>2012-11-18T09:04:28Z</time>
      </trkpt>
      <trkpt lat="44.80288" lon="5.48849">
        <ele>1614.19</ele>
        <time>2012-11-18T09:04:32Z</time>
      </trkpt>
      <trkpt lat="44.80286" lon="5.48839">
        <ele>1613.23</ele>
        <time>2012-11-18T09:04:37Z</time>
      </trkpt>
      <trkpt lat="44.80284" lon="5.48831">
        <ele>1612.27</ele>
        <time>2012-11-18T09:04:43Z</time>
      </trkpt>
      <trkpt lat="44.80284" lon="5.48827">
        <ele>1611.79</ele>
        <time>2012-11-18T09:04:45Z</time>
      </trkpt>
      <trkpt lat="44.80284" lon="5.48821">
        <ele>1611.31</ele>
        <time>2012-11-18T09:04:49Z</time>
      </trkpt>
      <trkpt lat="44.80283" lon="5.48819">
        <ele>1611.31</ele>
        <time>2012-11-18T09:04:51Z</time>
      </trkpt>
      <trkpt lat="44.80282" lon="5.48816">
        <ele>1611.79</ele>
        <time>2012-11-18T09:04:53Z</time>
      </trkpt>
      <trkpt lat="44.8028" lon="5.4881">
        <ele>1611.79</ele>
        <time>2012-11-18T09:04:57Z</time>
      </trkpt>
      <trkpt lat="44.80281" lon="5.48792">
        <ele>1609.86</ele>
        <time>2012-11-18T09:05:09Z</time>
      </trkpt>
      <trkpt lat="44.80281" lon="5.48783">
        <ele>1608.9</ele>
        <time>2012-11-18T09:05:14Z</time>
      </trkpt>
      <trkpt lat="44.80277" lon="5.4876">
        <ele>1607.94</ele>
        <time>2012-11-18T09:05:28Z</time>
      </trkpt>
      <trkpt lat="44.80272" lon="5.48748">
        <ele>1608.9</ele>
        <time>2012-11-18T09:05:37Z</time>
      </trkpt>
      <trkpt lat="44.80268" lon="5.48734">
        <ele>1608.9</ele>
        <time>2012-11-18T09:05:46Z</time>
      </trkpt>
      <trkpt lat="44.80261" lon="5.48707">
        <ele>1608.9</ele>
        <time>2012-11-18T09:06:02Z</time>
      </trkpt>
      <trkpt lat="44.80259" lon="5.48698">
        <ele>1609.38</ele>
        <time>2012-11-18T09:06:07Z</time>
      </trkpt>
      <trkpt lat="44.80255" lon="5.48679">
        <ele>1609.86</ele>
        <time>2012-11-18T09:06:20Z</time>
      </trkpt>
      <trkpt lat="44.8025" lon="5.48664">
        <ele>1609.38</ele>
        <time>2012-11-18T09:06:30Z</time>
      </trkpt>
      <trkpt lat="44.80252" lon="5.48662">
        <ele>1609.86</ele>
        <time>2012-11-18T09:06:33Z</time>
      </trkpt>
      <trkpt lat="44.80256" lon="5.48639">
        <ele>1612.75</ele>
        <time>2012-11-18T09:06:47Z</time>
      </trkpt>
      <trkpt lat="44.80256" lon="5.48638">
        <ele>1612.75</ele>
        <time>2012-11-18T09:06:48Z</time>
      </trkpt>
      <trkpt lat="44.80255" lon="5.48631">
        <ele>1613.71</ele>
        <time>2012-11-18T09:06:53Z</time>
      </trkpt>
      <trkpt lat="44.80254" lon="5.48615">
        <ele>1615.15</ele>
        <time>2012-11-18T09:07:03Z</time>
      </trkpt>
      <trkpt lat="44.80255" lon="5.48607">
        <ele>1616.11</ele>
        <time>2012-11-18T09:07:08Z</time>
      </trkpt>
      <trkpt lat="44.80256" lon="5.48599">
        <ele>1617.07</ele>
        <time>2012-11-18T09:07:13Z</time>
      </trkpt>
      <trkpt lat="44.80255" lon="5.48592">
        <ele>1617.07</ele>
        <time>2012-11-18T09:07:18Z</time>
      </trkpt>
      <trkpt lat="44.80255" lon="5.48582">
        <ele>1619</ele>
        <time>2012-11-18T09:07:25Z</time>
      </trkpt>
      <trkpt lat="44.8025" lon="5.48567">
        <ele>1619.48</ele>
        <time>2012-11-18T09:07:37Z</time>
      </trkpt>
      <trkpt lat="44.80246" lon="5.48561">
        <ele>1619</ele>
        <time>2012-11-18T09:07:41Z</time>
      </trkpt>
      <trkpt lat="44.80239" lon="5.48551">
        <ele>1619</ele>
        <time>2012-11-18T09:07:48Z</time>
      </trkpt>
      <trkpt lat="44.80229" lon="5.48543">
        <ele>1617.07</ele>
        <time>2012-11-18T09:07:59Z</time>
      </trkpt>
      <trkpt lat="44.80223" lon="5.4854">
        <ele>1616.59</ele>
        <time>2012-11-18T09:08:04Z</time>
      </trkpt>
      <trkpt lat="44.80207" lon="5.48538">
        <ele>1614.19</ele>
        <time>2012-11-18T09:08:15Z</time>
      </trkpt>
      <trkpt lat="44.80204" lon="5.48536">
        <ele>1613.23</ele>
        <time>2012-11-18T09:08:18Z</time>
      </trkpt>
      <trkpt lat="44.80199" lon="5.4853">
        <ele>1615.15</ele>
        <time>2012-11-18T09:08:26Z</time>
      </trkpt>
      <trkpt lat="44.80192" lon="5.48527">
        <ele>1615.63</ele>
        <time>2012-11-18T09:08:31Z</time>
      </trkpt>
      <trkpt lat="44.8019" lon="5.48523">
        <ele>1614.67</ele>
        <time>2012-11-18T09:08:34Z</time>
      </trkpt>
      <trkpt lat="44.80187" lon="5.48517">
        <ele>1613.23</ele>
        <time>2012-11-18T09:08:38Z</time>
      </trkpt>
      <trkpt lat="44.80184" lon="5.48494">
        <ele>1611.31</ele>
        <time>2012-11-18T09:08:52Z</time>
      </trkpt>
      <trkpt lat="44.80184" lon="5.48489">
        <ele>1611.31</ele>
        <time>2012-11-18T09:08:55Z</time>
      </trkpt>
      <trkpt lat="44.80181" lon="5.48484">
        <ele>1609.86</ele>
        <time>2012-11-18T09:08:59Z</time>
      </trkpt>
      <trkpt lat="44.80177" lon="5.48473">
        <ele>1610.35</ele>
        <time>2012-11-18T09:09:07Z</time>
      </trkpt>
      <trkpt lat="44.80168" lon="5.48456">
        <ele>1610.83</ele>
        <time>2012-11-18T09:09:19Z</time>
      </trkpt>
      <trkpt lat="44.80166" lon="5.48453">
        <ele>1611.31</ele>
        <time>2012-11-18T09:09:21Z</time>
      </trkpt>
      <trkpt lat="44.80166" lon="5.48449">
        <ele>1610.35</ele>
        <time>2012-11-18T09:09:24Z</time>
      </trkpt>
      <trkpt lat="44.80165" lon="5.48442">
        <ele>1610.35</ele>
        <time>2012-11-18T09:09:29Z</time>
      </trkpt>
      <trkpt lat="44.80165" lon="5.48439">
        <ele>1611.31</ele>
        <time>2012-11-18T09:09:45Z</time>
      </trkpt>
      <trkpt lat="44.80166" lon="5.48439">
        <ele>1611.31</ele>
        <time>2012-11-18T09:10:01Z</time>
      </trkpt>
      <trkpt lat="44.80165" lon="5.48439">
        <ele>1610.83</ele>
        <time>2012-11-18T09:10:30Z</time>
      </trkpt>
      <trkpt lat="44.80165" lon="5.48438">
        <ele>1611.31</ele>
        <time>2012-11-18T09:10:47Z</time>
      </trkpt>
      <trkpt lat="44.80166" lon="5.48433">
        <ele>1611.79</ele>
        <time>2012-11-18T09:11:09Z</time>
      </trkpt>
      <trkpt lat="44.80166" lon="5.4843">
        <ele>1612.75</ele>
        <time>2012-11-18T09:11:11Z</time>
      </trkpt>
      <trkpt lat="44.80162" lon="5.48414">
        <ele>1613.71</ele>
        <time>2012-11-18T09:11:24Z</time>
      </trkpt>
      <trkpt lat="44.80158" lon="5.48409">
        <ele>1613.71</ele>
        <time>2012-11-18T09:11:29Z</time>
      </trkpt>
      <trkpt lat="44.80147" lon="5.48396">
        <ele>1613.71</ele>
        <time>2012-11-18T09:11:41Z</time>
      </trkpt>
      <trkpt lat="44.80143" lon="5.4839">
        <ele>1613.71</ele>
        <time>2012-11-18T09:11:46Z</time>
      </trkpt>
      <trkpt lat="44.80141" lon="5.4839">
        <ele>1614.19</ele>
        <time>2012-11-18T09:11:48Z</time>
      </trkpt>
      <trkpt lat="44.80138" lon="5.48389">
        <ele>1614.67</ele>
        <time>2012-11-18T09:11:51Z</time>
      </trkpt>
      <trkpt lat="44.80132" lon="5.4839">
        <ele>1615.63</ele>
        <time>2012-11-18T09:11:57Z</time>
      </trkpt>
      <trkpt lat="44.8013" lon="5.4839">
        <ele>1616.59</ele>
        <time>2012-11-18T09:12:00Z</time>
      </trkpt>
      <trkpt lat="44.80127" lon="5.48387">
        <ele>1617.07</ele>
        <time>2012-11-18T09:12:03Z</time>
      </trkpt>
      <trkpt lat="44.80123" lon="5.48385">
        <ele>1617.07</ele>
        <time>2012-11-18T09:12:07Z</time>
      </trkpt>
      <trkpt lat="44.80121" lon="5.48377">
        <ele>1618.52</ele>
        <time>2012-11-18T09:12:14Z</time>
      </trkpt>
      <trkpt lat="44.8012" lon="5.48375">
        <ele>1618.52</ele>
        <time>2012-11-18T09:12:16Z</time>
      </trkpt>
      <trkpt lat="44.80119" lon="5.48373">
        <ele>1619.48</ele>
        <time>2012-11-18T09:12:18Z</time>
      </trkpt>
      <trkpt lat="44.80118" lon="5.48367">
        <ele>1619.96</ele>
        <time>2012-11-18T09:12:22Z</time>
      </trkpt>
      <trkpt lat="44.80116" lon="5.48354">
        <ele>1619.96</ele>
        <time>2012-11-18T09:12:31Z</time>
      </trkpt>
      <trkpt lat="44.80108" lon="5.48337">
        <ele>1621.88</ele>
        <time>2012-11-18T09:12:44Z</time>
      </trkpt>
      <trkpt lat="44.80104" lon="5.48316">
        <ele>1622.36</ele>
        <time>2012-11-18T09:12:59Z</time>
      </trkpt>
      <trkpt lat="44.80101" lon="5.48308">
        <ele>1622.84</ele>
        <time>2012-11-18T09:13:06Z</time>
      </trkpt>
      <trkpt lat="44.80107" lon="5.48287">
        <ele>1623.32</ele>
        <time>2012-11-18T09:13:20Z</time>
      </trkpt>
      <trkpt lat="44.80106" lon="5.48285">
        <ele>1623.32</ele>
        <time>2012-11-18T09:13:21Z</time>
      </trkpt>
      <trkpt lat="44.80104" lon="5.48269">
        <ele>1623.8</ele>
        <time>2012-11-18T09:13:31Z</time>
      </trkpt>
      <trkpt lat="44.80103" lon="5.48262">
        <ele>1624.28</ele>
        <time>2012-11-18T09:13:35Z</time>
      </trkpt>
      <trkpt lat="44.80102" lon="5.48233">
        <ele>1626.21</ele>
        <time>2012-11-18T09:13:52Z</time>
      </trkpt>
      <trkpt lat="44.80103" lon="5.48222">
        <ele>1625.73</ele>
        <time>2012-11-18T09:13:59Z</time>
      </trkpt>
      <trkpt lat="44.80103" lon="5.48214">
        <ele>1624.77</ele>
        <time>2012-11-18T09:14:04Z</time>
      </trkpt>
      <trkpt lat="44.80102" lon="5.48192">
        <ele>1624.28</ele>
        <time>2012-11-18T09:14:18Z</time>
      </trkpt>
      <trkpt lat="44.80099" lon="5.48175">
        <ele>1626.21</ele>
        <time>2012-11-18T09:14:29Z</time>
      </trkpt>
      <trkpt lat="44.80093" lon="5.48157">
        <ele>1628.13</ele>
        <time>2012-11-18T09:14:42Z</time>
      </trkpt>
      <trkpt lat="44.80093" lon="5.48156">
        <ele>1628.61</ele>
        <time>2012-11-18T09:14:43Z</time>
      </trkpt>
      <trkpt lat="44.80093" lon="5.48152">
        <ele>1629.57</ele>
        <time>2012-11-18T09:14:45Z</time>
      </trkpt>
      <trkpt lat="44.80092" lon="5.48151">
        <ele>1629.57</ele>
        <time>2012-11-18T09:14:46Z</time>
      </trkpt>
      <trkpt lat="44.80091" lon="5.48147">
        <ele>1630.53</ele>
        <time>2012-11-18T09:14:49Z</time>
      </trkpt>
      <trkpt lat="44.8009" lon="5.48142">
        <ele>1631.01</ele>
        <time>2012-11-18T09:14:52Z</time>
      </trkpt>
      <trkpt lat="44.80093" lon="5.48123">
        <ele>1628.13</ele>
        <time>2012-11-18T09:15:05Z</time>
      </trkpt>
      <trkpt lat="44.80093" lon="5.48118">
        <ele>1627.65</ele>
        <time>2012-11-18T09:15:08Z</time>
      </trkpt>
      <trkpt lat="44.8009" lon="5.48109">
        <ele>1627.17</ele>
        <time>2012-11-18T09:15:14Z</time>
      </trkpt>
      <trkpt lat="44.80083" lon="5.48093">
        <ele>1626.21</ele>
        <time>2012-11-18T09:15:25Z</time>
      </trkpt>
      <trkpt lat="44.8008" lon="5.48088">
        <ele>1626.21</ele>
        <time>2012-11-18T09:15:29Z</time>
      </trkpt>
      <trkpt lat="44.80079" lon="5.48083">
        <ele>1625.25</ele>
        <time>2012-11-18T09:15:32Z</time>
      </trkpt>
      <trkpt lat="44.80074" lon="5.48077">
        <ele>1625.25</ele>
        <time>2012-11-18T09:15:38Z</time>
      </trkpt>
      <trkpt lat="44.80072" lon="5.48071">
        <ele>1624.77</ele>
        <time>2012-11-18T09:15:42Z</time>
      </trkpt>
      <trkpt lat="44.80068" lon="5.48063">
        <ele>1625.73</ele>
        <time>2012-11-18T09:15:48Z</time>
      </trkpt>
      <trkpt lat="44.80068" lon="5.48056">
        <ele>1626.21</ele>
        <time>2012-11-18T09:15:53Z</time>
      </trkpt>
      <trkpt lat="44.8007" lon="5.48043">
        <ele>1627.65</ele>
        <time>2012-11-18T09:16:02Z</time>
      </trkpt>
      <trkpt lat="44.80069" lon="5.48038">
        <ele>1628.13</ele>
        <time>2012-11-18T09:16:05Z</time>
      </trkpt>
      <trkpt lat="44.8007" lon="5.48031">
        <ele>1629.09</ele>
        <time>2012-11-18T09:16:10Z</time>
      </trkpt>
      <trkpt lat="44.8007" lon="5.48024">
        <ele>1630.05</ele>
        <time>2012-11-18T09:16:15Z</time>
      </trkpt>
      <trkpt lat="44.80069" lon="5.48016">
        <ele>1631.49</ele>
        <time>2012-11-18T09:16:27Z</time>
      </trkpt>
      <trkpt lat="44.80073" lon="5.48008">
        <ele>1632.46</ele>
        <time>2012-11-18T09:16:39Z</time>
      </trkpt>
      <trkpt lat="44.80077" lon="5.47996">
        <ele>1633.9</ele>
        <time>2012-11-18T09:16:50Z</time>
      </trkpt>
      <trkpt lat="44.80077" lon="5.47996">
        <ele>1633.9</ele>
        <time>2012-11-18T09:17:04Z</time>
      </trkpt>
      <trkpt lat="44.80077" lon="5.47996">
        <ele>1633.9</ele>
        <time>2012-11-18T09:17:41Z</time>
      </trkpt>
      <trkpt lat="44.80078" lon="5.47987">
        <ele>1635.34</ele>
        <time>2012-11-18T09:17:53Z</time>
      </trkpt>
      <trkpt lat="44.80079" lon="5.4798">
        <ele>1634.86</ele>
        <time>2012-11-18T09:18:26Z</time>
      </trkpt>
      <trkpt lat="44.80078" lon="5.47976">
        <ele>1635.82</ele>
        <time>2012-11-18T09:18:29Z</time>
      </trkpt>
      <trkpt lat="44.80078" lon="5.47959">
        <ele>1636.3</ele>
        <time>2012-11-18T09:18:43Z</time>
      </trkpt>
      <trkpt lat="44.80077" lon="5.47955">
        <ele>1636.78</ele>
        <time>2012-11-18T09:18:46Z</time>
      </trkpt>
      <trkpt lat="44.80076" lon="5.47946">
        <ele>1637.26</ele>
        <time>2012-11-18T09:18:52Z</time>
      </trkpt>
      <trkpt lat="44.80075" lon="5.47941">
        <ele>1637.74</ele>
        <time>2012-11-18T09:18:56Z</time>
      </trkpt>
      <trkpt lat="44.8007" lon="5.4792">
        <ele>1638.22</ele>
        <time>2012-11-18T09:19:11Z</time>
      </trkpt>
      <trkpt lat="44.80065" lon="5.47896">
        <ele>1638.7</ele>
        <time>2012-11-18T09:19:26Z</time>
      </trkpt>
      <trkpt lat="44.80063" lon="5.47884">
        <ele>1639.67</ele>
        <time>2012-11-18T09:19:34Z</time>
      </trkpt>
      <trkpt lat="44.80063" lon="5.47875">
        <ele>1639.19</ele>
        <time>2012-11-18T09:19:40Z</time>
      </trkpt>
      <trkpt lat="44.80062" lon="5.47869">
        <ele>1640.15</ele>
        <time>2012-11-18T09:19:44Z</time>
      </trkpt>
      <trkpt lat="44.80057" lon="5.47863">
        <ele>1640.63</ele>
        <time>2012-11-18T09:19:50Z</time>
      </trkpt>
      <trkpt lat="44.80055" lon="5.47844">
        <ele>1643.03</ele>
        <time>2012-11-18T09:20:04Z</time>
      </trkpt>
      <trkpt lat="44.80055" lon="5.47842">
        <ele>1643.51</ele>
        <time>2012-11-18T09:20:05Z</time>
      </trkpt>
      <trkpt lat="44.80055" lon="5.4784">
        <ele>1643.99</ele>
        <time>2012-11-18T09:20:07Z</time>
      </trkpt>
      <trkpt lat="44.80054" lon="5.47825">
        <ele>1645.43</ele>
        <time>2012-11-18T09:20:19Z</time>
      </trkpt>
      <trkpt lat="44.80051" lon="5.47812">
        <ele>1647.84</ele>
        <time>2012-11-18T09:20:30Z</time>
      </trkpt>
      <trkpt lat="44.80044" lon="5.47801">
        <ele>1648.32</ele>
        <time>2012-11-18T09:20:42Z</time>
      </trkpt>
      <trkpt lat="44.80042" lon="5.478">
        <ele>1648.32</ele>
        <time>2012-11-18T09:20:44Z</time>
      </trkpt>
      <trkpt lat="44.80041" lon="5.47796">
        <ele>1648.8</ele>
        <time>2012-11-18T09:20:47Z</time>
      </trkpt>
      <trkpt lat="44.80036" lon="5.4779">
        <ele>1647.36</ele>
        <time>2012-11-18T09:20:58Z</time>
      </trkpt>
      <trkpt lat="44.80034" lon="5.47789">
        <ele>1647.84</ele>
        <time>2012-11-18T09:21:00Z</time>
      </trkpt>
      <trkpt lat="44.80031" lon="5.47781">
        <ele>1646.4</ele>
        <time>2012-11-18T09:21:06Z</time>
      </trkpt>
      <trkpt lat="44.80034" lon="5.4777">
        <ele>1644.47</ele>
        <time>2012-11-18T09:21:14Z</time>
      </trkpt>
      <trkpt lat="44.80036" lon="5.47769">
        <ele>1644.95</ele>
        <time>2012-11-18T09:21:16Z</time>
      </trkpt>
      <trkpt lat="44.8004" lon="5.4776">
        <ele>1645.91</ele>
        <time>2012-11-18T09:21:23Z</time>
      </trkpt>
      <trkpt lat="44.80043" lon="5.47754">
        <ele>1646.88</ele>
        <time>2012-11-18T09:21:28Z</time>
      </trkpt>
      <trkpt lat="44.80049" lon="5.47747">
        <ele>1648.32</ele>
        <time>2012-11-18T09:21:40Z</time>
      </trkpt>
      <trkpt lat="44.80056" lon="5.47739">
        <ele>1649.28</ele>
        <time>2012-11-18T09:21:52Z</time>
      </trkpt>
      <trkpt lat="44.80058" lon="5.47737">
        <ele>1649.76</ele>
        <time>2012-11-18T09:21:54Z</time>
      </trkpt>
      <trkpt lat="44.80068" lon="5.47718">
        <ele>1648.8</ele>
        <time>2012-11-18T09:22:09Z</time>
      </trkpt>
      <trkpt lat="44.80076" lon="5.47711">
        <ele>1651.2</ele>
        <time>2012-11-18T09:22:20Z</time>
      </trkpt>
      <trkpt lat="44.8008" lon="5.47706">
        <ele>1651.68</ele>
        <time>2012-11-18T09:22:26Z</time>
      </trkpt>
      <trkpt lat="44.80083" lon="5.47705">
        <ele>1652.64</ele>
        <time>2012-11-18T09:22:29Z</time>
      </trkpt>
      <trkpt lat="44.80085" lon="5.47703">
        <ele>1653.12</ele>
        <time>2012-11-18T09:22:32Z</time>
      </trkpt>
      <trkpt lat="44.80089" lon="5.47701">
        <ele>1653.6</ele>
        <time>2012-11-18T09:22:35Z</time>
      </trkpt>
      <trkpt lat="44.80091" lon="5.47698">
        <ele>1653.6</ele>
        <time>2012-11-18T09:22:38Z</time>
      </trkpt>
      <trkpt lat="44.80105" lon="5.47701">
        <ele>1654.57</ele>
        <time>2012-11-18T09:22:53Z</time>
      </trkpt>
      <trkpt lat="44.8011" lon="5.47704">
        <ele>1655.05</ele>
        <time>2012-11-18T09:22:59Z</time>
      </trkpt>
      <trkpt lat="44.80118" lon="5.47699">
        <ele>1656.01</ele>
        <time>2012-11-18T09:23:07Z</time>
      </trkpt>
      <trkpt lat="44.80122" lon="5.47699">
        <ele>1656.01</ele>
        <time>2012-11-18T09:23:11Z</time>
      </trkpt>
      <trkpt lat="44.80125" lon="5.47703">
        <ele>1655.53</ele>
        <time>2012-11-18T09:23:16Z</time>
      </trkpt>
      <trkpt lat="44.80127" lon="5.47708">
        <ele>1655.05</ele>
        <time>2012-11-18T09:23:21Z</time>
      </trkpt>
      <trkpt lat="44.80131" lon="5.47706">
        <ele>1653.12</ele>
        <time>2012-11-18T09:23:25Z</time>
      </trkpt>
      <trkpt lat="44.80137" lon="5.47704">
        <ele>1651.68</ele>
        <time>2012-11-18T09:23:30Z</time>
      </trkpt>
      <trkpt lat="44.80146" lon="5.47701">
        <ele>1648.8</ele>
        <time>2012-11-18T09:23:37Z</time>
      </trkpt>
      <trkpt lat="44.80148" lon="5.47701">
        <ele>1648.32</ele>
        <time>2012-11-18T09:23:52Z</time>
      </trkpt>
      <trkpt lat="44.80155" lon="5.47699">
        <ele>1645.91</ele>
        <time>2012-11-18T09:23:59Z</time>
      </trkpt>
      <trkpt lat="44.80157" lon="5.47699">
        <ele>1645.43</ele>
        <time>2012-11-18T09:24:01Z</time>
      </trkpt>
      <trkpt lat="44.80165" lon="5.47697">
        <ele>1643.03</ele>
        <time>2012-11-18T09:24:10Z</time>
      </trkpt>
      <trkpt lat="44.80168" lon="5.47693">
        <ele>1642.07</ele>
        <time>2012-11-18T09:24:14Z</time>
      </trkpt>
      <trkpt lat="44.80175" lon="5.4769">
        <ele>1639.67</ele>
        <time>2012-11-18T09:24:21Z</time>
      </trkpt>
      <trkpt lat="44.80178" lon="5.47689">
        <ele>1639.67</ele>
        <time>2012-11-18T09:24:23Z</time>
      </trkpt>
      <trkpt lat="44.80182" lon="5.47685">
        <ele>1638.22</ele>
        <time>2012-11-18T09:24:27Z</time>
      </trkpt>
      <trkpt lat="44.80187" lon="5.47681">
        <ele>1637.26</ele>
        <time>2012-11-18T09:24:32Z</time>
      </trkpt>
      <trkpt lat="44.802" lon="5.47679">
        <ele>1635.82</ele>
        <time>2012-11-18T09:24:43Z</time>
      </trkpt>
      <trkpt lat="44.80204" lon="5.47677">
        <ele>1636.3</ele>
        <time>2012-11-18T09:24:47Z</time>
      </trkpt>
      <trkpt lat="44.80209" lon="5.47675">
        <ele>1635.82</ele>
        <time>2012-11-18T09:24:51Z</time>
      </trkpt>
      <trkpt lat="44.80214" lon="5.4767">
        <ele>1635.82</ele>
        <time>2012-11-18T09:24:57Z</time>
      </trkpt>
      <trkpt lat="44.80221" lon="5.4766">
        <ele>1633.42</ele>
        <time>2012-11-18T09:25:09Z</time>
      </trkpt>
      <trkpt lat="44.80225" lon="5.4766">
        <ele>1631.98</ele>
        <time>2012-11-18T09:25:14Z</time>
      </trkpt>
      <trkpt lat="44.8023" lon="5.4766">
        <ele>1631.01</ele>
        <time>2012-11-18T09:25:19Z</time>
      </trkpt>
      <trkpt lat="44.80232" lon="5.47659">
        <ele>1630.53</ele>
        <time>2012-11-18T09:25:21Z</time>
      </trkpt>
      <trkpt lat="44.80235" lon="5.47655">
        <ele>1629.09</ele>
        <time>2012-11-18T09:25:24Z</time>
      </trkpt>
      <trkpt lat="44.8024" lon="5.47653">
        <ele>1627.65</ele>
        <time>2012-11-18T09:25:29Z</time>
      </trkpt>
      <trkpt lat="44.80245" lon="5.47651">
        <ele>1625.73</ele>
        <time>2012-11-18T09:25:33Z</time>
      </trkpt>
      <trkpt lat="44.80247" lon="5.47649">
        <ele>1625.25</ele>
        <time>2012-11-18T09:25:36Z</time>
      </trkpt>
      <trkpt lat="44.8025" lon="5.47646">
        <ele>1624.77</ele>
        <time>2012-11-18T09:25:39Z</time>
      </trkpt>
      <trkpt lat="44.80267" lon="5.47642">
        <ele>1622.84</ele>
        <time>2012-11-18T09:25:52Z</time>
      </trkpt>
      <trkpt lat="44.80277" lon="5.47634">
        <ele>1622.36</ele>
        <time>2012-11-18T09:26:01Z</time>
      </trkpt>
      <trkpt lat="44.80283" lon="5.4763">
        <ele>1621.88</ele>
        <time>2012-11-18T09:26:07Z</time>
      </trkpt>
      <trkpt lat="44.80288" lon="5.47625">
        <ele>1621.4</ele>
        <time>2012-11-18T09:26:12Z</time>
      </trkpt>
      <trkpt lat="44.80292" lon="5.47623">
        <ele>1620.92</ele>
        <time>2012-11-18T09:26:16Z</time>
      </trkpt>
      <trkpt lat="44.80303" lon="5.47623">
        <ele>1619.96</ele>
        <time>2012-11-18T09:26:23Z</time>
      </trkpt>
      <trkpt lat="44.80316" lon="5.47625">
        <ele>1618.52</ele>
        <time>2012-11-18T09:26:33Z</time>
      </trkpt>
      <trkpt lat="44.80324" lon="5.47619">
        <ele>1618.52</ele>
        <time>2012-11-18T09:26:41Z</time>
      </trkpt>
      <trkpt lat="44.8033" lon="5.47617">
        <ele>1617.56</ele>
        <time>2012-11-18T09:26:46Z</time>
      </trkpt>
      <trkpt lat="44.80343" lon="5.47613">
        <ele>1615.63</ele>
        <time>2012-11-18T09:26:57Z</time>
      </trkpt>
      <trkpt lat="44.80355" lon="5.4761">
        <ele>1614.19</ele>
        <time>2012-11-18T09:27:06Z</time>
      </trkpt>
      <trkpt lat="44.80368" lon="5.47598">
        <ele>1612.27</ele>
        <time>2012-11-18T09:27:20Z</time>
      </trkpt>
      <trkpt lat="44.8039" lon="5.47597">
        <ele>1610.83</ele>
        <time>2012-11-18T09:27:37Z</time>
      </trkpt>
      <trkpt lat="44.80409" lon="5.47608">
        <ele>1610.83</ele>
        <time>2012-11-18T09:27:52Z</time>
      </trkpt>
      <trkpt lat="44.80423" lon="5.47623">
        <ele>1609.86</ele>
        <time>2012-11-18T09:28:05Z</time>
      </trkpt>
      <trkpt lat="44.80431" lon="5.4763">
        <ele>1608.42</ele>
        <time>2012-11-18T09:28:12Z</time>
      </trkpt>
      <trkpt lat="44.80445" lon="5.4764">
        <ele>1607.94</ele>
        <time>2012-11-18T09:28:26Z</time>
      </trkpt>
      <trkpt lat="44.80461" lon="5.47643">
        <ele>1608.9</ele>
        <time>2012-11-18T09:28:38Z</time>
      </trkpt>
      <trkpt lat="44.80466" lon="5.47646">
        <ele>1609.38</ele>
        <time>2012-11-18T09:28:42Z</time>
      </trkpt>
      <trkpt lat="44.8047" lon="5.47647">
        <ele>1610.35</ele>
        <time>2012-11-18T09:28:46Z</time>
      </trkpt>
      <trkpt lat="44.80484" lon="5.47639">
        <ele>1611.79</ele>
        <time>2012-11-18T09:28:59Z</time>
      </trkpt>
      <trkpt lat="44.8049" lon="5.47632">
        <ele>1613.71</ele>
        <time>2012-11-18T09:29:06Z</time>
      </trkpt>
      <trkpt lat="44.80501" lon="5.47624">
        <ele>1616.59</ele>
        <time>2012-11-18T09:29:19Z</time>
      </trkpt>
      <trkpt lat="44.80505" lon="5.47624">
        <ele>1617.56</ele>
        <time>2012-11-18T09:29:34Z</time>
      </trkpt>
      <trkpt lat="44.80509" lon="5.47625">
        <ele>1618.04</ele>
        <time>2012-11-18T09:29:48Z</time>
      </trkpt>
      <trkpt lat="44.80512" lon="5.47626">
        <ele>1619</ele>
        <time>2012-11-18T09:29:51Z</time>
      </trkpt>
      <trkpt lat="44.80522" lon="5.47625">
        <ele>1619.96</ele>
        <time>2012-11-18T09:30:00Z</time>
      </trkpt>
      <trkpt lat="44.80533" lon="5.47618">
        <ele>1621.88</ele>
        <time>2012-11-18T09:30:13Z</time>
      </trkpt>
      <trkpt lat="44.80536" lon="5.47616">
        <ele>1622.84</ele>
        <time>2012-11-18T09:30:16Z</time>
      </trkpt>
      <trkpt lat="44.80548" lon="5.47618">
        <ele>1623.32</ele>
        <time>2012-11-18T09:30:28Z</time>
      </trkpt>
      <trkpt lat="44.80558" lon="5.47619">
        <ele>1624.77</ele>
        <time>2012-11-18T09:30:37Z</time>
      </trkpt>
      <trkpt lat="44.80564" lon="5.47619">
        <ele>1625.25</ele>
        <time>2012-11-18T09:30:42Z</time>
      </trkpt>
      <trkpt lat="44.80571" lon="5.47615">
        <ele>1623.8</ele>
        <time>2012-11-18T09:30:57Z</time>
      </trkpt>
      <trkpt lat="44.80571" lon="5.47615">
        <ele>1624.28</ele>
        <time>2012-11-18T09:31:03Z</time>
      </trkpt>
      <trkpt lat="44.80576" lon="5.47614">
        <ele>1623.32</ele>
        <time>2012-11-18T09:31:15Z</time>
      </trkpt>
      <trkpt lat="44.80579" lon="5.47616">
        <ele>1623.32</ele>
        <time>2012-11-18T09:31:33Z</time>
      </trkpt>
      <trkpt lat="44.80588" lon="5.47616">
        <ele>1623.32</ele>
        <time>2012-11-18T09:31:39Z</time>
      </trkpt>
      <trkpt lat="44.80598" lon="5.47619">
        <ele>1622.84</ele>
        <time>2012-11-18T09:31:46Z</time>
      </trkpt>
      <trkpt lat="44.80613" lon="5.47622">
        <ele>1622.84</ele>
        <time>2012-11-18T09:32:02Z</time>
      </trkpt>
      <trkpt lat="44.80615" lon="5.47623">
        <ele>1623.32</ele>
        <time>2012-11-18T09:32:33Z</time>
      </trkpt>
      <trkpt lat="44.80617" lon="5.47625">
        <ele>1623.32</ele>
        <time>2012-11-18T09:32:47Z</time>
      </trkpt>
      <trkpt lat="44.80621" lon="5.47629">
        <ele>1622.84</ele>
        <time>2012-11-18T09:32:55Z</time>
      </trkpt>
      <trkpt lat="44.80634" lon="5.47633">
        <ele>1621.88</ele>
        <time>2012-11-18T09:33:07Z</time>
      </trkpt>
      <trkpt lat="44.80643" lon="5.47633">
        <ele>1621.88</ele>
        <time>2012-11-18T09:33:15Z</time>
      </trkpt>
      <trkpt lat="44.80644" lon="5.47631">
        <ele>1621.4</ele>
        <time>2012-11-18T09:33:17Z</time>
      </trkpt>
      <trkpt lat="44.80651" lon="5.4762">
        <ele>1620.44</ele>
        <time>2012-11-18T09:33:26Z</time>
      </trkpt>
      <trkpt lat="44.80662" lon="5.47606">
        <ele>1616.59</ele>
        <time>2012-11-18T09:33:38Z</time>
      </trkpt>
      <trkpt lat="44.80669" lon="5.47598">
        <ele>1615.63</ele>
        <time>2012-11-18T09:33:50Z</time>
      </trkpt>
      <trkpt lat="44.80673" lon="5.47595">
        <ele>1615.15</ele>
        <time>2012-11-18T09:33:54Z</time>
      </trkpt>
      <trkpt lat="44.80685" lon="5.47589">
        <ele>1612.27</ele>
        <time>2012-11-18T09:34:05Z</time>
      </trkpt>
      <trkpt lat="44.80685" lon="5.47591">
        <ele>1612.27</ele>
        <time>2012-11-18T09:34:20Z</time>
      </trkpt>
      <trkpt lat="44.80686" lon="5.47593">
        <ele>1612.27</ele>
        <time>2012-11-18T09:36:14Z</time>
      </trkpt>
      <trkpt lat="44.8069" lon="5.47594">
        <ele>1611.31</ele>
        <time>2012-11-18T09:36:25Z</time>
      </trkpt>
      <trkpt lat="44.8069" lon="5.47594">
        <ele>1611.79</ele>
        <time>2012-11-18T09:36:57Z</time>
      </trkpt>
      <trkpt lat="44.80691" lon="5.47594">
        <ele>1611.31</ele>
        <time>2012-11-18T09:37:36Z</time>
      </trkpt>
      <trkpt lat="44.80694" lon="5.47592">
        <ele>1611.31</ele>
        <time>2012-11-18T09:37:40Z</time>
      </trkpt>
      <trkpt lat="44.80697" lon="5.4759">
        <ele>1611.31</ele>
        <time>2012-11-18T09:37:43Z</time>
      </trkpt>
      <trkpt lat="44.80704" lon="5.47588">
        <ele>1611.79</ele>
        <time>2012-11-18T09:37:49Z</time>
      </trkpt>
      <trkpt lat="44.80707" lon="5.47585">
        <ele>1611.79</ele>
        <time>2012-11-18T09:37:53Z</time>
      </trkpt>
      <trkpt lat="44.80722" lon="5.47581">
        <ele>1611.79</ele>
        <time>2012-11-18T09:38:07Z</time>
      </trkpt>
      <trkpt lat="44.80736" lon="5.47578">
        <ele>1612.27</ele>
        <time>2012-11-18T09:38:20Z</time>
      </trkpt>
      <trkpt lat="44.80752" lon="5.47574">
        <ele>1612.75</ele>
        <time>2012-11-18T09:38:33Z</time>
      </trkpt>
      <trkpt lat="44.80753" lon="5.47573">
        <ele>1613.23</ele>
        <time>2012-11-18T09:38:34Z</time>
      </trkpt>
      <trkpt lat="44.80765" lon="5.47571">
        <ele>1615.15</ele>
        <time>2012-11-18T09:38:48Z</time>
      </trkpt>
      <trkpt lat="44.80772" lon="5.47569">
        <ele>1615.63</ele>
        <time>2012-11-18T09:38:54Z</time>
      </trkpt>
      <trkpt lat="44.80787" lon="5.47571">
        <ele>1617.56</ele>
        <time>2012-11-18T09:39:07Z</time>
      </trkpt>
      <trkpt lat="44.80793" lon="5.47572">
        <ele>1618.04</ele>
        <time>2012-11-18T09:39:12Z</time>
      </trkpt>
      <trkpt lat="44.80805" lon="5.47581">
        <ele>1619.96</ele>
        <time>2012-11-18T09:39:24Z</time>
      </trkpt>
      <trkpt lat="44.80815" lon="5.47585">
        <ele>1621.4</ele>
        <time>2012-11-18T09:39:36Z</time>
      </trkpt>
      <trkpt lat="44.80821" lon="5.47587">
        <ele>1622.36</ele>
        <time>2012-11-18T09:39:42Z</time>
      </trkpt>
      <trkpt lat="44.80826" lon="5.47585">
        <ele>1622.84</ele>
        <time>2012-11-18T09:39:46Z</time>
      </trkpt>
      <trkpt lat="44.80838" lon="5.47583">
        <ele>1625.25</ele>
        <time>2012-11-18T09:39:59Z</time>
      </trkpt>
      <trkpt lat="44.8084" lon="5.47582">
        <ele>1625.73</ele>
        <time>2012-11-18T09:40:01Z</time>
      </trkpt>
      <trkpt lat="44.80848" lon="5.47586">
        <ele>1627.17</ele>
        <time>2012-11-18T09:40:12Z</time>
      </trkpt>
      <trkpt lat="44.80853" lon="5.47588">
        <ele>1629.09</ele>
        <time>2012-11-18T09:40:19Z</time>
      </trkpt>
      <trkpt lat="44.80857" lon="5.47592">
        <ele>1631.01</ele>
        <time>2012-11-18T09:40:29Z</time>
      </trkpt>
      <trkpt lat="44.80867" lon="5.47595">
        <ele>1632.46</ele>
        <time>2012-11-18T09:40:39Z</time>
      </trkpt>
      <trkpt lat="44.80873" lon="5.47597">
        <ele>1634.38</ele>
        <time>2012-11-18T09:40:50Z</time>
      </trkpt>
      <trkpt lat="44.80886" lon="5.47601">
        <ele>1636.3</ele>
        <time>2012-11-18T09:41:02Z</time>
      </trkpt>
      <trkpt lat="44.80899" lon="5.47605">
        <ele>1638.22</ele>
        <time>2012-11-18T09:41:16Z</time>
      </trkpt>
      <trkpt lat="44.80907" lon="5.47607">
        <ele>1639.67</ele>
        <time>2012-11-18T09:41:23Z</time>
      </trkpt>
      <trkpt lat="44.80918" lon="5.47608">
        <ele>1642.55</ele>
        <time>2012-11-18T09:41:36Z</time>
      </trkpt>
      <trkpt lat="44.80921" lon="5.47609">
        <ele>1643.03</ele>
        <time>2012-11-18T09:41:39Z</time>
      </trkpt>
      <trkpt lat="44.80926" lon="5.47612">
        <ele>1643.99</ele>
        <time>2012-11-18T09:41:44Z</time>
      </trkpt>
      <trkpt lat="44.80936" lon="5.47613">
        <ele>1645.43</ele>
        <time>2012-11-18T09:41:55Z</time>
      </trkpt>
      <trkpt lat="44.80938" lon="5.47612">
        <ele>1645.91</ele>
        <time>2012-11-18T09:41:57Z</time>
      </trkpt>
      <trkpt lat="44.80941" lon="5.47613">
        <ele>1646.88</ele>
        <time>2012-11-18T09:42:00Z</time>
      </trkpt>
      <trkpt lat="44.80945" lon="5.47613">
        <ele>1647.36</ele>
        <time>2012-11-18T09:42:04Z</time>
      </trkpt>
      <trkpt lat="44.80961" lon="5.4761">
        <ele>1648.8</ele>
        <time>2012-11-18T09:42:18Z</time>
      </trkpt>
      <trkpt lat="44.80964" lon="5.4761">
        <ele>1648.8</ele>
        <time>2012-11-18T09:42:21Z</time>
      </trkpt>
      <trkpt lat="44.80968" lon="5.47611">
        <ele>1649.28</ele>
        <time>2012-11-18T09:42:24Z</time>
      </trkpt>
      <trkpt lat="44.80979" lon="5.47612">
        <ele>1649.76</ele>
        <time>2012-11-18T09:42:33Z</time>
      </trkpt>
      <trkpt lat="44.80995" lon="5.47611">
        <ele>1649.76</ele>
        <time>2012-11-18T09:42:47Z</time>
      </trkpt>
      <trkpt lat="44.81013" lon="5.47609">
        <ele>1650.24</ele>
        <time>2012-11-18T09:43:02Z</time>
      </trkpt>
      <trkpt lat="44.81025" lon="5.47613">
        <ele>1650.24</ele>
        <time>2012-11-18T09:43:13Z</time>
      </trkpt>
      <trkpt lat="44.81037" lon="5.47616">
        <ele>1650.72</ele>
        <time>2012-11-18T09:43:25Z</time>
      </trkpt>
      <trkpt lat="44.81044" lon="5.47613">
        <ele>1651.68</ele>
        <time>2012-11-18T09:43:31Z</time>
      </trkpt>
      <trkpt lat="44.81048" lon="5.47608">
        <ele>1652.16</ele>
        <time>2012-11-18T09:43:35Z</time>
      </trkpt>
      <trkpt lat="44.8105" lon="5.47607">
        <ele>1652.64</ele>
        <time>2012-11-18T09:43:37Z</time>
      </trkpt>
      <trkpt lat="44.81059" lon="5.47608">
        <ele>1652.64</ele>
        <time>2012-11-18T09:43:45Z</time>
      </trkpt>
      <trkpt lat="44.81065" lon="5.4761">
        <ele>1653.12</ele>
        <time>2012-11-18T09:43:50Z</time>
      </trkpt>
      <trkpt lat="44.81068" lon="5.47607">
        <ele>1653.12</ele>
        <time>2012-11-18T09:44:10Z</time>
      </trkpt>
      <trkpt lat="44.81076" lon="5.47598">
        <ele>1652.16</ele>
        <time>2012-11-18T09:44:24Z</time>
      </trkpt>
      <trkpt lat="44.81091" lon="5.47593">
        <ele>1653.12</ele>
        <time>2012-11-18T09:44:38Z</time>
      </trkpt>
      <trkpt lat="44.81101" lon="5.47594">
        <ele>1653.12</ele>
        <time>2012-11-18T09:44:46Z</time>
      </trkpt>
      <trkpt lat="44.81107" lon="5.47597">
        <ele>1652.64</ele>
        <time>2012-11-18T09:44:51Z</time>
      </trkpt>
      <trkpt lat="44.81109" lon="5.47597">
        <ele>1652.64</ele>
        <time>2012-11-18T09:44:53Z</time>
      </trkpt>
      <trkpt lat="44.81112" lon="5.47598">
        <ele>1651.68</ele>
        <time>2012-11-18T09:44:55Z</time>
      </trkpt>
      <trkpt lat="44.81117" lon="5.47595">
        <ele>1649.76</ele>
        <time>2012-11-18T09:44:59Z</time>
      </trkpt>
      <trkpt lat="44.81139" lon="5.47599">
        <ele>1648.32</ele>
        <time>2012-11-18T09:45:16Z</time>
      </trkpt>
      <trkpt lat="44.81149" lon="5.47612">
        <ele>1646.88</ele>
        <time>2012-11-18T09:45:28Z</time>
      </trkpt>
      <trkpt lat="44.81158" lon="5.47629">
        <ele>1647.36</ele>
        <time>2012-11-18T09:45:39Z</time>
      </trkpt>
      <trkpt lat="44.8117" lon="5.47649">
        <ele>1647.84</ele>
        <time>2012-11-18T09:45:54Z</time>
      </trkpt>
      <trkpt lat="44.81182" lon="5.47668">
        <ele>1646.88</ele>
        <time>2012-11-18T09:46:07Z</time>
      </trkpt>
      <trkpt lat="44.81185" lon="5.47673">
        <ele>1646.88</ele>
        <time>2012-11-18T09:46:11Z</time>
      </trkpt>
      <trkpt lat="44.81188" lon="5.47673">
        <ele>1647.84</ele>
        <time>2012-11-18T09:46:15Z</time>
      </trkpt>
      <trkpt lat="44.81191" lon="5.4767">
        <ele>1648.32</ele>
        <time>2012-11-18T09:46:19Z</time>
      </trkpt>
      <trkpt lat="44.81204" lon="5.47658">
        <ele>1647.36</ele>
        <time>2012-11-18T09:46:33Z</time>
      </trkpt>
      <trkpt lat="44.81218" lon="5.47656">
        <ele>1647.84</ele>
        <time>2012-11-18T09:46:45Z</time>
      </trkpt>
      <trkpt lat="44.81231" lon="5.47664">
        <ele>1646.88</ele>
        <time>2012-11-18T09:46:59Z</time>
      </trkpt>
      <trkpt lat="44.81229" lon="5.47659">
        <ele>1646.88</ele>
        <time>2012-11-18T09:47:19Z</time>
      </trkpt>
      <trkpt lat="44.81227" lon="5.47656">
        <ele>1646.88</ele>
        <time>2012-11-18T09:47:48Z</time>
      </trkpt>
      <trkpt lat="44.81227" lon="5.47658">
        <ele>1646.88</ele>
        <time>2012-11-18T09:48:01Z</time>
      </trkpt>
      <trkpt lat="44.81228" lon="5.47659">
        <ele>1646.4</ele>
        <time>2012-11-18T09:48:20Z</time>
      </trkpt>
      <trkpt lat="44.81228" lon="5.47662">
        <ele>1646.88</ele>
        <time>2012-11-18T09:48:27Z</time>
      </trkpt>
      <trkpt lat="44.81233" lon="5.47662">
        <ele>1646.88</ele>
        <time>2012-11-18T09:48:42Z</time>
      </trkpt>
      <trkpt lat="44.81234" lon="5.47662">
        <ele>1646.4</ele>
        <time>2012-11-18T09:49:13Z</time>
      </trkpt>
      <trkpt lat="44.81232" lon="5.47665">
        <ele>1646.4</ele>
        <time>2012-11-18T09:49:28Z</time>
      </trkpt>
      <trkpt lat="44.81231" lon="5.47665">
        <ele>1646.88</ele>
        <time>2012-11-18T09:49:41Z</time>
      </trkpt>
      <trkpt lat="44.81232" lon="5.47665">
        <ele>1646.88</ele>
        <time>2012-11-18T09:50:24Z</time>
      </trkpt>
      <trkpt lat="44.81233" lon="5.47664">
        <ele>1646.88</ele>
        <time>2012-11-18T09:50:59Z</time>
      </trkpt>
      <trkpt lat="44.81233" lon="5.47665">
        <ele>1646.4</ele>
        <time>2012-11-18T09:51:00Z</time>
      </trkpt>
      <trkpt lat="44.81236" lon="5.47676">
        <ele>1646.88</ele>
        <time>2012-11-18T09:51:07Z</time>
      </trkpt>
      <trkpt lat="44.81247" lon="5.47686">
        <ele>1646.88</ele>
        <time>2012-11-18T09:51:18Z</time>
      </trkpt>
      <trkpt lat="44.81256" lon="5.47697">
        <ele>1646.88</ele>
        <time>2012-11-18T09:51:27Z</time>
      </trkpt>
      <trkpt lat="44.81268" lon="5.47709">
        <ele>1648.8</ele>
        <time>2012-11-18T09:51:40Z</time>
      </trkpt>
      <trkpt lat="44.8127" lon="5.47711">
        <ele>1648.8</ele>
        <time>2012-11-18T09:51:42Z</time>
      </trkpt>
      <trkpt lat="44.81279" lon="5.4771">
        <ele>1649.28</ele>
        <time>2012-11-18T09:51:49Z</time>
      </trkpt>
      <trkpt lat="44.8129" lon="5.47711">
        <ele>1650.72</ele>
        <time>2012-11-18T09:51:59Z</time>
      </trkpt>
      <trkpt lat="44.81308" lon="5.47722">
        <ele>1650.72</ele>
        <time>2012-11-18T09:52:15Z</time>
      </trkpt>
      <trkpt lat="44.81311" lon="5.47723">
        <ele>1650.72</ele>
        <time>2012-11-18T09:52:17Z</time>
      </trkpt>
      <trkpt lat="44.81327" lon="5.47732">
        <ele>1650.24</ele>
        <time>2012-11-18T09:52:30Z</time>
      </trkpt>
      <trkpt lat="44.81329" lon="5.47732">
        <ele>1649.76</ele>
        <time>2012-11-18T09:52:32Z</time>
      </trkpt>
      <trkpt lat="44.81333" lon="5.47731">
        <ele>1650.24</ele>
        <time>2012-11-18T09:52:35Z</time>
      </trkpt>
      <trkpt lat="44.81338" lon="5.4773">
        <ele>1651.68</ele>
        <time>2012-11-18T09:52:40Z</time>
      </trkpt>
      <trkpt lat="44.81348" lon="5.47732">
        <ele>1653.12</ele>
        <time>2012-11-18T09:52:50Z</time>
      </trkpt>
      <trkpt lat="44.81361" lon="5.47731">
        <ele>1652.64</ele>
        <time>2012-11-18T09:53:00Z</time>
      </trkpt>
      <trkpt lat="44.81374" lon="5.47727">
        <ele>1654.57</ele>
        <time>2012-11-18T09:53:12Z</time>
      </trkpt>
      <trkpt lat="44.81376" lon="5.47726">
        <ele>1655.05</ele>
        <time>2012-11-18T09:53:14Z</time>
      </trkpt>
      <trkpt lat="44.81382" lon="5.47726">
        <ele>1656.49</ele>
        <time>2012-11-18T09:53:20Z</time>
      </trkpt>
      <trkpt lat="44.81384" lon="5.47725">
        <ele>1656.97</ele>
        <time>2012-11-18T09:53:22Z</time>
      </trkpt>
      <trkpt lat="44.81389" lon="5.47723">
        <ele>1658.41</ele>
        <time>2012-11-18T09:53:28Z</time>
      </trkpt>
      <trkpt lat="44.81393" lon="5.47719">
        <ele>1658.89</ele>
        <time>2012-11-18T09:53:33Z</time>
      </trkpt>
      <trkpt lat="44.81402" lon="5.47719">
        <ele>1660.33</ele>
        <time>2012-11-18T09:53:44Z</time>
      </trkpt>
      <trkpt lat="44.81406" lon="5.47711">
        <ele>1661.78</ele>
        <time>2012-11-18T09:53:54Z</time>
      </trkpt>
      <trkpt lat="44.81406" lon="5.4771">
        <ele>1662.26</ele>
        <time>2012-11-18T09:54:11Z</time>
      </trkpt>
      <trkpt lat="44.81407" lon="5.47713">
        <ele>1662.26</ele>
        <time>2012-11-18T09:54:28Z</time>
      </trkpt>
      <trkpt lat="44.81406" lon="5.47712">
        <ele>1661.78</ele>
        <time>2012-11-18T09:54:57Z</time>
      </trkpt>
      <trkpt lat="44.81406" lon="5.47713">
        <ele>1661.3</ele>
        <time>2012-11-18T09:55:08Z</time>
      </trkpt>
      <trkpt lat="44.81411" lon="5.47718">
        <ele>1662.74</ele>
        <time>2012-11-18T09:55:18Z</time>
      </trkpt>
      <trkpt lat="44.8141" lon="5.47714">
        <ele>1661.78</ele>
        <time>2012-11-18T09:55:31Z</time>
      </trkpt>
      <trkpt lat="44.8141" lon="5.4772">
        <ele>1661.78</ele>
        <time>2012-11-18T09:55:59Z</time>
      </trkpt>
      <trkpt lat="44.81412" lon="5.47719">
        <ele>1661.78</ele>
        <time>2012-11-18T09:56:03Z</time>
      </trkpt>
      <trkpt lat="44.81417" lon="5.47719">
        <ele>1662.26</ele>
        <time>2012-11-18T09:56:10Z</time>
      </trkpt>
      <trkpt lat="44.81425" lon="5.47714">
        <ele>1662.26</ele>
        <time>2012-11-18T09:56:21Z</time>
      </trkpt>
      <trkpt lat="44.81427" lon="5.47712">
        <ele>1662.74</ele>
        <time>2012-11-18T09:56:25Z</time>
      </trkpt>
      <trkpt lat="44.81436" lon="5.47711">
        <ele>1663.7</ele>
        <time>2012-11-18T09:56:36Z</time>
      </trkpt>
      <trkpt lat="44.8144" lon="5.4771">
        <ele>1663.7</ele>
        <time>2012-11-18T09:56:40Z</time>
      </trkpt>
      <trkpt lat="44.81451" lon="5.47712">
        <ele>1664.66</ele>
        <time>2012-11-18T09:56:52Z</time>
      </trkpt>
      <trkpt lat="44.81462" lon="5.47712">
        <ele>1666.1</ele>
        <time>2012-11-18T09:57:04Z</time>
      </trkpt>
      <trkpt lat="44.81467" lon="5.47712">
        <ele>1666.1</ele>
        <time>2012-11-18T09:57:10Z</time>
      </trkpt>
      <trkpt lat="44.81468" lon="5.47713">
        <ele>1666.1</ele>
        <time>2012-11-18T09:57:12Z</time>
      </trkpt>
      <trkpt lat="44.81473" lon="5.47713">
        <ele>1666.58</ele>
        <time>2012-11-18T09:57:17Z</time>
      </trkpt>
      <trkpt lat="44.81479" lon="5.47714">
        <ele>1667.06</ele>
        <time>2012-11-18T09:57:23Z</time>
      </trkpt>
      <trkpt lat="44.81489" lon="5.47717">
        <ele>1667.06</ele>
        <time>2012-11-18T09:57:34Z</time>
      </trkpt>
      <trkpt lat="44.81493" lon="5.47717">
        <ele>1667.54</ele>
        <time>2012-11-18T09:57:38Z</time>
      </trkpt>
      <trkpt lat="44.81506" lon="5.47713">
        <ele>1668.02</ele>
        <time>2012-11-18T09:57:52Z</time>
      </trkpt>
      <trkpt lat="44.81509" lon="5.47712">
        <ele>1668.02</ele>
        <time>2012-11-18T09:57:55Z</time>
      </trkpt>
      <trkpt lat="44.81511" lon="5.47713">
        <ele>1668.02</ele>
        <time>2012-11-18T09:57:57Z</time>
      </trkpt>
      <trkpt lat="44.81524" lon="5.47708">
        <ele>1667.54</ele>
        <time>2012-11-18T09:58:10Z</time>
      </trkpt>
      <trkpt lat="44.81535" lon="5.47705">
        <ele>1667.54</ele>
        <time>2012-11-18T09:58:20Z</time>
      </trkpt>
      <trkpt lat="44.81544" lon="5.47704">
        <ele>1666.58</ele>
        <time>2012-11-18T09:58:29Z</time>
      </trkpt>
      <trkpt lat="44.81548" lon="5.47706">
        <ele>1666.1</ele>
        <time>2012-11-18T09:58:34Z</time>
      </trkpt>
      <trkpt lat="44.81555" lon="5.47707">
        <ele>1665.14</ele>
        <time>2012-11-18T09:58:41Z</time>
      </trkpt>
      <trkpt lat="44.8157" lon="5.47723">
        <ele>1665.14</ele>
        <time>2012-11-18T09:58:57Z</time>
      </trkpt>
      <trkpt lat="44.81573" lon="5.47727">
        <ele>1665.14</ele>
        <time>2012-11-18T09:59:00Z</time>
      </trkpt>
      <trkpt lat="44.81583" lon="5.47734">
        <ele>1666.1</ele>
        <time>2012-11-18T09:59:10Z</time>
      </trkpt>
      <trkpt lat="44.81597" lon="5.47746">
        <ele>1667.06</ele>
        <time>2012-11-18T09:59:23Z</time>
      </trkpt>
      <trkpt lat="44.8161" lon="5.47761">
        <ele>1668.02</ele>
        <time>2012-11-18T09:59:37Z</time>
      </trkpt>
      <trkpt lat="44.81611" lon="5.47767">
        <ele>1668.51</ele>
        <time>2012-11-18T09:59:43Z</time>
      </trkpt>
      <trkpt lat="44.81613" lon="5.47775">
        <ele>1669.47</ele>
        <time>2012-11-18T09:59:49Z</time>
      </trkpt>
      <trkpt lat="44.81617" lon="5.47789">
        <ele>1671.87</ele>
        <time>2012-11-18T10:00:00Z</time>
      </trkpt>
      <trkpt lat="44.81619" lon="5.47799">
        <ele>1672.35</ele>
        <time>2012-11-18T10:00:08Z</time>
      </trkpt>
      <trkpt lat="44.81625" lon="5.47821">
        <ele>1671.87</ele>
        <time>2012-11-18T10:00:23Z</time>
      </trkpt>
      <trkpt lat="44.81635" lon="5.47834">
        <ele>1672.35</ele>
        <time>2012-11-18T10:00:33Z</time>
      </trkpt>
      <trkpt lat="44.81639" lon="5.47836">
        <ele>1671.87</ele>
        <time>2012-11-18T10:00:37Z</time>
      </trkpt>
      <trkpt lat="44.81645" lon="5.47837">
        <ele>1671.39</ele>
        <time>2012-11-18T10:00:42Z</time>
      </trkpt>
      <trkpt lat="44.81656" lon="5.47841">
        <ele>1669.95</ele>
        <time>2012-11-18T10:00:54Z</time>
      </trkpt>
      <trkpt lat="44.81661" lon="5.47845">
        <ele>1669.47</ele>
        <time>2012-11-18T10:01:06Z</time>
      </trkpt>
      <trkpt lat="44.81662" lon="5.47844">
        <ele>1670.43</ele>
        <time>2012-11-18T10:01:22Z</time>
      </trkpt>
      <trkpt lat="44.81662" lon="5.47845">
        <ele>1669.95</ele>
        <time>2012-11-18T10:01:41Z</time>
      </trkpt>
      <trkpt lat="44.81674" lon="5.4786">
        <ele>1669.47</ele>
        <time>2012-11-18T10:01:54Z</time>
      </trkpt>
      <trkpt lat="44.81685" lon="5.47876">
        <ele>1670.91</ele>
        <time>2012-11-18T10:02:07Z</time>
      </trkpt>
      <trkpt lat="44.81687" lon="5.47877">
        <ele>1671.39</ele>
        <time>2012-11-18T10:02:09Z</time>
      </trkpt>
      <trkpt lat="44.81693" lon="5.47882">
        <ele>1671.87</ele>
        <time>2012-11-18T10:02:16Z</time>
      </trkpt>
      <trkpt lat="44.81697" lon="5.47889">
        <ele>1672.35</ele>
        <time>2012-11-18T10:02:21Z</time>
      </trkpt>
      <trkpt lat="44.81708" lon="5.47903">
        <ele>1673.31</ele>
        <time>2012-11-18T10:02:33Z</time>
      </trkpt>
      <trkpt lat="44.81716" lon="5.4791">
        <ele>1673.31</ele>
        <time>2012-11-18T10:02:41Z</time>
      </trkpt>
      <trkpt lat="44.8173" lon="5.47923">
        <ele>1672.83</ele>
        <time>2012-11-18T10:02:54Z</time>
      </trkpt>
      <trkpt lat="44.81745" lon="5.47934">
        <ele>1672.35</ele>
        <time>2012-11-18T10:03:08Z</time>
      </trkpt>
      <trkpt lat="44.81758" lon="5.47947">
        <ele>1670.43</ele>
        <time>2012-11-18T10:03:20Z</time>
      </trkpt>
      <trkpt lat="44.81767" lon="5.47962">
        <ele>1671.87</ele>
        <time>2012-11-18T10:03:32Z</time>
      </trkpt>
      <trkpt lat="44.81773" lon="5.47969">
        <ele>1672.83</ele>
        <time>2012-11-18T10:03:44Z</time>
      </trkpt>
      <trkpt lat="44.81773" lon="5.47967">
        <ele>1668.02</ele>
        <time>2012-11-18T10:06:02Z</time>
      </trkpt>
      <trkpt lat="44.81773" lon="5.47967">
        <ele>1671.87</ele>
        <time>2012-11-18T10:06:03Z</time>
      </trkpt>
      <trkpt lat="44.81773" lon="5.47967">
        <ele>1673.79</ele>
        <time>2012-11-18T10:06:10Z</time>
      </trkpt>
      <trkpt lat="44.81773" lon="5.47967">
        <ele>1672.83</ele>
        <time>2012-11-18T10:06:30Z</time>
      </trkpt>
      <trkpt lat="44.81775" lon="5.47969">
        <ele>1672.35</ele>
        <time>2012-11-18T10:09:15Z</time>
      </trkpt>
      <trkpt lat="44.81786" lon="5.47978">
        <ele>1670.91</ele>
        <time>2012-11-18T10:09:26Z</time>
      </trkpt>
      <trkpt lat="44.81801" lon="5.4799">
        <ele>1668.99</ele>
        <time>2012-11-18T10:09:40Z</time>
      </trkpt>
      <trkpt lat="44.81812" lon="5.48012">
        <ele>1668.02</ele>
        <time>2012-11-18T10:09:53Z</time>
      </trkpt>
      <trkpt lat="44.81815" lon="5.48017">
        <ele>1668.02</ele>
        <time>2012-11-18T10:09:57Z</time>
      </trkpt>
      <trkpt lat="44.81823" lon="5.48044">
        <ele>1668.02</ele>
        <time>2012-11-18T10:10:12Z</time>
      </trkpt>
      <trkpt lat="44.81826" lon="5.48064">
        <ele>1667.06</ele>
        <time>2012-11-18T10:10:25Z</time>
      </trkpt>
      <trkpt lat="44.81828" lon="5.48069">
        <ele>1666.58</ele>
        <time>2012-11-18T10:10:29Z</time>
      </trkpt>
      <trkpt lat="44.8183" lon="5.48071">
        <ele>1665.62</ele>
        <time>2012-11-18T10:10:31Z</time>
      </trkpt>
      <trkpt lat="44.8183" lon="5.48073">
        <ele>1665.14</ele>
        <time>2012-11-18T10:10:50Z</time>
      </trkpt>
      <trkpt lat="44.8183" lon="5.48073">
        <ele>1665.14</ele>
        <time>2012-11-18T10:11:40Z</time>
      </trkpt>
      <trkpt lat="44.81833" lon="5.48074">
        <ele>1665.14</ele>
        <time>2012-11-18T10:13:09Z</time>
      </trkpt>
      <trkpt lat="44.8184" lon="5.48075">
        <ele>1663.7</ele>
        <time>2012-11-18T10:13:16Z</time>
      </trkpt>
      <trkpt lat="44.81845" lon="5.48075">
        <ele>1661.78</ele>
        <time>2012-11-18T10:13:21Z</time>
      </trkpt>
      <trkpt lat="44.8185" lon="5.48073">
        <ele>1660.33</ele>
        <time>2012-11-18T10:13:25Z</time>
      </trkpt>
      <trkpt lat="44.81862" lon="5.48073">
        <ele>1656.49</ele>
        <time>2012-11-18T10:13:37Z</time>
      </trkpt>
      <trkpt lat="44.81869" lon="5.48072">
        <ele>1655.53</ele>
        <time>2012-11-18T10:13:43Z</time>
      </trkpt>
      <trkpt lat="44.81879" lon="5.48092">
        <ele>1651.68</ele>
        <time>2012-11-18T10:13:57Z</time>
      </trkpt>
      <trkpt lat="44.81879" lon="5.48101">
        <ele>1650.72</ele>
        <time>2012-11-18T10:14:03Z</time>
      </trkpt>
      <trkpt lat="44.81879" lon="5.48108">
        <ele>1649.76</ele>
        <time>2012-11-18T10:14:07Z</time>
      </trkpt>
      <trkpt lat="44.81883" lon="5.48133">
        <ele>1647.36</ele>
        <time>2012-11-18T10:14:21Z</time>
      </trkpt>
      <trkpt lat="44.8189" lon="5.48154">
        <ele>1646.88</ele>
        <time>2012-11-18T10:14:34Z</time>
      </trkpt>
      <trkpt lat="44.81895" lon="5.48178">
        <ele>1646.4</ele>
        <time>2012-11-18T10:14:48Z</time>
      </trkpt>
      <trkpt lat="44.81904" lon="5.48205">
        <ele>1645.91</ele>
        <time>2012-11-18T10:15:03Z</time>
      </trkpt>
      <trkpt lat="44.81909" lon="5.48217">
        <ele>1647.84</ele>
        <time>2012-11-18T10:15:12Z</time>
      </trkpt>
      <trkpt lat="44.81914" lon="5.48228">
        <ele>1647.36</ele>
        <time>2012-11-18T10:15:19Z</time>
      </trkpt>
      <trkpt lat="44.81921" lon="5.48251">
        <ele>1646.4</ele>
        <time>2012-11-18T10:15:33Z</time>
      </trkpt>
      <trkpt lat="44.81927" lon="5.48278">
        <ele>1645.91</ele>
        <time>2012-11-18T10:15:49Z</time>
      </trkpt>
      <trkpt lat="44.81928" lon="5.48307">
        <ele>1646.4</ele>
        <time>2012-11-18T10:16:05Z</time>
      </trkpt>
      <trkpt lat="44.81934" lon="5.48323">
        <ele>1647.36</ele>
        <time>2012-11-18T10:16:15Z</time>
      </trkpt>
      <trkpt lat="44.8194" lon="5.48345">
        <ele>1647.36</ele>
        <time>2012-11-18T10:16:28Z</time>
      </trkpt>
      <trkpt lat="44.81949" lon="5.4837">
        <ele>1648.8</ele>
        <time>2012-11-18T10:16:45Z</time>
      </trkpt>
      <trkpt lat="44.81961" lon="5.4839">
        <ele>1646.88</ele>
        <time>2012-11-18T10:16:59Z</time>
      </trkpt>
      <trkpt lat="44.81973" lon="5.48404">
        <ele>1646.88</ele>
        <time>2012-11-18T10:17:12Z</time>
      </trkpt>
      <trkpt lat="44.81988" lon="5.48409">
        <ele>1645.91</ele>
        <time>2012-11-18T10:17:23Z</time>
      </trkpt>
      <trkpt lat="44.81998" lon="5.48408">
        <ele>1646.88</ele>
        <time>2012-11-18T10:17:31Z</time>
      </trkpt>
      <trkpt lat="44.82004" lon="5.48411">
        <ele>1645.91</ele>
        <time>2012-11-18T10:17:36Z</time>
      </trkpt>
      <trkpt lat="44.82012" lon="5.4843">
        <ele>1643.03</ele>
        <time>2012-11-18T10:17:49Z</time>
      </trkpt>
      <trkpt lat="44.8202" lon="5.48438">
        <ele>1641.59</ele>
        <time>2012-11-18T10:17:57Z</time>
      </trkpt>
      <trkpt lat="44.82024" lon="5.48439">
        <ele>1641.59</ele>
        <time>2012-11-18T10:18:01Z</time>
      </trkpt>
      <trkpt lat="44.82027" lon="5.4844">
        <ele>1640.63</ele>
        <time>2012-11-18T10:18:03Z</time>
      </trkpt>
      <trkpt lat="44.82031" lon="5.48441">
        <ele>1640.15</ele>
        <time>2012-11-18T10:18:07Z</time>
      </trkpt>
      <trkpt lat="44.8204" lon="5.48443">
        <ele>1638.22</ele>
        <time>2012-11-18T10:18:14Z</time>
      </trkpt>
      <trkpt lat="44.82051" lon="5.48449">
        <ele>1636.78</ele>
        <time>2012-11-18T10:18:23Z</time>
      </trkpt>
      <trkpt lat="44.82054" lon="5.4845">
        <ele>1636.3</ele>
        <time>2012-11-18T10:18:25Z</time>
      </trkpt>
      <trkpt lat="44.82059" lon="5.48454">
        <ele>1636.3</ele>
        <time>2012-11-18T10:18:29Z</time>
      </trkpt>
      <trkpt lat="44.82064" lon="5.48458">
        <ele>1635.82</ele>
        <time>2012-11-18T10:18:33Z</time>
      </trkpt>
      <trkpt lat="44.82081" lon="5.48477">
        <ele>1636.3</ele>
        <time>2012-11-18T10:18:48Z</time>
      </trkpt>
      <trkpt lat="44.82086" lon="5.48485">
        <ele>1636.78</ele>
        <time>2012-11-18T10:18:55Z</time>
      </trkpt>
      <trkpt lat="44.82091" lon="5.48488">
        <ele>1637.26</ele>
        <time>2012-11-18T10:18:59Z</time>
      </trkpt>
      <trkpt lat="44.82102" lon="5.48495">
        <ele>1636.78</ele>
        <time>2012-11-18T10:19:09Z</time>
      </trkpt>
      <trkpt lat="44.82108" lon="5.48493">
        <ele>1635.34</ele>
        <time>2012-11-18T10:19:14Z</time>
      </trkpt>
      <trkpt lat="44.82126" lon="5.48483">
        <ele>1633.9</ele>
        <time>2012-11-18T10:19:30Z</time>
      </trkpt>
      <trkpt lat="44.82138" lon="5.48477">
        <ele>1633.9</ele>
        <time>2012-11-18T10:19:40Z</time>
      </trkpt>
      <trkpt lat="44.82155" lon="5.48466">
        <ele>1635.34</ele>
        <time>2012-11-18T10:19:55Z</time>
      </trkpt>
      <trkpt lat="44.82161" lon="5.48463">
        <ele>1636.3</ele>
        <time>2012-11-18T10:20:01Z</time>
      </trkpt>
      <trkpt lat="44.82165" lon="5.48462">
        <ele>1636.78</ele>
        <time>2012-11-18T10:20:04Z</time>
      </trkpt>
      <trkpt lat="44.82168" lon="5.48465">
        <ele>1637.26</ele>
        <time>2012-11-18T10:20:07Z</time>
      </trkpt>
      <trkpt lat="44.82176" lon="5.48472">
        <ele>1637.74</ele>
        <time>2012-11-18T10:20:14Z</time>
      </trkpt>
      <trkpt lat="44.8218" lon="5.48479">
        <ele>1637.74</ele>
        <time>2012-11-18T10:20:19Z</time>
      </trkpt>
      <trkpt lat="44.82189" lon="5.48482">
        <ele>1638.22</ele>
        <time>2012-11-18T10:20:27Z</time>
      </trkpt>
      <trkpt lat="44.82198" lon="5.48483">
        <ele>1638.7</ele>
        <time>2012-11-18T10:20:34Z</time>
      </trkpt>
      <trkpt lat="44.82214" lon="5.48492">
        <ele>1639.19</ele>
        <time>2012-11-18T10:20:48Z</time>
      </trkpt>
      <trkpt lat="44.82215" lon="5.48492">
        <ele>1639.67</ele>
        <time>2012-11-18T10:20:49Z</time>
      </trkpt>
      <trkpt lat="44.82223" lon="5.48494">
        <ele>1638.7</ele>
        <time>2012-11-18T10:20:55Z</time>
      </trkpt>
      <trkpt lat="44.82226" lon="5.48495">
        <ele>1637.26</ele>
        <time>2012-11-18T10:20:58Z</time>
      </trkpt>
      <trkpt lat="44.82237" lon="5.48489">
        <ele>1636.3</ele>
        <time>2012-11-18T10:21:07Z</time>
      </trkpt>
      <trkpt lat="44.82245" lon="5.48485">
        <ele>1636.3</ele>
        <time>2012-11-18T10:21:15Z</time>
      </trkpt>
      <trkpt lat="44.82257" lon="5.48486">
        <ele>1636.78</ele>
        <time>2012-11-18T10:21:25Z</time>
      </trkpt>
      <trkpt lat="44.82271" lon="5.48494">
        <ele>1637.26</ele>
        <time>2012-11-18T10:21:36Z</time>
      </trkpt>
      <trkpt lat="44.82274" lon="5.48495">
        <ele>1637.26</ele>
        <time>2012-11-18T10:21:38Z</time>
      </trkpt>
      <trkpt lat="44.8228" lon="5.48499">
        <ele>1637.74</ele>
        <time>2012-11-18T10:21:43Z</time>
      </trkpt>
      <trkpt lat="44.82291" lon="5.48512">
        <ele>1639.67</ele>
        <time>2012-11-18T10:21:55Z</time>
      </trkpt>
      <trkpt lat="44.823" lon="5.48533">
        <ele>1642.07</ele>
        <time>2012-11-18T10:22:08Z</time>
      </trkpt>
      <trkpt lat="44.82305" lon="5.48545">
        <ele>1643.99</ele>
        <time>2012-11-18T10:22:17Z</time>
      </trkpt>
      <trkpt lat="44.82307" lon="5.48554">
        <ele>1645.91</ele>
        <time>2012-11-18T10:22:24Z</time>
      </trkpt>
      <trkpt lat="44.82309" lon="5.48558">
        <ele>1646.88</ele>
        <time>2012-11-18T10:22:28Z</time>
      </trkpt>
      <trkpt lat="44.82312" lon="5.48579">
        <ele>1647.84</ele>
        <time>2012-11-18T10:22:42Z</time>
      </trkpt>
      <trkpt lat="44.82313" lon="5.4858">
        <ele>1648.8</ele>
        <time>2012-11-18T10:22:44Z</time>
      </trkpt>
      <trkpt lat="44.82325" lon="5.4859">
        <ele>1650.24</ele>
        <time>2012-11-18T10:22:56Z</time>
      </trkpt>
      <trkpt lat="44.82334" lon="5.48595">
        <ele>1652.16</ele>
        <time>2012-11-18T10:23:06Z</time>
      </trkpt>
      <trkpt lat="44.8234" lon="5.48593">
        <ele>1654.09</ele>
        <time>2012-11-18T10:23:13Z</time>
      </trkpt>
      <trkpt lat="44.82345" lon="5.48586">
        <ele>1653.12</ele>
        <time>2012-11-18T10:23:26Z</time>
      </trkpt>
      <trkpt lat="44.82347" lon="5.48583">
        <ele>1652.64</ele>
        <time>2012-11-18T10:23:40Z</time>
      </trkpt>
      <trkpt lat="44.82346" lon="5.48578">
        <ele>1652.16</ele>
        <time>2012-11-18T10:23:43Z</time>
      </trkpt>
      <trkpt lat="44.82347" lon="5.48568">
        <ele>1650.24</ele>
        <time>2012-11-18T10:23:49Z</time>
      </trkpt>
      <trkpt lat="44.8235" lon="5.48559">
        <ele>1649.28</ele>
        <time>2012-11-18T10:23:54Z</time>
      </trkpt>
      <trkpt lat="44.82352" lon="5.48553">
        <ele>1648.8</ele>
        <time>2012-11-18T10:23:58Z</time>
      </trkpt>
      <trkpt lat="44.82356" lon="5.48552">
        <ele>1646.88</ele>
        <time>2012-11-18T10:24:01Z</time>
      </trkpt>
      <trkpt lat="44.82359" lon="5.48549">
        <ele>1645.43</ele>
        <time>2012-11-18T10:24:06Z</time>
      </trkpt>
      <trkpt lat="44.82368" lon="5.48542">
        <ele>1643.03</ele>
        <time>2012-11-18T10:24:14Z</time>
      </trkpt>
      <trkpt lat="44.82375" lon="5.48536">
        <ele>1641.59</ele>
        <time>2012-11-18T10:24:21Z</time>
      </trkpt>
      <trkpt lat="44.82383" lon="5.48537">
        <ele>1639.67</ele>
        <time>2012-11-18T10:24:27Z</time>
      </trkpt>
      <trkpt lat="44.82387" lon="5.48536">
        <ele>1637.74</ele>
        <time>2012-11-18T10:24:31Z</time>
      </trkpt>
      <trkpt lat="44.82396" lon="5.48538">
        <ele>1636.3</ele>
        <time>2012-11-18T10:24:37Z</time>
      </trkpt>
      <trkpt lat="44.82414" lon="5.4853">
        <ele>1633.9</ele>
        <time>2012-11-18T10:24:51Z</time>
      </trkpt>
      <trkpt lat="44.8243" lon="5.48522">
        <ele>1632.46</ele>
        <time>2012-11-18T10:25:04Z</time>
      </trkpt>
      <trkpt lat="44.82436" lon="5.48517">
        <ele>1631.98</ele>
        <time>2012-11-18T10:25:16Z</time>
      </trkpt>
      <trkpt lat="44.82449" lon="5.48522">
        <ele>1631.01</ele>
        <time>2012-11-18T10:25:27Z</time>
      </trkpt>
      <trkpt lat="44.82452" lon="5.48524">
        <ele>1631.01</ele>
        <time>2012-11-18T10:25:38Z</time>
      </trkpt>
      <trkpt lat="44.8246" lon="5.48504">
        <ele>1629.57</ele>
        <time>2012-11-18T10:25:50Z</time>
      </trkpt>
      <trkpt lat="44.82461" lon="5.48498">
        <ele>1629.09</ele>
        <time>2012-11-18T10:25:53Z</time>
      </trkpt>
      <trkpt lat="44.82462" lon="5.48473">
        <ele>1627.17</ele>
        <time>2012-11-18T10:26:07Z</time>
      </trkpt>
      <trkpt lat="44.82462" lon="5.48461">
        <ele>1625.73</ele>
        <time>2012-11-18T10:26:14Z</time>
      </trkpt>
      <trkpt lat="44.82459" lon="5.48452">
        <ele>1623.32</ele>
        <time>2012-11-18T10:26:19Z</time>
      </trkpt>
      <trkpt lat="44.82457" lon="5.48438">
        <ele>1622.36</ele>
        <time>2012-11-18T10:26:26Z</time>
      </trkpt>
      <trkpt lat="44.82457" lon="5.48428">
        <ele>1620.92</ele>
        <time>2012-11-18T10:26:33Z</time>
      </trkpt>
      <trkpt lat="44.82455" lon="5.48424">
        <ele>1620.44</ele>
        <time>2012-11-18T10:26:36Z</time>
      </trkpt>
      <trkpt lat="44.82457" lon="5.48407">
        <ele>1617.56</ele>
        <time>2012-11-18T10:26:48Z</time>
      </trkpt>
      <trkpt lat="44.82464" lon="5.48394">
        <ele>1614.19</ele>
        <time>2012-11-18T10:26:58Z</time>
      </trkpt>
      <trkpt lat="44.82465" lon="5.48393">
        <ele>1614.19</ele>
        <time>2012-11-18T10:26:59Z</time>
      </trkpt>
      <trkpt lat="44.82465" lon="5.48373">
        <ele>1610.35</ele>
        <time>2012-11-18T10:27:09Z</time>
      </trkpt>
      <trkpt lat="44.82465" lon="5.48371">
        <ele>1609.86</ele>
        <time>2012-11-18T10:27:10Z</time>
      </trkpt>
      <trkpt lat="44.82466" lon="5.4836">
        <ele>1607.46</ele>
        <time>2012-11-18T10:27:16Z</time>
      </trkpt>
      <trkpt lat="44.82466" lon="5.48353">
        <ele>1606.02</ele>
        <time>2012-11-18T10:27:20Z</time>
      </trkpt>
      <trkpt lat="44.82465" lon="5.48342">
        <ele>1604.1</ele>
        <time>2012-11-18T10:27:26Z</time>
      </trkpt>
      <trkpt lat="44.82465" lon="5.48339">
        <ele>1603.62</ele>
        <time>2012-11-18T10:27:28Z</time>
      </trkpt>
      <trkpt lat="44.8247" lon="5.48315">
        <ele>1599.77</ele>
        <time>2012-11-18T10:27:41Z</time>
      </trkpt>
      <trkpt lat="44.82476" lon="5.48302">
        <ele>1598.33</ele>
        <time>2012-11-18T10:27:49Z</time>
      </trkpt>
      <trkpt lat="44.82485" lon="5.48276">
        <ele>1595.45</ele>
        <time>2012-11-18T10:28:03Z</time>
      </trkpt>
      <trkpt lat="44.82498" lon="5.4825">
        <ele>1594.48</ele>
        <time>2012-11-18T10:28:20Z</time>
      </trkpt>
      <trkpt lat="44.82504" lon="5.48242">
        <ele>1594</ele>
        <time>2012-11-18T10:28:26Z</time>
      </trkpt>
      <trkpt lat="44.82507" lon="5.4824">
        <ele>1594.48</ele>
        <time>2012-11-18T10:28:29Z</time>
      </trkpt>
      <trkpt lat="44.82518" lon="5.48231">
        <ele>1595.45</ele>
        <time>2012-11-18T10:28:39Z</time>
      </trkpt>
      <trkpt lat="44.82521" lon="5.4823">
        <ele>1595.93</ele>
        <time>2012-11-18T10:28:42Z</time>
      </trkpt>
      <trkpt lat="44.82529" lon="5.48225">
        <ele>1596.89</ele>
        <time>2012-11-18T10:28:49Z</time>
      </trkpt>
      <trkpt lat="44.82531" lon="5.48223">
        <ele>1596.89</ele>
        <time>2012-11-18T10:28:51Z</time>
      </trkpt>
      <trkpt lat="44.82543" lon="5.4822">
        <ele>1597.37</ele>
        <time>2012-11-18T10:29:00Z</time>
      </trkpt>
      <trkpt lat="44.82549" lon="5.48218">
        <ele>1597.85</ele>
        <time>2012-11-18T10:29:05Z</time>
      </trkpt>
      <trkpt lat="44.82551" lon="5.48217">
        <ele>1598.33</ele>
        <time>2012-11-18T10:29:07Z</time>
      </trkpt>
      <trkpt lat="44.82559" lon="5.48217">
        <ele>1598.81</ele>
        <time>2012-11-18T10:29:14Z</time>
      </trkpt>
      <trkpt lat="44.82567" lon="5.48218">
        <ele>1599.77</ele>
        <time>2012-11-18T10:29:21Z</time>
      </trkpt>
      <trkpt lat="44.82573" lon="5.48225">
        <ele>1600.73</ele>
        <time>2012-11-18T10:29:33Z</time>
      </trkpt>
      <trkpt lat="44.82574" lon="5.48226">
        <ele>1600.25</ele>
        <time>2012-11-18T10:29:56Z</time>
      </trkpt>
      <trkpt lat="44.82576" lon="5.48225">
        <ele>1600.73</ele>
        <time>2012-11-18T10:29:58Z</time>
      </trkpt>
      <trkpt lat="44.82589" lon="5.4822">
        <ele>1600.25</ele>
        <time>2012-11-18T10:30:13Z</time>
      </trkpt>
      <trkpt lat="44.82596" lon="5.48225">
        <ele>1600.73</ele>
        <time>2012-11-18T10:30:23Z</time>
      </trkpt>
      <trkpt lat="44.826" lon="5.48227">
        <ele>1600.73</ele>
        <time>2012-11-18T10:30:27Z</time>
      </trkpt>
      <trkpt lat="44.82604" lon="5.48226">
        <ele>1601.69</ele>
        <time>2012-11-18T10:30:31Z</time>
      </trkpt>
      <trkpt lat="44.82608" lon="5.48229">
        <ele>1602.66</ele>
        <time>2012-11-18T10:30:35Z</time>
      </trkpt>
      <trkpt lat="44.8262" lon="5.48235">
        <ele>1603.14</ele>
        <time>2012-11-18T10:30:45Z</time>
      </trkpt>
      <trkpt lat="44.82629" lon="5.48239">
        <ele>1603.14</ele>
        <time>2012-11-18T10:30:52Z</time>
      </trkpt>
      <trkpt lat="44.82647" lon="5.48252">
        <ele>1603.62</ele>
        <time>2012-11-18T10:31:08Z</time>
      </trkpt>
      <trkpt lat="44.82662" lon="5.48262">
        <ele>1604.58</ele>
        <time>2012-11-18T10:31:22Z</time>
      </trkpt>
      <trkpt lat="44.8267" lon="5.48267">
        <ele>1604.58</ele>
        <time>2012-11-18T10:31:29Z</time>
      </trkpt>
      <trkpt lat="44.82685" lon="5.48278">
        <ele>1606.02</ele>
        <time>2012-11-18T10:31:43Z</time>
      </trkpt>
      <trkpt lat="44.82689" lon="5.48279">
        <ele>1606.02</ele>
        <time>2012-11-18T10:31:47Z</time>
      </trkpt>
      <trkpt lat="44.82695" lon="5.48282">
        <ele>1605.06</ele>
        <time>2012-11-18T10:32:00Z</time>
      </trkpt>
      <trkpt lat="44.82696" lon="5.48281">
        <ele>1605.54</ele>
        <time>2012-11-18T10:33:25Z</time>
      </trkpt>
      <trkpt lat="44.82696" lon="5.4828">
        <ele>1605.06</ele>
        <time>2012-11-18T10:36:13Z</time>
      </trkpt>
      <trkpt lat="44.82696" lon="5.48282">
        <ele>1605.06</ele>
        <time>2012-11-18T10:39:27Z</time>
      </trkpt>
      <trkpt lat="44.82696" lon="5.48281">
        <ele>1605.06</ele>
        <time>2012-11-18T10:40:51Z</time>
      </trkpt>
      <trkpt lat="44.82696" lon="5.48282">
        <ele>1605.54</ele>
        <time>2012-11-18T10:41:18Z</time>
      </trkpt>
      <trkpt lat="44.82695" lon="5.48288">
        <ele>1606.02</ele>
        <time>2012-11-18T10:41:30Z</time>
      </trkpt>
      <trkpt lat="44.82696" lon="5.4829">
        <ele>1606.02</ele>
        <time>2012-11-18T10:41:48Z</time>
      </trkpt>
      <trkpt lat="44.82695" lon="5.48292">
        <ele>1606.02</ele>
        <time>2012-11-18T10:42:09Z</time>
      </trkpt>
      <trkpt lat="44.82693" lon="5.48294">
        <ele>1606.5</ele>
        <time>2012-11-18T10:42:11Z</time>
      </trkpt>
      <trkpt lat="44.82698" lon="5.48307">
        <ele>1606.98</ele>
        <time>2012-11-18T10:42:23Z</time>
      </trkpt>
      <trkpt lat="44.82703" lon="5.48327">
        <ele>1606.98</ele>
        <time>2012-11-18T10:42:40Z</time>
      </trkpt>
      <trkpt lat="44.82707" lon="5.48342">
        <ele>1607.94</ele>
        <time>2012-11-18T10:42:54Z</time>
      </trkpt>
      <trkpt lat="44.8271" lon="5.48354">
        <ele>1607.94</ele>
        <time>2012-11-18T10:43:03Z</time>
      </trkpt>
      <trkpt lat="44.82715" lon="5.48374">
        <ele>1608.9</ele>
        <time>2012-11-18T10:43:19Z</time>
      </trkpt>
      <trkpt lat="44.82716" lon="5.48376">
        <ele>1609.38</ele>
        <time>2012-11-18T10:43:21Z</time>
      </trkpt>
      <trkpt lat="44.82719" lon="5.48396">
        <ele>1608.9</ele>
        <time>2012-11-18T10:43:36Z</time>
      </trkpt>
      <trkpt lat="44.82725" lon="5.48417">
        <ele>1609.86</ele>
        <time>2012-11-18T10:43:51Z</time>
      </trkpt>
      <trkpt lat="44.82725" lon="5.48422">
        <ele>1610.35</ele>
        <time>2012-11-18T10:43:55Z</time>
      </trkpt>
      <trkpt lat="44.82728" lon="5.48437">
        <ele>1609.86</ele>
        <time>2012-11-18T10:44:05Z</time>
      </trkpt>
      <trkpt lat="44.82728" lon="5.48441">
        <ele>1610.35</ele>
        <time>2012-11-18T10:44:08Z</time>
      </trkpt>
      <trkpt lat="44.82729" lon="5.48451">
        <ele>1610.35</ele>
        <time>2012-11-18T10:44:15Z</time>
      </trkpt>
      <trkpt lat="44.8273" lon="5.48457">
        <ele>1610.83</ele>
        <time>2012-11-18T10:44:19Z</time>
      </trkpt>
      <trkpt lat="44.82729" lon="5.4846">
        <ele>1611.31</ele>
        <time>2012-11-18T10:44:21Z</time>
      </trkpt>
      <trkpt lat="44.82732" lon="5.48478">
        <ele>1612.27</ele>
        <time>2012-11-18T10:44:34Z</time>
      </trkpt>
      <trkpt lat="44.82731" lon="5.48494">
        <ele>1611.79</ele>
        <time>2012-11-18T10:44:44Z</time>
      </trkpt>
      <trkpt lat="44.82734" lon="5.48499">
        <ele>1612.27</ele>
        <time>2012-11-18T10:44:48Z</time>
      </trkpt>
      <trkpt lat="44.82735" lon="5.48516">
        <ele>1612.75</ele>
        <time>2012-11-18T10:44:59Z</time>
      </trkpt>
      <trkpt lat="44.82737" lon="5.4852">
        <ele>1613.23</ele>
        <time>2012-11-18T10:45:02Z</time>
      </trkpt>
      <trkpt lat="44.82738" lon="5.48531">
        <ele>1613.71</ele>
        <time>2012-11-18T10:45:10Z</time>
      </trkpt>
      <trkpt lat="44.82738" lon="5.48538">
        <ele>1613.71</ele>
        <time>2012-11-18T10:45:16Z</time>
      </trkpt>
      <trkpt lat="44.8274" lon="5.48542">
        <ele>1613.71</ele>
        <time>2012-11-18T10:45:19Z</time>
      </trkpt>
      <trkpt lat="44.82741" lon="5.48548">
        <ele>1614.19</ele>
        <time>2012-11-18T10:45:23Z</time>
      </trkpt>
      <trkpt lat="44.82745" lon="5.48562">
        <ele>1614.67</ele>
        <time>2012-11-18T10:45:34Z</time>
      </trkpt>
      <trkpt lat="44.82749" lon="5.48584">
        <ele>1615.63</ele>
        <time>2012-11-18T10:45:49Z</time>
      </trkpt>
      <trkpt lat="44.8275" lon="5.48593">
        <ele>1616.11</ele>
        <time>2012-11-18T10:45:55Z</time>
      </trkpt>
      <trkpt lat="44.82749" lon="5.48606">
        <ele>1616.11</ele>
        <time>2012-11-18T10:46:09Z</time>
      </trkpt>
      <trkpt lat="44.82749" lon="5.48606">
        <ele>1616.59</ele>
        <time>2012-11-18T10:46:35Z</time>
      </trkpt>
      <trkpt lat="44.8275" lon="5.48606">
        <ele>1616.59</ele>
        <time>2012-11-18T10:47:54Z</time>
      </trkpt>
      <trkpt lat="44.82751" lon="5.48606">
        <ele>1616.59</ele>
        <time>2012-11-18T10:48:07Z</time>
      </trkpt>
      <trkpt lat="44.82754" lon="5.48609">
        <ele>1616.11</ele>
        <time>2012-11-18T10:48:11Z</time>
      </trkpt>
      <trkpt lat="44.82761" lon="5.48618">
        <ele>1616.11</ele>
        <time>2012-11-18T10:48:19Z</time>
      </trkpt>
      <trkpt lat="44.82762" lon="5.48624">
        <ele>1616.59</ele>
        <time>2012-11-18T10:48:23Z</time>
      </trkpt>
      <trkpt lat="44.82769" lon="5.48632">
        <ele>1616.59</ele>
        <time>2012-11-18T10:48:36Z</time>
      </trkpt>
      <trkpt lat="44.82785" lon="5.48647">
        <ele>1616.59</ele>
        <time>2012-11-18T10:48:52Z</time>
      </trkpt>
      <trkpt lat="44.82786" lon="5.48647">
        <ele>1616.11</ele>
        <time>2012-11-18T10:49:08Z</time>
      </trkpt>
      <trkpt lat="44.82793" lon="5.48651">
        <ele>1616.11</ele>
        <time>2012-11-18T10:49:25Z</time>
      </trkpt>
      <trkpt lat="44.82815" lon="5.48653">
        <ele>1615.63</ele>
        <time>2012-11-18T10:49:42Z</time>
      </trkpt>
      <trkpt lat="44.8284" lon="5.48653">
        <ele>1614.67</ele>
        <time>2012-11-18T10:50:01Z</time>
      </trkpt>
      <trkpt lat="44.82844" lon="5.48652">
        <ele>1614.19</ele>
        <time>2012-11-18T10:50:05Z</time>
      </trkpt>
      <trkpt lat="44.82862" lon="5.48641">
        <ele>1613.71</ele>
        <time>2012-11-18T10:50:20Z</time>
      </trkpt>
      <trkpt lat="44.82863" lon="5.4864">
        <ele>1613.71</ele>
        <time>2012-11-18T10:50:21Z</time>
      </trkpt>
      <trkpt lat="44.82875" lon="5.48632">
        <ele>1614.67</ele>
        <time>2012-11-18T10:50:34Z</time>
      </trkpt>
      <trkpt lat="44.82876" lon="5.48632">
        <ele>1615.15</ele>
        <time>2012-11-18T10:50:36Z</time>
      </trkpt>
      <trkpt lat="44.82884" lon="5.48634">
        <ele>1615.63</ele>
        <time>2012-11-18T10:50:44Z</time>
      </trkpt>
      <trkpt lat="44.82895" lon="5.48632">
        <ele>1618.04</ele>
        <time>2012-11-18T10:50:56Z</time>
      </trkpt>
      <trkpt lat="44.82902" lon="5.48633">
        <ele>1619.48</ele>
        <time>2012-11-18T10:51:02Z</time>
      </trkpt>
      <trkpt lat="44.82906" lon="5.48634">
        <ele>1620.44</ele>
        <time>2012-11-18T10:51:06Z</time>
      </trkpt>
      <trkpt lat="44.82918" lon="5.48631">
        <ele>1621.88</ele>
        <time>2012-11-18T10:51:16Z</time>
      </trkpt>
      <trkpt lat="44.82921" lon="5.48631">
        <ele>1622.36</ele>
        <time>2012-11-18T10:51:19Z</time>
      </trkpt>
      <trkpt lat="44.82933" lon="5.48628">
        <ele>1624.77</ele>
        <time>2012-11-18T10:51:30Z</time>
      </trkpt>
      <trkpt lat="44.82938" lon="5.48621">
        <ele>1626.21</ele>
        <time>2012-11-18T10:51:37Z</time>
      </trkpt>
      <trkpt lat="44.8294" lon="5.4862">
        <ele>1626.21</ele>
        <time>2012-11-18T10:51:39Z</time>
      </trkpt>
      <trkpt lat="44.82945" lon="5.48615">
        <ele>1626.69</ele>
        <time>2012-11-18T10:51:45Z</time>
      </trkpt>
      <trkpt lat="44.8295" lon="5.48611">
        <ele>1627.17</ele>
        <time>2012-11-18T10:51:50Z</time>
      </trkpt>
      <trkpt lat="44.82967" lon="5.48601">
        <ele>1627.65</ele>
        <time>2012-11-18T10:52:05Z</time>
      </trkpt>
      <trkpt lat="44.82979" lon="5.48593">
        <ele>1626.69</ele>
        <time>2012-11-18T10:52:16Z</time>
      </trkpt>
      <trkpt lat="44.82982" lon="5.48589">
        <ele>1626.21</ele>
        <time>2012-11-18T10:52:20Z</time>
      </trkpt>
      <trkpt lat="44.82989" lon="5.48563">
        <ele>1625.73</ele>
        <time>2012-11-18T10:52:35Z</time>
      </trkpt>
      <trkpt lat="44.82999" lon="5.48536">
        <ele>1626.21</ele>
        <time>2012-11-18T10:52:53Z</time>
      </trkpt>
      <trkpt lat="44.83006" lon="5.48529">
        <ele>1626.21</ele>
        <time>2012-11-18T10:53:00Z</time>
      </trkpt>
      <trkpt lat="44.83015" lon="5.48523">
        <ele>1625.73</ele>
        <time>2012-11-18T10:53:07Z</time>
      </trkpt>
      <trkpt lat="44.83032" lon="5.48506">
        <ele>1623.32</ele>
        <time>2012-11-18T10:53:24Z</time>
      </trkpt>
      <trkpt lat="44.83039" lon="5.48486">
        <ele>1620.92</ele>
        <time>2012-11-18T10:53:37Z</time>
      </trkpt>
      <trkpt lat="44.8304" lon="5.48475">
        <ele>1619.96</ele>
        <time>2012-11-18T10:53:43Z</time>
      </trkpt>
      <trkpt lat="44.83048" lon="5.48442">
        <ele>1617.56</ele>
        <time>2012-11-18T10:54:01Z</time>
      </trkpt>
      <trkpt lat="44.83054" lon="5.48414">
        <ele>1617.07</ele>
        <time>2012-11-18T10:54:17Z</time>
      </trkpt>
      <trkpt lat="44.83056" lon="5.48399">
        <ele>1617.56</ele>
        <time>2012-11-18T10:54:26Z</time>
      </trkpt>
      <trkpt lat="44.83063" lon="5.48374">
        <ele>1617.56</ele>
        <time>2012-11-18T10:54:41Z</time>
      </trkpt>
      <trkpt lat="44.83064" lon="5.48367">
        <ele>1617.56</ele>
        <time>2012-11-18T10:54:45Z</time>
      </trkpt>
      <trkpt lat="44.83067" lon="5.48353">
        <ele>1618.52</ele>
        <time>2012-11-18T10:54:54Z</time>
      </trkpt>
      <trkpt lat="44.83074" lon="5.4833">
        <ele>1620.92</ele>
        <time>2012-11-18T10:55:09Z</time>
      </trkpt>
      <trkpt lat="44.83079" lon="5.48318">
        <ele>1622.36</ele>
        <time>2012-11-18T10:55:17Z</time>
      </trkpt>
      <trkpt lat="44.83084" lon="5.48296">
        <ele>1624.77</ele>
        <time>2012-11-18T10:55:31Z</time>
      </trkpt>
      <trkpt lat="44.83094" lon="5.48272">
        <ele>1626.21</ele>
        <time>2012-11-18T10:55:48Z</time>
      </trkpt>
      <trkpt lat="44.83099" lon="5.48251">
        <ele>1627.17</ele>
        <time>2012-11-18T10:56:01Z</time>
      </trkpt>
      <trkpt lat="44.831" lon="5.48248">
        <ele>1627.17</ele>
        <time>2012-11-18T10:56:03Z</time>
      </trkpt>
      <trkpt lat="44.83105" lon="5.48235">
        <ele>1627.65</ele>
        <time>2012-11-18T10:56:11Z</time>
      </trkpt>
      <trkpt lat="44.83108" lon="5.48208">
        <ele>1628.13</ele>
        <time>2012-11-18T10:56:26Z</time>
      </trkpt>
      <trkpt lat="44.83112" lon="5.482">
        <ele>1627.65</ele>
        <time>2012-11-18T10:56:31Z</time>
      </trkpt>
      <trkpt lat="44.83121" lon="5.48172">
        <ele>1627.17</ele>
        <time>2012-11-18T10:56:48Z</time>
      </trkpt>
      <trkpt lat="44.83132" lon="5.4815">
        <ele>1624.77</ele>
        <time>2012-11-18T10:57:02Z</time>
      </trkpt>
      <trkpt lat="44.83146" lon="5.48129">
        <ele>1625.25</ele>
        <time>2012-11-18T10:57:18Z</time>
      </trkpt>
      <trkpt lat="44.83164" lon="5.48119">
        <ele>1623.32</ele>
        <time>2012-11-18T10:57:32Z</time>
      </trkpt>
      <trkpt lat="44.83185" lon="5.48121">
        <ele>1624.77</ele>
        <time>2012-11-18T10:57:49Z</time>
      </trkpt>
      <trkpt lat="44.83199" lon="5.48136">
        <ele>1625.73</ele>
        <time>2012-11-18T10:58:03Z</time>
      </trkpt>
      <trkpt lat="44.83216" lon="5.48152">
        <ele>1624.28</ele>
        <time>2012-11-18T10:58:18Z</time>
      </trkpt>
      <trkpt lat="44.83234" lon="5.48156">
        <ele>1626.69</ele>
        <time>2012-11-18T10:58:33Z</time>
      </trkpt>
      <trkpt lat="44.83236" lon="5.48155">
        <ele>1626.21</ele>
        <time>2012-11-18T10:58:35Z</time>
      </trkpt>
      <trkpt lat="44.83242" lon="5.48153">
        <ele>1626.69</ele>
        <time>2012-11-18T10:58:40Z</time>
      </trkpt>
      <trkpt lat="44.83251" lon="5.48153">
        <ele>1627.17</ele>
        <time>2012-11-18T10:58:48Z</time>
      </trkpt>
      <trkpt lat="44.83274" lon="5.48151">
        <ele>1625.73</ele>
        <time>2012-11-18T10:59:06Z</time>
      </trkpt>
      <trkpt lat="44.83294" lon="5.48162">
        <ele>1625.25</ele>
        <time>2012-11-18T10:59:22Z</time>
      </trkpt>
      <trkpt lat="44.83296" lon="5.48162">
        <ele>1625.25</ele>
        <time>2012-11-18T10:59:24Z</time>
      </trkpt>
      <trkpt lat="44.83311" lon="5.48173">
        <ele>1626.69</ele>
        <time>2012-11-18T10:59:39Z</time>
      </trkpt>
      <trkpt lat="44.83314" lon="5.48178">
        <ele>1626.21</ele>
        <time>2012-11-18T10:59:44Z</time>
      </trkpt>
      <trkpt lat="44.8332" lon="5.48189">
        <ele>1626.21</ele>
        <time>2012-11-18T10:59:53Z</time>
      </trkpt>
      <trkpt lat="44.83328" lon="5.48203">
        <ele>1627.17</ele>
        <time>2012-11-18T11:00:06Z</time>
      </trkpt>
      <trkpt lat="44.83331" lon="5.48204">
        <ele>1627.17</ele>
        <time>2012-11-18T11:00:10Z</time>
      </trkpt>
      <trkpt lat="44.83334" lon="5.48205">
        <ele>1628.13</ele>
        <time>2012-11-18T11:00:14Z</time>
      </trkpt>
      <trkpt lat="44.83336" lon="5.48205">
        <ele>1628.61</ele>
        <time>2012-11-18T11:00:16Z</time>
      </trkpt>
      <trkpt lat="44.83343" lon="5.48201">
        <ele>1631.01</ele>
        <time>2012-11-18T11:00:27Z</time>
      </trkpt>
      <trkpt lat="44.83345" lon="5.48201">
        <ele>1631.49</ele>
        <time>2012-11-18T11:00:29Z</time>
      </trkpt>
      <trkpt lat="44.83349" lon="5.48203">
        <ele>1631.49</ele>
        <time>2012-11-18T11:00:35Z</time>
      </trkpt>
      <trkpt lat="44.83353" lon="5.482">
        <ele>1631.98</ele>
        <time>2012-11-18T11:00:39Z</time>
      </trkpt>
      <trkpt lat="44.83359" lon="5.48195">
        <ele>1631.98</ele>
        <time>2012-11-18T11:00:49Z</time>
      </trkpt>
      <trkpt lat="44.83371" lon="5.48182">
        <ele>1632.46</ele>
        <time>2012-11-18T11:01:02Z</time>
      </trkpt>
      <trkpt lat="44.8339" lon="5.48172">
        <ele>1632.46</ele>
        <time>2012-11-18T11:01:18Z</time>
      </trkpt>
      <trkpt lat="44.83407" lon="5.48172">
        <ele>1631.98</ele>
        <time>2012-11-18T11:01:32Z</time>
      </trkpt>
      <trkpt lat="44.8342" lon="5.4817">
        <ele>1632.94</ele>
        <time>2012-11-18T11:01:47Z</time>
      </trkpt>
      <trkpt lat="44.83422" lon="5.4817">
        <ele>1632.94</ele>
        <time>2012-11-18T11:01:50Z</time>
      </trkpt>
      <trkpt lat="44.83424" lon="5.4817">
        <ele>1633.42</ele>
        <time>2012-11-18T11:01:52Z</time>
      </trkpt>
      <trkpt lat="44.83425" lon="5.4817">
        <ele>1633.9</ele>
        <time>2012-11-18T11:01:54Z</time>
      </trkpt>
      <trkpt lat="44.83431" lon="5.48171">
        <ele>1634.86</ele>
        <time>2012-11-18T11:01:59Z</time>
      </trkpt>
      <trkpt lat="44.83448" lon="5.48168">
        <ele>1634.38</ele>
        <time>2012-11-18T11:02:12Z</time>
      </trkpt>
      <trkpt lat="44.83453" lon="5.48167">
        <ele>1634.38</ele>
        <time>2012-11-18T11:02:16Z</time>
      </trkpt>
      <trkpt lat="44.83465" lon="5.48166">
        <ele>1634.38</ele>
        <time>2012-11-18T11:02:25Z</time>
      </trkpt>
      <trkpt lat="44.83486" lon="5.48158">
        <ele>1633.42</ele>
        <time>2012-11-18T11:02:42Z</time>
      </trkpt>
      <trkpt lat="44.83505" lon="5.48148">
        <ele>1632.46</ele>
        <time>2012-11-18T11:02:57Z</time>
      </trkpt>
      <trkpt lat="44.83516" lon="5.48147">
        <ele>1631.49</ele>
        <time>2012-11-18T11:03:05Z</time>
      </trkpt>
      <trkpt lat="44.83535" lon="5.48142">
        <ele>1631.49</ele>
        <time>2012-11-18T11:03:20Z</time>
      </trkpt>
      <trkpt lat="44.83547" lon="5.4814">
        <ele>1630.53</ele>
        <time>2012-11-18T11:03:29Z</time>
      </trkpt>
      <trkpt lat="44.83556" lon="5.48139">
        <ele>1630.53</ele>
        <time>2012-11-18T11:03:38Z</time>
      </trkpt>
      <trkpt lat="44.83573" lon="5.48142">
        <ele>1631.98</ele>
        <time>2012-11-18T11:03:52Z</time>
      </trkpt>
      <trkpt lat="44.83574" lon="5.48142">
        <ele>1632.46</ele>
        <time>2012-11-18T11:03:53Z</time>
      </trkpt>
      <trkpt lat="44.83583" lon="5.48143">
        <ele>1631.98</ele>
        <time>2012-11-18T11:04:04Z</time>
      </trkpt>
      <trkpt lat="44.83586" lon="5.48143">
        <ele>1631.49</ele>
        <time>2012-11-18T11:04:07Z</time>
      </trkpt>
      <trkpt lat="44.83606" lon="5.48149">
        <ele>1631.01</ele>
        <time>2012-11-18T11:04:22Z</time>
      </trkpt>
      <trkpt lat="44.83622" lon="5.48154">
        <ele>1630.05</ele>
        <time>2012-11-18T11:04:35Z</time>
      </trkpt>
      <trkpt lat="44.83641" lon="5.48164">
        <ele>1629.09</ele>
        <time>2012-11-18T11:04:51Z</time>
      </trkpt>
      <trkpt lat="44.83663" lon="5.48173">
        <ele>1629.09</ele>
        <time>2012-11-18T11:05:09Z</time>
      </trkpt>
      <trkpt lat="44.8368" lon="5.48184">
        <ele>1627.65</ele>
        <time>2012-11-18T11:05:23Z</time>
      </trkpt>
      <trkpt lat="44.83697" lon="5.4819">
        <ele>1627.65</ele>
        <time>2012-11-18T11:05:37Z</time>
      </trkpt>
      <trkpt lat="44.83711" lon="5.48194">
        <ele>1629.09</ele>
        <time>2012-11-18T11:05:49Z</time>
      </trkpt>
      <trkpt lat="44.83724" lon="5.48192">
        <ele>1629.09</ele>
        <time>2012-11-18T11:06:00Z</time>
      </trkpt>
      <trkpt lat="44.83734" lon="5.48191">
        <ele>1630.05</ele>
        <time>2012-11-18T11:06:09Z</time>
      </trkpt>
      <trkpt lat="44.8375" lon="5.48186">
        <ele>1630.05</ele>
        <time>2012-11-18T11:06:24Z</time>
      </trkpt>
      <trkpt lat="44.8376" lon="5.48188">
        <ele>1630.05</ele>
        <time>2012-11-18T11:06:32Z</time>
      </trkpt>
      <trkpt lat="44.83767" lon="5.48189">
        <ele>1630.05</ele>
        <time>2012-11-18T11:06:37Z</time>
      </trkpt>
      <trkpt lat="44.83784" lon="5.48193">
        <ele>1629.09</ele>
        <time>2012-11-18T11:06:51Z</time>
      </trkpt>
      <trkpt lat="44.838" lon="5.48196">
        <ele>1628.61</ele>
        <time>2012-11-18T11:07:04Z</time>
      </trkpt>
      <trkpt lat="44.83814" lon="5.48204">
        <ele>1628.13</ele>
        <time>2012-11-18T11:07:15Z</time>
      </trkpt>
      <trkpt lat="44.83832" lon="5.48209">
        <ele>1627.65</ele>
        <time>2012-11-18T11:07:29Z</time>
      </trkpt>
      <trkpt lat="44.83846" lon="5.48213">
        <ele>1627.17</ele>
        <time>2012-11-18T11:07:40Z</time>
      </trkpt>
      <trkpt lat="44.83863" lon="5.4822">
        <ele>1626.21</ele>
        <time>2012-11-18T11:07:54Z</time>
      </trkpt>
      <trkpt lat="44.83881" lon="5.48231">
        <ele>1624.77</ele>
        <time>2012-11-18T11:08:08Z</time>
      </trkpt>
      <trkpt lat="44.8389" lon="5.48238">
        <ele>1625.25</ele>
        <time>2012-11-18T11:08:16Z</time>
      </trkpt>
      <trkpt lat="44.83907" lon="5.48254">
        <ele>1624.28</ele>
        <time>2012-11-18T11:08:30Z</time>
      </trkpt>
      <trkpt lat="44.83911" lon="5.48257">
        <ele>1624.77</ele>
        <time>2012-11-18T11:08:33Z</time>
      </trkpt>
      <trkpt lat="44.83914" lon="5.48258">
        <ele>1624.28</ele>
        <time>2012-11-18T11:08:37Z</time>
      </trkpt>
      <trkpt lat="44.83927" lon="5.48266">
        <ele>1623.8</ele>
        <time>2012-11-18T11:08:48Z</time>
      </trkpt>
      <trkpt lat="44.83948" lon="5.4828">
        <ele>1622.36</ele>
        <time>2012-11-18T11:09:04Z</time>
      </trkpt>
      <trkpt lat="44.83965" lon="5.4829">
        <ele>1622.36</ele>
        <time>2012-11-18T11:09:18Z</time>
      </trkpt>
      <trkpt lat="44.83984" lon="5.48302">
        <ele>1620.92</ele>
        <time>2012-11-18T11:09:34Z</time>
      </trkpt>
      <trkpt lat="44.84003" lon="5.48318">
        <ele>1619.96</ele>
        <time>2012-11-18T11:09:51Z</time>
      </trkpt>
      <trkpt lat="44.84024" lon="5.48327">
        <ele>1618.52</ele>
        <time>2012-11-18T11:10:08Z</time>
      </trkpt>
      <trkpt lat="44.84041" lon="5.48337">
        <ele>1617.07</ele>
        <time>2012-11-18T11:10:22Z</time>
      </trkpt>
      <trkpt lat="44.84058" lon="5.4835">
        <ele>1614.67</ele>
        <time>2012-11-18T11:10:36Z</time>
      </trkpt>
      <trkpt lat="44.84073" lon="5.48349">
        <ele>1612.27</ele>
        <time>2012-11-18T11:10:50Z</time>
      </trkpt>
      <trkpt lat="44.84092" lon="5.48349">
        <ele>1610.35</ele>
        <time>2012-11-18T11:11:05Z</time>
      </trkpt>
      <trkpt lat="44.84102" lon="5.48352">
        <ele>1609.38</ele>
        <time>2012-11-18T11:11:14Z</time>
      </trkpt>
      <trkpt lat="44.8412" lon="5.48354">
        <ele>1607.94</ele>
        <time>2012-11-18T11:11:29Z</time>
      </trkpt>
      <trkpt lat="44.84136" lon="5.48354">
        <ele>1606.02</ele>
        <time>2012-11-18T11:11:43Z</time>
      </trkpt>
      <trkpt lat="44.84155" lon="5.48359">
        <ele>1604.1</ele>
        <time>2012-11-18T11:11:58Z</time>
      </trkpt>
      <trkpt lat="44.84163" lon="5.4836">
        <ele>1602.17</ele>
        <time>2012-11-18T11:12:07Z</time>
      </trkpt>
      <trkpt lat="44.84176" lon="5.48357">
        <ele>1600.73</ele>
        <time>2012-11-18T11:12:17Z</time>
      </trkpt>
      <trkpt lat="44.84191" lon="5.48355">
        <ele>1598.81</ele>
        <time>2012-11-18T11:12:30Z</time>
      </trkpt>
      <trkpt lat="44.84204" lon="5.48358">
        <ele>1597.85</ele>
        <time>2012-11-18T11:12:40Z</time>
      </trkpt>
      <trkpt lat="44.84226" lon="5.48361">
        <ele>1596.41</ele>
        <time>2012-11-18T11:12:58Z</time>
      </trkpt>
      <trkpt lat="44.84228" lon="5.48361">
        <ele>1596.41</ele>
        <time>2012-11-18T11:13:00Z</time>
      </trkpt>
      <trkpt lat="44.84249" lon="5.48375">
        <ele>1594.48</ele>
        <time>2012-11-18T11:13:17Z</time>
      </trkpt>
      <trkpt lat="44.84256" lon="5.48383">
        <ele>1594.48</ele>
        <time>2012-11-18T11:13:24Z</time>
      </trkpt>
      <trkpt lat="44.84261" lon="5.48388">
        <ele>1593.52</ele>
        <time>2012-11-18T11:13:29Z</time>
      </trkpt>
      <trkpt lat="44.84282" lon="5.48401">
        <ele>1592.08</ele>
        <time>2012-11-18T11:13:47Z</time>
      </trkpt>
      <trkpt lat="44.84298" lon="5.48412">
        <ele>1590.64</ele>
        <time>2012-11-18T11:14:01Z</time>
      </trkpt>
      <trkpt lat="44.84304" lon="5.48414">
        <ele>1590.16</ele>
        <time>2012-11-18T11:14:06Z</time>
      </trkpt>
      <trkpt lat="44.84327" lon="5.48416">
        <ele>1587.75</ele>
        <time>2012-11-18T11:14:25Z</time>
      </trkpt>
      <trkpt lat="44.8434" lon="5.48415">
        <ele>1587.27</ele>
        <time>2012-11-18T11:14:38Z</time>
      </trkpt>
      <trkpt lat="44.84343" lon="5.48418">
        <ele>1587.75</ele>
        <time>2012-11-18T11:14:53Z</time>
      </trkpt>
      <trkpt lat="44.84344" lon="5.48418">
        <ele>1587.27</ele>
        <time>2012-11-18T11:16:21Z</time>
      </trkpt>
      <trkpt lat="44.84344" lon="5.48418">
        <ele>1587.27</ele>
        <time>2012-11-18T11:16:46Z</time>
      </trkpt>
      <trkpt lat="44.8435" lon="5.48422">
        <ele>1587.27</ele>
        <time>2012-11-18T11:16:53Z</time>
      </trkpt>
      <trkpt lat="44.84365" lon="5.48432">
        <ele>1586.31</ele>
        <time>2012-11-18T11:17:06Z</time>
      </trkpt>
      <trkpt lat="44.84375" lon="5.48438">
        <ele>1585.35</ele>
        <time>2012-11-18T11:17:17Z</time>
      </trkpt>
      <trkpt lat="44.84385" lon="5.48445">
        <ele>1584.39</ele>
        <time>2012-11-18T11:17:29Z</time>
      </trkpt>
      <trkpt lat="44.844" lon="5.48454">
        <ele>1584.39</ele>
        <time>2012-11-18T11:17:42Z</time>
      </trkpt>
      <trkpt lat="44.84403" lon="5.48454">
        <ele>1583.91</ele>
        <time>2012-11-18T11:17:44Z</time>
      </trkpt>
      <trkpt lat="44.84421" lon="5.48463">
        <ele>1582.47</ele>
        <time>2012-11-18T11:18:01Z</time>
      </trkpt>
      <trkpt lat="44.84438" lon="5.48473">
        <ele>1581.51</ele>
        <time>2012-11-18T11:18:16Z</time>
      </trkpt>
      <trkpt lat="44.84454" lon="5.48485">
        <ele>1581.03</ele>
        <time>2012-11-18T11:18:30Z</time>
      </trkpt>
      <trkpt lat="44.84471" lon="5.48495">
        <ele>1580.06</ele>
        <time>2012-11-18T11:18:45Z</time>
      </trkpt>
      <trkpt lat="44.84475" lon="5.48497">
        <ele>1579.58</ele>
        <time>2012-11-18T11:18:48Z</time>
      </trkpt>
      <trkpt lat="44.8448" lon="5.48499">
        <ele>1579.58</ele>
        <time>2012-11-18T11:18:52Z</time>
      </trkpt>
      <trkpt lat="44.84493" lon="5.48505">
        <ele>1581.03</ele>
        <time>2012-11-18T11:19:05Z</time>
      </trkpt>
      <trkpt lat="44.84495" lon="5.48506">
        <ele>1581.51</ele>
        <time>2012-11-18T11:19:07Z</time>
      </trkpt>
      <trkpt lat="44.84513" lon="5.48519">
        <ele>1581.03</ele>
        <time>2012-11-18T11:19:23Z</time>
      </trkpt>
      <trkpt lat="44.84526" lon="5.48526">
        <ele>1580.54</ele>
        <time>2012-11-18T11:19:34Z</time>
      </trkpt>
      <trkpt lat="44.84539" lon="5.48521">
        <ele>1581.99</ele>
        <time>2012-11-18T11:19:47Z</time>
      </trkpt>
      <trkpt lat="44.84548" lon="5.48518">
        <ele>1582.47</ele>
        <time>2012-11-18T11:19:56Z</time>
      </trkpt>
      <trkpt lat="44.84553" lon="5.48518">
        <ele>1582.47</ele>
        <time>2012-11-18T11:20:01Z</time>
      </trkpt>
      <trkpt lat="44.84561" lon="5.48517">
        <ele>1583.91</ele>
        <time>2012-11-18T11:20:08Z</time>
      </trkpt>
      <trkpt lat="44.84567" lon="5.48516">
        <ele>1584.87</ele>
        <time>2012-11-18T11:20:14Z</time>
      </trkpt>
      <trkpt lat="44.84575" lon="5.48521">
        <ele>1585.83</ele>
        <time>2012-11-18T11:20:22Z</time>
      </trkpt>
      <trkpt lat="44.84583" lon="5.48524">
        <ele>1585.83</ele>
        <time>2012-11-18T11:20:30Z</time>
      </trkpt>
      <trkpt lat="44.84591" lon="5.48528">
        <ele>1586.31</ele>
        <time>2012-11-18T11:20:37Z</time>
      </trkpt>
      <trkpt lat="44.84597" lon="5.48531">
        <ele>1586.79</ele>
        <time>2012-11-18T11:20:42Z</time>
      </trkpt>
      <trkpt lat="44.84614" lon="5.48522">
        <ele>1586.31</ele>
        <time>2012-11-18T11:20:57Z</time>
      </trkpt>
      <trkpt lat="44.84633" lon="5.48518">
        <ele>1585.35</ele>
        <time>2012-11-18T11:21:13Z</time>
      </trkpt>
      <trkpt lat="44.84653" lon="5.48512">
        <ele>1585.83</ele>
        <time>2012-11-18T11:21:29Z</time>
      </trkpt>
      <trkpt lat="44.84664" lon="5.4851">
        <ele>1585.83</ele>
        <time>2012-11-18T11:21:43Z</time>
      </trkpt>
      <trkpt lat="44.84669" lon="5.48516">
        <ele>1586.31</ele>
        <time>2012-11-18T11:22:04Z</time>
      </trkpt>
      <trkpt lat="44.84682" lon="5.48522">
        <ele>1585.35</ele>
        <time>2012-11-18T11:22:16Z</time>
      </trkpt>
      <trkpt lat="44.84695" lon="5.48529">
        <ele>1584.39</ele>
        <time>2012-11-18T11:22:27Z</time>
      </trkpt>
      <trkpt lat="44.84702" lon="5.48533">
        <ele>1583.91</ele>
        <time>2012-11-18T11:22:33Z</time>
      </trkpt>
      <trkpt lat="44.84722" lon="5.48546">
        <ele>1583.43</ele>
        <time>2012-11-18T11:22:50Z</time>
      </trkpt>
      <trkpt lat="44.84739" lon="5.48558">
        <ele>1582.95</ele>
        <time>2012-11-18T11:23:05Z</time>
      </trkpt>
      <trkpt lat="44.84756" lon="5.48568">
        <ele>1582.47</ele>
        <time>2012-11-18T11:23:19Z</time>
      </trkpt>
      <trkpt lat="44.84775" lon="5.48577">
        <ele>1581.99</ele>
        <time>2012-11-18T11:23:35Z</time>
      </trkpt>
      <trkpt lat="44.84793" lon="5.48585">
        <ele>1580.54</ele>
        <time>2012-11-18T11:23:49Z</time>
      </trkpt>
      <trkpt lat="44.84802" lon="5.48595">
        <ele>1580.06</ele>
        <time>2012-11-18T11:23:58Z</time>
      </trkpt>
      <trkpt lat="44.84819" lon="5.48611">
        <ele>1579.1</ele>
        <time>2012-11-18T11:24:14Z</time>
      </trkpt>
      <trkpt lat="44.84824" lon="5.48618">
        <ele>1579.1</ele>
        <time>2012-11-18T11:24:20Z</time>
      </trkpt>
      <trkpt lat="44.84829" lon="5.48621">
        <ele>1579.1</ele>
        <time>2012-11-18T11:24:25Z</time>
      </trkpt>
      <trkpt lat="44.84847" lon="5.48637">
        <ele>1578.14</ele>
        <time>2012-11-18T11:24:41Z</time>
      </trkpt>
      <trkpt lat="44.84862" lon="5.48651">
        <ele>1577.66</ele>
        <time>2012-11-18T11:24:56Z</time>
      </trkpt>
      <trkpt lat="44.84879" lon="5.48668">
        <ele>1577.18</ele>
        <time>2012-11-18T11:25:13Z</time>
      </trkpt>
      <trkpt lat="44.84896" lon="5.48681">
        <ele>1576.22</ele>
        <time>2012-11-18T11:25:28Z</time>
      </trkpt>
      <trkpt lat="44.84911" lon="5.48694">
        <ele>1576.22</ele>
        <time>2012-11-18T11:25:41Z</time>
      </trkpt>
      <trkpt lat="44.8493" lon="5.48705">
        <ele>1575.26</ele>
        <time>2012-11-18T11:25:58Z</time>
      </trkpt>
      <trkpt lat="44.84946" lon="5.48715">
        <ele>1575.26</ele>
        <time>2012-11-18T11:26:11Z</time>
      </trkpt>
      <trkpt lat="44.84963" lon="5.48725">
        <ele>1574.3</ele>
        <time>2012-11-18T11:26:27Z</time>
      </trkpt>
      <trkpt lat="44.84982" lon="5.48734">
        <ele>1572.85</ele>
        <time>2012-11-18T11:26:43Z</time>
      </trkpt>
      <trkpt lat="44.84999" lon="5.48745">
        <ele>1571.89</ele>
        <time>2012-11-18T11:26:59Z</time>
      </trkpt>
      <trkpt lat="44.85014" lon="5.48757">
        <ele>1572.37</ele>
        <time>2012-11-18T11:27:14Z</time>
      </trkpt>
      <trkpt lat="44.85016" lon="5.4876">
        <ele>1572.85</ele>
        <time>2012-11-18T11:27:19Z</time>
      </trkpt>
      <trkpt lat="44.85016" lon="5.48763">
        <ele>1572.85</ele>
        <time>2012-11-18T11:27:22Z</time>
      </trkpt>
      <trkpt lat="44.8502" lon="5.48768">
        <ele>1573.82</ele>
        <time>2012-11-18T11:27:28Z</time>
      </trkpt>
      <trkpt lat="44.85028" lon="5.48777">
        <ele>1574.78</ele>
        <time>2012-11-18T11:27:40Z</time>
      </trkpt>
      <trkpt lat="44.85036" lon="5.48789">
        <ele>1574.78</ele>
        <time>2012-11-18T11:27:52Z</time>
      </trkpt>
      <trkpt lat="44.8505" lon="5.48805">
        <ele>1574.3</ele>
        <time>2012-11-18T11:28:08Z</time>
      </trkpt>
      <trkpt lat="44.85058" lon="5.48817">
        <ele>1574.3</ele>
        <time>2012-11-18T11:28:18Z</time>
      </trkpt>
      <trkpt lat="44.8506" lon="5.48824">
        <ele>1573.82</ele>
        <time>2012-11-18T11:28:22Z</time>
      </trkpt>
      <trkpt lat="44.85068" lon="5.48838">
        <ele>1574.78</ele>
        <time>2012-11-18T11:28:35Z</time>
      </trkpt>
      <trkpt lat="44.85071" lon="5.48844">
        <ele>1574.78</ele>
        <time>2012-11-18T11:28:40Z</time>
      </trkpt>
      <trkpt lat="44.85072" lon="5.48847">
        <ele>1574.78</ele>
        <time>2012-11-18T11:28:42Z</time>
      </trkpt>
      <trkpt lat="44.85083" lon="5.48868">
        <ele>1575.26</ele>
        <time>2012-11-18T11:28:58Z</time>
      </trkpt>
      <trkpt lat="44.85086" lon="5.48873">
        <ele>1575.74</ele>
        <time>2012-11-18T11:29:02Z</time>
      </trkpt>
      <trkpt lat="44.85093" lon="5.4889">
        <ele>1576.22</ele>
        <time>2012-11-18T11:29:14Z</time>
      </trkpt>
      <trkpt lat="44.85095" lon="5.48899">
        <ele>1575.74</ele>
        <time>2012-11-18T11:29:20Z</time>
      </trkpt>
      <trkpt lat="44.85095" lon="5.48908">
        <ele>1576.22</ele>
        <time>2012-11-18T11:29:32Z</time>
      </trkpt>
      <trkpt lat="44.85095" lon="5.48908">
        <ele>1575.26</ele>
        <time>2012-11-18T11:29:47Z</time>
      </trkpt>
      <trkpt lat="44.85094" lon="5.48911">
        <ele>1576.7</ele>
        <time>2012-11-18T11:29:53Z</time>
      </trkpt>
      <trkpt lat="44.85094" lon="5.4891">
        <ele>1575.26</ele>
        <time>2012-11-18T11:30:10Z</time>
      </trkpt>
      <trkpt lat="44.85094" lon="5.4891">
        <ele>1575.26</ele>
        <time>2012-11-18T11:31:01Z</time>
      </trkpt>
      <trkpt lat="44.85095" lon="5.48911">
        <ele>1575.26</ele>
        <time>2012-11-18T11:33:04Z</time>
      </trkpt>
      <trkpt lat="44.85095" lon="5.48911">
        <ele>1575.26</ele>
        <time>2012-11-18T11:33:46Z</time>
      </trkpt>
      <trkpt lat="44.85094" lon="5.48911">
        <ele>1575.26</ele>
        <time>2012-11-18T11:34:28Z</time>
      </trkpt>
      <trkpt lat="44.85094" lon="5.48911">
        <ele>1575.26</ele>
        <time>2012-11-18T11:35:29Z</time>
      </trkpt>
      <trkpt lat="44.85095" lon="5.48912">
        <ele>1574.78</ele>
        <time>2012-11-18T11:37:09Z</time>
      </trkpt>
      <trkpt lat="44.85094" lon="5.48912">
        <ele>1574.3</ele>
        <time>2012-11-18T11:39:29Z</time>
      </trkpt>
      <trkpt lat="44.85093" lon="5.48912">
        <ele>1574.3</ele>
        <time>2012-11-18T11:42:25Z</time>
      </trkpt>
      <trkpt lat="44.85092" lon="5.48913">
        <ele>1574.78</ele>
        <time>2012-11-18T11:43:53Z</time>
      </trkpt>
      <trkpt lat="44.85093" lon="5.48911">
        <ele>1573.33</ele>
        <time>2012-11-18T11:58:41Z</time>
      </trkpt>
      <trkpt lat="44.85093" lon="5.48911">
        <ele>1572.85</ele>
        <time>2012-11-18T12:01:35Z</time>
      </trkpt>
      <trkpt lat="44.85093" lon="5.48912">
        <ele>1573.82</ele>
        <time>2012-11-18T12:03:59Z</time>
      </trkpt>
      <trkpt lat="44.85092" lon="5.48911">
        <ele>1573.33</ele>
        <time>2012-11-18T12:05:02Z</time>
      </trkpt>
      <trkpt lat="44.85091" lon="5.48911">
        <ele>1573.33</ele>
        <time>2012-11-18T12:06:17Z</time>
      </trkpt>
      <trkpt lat="44.85091" lon="5.48911">
        <ele>1573.33</ele>
        <time>2012-11-18T12:07:10Z</time>
      </trkpt>
      <trkpt lat="44.85091" lon="5.48911">
        <ele>1573.82</ele>
        <time>2012-11-18T12:08:05Z</time>
      </trkpt>
      <trkpt lat="44.85092" lon="5.48912">
        <ele>1573.33</ele>
        <time>2012-11-18T12:09:03Z</time>
      </trkpt>
      <trkpt lat="44.85092" lon="5.48911">
        <ele>1574.3</ele>
        <time>2012-11-18T12:09:47Z</time>
      </trkpt>
      <trkpt lat="44.85092" lon="5.48911">
        <ele>1571.41</ele>
        <time>2012-11-18T12:09:59Z</time>
      </trkpt>
      <trkpt lat="44.85093" lon="5.48911">
        <ele>1572.85</ele>
        <time>2012-11-18T12:12:18Z</time>
      </trkpt>
      <trkpt lat="44.85094" lon="5.48911">
        <ele>1573.82</ele>
        <time>2012-11-18T12:15:24Z</time>
      </trkpt>
      <trkpt lat="44.85094" lon="5.48911">
        <ele>1574.3</ele>
        <time>2012-11-18T12:15:43Z</time>
      </trkpt>
      <trkpt lat="44.85094" lon="5.48911">
        <ele>1572.85</ele>
        <time>2012-11-18T12:16:17Z</time>
      </trkpt>
      <trkpt lat="44.85094" lon="5.48912">
        <ele>1572.85</ele>
        <time>2012-11-18T12:16:51Z</time>
      </trkpt>
      <trkpt lat="44.85094" lon="5.48912">
        <ele>1572.85</ele>
        <time>2012-11-18T12:17:59Z</time>
      </trkpt>
      <trkpt lat="44.85094" lon="5.48912">
        <ele>1573.33</ele>
        <time>2012-11-18T12:19:12Z</time>
      </trkpt>
      <trkpt lat="44.85094" lon="5.48912">
        <ele>1572.37</ele>
        <time>2012-11-18T12:19:14Z</time>
      </trkpt>
      <trkpt lat="44.85094" lon="5.48911">
        <ele>1566.61</ele>
        <time>2012-11-18T12:19:28Z</time>
      </trkpt>
      <trkpt lat="44.85094" lon="5.48911">
        <ele>1577.66</ele>
        <time>2012-11-18T12:19:29Z</time>
      </trkpt>
      <trkpt lat="44.85094" lon="5.48911">
        <ele>1574.78</ele>
        <time>2012-11-18T12:19:30Z</time>
      </trkpt>
      <trkpt lat="44.85094" lon="5.48911">
        <ele>1573.82</ele>
        <time>2012-11-18T12:19:32Z</time>
      </trkpt>
      <trkpt lat="44.85094" lon="5.48913">
        <ele>1574.78</ele>
        <time>2012-11-18T12:19:53Z</time>
      </trkpt>
      <trkpt lat="44.85096" lon="5.48915">
        <ele>1574.3</ele>
        <time>2012-11-18T12:20:01Z</time>
      </trkpt>
      <trkpt lat="44.85097" lon="5.48917">
        <ele>1574.3</ele>
        <time>2012-11-18T12:20:09Z</time>
      </trkpt>
      <trkpt lat="44.85103" lon="5.48921">
        <ele>1573.33</ele>
        <time>2012-11-18T12:20:17Z</time>
      </trkpt>
      <trkpt lat="44.85104" lon="5.48924">
        <ele>1573.82</ele>
        <time>2012-11-18T12:20:20Z</time>
      </trkpt>
      <trkpt lat="44.85115" lon="5.48938">
        <ele>1573.82</ele>
        <time>2012-11-18T12:20:34Z</time>
      </trkpt>
      <trkpt lat="44.85122" lon="5.48955">
        <ele>1574.3</ele>
        <time>2012-11-18T12:20:48Z</time>
      </trkpt>
      <trkpt lat="44.85126" lon="5.48966">
        <ele>1574.3</ele>
        <time>2012-11-18T12:20:56Z</time>
      </trkpt>
      <trkpt lat="44.85128" lon="5.48969">
        <ele>1574.78</ele>
        <time>2012-11-18T12:20:59Z</time>
      </trkpt>
      <trkpt lat="44.85132" lon="5.48975">
        <ele>1574.3</ele>
        <time>2012-11-18T12:21:04Z</time>
      </trkpt>
      <trkpt lat="44.85137" lon="5.48984">
        <ele>1574.78</ele>
        <time>2012-11-18T12:21:12Z</time>
      </trkpt>
      <trkpt lat="44.85144" lon="5.48997">
        <ele>1575.26</ele>
        <time>2012-11-18T12:21:26Z</time>
      </trkpt>
      <trkpt lat="44.85145" lon="5.49001">
        <ele>1575.26</ele>
        <time>2012-11-18T12:21:30Z</time>
      </trkpt>
      <trkpt lat="44.85149" lon="5.49006">
        <ele>1575.74</ele>
        <time>2012-11-18T12:21:35Z</time>
      </trkpt>
      <trkpt lat="44.85159" lon="5.49027">
        <ele>1575.74</ele>
        <time>2012-11-18T12:21:50Z</time>
      </trkpt>
      <trkpt lat="44.85162" lon="5.49032">
        <ele>1576.22</ele>
        <time>2012-11-18T12:21:53Z</time>
      </trkpt>
      <trkpt lat="44.85176" lon="5.49037">
        <ele>1575.26</ele>
        <time>2012-11-18T12:22:07Z</time>
      </trkpt>
      <trkpt lat="44.85192" lon="5.49037">
        <ele>1574.3</ele>
        <time>2012-11-18T12:22:21Z</time>
      </trkpt>
      <trkpt lat="44.85201" lon="5.49039">
        <ele>1573.82</ele>
        <time>2012-11-18T12:22:37Z</time>
      </trkpt>
      <trkpt lat="44.85214" lon="5.49042">
        <ele>1572.85</ele>
        <time>2012-11-18T12:22:55Z</time>
      </trkpt>
      <trkpt lat="44.85232" lon="5.49048">
        <ele>1571.41</ele>
        <time>2012-11-18T12:23:10Z</time>
      </trkpt>
      <trkpt lat="44.85242" lon="5.49056">
        <ele>1570.93</ele>
        <time>2012-11-18T12:23:20Z</time>
      </trkpt>
      <trkpt lat="44.85256" lon="5.49065">
        <ele>1570.93</ele>
        <time>2012-11-18T12:23:34Z</time>
      </trkpt>
      <trkpt lat="44.85275" lon="5.49063">
        <ele>1569.97</ele>
        <time>2012-11-18T12:23:50Z</time>
      </trkpt>
      <trkpt lat="44.8529" lon="5.49059">
        <ele>1569.49</ele>
        <time>2012-11-18T12:24:03Z</time>
      </trkpt>
      <trkpt lat="44.85298" lon="5.49059">
        <ele>1569.01</ele>
        <time>2012-11-18T12:24:09Z</time>
      </trkpt>
      <trkpt lat="44.85317" lon="5.49064">
        <ele>1568.53</ele>
        <time>2012-11-18T12:24:26Z</time>
      </trkpt>
      <trkpt lat="44.85325" lon="5.49071">
        <ele>1567.57</ele>
        <time>2012-11-18T12:24:34Z</time>
      </trkpt>
      <trkpt lat="44.85343" lon="5.49074">
        <ele>1566.61</ele>
        <time>2012-11-18T12:24:50Z</time>
      </trkpt>
      <trkpt lat="44.85361" lon="5.49078">
        <ele>1565.64</ele>
        <time>2012-11-18T12:25:05Z</time>
      </trkpt>
      <trkpt lat="44.8537" lon="5.49082">
        <ele>1565.64</ele>
        <time>2012-11-18T12:25:14Z</time>
      </trkpt>
      <trkpt lat="44.85375" lon="5.49081">
        <ele>1565.16</ele>
        <time>2012-11-18T12:25:18Z</time>
      </trkpt>
      <trkpt lat="44.85378" lon="5.49082">
        <ele>1565.16</ele>
        <time>2012-11-18T12:25:21Z</time>
      </trkpt>
      <trkpt lat="44.85392" lon="5.49091">
        <ele>1565.16</ele>
        <time>2012-11-18T12:25:37Z</time>
      </trkpt>
      <trkpt lat="44.85401" lon="5.49101">
        <ele>1564.68</ele>
        <time>2012-11-18T12:25:47Z</time>
      </trkpt>
      <trkpt lat="44.85413" lon="5.49108">
        <ele>1564.2</ele>
        <time>2012-11-18T12:25:57Z</time>
      </trkpt>
      <trkpt lat="44.85423" lon="5.49119">
        <ele>1563.24</ele>
        <time>2012-11-18T12:26:06Z</time>
      </trkpt>
      <trkpt lat="44.8544" lon="5.49137">
        <ele>1563.24</ele>
        <time>2012-11-18T12:26:23Z</time>
      </trkpt>
      <trkpt lat="44.85458" lon="5.49151">
        <ele>1562.76</ele>
        <time>2012-11-18T12:26:39Z</time>
      </trkpt>
      <trkpt lat="44.85474" lon="5.4917">
        <ele>1562.76</ele>
        <time>2012-11-18T12:26:55Z</time>
      </trkpt>
      <trkpt lat="44.85478" lon="5.49197">
        <ele>1565.16</ele>
        <time>2012-11-18T12:27:10Z</time>
      </trkpt>
      <trkpt lat="44.85479" lon="5.49202">
        <ele>1565.16</ele>
        <time>2012-11-18T12:27:13Z</time>
      </trkpt>
      <trkpt lat="44.8548" lon="5.49221">
        <ele>1565.64</ele>
        <time>2012-11-18T12:27:24Z</time>
      </trkpt>
      <trkpt lat="44.85486" lon="5.4923">
        <ele>1566.61</ele>
        <time>2012-11-18T12:27:31Z</time>
      </trkpt>
      <trkpt lat="44.85494" lon="5.49247">
        <ele>1568.05</ele>
        <time>2012-11-18T12:27:43Z</time>
      </trkpt>
      <trkpt lat="44.855" lon="5.49264">
        <ele>1568.53</ele>
        <time>2012-11-18T12:27:54Z</time>
      </trkpt>
      <trkpt lat="44.85503" lon="5.4927">
        <ele>1569.01</ele>
        <time>2012-11-18T12:27:58Z</time>
      </trkpt>
      <trkpt lat="44.85505" lon="5.49274">
        <ele>1569.01</ele>
        <time>2012-11-18T12:28:01Z</time>
      </trkpt>
      <trkpt lat="44.85505" lon="5.4928">
        <ele>1569.49</ele>
        <time>2012-11-18T12:28:04Z</time>
      </trkpt>
      <trkpt lat="44.85513" lon="5.49298">
        <ele>1570.93</ele>
        <time>2012-11-18T12:28:16Z</time>
      </trkpt>
      <trkpt lat="44.85524" lon="5.49325">
        <ele>1572.85</ele>
        <time>2012-11-18T12:28:34Z</time>
      </trkpt>
      <trkpt lat="44.8553" lon="5.49351">
        <ele>1573.82</ele>
        <time>2012-11-18T12:28:49Z</time>
      </trkpt>
      <trkpt lat="44.85538" lon="5.49379">
        <ele>1574.78</ele>
        <time>2012-11-18T12:29:05Z</time>
      </trkpt>
      <trkpt lat="44.85548" lon="5.49405">
        <ele>1575.74</ele>
        <time>2012-11-18T12:29:21Z</time>
      </trkpt>
      <trkpt lat="44.85554" lon="5.49429">
        <ele>1577.18</ele>
        <time>2012-11-18T12:29:35Z</time>
      </trkpt>
      <trkpt lat="44.85562" lon="5.49453">
        <ele>1578.14</ele>
        <time>2012-11-18T12:29:50Z</time>
      </trkpt>
      <trkpt lat="44.85563" lon="5.49455">
        <ele>1578.14</ele>
        <time>2012-11-18T12:29:52Z</time>
      </trkpt>
      <trkpt lat="44.85568" lon="5.49482">
        <ele>1578.62</ele>
        <time>2012-11-18T12:30:08Z</time>
      </trkpt>
      <trkpt lat="44.85572" lon="5.49495">
        <ele>1579.1</ele>
        <time>2012-11-18T12:30:22Z</time>
      </trkpt>
      <trkpt lat="44.85572" lon="5.49495">
        <ele>1579.1</ele>
        <time>2012-11-18T12:30:49Z</time>
      </trkpt>
      <trkpt lat="44.85575" lon="5.49508">
        <ele>1579.58</ele>
        <time>2012-11-18T12:31:04Z</time>
      </trkpt>
      <trkpt lat="44.85575" lon="5.49509">
        <ele>1579.58</ele>
        <time>2012-11-18T12:31:17Z</time>
      </trkpt>
      <trkpt lat="44.85575" lon="5.49509">
        <ele>1580.06</ele>
        <time>2012-11-18T12:31:25Z</time>
      </trkpt>
      <trkpt lat="44.85578" lon="5.49514">
        <ele>1580.06</ele>
        <time>2012-11-18T12:31:29Z</time>
      </trkpt>
      <trkpt lat="44.85585" lon="5.49531">
        <ele>1581.03</ele>
        <time>2012-11-18T12:31:41Z</time>
      </trkpt>
      <trkpt lat="44.8559" lon="5.49541">
        <ele>1581.51</ele>
        <time>2012-11-18T12:31:53Z</time>
      </trkpt>
      <trkpt lat="44.85594" lon="5.4956">
        <ele>1582.95</ele>
        <time>2012-11-18T12:32:05Z</time>
      </trkpt>
      <trkpt lat="44.85594" lon="5.49569">
        <ele>1583.43</ele>
        <time>2012-11-18T12:32:11Z</time>
      </trkpt>
      <trkpt lat="44.85599" lon="5.49594">
        <ele>1585.35</ele>
        <time>2012-11-18T12:32:26Z</time>
      </trkpt>
      <trkpt lat="44.85604" lon="5.49617">
        <ele>1587.27</ele>
        <time>2012-11-18T12:32:41Z</time>
      </trkpt>
      <trkpt lat="44.85606" lon="5.49623">
        <ele>1587.75</ele>
        <time>2012-11-18T12:32:46Z</time>
      </trkpt>
      <trkpt lat="44.85608" lon="5.49631">
        <ele>1587.27</ele>
        <time>2012-11-18T12:32:51Z</time>
      </trkpt>
      <trkpt lat="44.85612" lon="5.49658">
        <ele>1588.72</ele>
        <time>2012-11-18T12:33:07Z</time>
      </trkpt>
      <trkpt lat="44.85612" lon="5.49665">
        <ele>1589.68</ele>
        <time>2012-11-18T12:33:11Z</time>
      </trkpt>
      <trkpt lat="44.85612" lon="5.49668">
        <ele>1589.2</ele>
        <time>2012-11-18T12:33:13Z</time>
      </trkpt>
      <trkpt lat="44.85612" lon="5.49694">
        <ele>1591.12</ele>
        <time>2012-11-18T12:33:28Z</time>
      </trkpt>
      <trkpt lat="44.85612" lon="5.49708">
        <ele>1592.08</ele>
        <time>2012-11-18T12:33:36Z</time>
      </trkpt>
      <trkpt lat="44.85611" lon="5.49716">
        <ele>1593.04</ele>
        <time>2012-11-18T12:33:41Z</time>
      </trkpt>
      <trkpt lat="44.85614" lon="5.49736">
        <ele>1594.48</ele>
        <time>2012-11-18T12:33:54Z</time>
      </trkpt>
      <trkpt lat="44.85615" lon="5.49751">
        <ele>1595.45</ele>
        <time>2012-11-18T12:34:02Z</time>
      </trkpt>
      <trkpt lat="44.85619" lon="5.49772">
        <ele>1595.93</ele>
        <time>2012-11-18T12:34:15Z</time>
      </trkpt>
      <trkpt lat="44.8562" lon="5.49778">
        <ele>1595.93</ele>
        <time>2012-11-18T12:34:18Z</time>
      </trkpt>
      <trkpt lat="44.85629" lon="5.49805">
        <ele>1596.89</ele>
        <time>2012-11-18T12:34:32Z</time>
      </trkpt>
      <trkpt lat="44.85641" lon="5.49831">
        <ele>1598.33</ele>
        <time>2012-11-18T12:34:49Z</time>
      </trkpt>
      <trkpt lat="44.85653" lon="5.49855">
        <ele>1599.29</ele>
        <time>2012-11-18T12:35:05Z</time>
      </trkpt>
      <trkpt lat="44.85659" lon="5.4988">
        <ele>1600.73</ele>
        <time>2012-11-18T12:35:19Z</time>
      </trkpt>
      <trkpt lat="44.85662" lon="5.49889">
        <ele>1601.21</ele>
        <time>2012-11-18T12:35:25Z</time>
      </trkpt>
      <trkpt lat="44.85671" lon="5.49913">
        <ele>1602.17</ele>
        <time>2012-11-18T12:35:40Z</time>
      </trkpt>
      <trkpt lat="44.85684" lon="5.49932">
        <ele>1603.14</ele>
        <time>2012-11-18T12:35:54Z</time>
      </trkpt>
      <trkpt lat="44.85686" lon="5.49943">
        <ele>1603.62</ele>
        <time>2012-11-18T12:36:01Z</time>
      </trkpt>
      <trkpt lat="44.85696" lon="5.49964">
        <ele>1605.06</ele>
        <time>2012-11-18T12:36:16Z</time>
      </trkpt>
      <trkpt lat="44.85697" lon="5.49965">
        <ele>1605.54</ele>
        <time>2012-11-18T12:36:17Z</time>
      </trkpt>
      <trkpt lat="44.85699" lon="5.49975">
        <ele>1606.02</ele>
        <time>2012-11-18T12:36:23Z</time>
      </trkpt>
      <trkpt lat="44.85706" lon="5.49992">
        <ele>1606.98</ele>
        <time>2012-11-18T12:36:37Z</time>
      </trkpt>
      <trkpt lat="44.85706" lon="5.49992">
        <ele>1606.98</ele>
        <time>2012-11-18T12:36:53Z</time>
      </trkpt>
      <trkpt lat="44.85707" lon="5.49993">
        <ele>1606.98</ele>
        <time>2012-11-18T12:37:07Z</time>
      </trkpt>
      <trkpt lat="44.85708" lon="5.49997">
        <ele>1607.46</ele>
        <time>2012-11-18T12:37:20Z</time>
      </trkpt>
      <trkpt lat="44.85711" lon="5.50003">
        <ele>1606.98</ele>
        <time>2012-11-18T12:37:25Z</time>
      </trkpt>
      <trkpt lat="44.85716" lon="5.50017">
        <ele>1608.9</ele>
        <time>2012-11-18T12:37:35Z</time>
      </trkpt>
      <trkpt lat="44.85718" lon="5.50023">
        <ele>1609.38</ele>
        <time>2012-11-18T12:37:40Z</time>
      </trkpt>
      <trkpt lat="44.85719" lon="5.50027">
        <ele>1609.86</ele>
        <time>2012-11-18T12:37:43Z</time>
      </trkpt>
      <trkpt lat="44.85722" lon="5.50038">
        <ele>1610.35</ele>
        <time>2012-11-18T12:37:50Z</time>
      </trkpt>
      <trkpt lat="44.85724" lon="5.50043">
        <ele>1610.83</ele>
        <time>2012-11-18T12:37:53Z</time>
      </trkpt>
      <trkpt lat="44.85726" lon="5.50049">
        <ele>1611.31</ele>
        <time>2012-11-18T12:37:57Z</time>
      </trkpt>
      <trkpt lat="44.85732" lon="5.50069">
        <ele>1612.75</ele>
        <time>2012-11-18T12:38:11Z</time>
      </trkpt>
      <trkpt lat="44.85733" lon="5.50071">
        <ele>1612.75</ele>
        <time>2012-11-18T12:38:12Z</time>
      </trkpt>
      <trkpt lat="44.85733" lon="5.50073">
        <ele>1613.23</ele>
        <time>2012-11-18T12:38:14Z</time>
      </trkpt>
      <trkpt lat="44.85735" lon="5.50085">
        <ele>1614.19</ele>
        <time>2012-11-18T12:38:22Z</time>
      </trkpt>
      <trkpt lat="44.85739" lon="5.50103">
        <ele>1615.15</ele>
        <time>2012-11-18T12:38:34Z</time>
      </trkpt>
      <trkpt lat="44.85741" lon="5.50114">
        <ele>1616.11</ele>
        <time>2012-11-18T12:38:41Z</time>
      </trkpt>
      <trkpt lat="44.85741" lon="5.50121">
        <ele>1617.07</ele>
        <time>2012-11-18T12:38:46Z</time>
      </trkpt>
      <trkpt lat="44.85745" lon="5.50141">
        <ele>1618.04</ele>
        <time>2012-11-18T12:38:59Z</time>
      </trkpt>
      <trkpt lat="44.85746" lon="5.50149">
        <ele>1618.52</ele>
        <time>2012-11-18T12:39:04Z</time>
      </trkpt>
      <trkpt lat="44.85747" lon="5.50153">
        <ele>1619</ele>
        <time>2012-11-18T12:39:06Z</time>
      </trkpt>
      <trkpt lat="44.85747" lon="5.5016">
        <ele>1619</ele>
        <time>2012-11-18T12:39:11Z</time>
      </trkpt>
      <trkpt lat="44.85748" lon="5.50169">
        <ele>1619.96</ele>
        <time>2012-11-18T12:39:17Z</time>
      </trkpt>
      <trkpt lat="44.85751" lon="5.50186">
        <ele>1621.4</ele>
        <time>2012-11-18T12:39:28Z</time>
      </trkpt>
      <trkpt lat="44.85751" lon="5.50194">
        <ele>1622.36</ele>
        <time>2012-11-18T12:39:33Z</time>
      </trkpt>
      <trkpt lat="44.85753" lon="5.50202">
        <ele>1623.8</ele>
        <time>2012-11-18T12:39:39Z</time>
      </trkpt>
      <trkpt lat="44.85753" lon="5.50204">
        <ele>1623.8</ele>
        <time>2012-11-18T12:39:41Z</time>
      </trkpt>
      <trkpt lat="44.85754" lon="5.50209">
        <ele>1624.28</ele>
        <time>2012-11-18T12:39:44Z</time>
      </trkpt>
      <trkpt lat="44.85756" lon="5.50213">
        <ele>1624.77</ele>
        <time>2012-11-18T12:39:48Z</time>
      </trkpt>
      <trkpt lat="44.85756" lon="5.50217">
        <ele>1625.25</ele>
        <time>2012-11-18T12:39:51Z</time>
      </trkpt>
      <trkpt lat="44.85758" lon="5.5022">
        <ele>1625.25</ele>
        <time>2012-11-18T12:39:53Z</time>
      </trkpt>
      <trkpt lat="44.85761" lon="5.50235">
        <ele>1627.17</ele>
        <time>2012-11-18T12:40:04Z</time>
      </trkpt>
      <trkpt lat="44.85761" lon="5.50237">
        <ele>1627.17</ele>
        <time>2012-11-18T12:40:05Z</time>
      </trkpt>
      <trkpt lat="44.85763" lon="5.50246">
        <ele>1628.13</ele>
        <time>2012-11-18T12:40:12Z</time>
      </trkpt>
      <trkpt lat="44.85764" lon="5.50249">
        <ele>1629.09</ele>
        <time>2012-11-18T12:40:15Z</time>
      </trkpt>
      <trkpt lat="44.85766" lon="5.50263">
        <ele>1630.53</ele>
        <time>2012-11-18T12:40:25Z</time>
      </trkpt>
      <trkpt lat="44.8577" lon="5.50278">
        <ele>1632.46</ele>
        <time>2012-11-18T12:40:35Z</time>
      </trkpt>
      <trkpt lat="44.8577" lon="5.50283">
        <ele>1632.46</ele>
        <time>2012-11-18T12:40:38Z</time>
      </trkpt>
      <trkpt lat="44.85772" lon="5.50288">
        <ele>1632.94</ele>
        <time>2012-11-18T12:40:42Z</time>
      </trkpt>
      <trkpt lat="44.85773" lon="5.50296">
        <ele>1633.9</ele>
        <time>2012-11-18T12:40:47Z</time>
      </trkpt>
      <trkpt lat="44.85774" lon="5.50304">
        <ele>1634.38</ele>
        <time>2012-11-18T12:40:52Z</time>
      </trkpt>
      <trkpt lat="44.85775" lon="5.50314">
        <ele>1635.34</ele>
        <time>2012-11-18T12:40:58Z</time>
      </trkpt>
      <trkpt lat="44.85775" lon="5.50322">
        <ele>1635.82</ele>
        <time>2012-11-18T12:41:03Z</time>
      </trkpt>
      <trkpt lat="44.85779" lon="5.50342">
        <ele>1637.26</ele>
        <time>2012-11-18T12:41:16Z</time>
      </trkpt>
      <trkpt lat="44.8578" lon="5.50345">
        <ele>1638.22</ele>
        <time>2012-11-18T12:41:18Z</time>
      </trkpt>
      <trkpt lat="44.85783" lon="5.50358">
        <ele>1638.22</ele>
        <time>2012-11-18T12:41:27Z</time>
      </trkpt>
      <trkpt lat="44.85785" lon="5.50362">
        <ele>1639.19</ele>
        <time>2012-11-18T12:41:30Z</time>
      </trkpt>
      <trkpt lat="44.85787" lon="5.50383">
        <ele>1640.15</ele>
        <time>2012-11-18T12:41:44Z</time>
      </trkpt>
      <trkpt lat="44.8579" lon="5.50396">
        <ele>1641.59</ele>
        <time>2012-11-18T12:41:53Z</time>
      </trkpt>
      <trkpt lat="44.8579" lon="5.50403">
        <ele>1642.55</ele>
        <time>2012-11-18T12:41:58Z</time>
      </trkpt>
      <trkpt lat="44.85792" lon="5.5041">
        <ele>1642.55</ele>
        <time>2012-11-18T12:42:03Z</time>
      </trkpt>
      <trkpt lat="44.85793" lon="5.50416">
        <ele>1643.03</ele>
        <time>2012-11-18T12:42:07Z</time>
      </trkpt>
      <trkpt lat="44.85795" lon="5.50428">
        <ele>1643.99</ele>
        <time>2012-11-18T12:42:15Z</time>
      </trkpt>
      <trkpt lat="44.858" lon="5.50448">
        <ele>1645.91</ele>
        <time>2012-11-18T12:42:28Z</time>
      </trkpt>
      <trkpt lat="44.85803" lon="5.50468">
        <ele>1647.36</ele>
        <time>2012-11-18T12:42:41Z</time>
      </trkpt>
      <trkpt lat="44.85807" lon="5.50488">
        <ele>1648.8</ele>
        <time>2012-11-18T12:42:54Z</time>
      </trkpt>
      <trkpt lat="44.85809" lon="5.505">
        <ele>1649.76</ele>
        <time>2012-11-18T12:43:02Z</time>
      </trkpt>
      <trkpt lat="44.8581" lon="5.50509">
        <ele>1650.24</ele>
        <time>2012-11-18T12:43:08Z</time>
      </trkpt>
      <trkpt lat="44.8581" lon="5.50516">
        <ele>1650.72</ele>
        <time>2012-11-18T12:43:12Z</time>
      </trkpt>
      <trkpt lat="44.85811" lon="5.50518">
        <ele>1651.68</ele>
        <time>2012-11-18T12:43:14Z</time>
      </trkpt>
      <trkpt lat="44.85811" lon="5.5052">
        <ele>1651.68</ele>
        <time>2012-11-18T12:43:16Z</time>
      </trkpt>
      <trkpt lat="44.85811" lon="5.50525">
        <ele>1652.64</ele>
        <time>2012-11-18T12:43:19Z</time>
      </trkpt>
      <trkpt lat="44.85811" lon="5.50529">
        <ele>1652.64</ele>
        <time>2012-11-18T12:43:22Z</time>
      </trkpt>
      <trkpt lat="44.85812" lon="5.50539">
        <ele>1653.12</ele>
        <time>2012-11-18T12:43:28Z</time>
      </trkpt>
      <trkpt lat="44.85811" lon="5.50543">
        <ele>1654.09</ele>
        <time>2012-11-18T12:43:31Z</time>
      </trkpt>
      <trkpt lat="44.85816" lon="5.50567">
        <ele>1655.53</ele>
        <time>2012-11-18T12:43:46Z</time>
      </trkpt>
      <trkpt lat="44.85817" lon="5.5057">
        <ele>1655.53</ele>
        <time>2012-11-18T12:43:48Z</time>
      </trkpt>
      <trkpt lat="44.85822" lon="5.50589">
        <ele>1657.45</ele>
        <time>2012-11-18T12:44:01Z</time>
      </trkpt>
      <trkpt lat="44.8583" lon="5.50611">
        <ele>1659.85</ele>
        <time>2012-11-18T12:44:16Z</time>
      </trkpt>
      <trkpt lat="44.85834" lon="5.50624">
        <ele>1660.81</ele>
        <time>2012-11-18T12:44:25Z</time>
      </trkpt>
      <trkpt lat="44.85834" lon="5.50641">
        <ele>1663.22</ele>
        <time>2012-11-18T12:44:36Z</time>
      </trkpt>
      <trkpt lat="44.85837" lon="5.50659">
        <ele>1664.18</ele>
        <time>2012-11-18T12:44:48Z</time>
      </trkpt>
      <trkpt lat="44.85837" lon="5.50661">
        <ele>1664.66</ele>
        <time>2012-11-18T12:44:50Z</time>
      </trkpt>
      <trkpt lat="44.85838" lon="5.50667">
        <ele>1665.62</ele>
        <time>2012-11-18T12:44:54Z</time>
      </trkpt>
      <trkpt lat="44.85837" lon="5.5068">
        <ele>1666.58</ele>
        <time>2012-11-18T12:45:02Z</time>
      </trkpt>
      <trkpt lat="44.85835" lon="5.50696">
        <ele>1668.02</ele>
        <time>2012-11-18T12:45:13Z</time>
      </trkpt>
      <trkpt lat="44.85836" lon="5.50698">
        <ele>1668.51</ele>
        <time>2012-11-18T12:45:14Z</time>
      </trkpt>
      <trkpt lat="44.85837" lon="5.507">
        <ele>1669.47</ele>
        <time>2012-11-18T12:45:16Z</time>
      </trkpt>
      <trkpt lat="44.85838" lon="5.50708">
        <ele>1669.47</ele>
        <time>2012-11-18T12:45:21Z</time>
      </trkpt>
      <trkpt lat="44.85839" lon="5.50712">
        <ele>1669.95</ele>
        <time>2012-11-18T12:45:24Z</time>
      </trkpt>
      <trkpt lat="44.8584" lon="5.50718">
        <ele>1669.47</ele>
        <time>2012-11-18T12:45:38Z</time>
      </trkpt>
      <trkpt lat="44.8584" lon="5.50718">
        <ele>1668.99</ele>
        <time>2012-11-18T12:46:54Z</time>
      </trkpt>
      <trkpt lat="44.85839" lon="5.50718">
        <ele>1670.43</ele>
        <time>2012-11-18T12:47:08Z</time>
      </trkpt>
      <trkpt lat="44.85839" lon="5.50717">
        <ele>1670.43</ele>
        <time>2012-11-18T12:47:10Z</time>
      </trkpt>
      <trkpt lat="44.8584" lon="5.5073">
        <ele>1672.35</ele>
        <time>2012-11-18T12:47:18Z</time>
      </trkpt>
      <trkpt lat="44.85839" lon="5.50738">
        <ele>1672.83</ele>
        <time>2012-11-18T12:47:22Z</time>
      </trkpt>
      <trkpt lat="44.85841" lon="5.50765">
        <ele>1675.23</ele>
        <time>2012-11-18T12:47:37Z</time>
      </trkpt>
      <trkpt lat="44.85843" lon="5.50783">
        <ele>1677.16</ele>
        <time>2012-11-18T12:47:49Z</time>
      </trkpt>
      <trkpt lat="44.85845" lon="5.50799">
        <ele>1678.6</ele>
        <time>2012-11-18T12:47:59Z</time>
      </trkpt>
      <trkpt lat="44.85846" lon="5.50808">
        <ele>1679.56</ele>
        <time>2012-11-18T12:48:04Z</time>
      </trkpt>
      <trkpt lat="44.85847" lon="5.50813">
        <ele>1680.04</ele>
        <time>2012-11-18T12:48:07Z</time>
      </trkpt>
      <trkpt lat="44.85849" lon="5.50827">
        <ele>1680.52</ele>
        <time>2012-11-18T12:48:14Z</time>
      </trkpt>
      <trkpt lat="44.85855" lon="5.50854">
        <ele>1682.93</ele>
        <time>2012-11-18T12:48:31Z</time>
      </trkpt>
      <trkpt lat="44.85856" lon="5.50855">
        <ele>1682.44</ele>
        <time>2012-11-18T12:48:32Z</time>
      </trkpt>
      <trkpt lat="44.8586" lon="5.50871">
        <ele>1684.37</ele>
        <time>2012-11-18T12:48:43Z</time>
      </trkpt>
      <trkpt lat="44.85871" lon="5.50892">
        <ele>1687.25</ele>
        <time>2012-11-18T12:48:59Z</time>
      </trkpt>
      <trkpt lat="44.85873" lon="5.50901">
        <ele>1688.21</ele>
        <time>2012-11-18T12:49:05Z</time>
      </trkpt>
      <trkpt lat="44.85875" lon="5.50904">
        <ele>1688.69</ele>
        <time>2012-11-18T12:49:08Z</time>
      </trkpt>
      <trkpt lat="44.85875" lon="5.50909">
        <ele>1689.17</ele>
        <time>2012-11-18T12:49:11Z</time>
      </trkpt>
      <trkpt lat="44.85879" lon="5.50916">
        <ele>1689.65</ele>
        <time>2012-11-18T12:49:16Z</time>
      </trkpt>
      <trkpt lat="44.8588" lon="5.50922">
        <ele>1690.62</ele>
        <time>2012-11-18T12:49:20Z</time>
      </trkpt>
      <trkpt lat="44.85882" lon="5.50928">
        <ele>1691.1</ele>
        <time>2012-11-18T12:49:35Z</time>
      </trkpt>
      <trkpt lat="44.85885" lon="5.50938">
        <ele>1691.58</ele>
        <time>2012-11-18T12:49:41Z</time>
      </trkpt>
      <trkpt lat="44.85887" lon="5.50959">
        <ele>1693.02</ele>
        <time>2012-11-18T12:49:55Z</time>
      </trkpt>
      <trkpt lat="44.85887" lon="5.50959">
        <ele>1693.02</ele>
        <time>2012-11-18T12:49:57Z</time>
      </trkpt>
      <trkpt lat="44.85887" lon="5.50968">
        <ele>1693.5</ele>
        <time>2012-11-18T12:50:02Z</time>
      </trkpt>
      <trkpt lat="44.85889" lon="5.50976">
        <ele>1693.98</ele>
        <time>2012-11-18T12:50:08Z</time>
      </trkpt>
      <trkpt lat="44.85892" lon="5.51">
        <ele>1696.86</ele>
        <time>2012-11-18T12:50:23Z</time>
      </trkpt>
      <trkpt lat="44.85893" lon="5.51005">
        <ele>1697.34</ele>
        <time>2012-11-18T12:50:27Z</time>
      </trkpt>
      <trkpt lat="44.85894" lon="5.51008">
        <ele>1697.83</ele>
        <time>2012-11-18T12:50:29Z</time>
      </trkpt>
      <trkpt lat="44.85896" lon="5.51018">
        <ele>1698.79</ele>
        <time>2012-11-18T12:50:36Z</time>
      </trkpt>
      <trkpt lat="44.85899" lon="5.51032">
        <ele>1700.71</ele>
        <time>2012-11-18T12:50:48Z</time>
      </trkpt>
      <trkpt lat="44.85903" lon="5.5104">
        <ele>1702.15</ele>
        <time>2012-11-18T12:50:56Z</time>
      </trkpt>
      <trkpt lat="44.85905" lon="5.51045">
        <ele>1703.11</ele>
        <time>2012-11-18T12:51:00Z</time>
      </trkpt>
      <trkpt lat="44.85907" lon="5.51049">
        <ele>1703.59</ele>
        <time>2012-11-18T12:51:05Z</time>
      </trkpt>
      <trkpt lat="44.85909" lon="5.51052">
        <ele>1705.04</ele>
        <time>2012-11-18T12:51:08Z</time>
      </trkpt>
      <trkpt lat="44.85912" lon="5.51057">
        <ele>1705.04</ele>
        <time>2012-11-18T12:51:12Z</time>
      </trkpt>
      <trkpt lat="44.85915" lon="5.51074">
        <ele>1706.96</ele>
        <time>2012-11-18T12:51:24Z</time>
      </trkpt>
      <trkpt lat="44.85916" lon="5.51095">
        <ele>1708.88</ele>
        <time>2012-11-18T12:51:37Z</time>
      </trkpt>
      <trkpt lat="44.85918" lon="5.51107">
        <ele>1709.84</ele>
        <time>2012-11-18T12:51:44Z</time>
      </trkpt>
      <trkpt lat="44.8592" lon="5.51111">
        <ele>1709.84</ele>
        <time>2012-11-18T12:51:47Z</time>
      </trkpt>
      <trkpt lat="44.8592" lon="5.51116">
        <ele>1710.8</ele>
        <time>2012-11-18T12:51:51Z</time>
      </trkpt>
      <trkpt lat="44.85921" lon="5.5112">
        <ele>1711.28</ele>
        <time>2012-11-18T12:51:54Z</time>
      </trkpt>
      <trkpt lat="44.85921" lon="5.51123">
        <ele>1711.28</ele>
        <time>2012-11-18T12:51:56Z</time>
      </trkpt>
      <trkpt lat="44.85921" lon="5.51128">
        <ele>1711.76</ele>
        <time>2012-11-18T12:52:00Z</time>
      </trkpt>
      <trkpt lat="44.8592" lon="5.51144">
        <ele>1714.65</ele>
        <time>2012-11-18T12:52:12Z</time>
      </trkpt>
      <trkpt lat="44.8592" lon="5.51152">
        <ele>1715.61</ele>
        <time>2012-11-18T12:52:18Z</time>
      </trkpt>
      <trkpt lat="44.85921" lon="5.51165">
        <ele>1717.05</ele>
        <time>2012-11-18T12:52:28Z</time>
      </trkpt>
      <trkpt lat="44.85916" lon="5.51187">
        <ele>1719.46</ele>
        <time>2012-11-18T12:52:43Z</time>
      </trkpt>
      <trkpt lat="44.85915" lon="5.51193">
        <ele>1719.46</ele>
        <time>2012-11-18T12:52:46Z</time>
      </trkpt>
      <trkpt lat="44.85909" lon="5.51215">
        <ele>1718.97</ele>
        <time>2012-11-18T12:53:00Z</time>
      </trkpt>
      <trkpt lat="44.85905" lon="5.51225">
        <ele>1720.42</ele>
        <time>2012-11-18T12:53:07Z</time>
      </trkpt>
      <trkpt lat="44.85904" lon="5.51231">
        <ele>1719.94</ele>
        <time>2012-11-18T12:53:11Z</time>
      </trkpt>
      <trkpt lat="44.85903" lon="5.51236">
        <ele>1720.9</ele>
        <time>2012-11-18T12:53:15Z</time>
      </trkpt>
      <trkpt lat="44.85899" lon="5.5125">
        <ele>1722.34</ele>
        <time>2012-11-18T12:53:24Z</time>
      </trkpt>
      <trkpt lat="44.85897" lon="5.51255">
        <ele>1722.82</ele>
        <time>2012-11-18T12:53:28Z</time>
      </trkpt>
      <trkpt lat="44.85892" lon="5.51268">
        <ele>1724.74</ele>
        <time>2012-11-18T12:53:37Z</time>
      </trkpt>
      <trkpt lat="44.8589" lon="5.51284">
        <ele>1726.67</ele>
        <time>2012-11-18T12:53:49Z</time>
      </trkpt>
      <trkpt lat="44.8589" lon="5.51287">
        <ele>1727.15</ele>
        <time>2012-11-18T12:53:51Z</time>
      </trkpt>
      <trkpt lat="44.85889" lon="5.51293">
        <ele>1727.63</ele>
        <time>2012-11-18T12:53:55Z</time>
      </trkpt>
      <trkpt lat="44.85889" lon="5.51298">
        <ele>1728.11</ele>
        <time>2012-11-18T12:53:59Z</time>
      </trkpt>
      <trkpt lat="44.85888" lon="5.51304">
        <ele>1729.07</ele>
        <time>2012-11-18T12:54:03Z</time>
      </trkpt>
      <trkpt lat="44.85888" lon="5.51309">
        <ele>1729.55</ele>
        <time>2012-11-18T12:54:06Z</time>
      </trkpt>
      <trkpt lat="44.85887" lon="5.51313">
        <ele>1729.55</ele>
        <time>2012-11-18T12:54:09Z</time>
      </trkpt>
      <trkpt lat="44.85886" lon="5.51318">
        <ele>1730.51</ele>
        <time>2012-11-18T12:54:13Z</time>
      </trkpt>
      <trkpt lat="44.85885" lon="5.51333">
        <ele>1732.43</ele>
        <time>2012-11-18T12:54:25Z</time>
      </trkpt>
      <trkpt lat="44.85885" lon="5.5134">
        <ele>1732.43</ele>
        <time>2012-11-18T12:54:30Z</time>
      </trkpt>
      <trkpt lat="44.85885" lon="5.51345">
        <ele>1732.91</ele>
        <time>2012-11-18T12:54:33Z</time>
      </trkpt>
      <trkpt lat="44.85885" lon="5.51354">
        <ele>1734.36</ele>
        <time>2012-11-18T12:54:39Z</time>
      </trkpt>
      <trkpt lat="44.85884" lon="5.51362">
        <ele>1734.84</ele>
        <time>2012-11-18T12:54:45Z</time>
      </trkpt>
      <trkpt lat="44.85885" lon="5.51365">
        <ele>1734.84</ele>
        <time>2012-11-18T12:54:47Z</time>
      </trkpt>
      <trkpt lat="44.85883" lon="5.51369">
        <ele>1735.8</ele>
        <time>2012-11-18T12:54:50Z</time>
      </trkpt>
      <trkpt lat="44.85882" lon="5.51374">
        <ele>1736.28</ele>
        <time>2012-11-18T12:54:53Z</time>
      </trkpt>
      <trkpt lat="44.85879" lon="5.51387">
        <ele>1738.2</ele>
        <time>2012-11-18T12:55:03Z</time>
      </trkpt>
      <trkpt lat="44.85876" lon="5.51402">
        <ele>1740.12</ele>
        <time>2012-11-18T12:55:14Z</time>
      </trkpt>
      <trkpt lat="44.85876" lon="5.51413">
        <ele>1741.57</ele>
        <time>2012-11-18T12:55:22Z</time>
      </trkpt>
      <trkpt lat="44.85874" lon="5.51433">
        <ele>1743.97</ele>
        <time>2012-11-18T12:55:36Z</time>
      </trkpt>
      <trkpt lat="44.85873" lon="5.51444">
        <ele>1744.93</ele>
        <time>2012-11-18T12:55:43Z</time>
      </trkpt>
      <trkpt lat="44.85874" lon="5.51448">
        <ele>1745.41</ele>
        <time>2012-11-18T12:55:46Z</time>
      </trkpt>
      <trkpt lat="44.85874" lon="5.51459">
        <ele>1745.89</ele>
        <time>2012-11-18T12:55:53Z</time>
      </trkpt>
      <trkpt lat="44.85875" lon="5.51468">
        <ele>1747.33</ele>
        <time>2012-11-18T12:56:00Z</time>
      </trkpt>
      <trkpt lat="44.85876" lon="5.51474">
        <ele>1747.81</ele>
        <time>2012-11-18T12:56:04Z</time>
      </trkpt>
      <trkpt lat="44.85871" lon="5.51488">
        <ele>1749.26</ele>
        <time>2012-11-18T12:56:14Z</time>
      </trkpt>
      <trkpt lat="44.85867" lon="5.51503">
        <ele>1750.7</ele>
        <time>2012-11-18T12:56:25Z</time>
      </trkpt>
      <trkpt lat="44.85867" lon="5.51522">
        <ele>1752.62</ele>
        <time>2012-11-18T12:56:39Z</time>
      </trkpt>
      <trkpt lat="44.85868" lon="5.51526">
        <ele>1753.1</ele>
        <time>2012-11-18T12:56:42Z</time>
      </trkpt>
      <trkpt lat="44.85865" lon="5.51535">
        <ele>1754.54</ele>
        <time>2012-11-18T12:56:48Z</time>
      </trkpt>
      <trkpt lat="44.85859" lon="5.51557">
        <ele>1756.47</ele>
        <time>2012-11-18T12:57:04Z</time>
      </trkpt>
      <trkpt lat="44.85858" lon="5.5156">
        <ele>1756.47</ele>
        <time>2012-11-18T12:57:06Z</time>
      </trkpt>
      <trkpt lat="44.85857" lon="5.51567">
        <ele>1757.43</ele>
        <time>2012-11-18T12:57:11Z</time>
      </trkpt>
      <trkpt lat="44.85853" lon="5.51576">
        <ele>1758.39</ele>
        <time>2012-11-18T12:57:18Z</time>
      </trkpt>
      <trkpt lat="44.85851" lon="5.51581">
        <ele>1758.39</ele>
        <time>2012-11-18T12:57:22Z</time>
      </trkpt>
      <trkpt lat="44.8585" lon="5.51595">
        <ele>1759.83</ele>
        <time>2012-11-18T12:57:31Z</time>
      </trkpt>
      <trkpt lat="44.85847" lon="5.51605">
        <ele>1760.31</ele>
        <time>2012-11-18T12:57:39Z</time>
      </trkpt>
      <trkpt lat="44.85843" lon="5.51618">
        <ele>1762.23</ele>
        <time>2012-11-18T12:57:50Z</time>
      </trkpt>
      <trkpt lat="44.85841" lon="5.51628">
        <ele>1763.2</ele>
        <time>2012-11-18T12:57:56Z</time>
      </trkpt>
      <trkpt lat="44.8584" lon="5.5163">
        <ele>1763.2</ele>
        <time>2012-11-18T12:57:58Z</time>
      </trkpt>
      <trkpt lat="44.85839" lon="5.51636">
        <ele>1764.16</ele>
        <time>2012-11-18T12:58:02Z</time>
      </trkpt>
      <trkpt lat="44.85836" lon="5.51642">
        <ele>1765.12</ele>
        <time>2012-11-18T12:58:07Z</time>
      </trkpt>
      <trkpt lat="44.85835" lon="5.51646">
        <ele>1765.6</ele>
        <time>2012-11-18T12:58:10Z</time>
      </trkpt>
      <trkpt lat="44.85833" lon="5.5165">
        <ele>1765.6</ele>
        <time>2012-11-18T12:58:13Z</time>
      </trkpt>
      <trkpt lat="44.85829" lon="5.51666">
        <ele>1766.56</ele>
        <time>2012-11-18T12:58:23Z</time>
      </trkpt>
      <trkpt lat="44.85828" lon="5.51672">
        <ele>1767.04</ele>
        <time>2012-11-18T12:58:27Z</time>
      </trkpt>
      <trkpt lat="44.85826" lon="5.51677">
        <ele>1767.52</ele>
        <time>2012-11-18T12:58:31Z</time>
      </trkpt>
      <trkpt lat="44.85825" lon="5.51696">
        <ele>1769.92</ele>
        <time>2012-11-18T12:58:45Z</time>
      </trkpt>
      <trkpt lat="44.8582" lon="5.51712">
        <ele>1770.89</ele>
        <time>2012-11-18T12:58:56Z</time>
      </trkpt>
      <trkpt lat="44.85819" lon="5.51715">
        <ele>1771.37</ele>
        <time>2012-11-18T12:58:58Z</time>
      </trkpt>
      <trkpt lat="44.85819" lon="5.51723">
        <ele>1772.33</ele>
        <time>2012-11-18T12:59:03Z</time>
      </trkpt>
      <trkpt lat="44.85817" lon="5.51729">
        <ele>1772.33</ele>
        <time>2012-11-18T12:59:07Z</time>
      </trkpt>
      <trkpt lat="44.85818" lon="5.51732">
        <ele>1772.81</ele>
        <time>2012-11-18T12:59:09Z</time>
      </trkpt>
      <trkpt lat="44.85818" lon="5.51736">
        <ele>1773.29</ele>
        <time>2012-11-18T12:59:12Z</time>
      </trkpt>
      <trkpt lat="44.85818" lon="5.51741">
        <ele>1773.77</ele>
        <time>2012-11-18T12:59:15Z</time>
      </trkpt>
      <trkpt lat="44.85814" lon="5.5175">
        <ele>1774.73</ele>
        <time>2012-11-18T12:59:23Z</time>
      </trkpt>
      <trkpt lat="44.8581" lon="5.51756">
        <ele>1776.17</ele>
        <time>2012-11-18T12:59:30Z</time>
      </trkpt>
      <trkpt lat="44.85807" lon="5.51761">
        <ele>1776.65</ele>
        <time>2012-11-18T12:59:35Z</time>
      </trkpt>
      <trkpt lat="44.85803" lon="5.51775">
        <ele>1779.54</ele>
        <time>2012-11-18T12:59:47Z</time>
      </trkpt>
      <trkpt lat="44.858" lon="5.51782">
        <ele>1780.5</ele>
        <time>2012-11-18T12:59:52Z</time>
      </trkpt>
      <trkpt lat="44.85799" lon="5.51789">
        <ele>1780.98</ele>
        <time>2012-11-18T12:59:57Z</time>
      </trkpt>
      <trkpt lat="44.85797" lon="5.5179">
        <ele>1781.94</ele>
        <time>2012-11-18T12:59:59Z</time>
      </trkpt>
      <trkpt lat="44.85792" lon="5.51797">
        <ele>1782.42</ele>
        <time>2012-11-18T13:00:06Z</time>
      </trkpt>
      <trkpt lat="44.85792" lon="5.51807">
        <ele>1783.86</ele>
        <time>2012-11-18T13:00:14Z</time>
      </trkpt>
      <trkpt lat="44.8579" lon="5.51812">
        <ele>1784.82</ele>
        <time>2012-11-18T13:00:19Z</time>
      </trkpt>
      <trkpt lat="44.85788" lon="5.51824">
        <ele>1787.23</ele>
        <time>2012-11-18T13:00:30Z</time>
      </trkpt>
      <trkpt lat="44.85788" lon="5.51826">
        <ele>1787.71</ele>
        <time>2012-11-18T13:00:32Z</time>
      </trkpt>
      <trkpt lat="44.85787" lon="5.51828">
        <ele>1788.67</ele>
        <time>2012-11-18T13:00:34Z</time>
      </trkpt>
      <trkpt lat="44.8578" lon="5.51833">
        <ele>1791.07</ele>
        <time>2012-11-18T13:00:45Z</time>
      </trkpt>
      <trkpt lat="44.85778" lon="5.51833">
        <ele>1791.07</ele>
        <time>2012-11-18T13:00:47Z</time>
      </trkpt>
      <trkpt lat="44.85773" lon="5.51838">
        <ele>1792.52</ele>
        <time>2012-11-18T13:00:56Z</time>
      </trkpt>
      <trkpt lat="44.85772" lon="5.51839">
        <ele>1793</ele>
        <time>2012-11-18T13:00:58Z</time>
      </trkpt>
      <trkpt lat="44.85774" lon="5.51848">
        <ele>1794.92</ele>
        <time>2012-11-18T13:01:08Z</time>
      </trkpt>
      <trkpt lat="44.85775" lon="5.51849">
        <ele>1795.4</ele>
        <time>2012-11-18T13:01:10Z</time>
      </trkpt>
      <trkpt lat="44.85777" lon="5.5185">
        <ele>1795.88</ele>
        <time>2012-11-18T13:01:13Z</time>
      </trkpt>
      <trkpt lat="44.8578" lon="5.51852">
        <ele>1796.84</ele>
        <time>2012-11-18T13:01:18Z</time>
      </trkpt>
      <trkpt lat="44.85788" lon="5.51858">
        <ele>1799.24</ele>
        <time>2012-11-18T13:01:28Z</time>
      </trkpt>
      <trkpt lat="44.85792" lon="5.51859">
        <ele>1799.73</ele>
        <time>2012-11-18T13:01:33Z</time>
      </trkpt>
      <trkpt lat="44.85794" lon="5.51871">
        <ele>1801.65</ele>
        <time>2012-11-18T13:01:45Z</time>
      </trkpt>
      <trkpt lat="44.85793" lon="5.51872">
        <ele>1802.13</ele>
        <time>2012-11-18T13:01:47Z</time>
      </trkpt>
      <trkpt lat="44.85786" lon="5.51881">
        <ele>1804.53</ele>
        <time>2012-11-18T13:01:58Z</time>
      </trkpt>
      <trkpt lat="44.8578" lon="5.51883">
        <ele>1805.97</ele>
        <time>2012-11-18T13:02:06Z</time>
      </trkpt>
      <trkpt lat="44.85772" lon="5.51886">
        <ele>1808.38</ele>
        <time>2012-11-18T13:02:17Z</time>
      </trkpt>
      <trkpt lat="44.85764" lon="5.51887">
        <ele>1809.82</ele>
        <time>2012-11-18T13:02:27Z</time>
      </trkpt>
      <trkpt lat="44.85761" lon="5.51885">
        <ele>1810.3</ele>
        <time>2012-11-18T13:02:30Z</time>
      </trkpt>
      <trkpt lat="44.85759" lon="5.51884">
        <ele>1810.3</ele>
        <time>2012-11-18T13:02:32Z</time>
      </trkpt>
      <trkpt lat="44.85757" lon="5.51884">
        <ele>1811.26</ele>
        <time>2012-11-18T13:02:36Z</time>
      </trkpt>
      <trkpt lat="44.85752" lon="5.51892">
        <ele>1813.18</ele>
        <time>2012-11-18T13:02:48Z</time>
      </trkpt>
      <trkpt lat="44.85748" lon="5.51899">
        <ele>1814.63</ele>
        <time>2012-11-18T13:02:57Z</time>
      </trkpt>
      <trkpt lat="44.85746" lon="5.51902">
        <ele>1816.07</ele>
        <time>2012-11-18T13:03:02Z</time>
      </trkpt>
      <trkpt lat="44.85747" lon="5.5191">
        <ele>1817.51</ele>
        <time>2012-11-18T13:03:11Z</time>
      </trkpt>
      <trkpt lat="44.85743" lon="5.51918">
        <ele>1817.99</ele>
        <time>2012-11-18T13:03:17Z</time>
      </trkpt>
      <trkpt lat="44.85743" lon="5.51923">
        <ele>1818.47</ele>
        <time>2012-11-18T13:03:20Z</time>
      </trkpt>
      <trkpt lat="44.85741" lon="5.51927">
        <ele>1818.95</ele>
        <time>2012-11-18T13:03:23Z</time>
      </trkpt>
      <trkpt lat="44.85734" lon="5.51933">
        <ele>1820.87</ele>
        <time>2012-11-18T13:03:34Z</time>
      </trkpt>
      <trkpt lat="44.85733" lon="5.51936">
        <ele>1821.35</ele>
        <time>2012-11-18T13:03:37Z</time>
      </trkpt>
      <trkpt lat="44.85732" lon="5.51948">
        <ele>1822.8</ele>
        <time>2012-11-18T13:03:47Z</time>
      </trkpt>
      <trkpt lat="44.8573" lon="5.51956">
        <ele>1823.76</ele>
        <time>2012-11-18T13:03:54Z</time>
      </trkpt>
      <trkpt lat="44.85729" lon="5.51957">
        <ele>1823.76</ele>
        <time>2012-11-18T13:04:08Z</time>
      </trkpt>
      <trkpt lat="44.85728" lon="5.51955">
        <ele>1823.76</ele>
        <time>2012-11-18T13:04:31Z</time>
      </trkpt>
      <trkpt lat="44.85728" lon="5.51954">
        <ele>1823.28</ele>
        <time>2012-11-18T13:05:17Z</time>
      </trkpt>
      <trkpt lat="44.85729" lon="5.51952">
        <ele>1823.76</ele>
        <time>2012-11-18T13:05:48Z</time>
      </trkpt>
      <trkpt lat="44.85728" lon="5.51954">
        <ele>1824.24</ele>
        <time>2012-11-18T13:06:00Z</time>
      </trkpt>
      <trkpt lat="44.85727" lon="5.51959">
        <ele>1823.76</ele>
        <time>2012-11-18T13:06:39Z</time>
      </trkpt>
      <trkpt lat="44.85724" lon="5.5197">
        <ele>1824.24</ele>
        <time>2012-11-18T13:06:48Z</time>
      </trkpt>
      <trkpt lat="44.85724" lon="5.51973">
        <ele>1824.24</ele>
        <time>2012-11-18T13:06:50Z</time>
      </trkpt>
      <trkpt lat="44.85725" lon="5.51976">
        <ele>1824.24</ele>
        <time>2012-11-18T13:06:52Z</time>
      </trkpt>
      <trkpt lat="44.85724" lon="5.5199">
        <ele>1824.72</ele>
        <time>2012-11-18T13:07:02Z</time>
      </trkpt>
      <trkpt lat="44.85722" lon="5.51994">
        <ele>1825.2</ele>
        <time>2012-11-18T13:07:06Z</time>
      </trkpt>
      <trkpt lat="44.85721" lon="5.51999">
        <ele>1825.68</ele>
        <time>2012-11-18T13:07:09Z</time>
      </trkpt>
      <trkpt lat="44.85721" lon="5.52004">
        <ele>1826.16</ele>
        <time>2012-11-18T13:07:13Z</time>
      </trkpt>
      <trkpt lat="44.85714" lon="5.52017">
        <ele>1827.6</ele>
        <time>2012-11-18T13:07:25Z</time>
      </trkpt>
      <trkpt lat="44.8571" lon="5.52023">
        <ele>1828.08</ele>
        <time>2012-11-18T13:07:31Z</time>
      </trkpt>
      <trkpt lat="44.85709" lon="5.52029">
        <ele>1828.56</ele>
        <time>2012-11-18T13:07:35Z</time>
      </trkpt>
      <trkpt lat="44.85705" lon="5.52046">
        <ele>1831.45</ele>
        <time>2012-11-18T13:07:51Z</time>
      </trkpt>
      <trkpt lat="44.85704" lon="5.52054">
        <ele>1832.89</ele>
        <time>2012-11-18T13:08:02Z</time>
      </trkpt>
      <trkpt lat="44.85705" lon="5.52055">
        <ele>1832.89</ele>
        <time>2012-11-18T13:08:04Z</time>
      </trkpt>
      <trkpt lat="44.85704" lon="5.52063">
        <ele>1834.33</ele>
        <time>2012-11-18T13:08:11Z</time>
      </trkpt>
      <trkpt lat="44.857" lon="5.52074">
        <ele>1836.74</ele>
        <time>2012-11-18T13:08:23Z</time>
      </trkpt>
      <trkpt lat="44.85698" lon="5.52079">
        <ele>1837.22</ele>
        <time>2012-11-18T13:08:29Z</time>
      </trkpt>
      <trkpt lat="44.85696" lon="5.52084">
        <ele>1838.18</ele>
        <time>2012-11-18T13:08:35Z</time>
      </trkpt>
      <trkpt lat="44.85694" lon="5.52085">
        <ele>1838.66</ele>
        <time>2012-11-18T13:08:37Z</time>
      </trkpt>
      <trkpt lat="44.85691" lon="5.52091">
        <ele>1839.14</ele>
        <time>2012-11-18T13:08:42Z</time>
      </trkpt>
      <trkpt lat="44.85689" lon="5.52101">
        <ele>1840.58</ele>
        <time>2012-11-18T13:08:51Z</time>
      </trkpt>
      <trkpt lat="44.85686" lon="5.52111">
        <ele>1842.02</ele>
        <time>2012-11-18T13:09:00Z</time>
      </trkpt>
      <trkpt lat="44.85685" lon="5.52119">
        <ele>1843.47</ele>
        <time>2012-11-18T13:09:07Z</time>
      </trkpt>
      <trkpt lat="44.85684" lon="5.52127">
        <ele>1844.43</ele>
        <time>2012-11-18T13:09:14Z</time>
      </trkpt>
      <trkpt lat="44.85686" lon="5.52132">
        <ele>1846.83</ele>
        <time>2012-11-18T13:09:24Z</time>
      </trkpt>
      <trkpt lat="44.85684" lon="5.5214">
        <ele>1847.79</ele>
        <time>2012-11-18T13:09:31Z</time>
      </trkpt>
      <trkpt lat="44.8569" lon="5.52148">
        <ele>1850.68</ele>
        <time>2012-11-18T13:09:43Z</time>
      </trkpt>
      <trkpt lat="44.85692" lon="5.52155">
        <ele>1852.6</ele>
        <time>2012-11-18T13:09:55Z</time>
      </trkpt>
      <trkpt lat="44.85697" lon="5.5216">
        <ele>1854.04</ele>
        <time>2012-11-18T13:10:04Z</time>
      </trkpt>
      <trkpt lat="44.85699" lon="5.52162">
        <ele>1854.52</ele>
        <time>2012-11-18T13:10:07Z</time>
      </trkpt>
      <trkpt lat="44.85697" lon="5.52172">
        <ele>1857.4</ele>
        <time>2012-11-18T13:10:18Z</time>
      </trkpt>
      <trkpt lat="44.85699" lon="5.52178">
        <ele>1858.85</ele>
        <time>2012-11-18T13:10:27Z</time>
      </trkpt>
      <trkpt lat="44.85701" lon="5.52181">
        <ele>1860.29</ele>
        <time>2012-11-18T13:10:37Z</time>
      </trkpt>
      <trkpt lat="44.85699" lon="5.52189">
        <ele>1862.21</ele>
        <time>2012-11-18T13:10:47Z</time>
      </trkpt>
      <trkpt lat="44.85702" lon="5.52191">
        <ele>1862.69</ele>
        <time>2012-11-18T13:10:51Z</time>
      </trkpt>
      <trkpt lat="44.85706" lon="5.52198">
        <ele>1864.61</ele>
        <time>2012-11-18T13:11:00Z</time>
      </trkpt>
      <trkpt lat="44.85705" lon="5.52202">
        <ele>1865.58</ele>
        <time>2012-11-18T13:11:04Z</time>
      </trkpt>
      <trkpt lat="44.85704" lon="5.52204">
        <ele>1866.54</ele>
        <time>2012-11-18T13:11:06Z</time>
      </trkpt>
      <trkpt lat="44.85705" lon="5.52208">
        <ele>1867.98</ele>
        <time>2012-11-18T13:11:12Z</time>
      </trkpt>
      <trkpt lat="44.85707" lon="5.52213">
        <ele>1869.42</ele>
        <time>2012-11-18T13:11:18Z</time>
      </trkpt>
      <trkpt lat="44.85699" lon="5.52223">
        <ele>1870.86</ele>
        <time>2012-11-18T13:11:30Z</time>
      </trkpt>
      <trkpt lat="44.85698" lon="5.52229">
        <ele>1872.79</ele>
        <time>2012-11-18T13:11:40Z</time>
      </trkpt>
      <trkpt lat="44.857" lon="5.5223">
        <ele>1873.27</ele>
        <time>2012-11-18T13:11:53Z</time>
      </trkpt>
      <trkpt lat="44.85703" lon="5.52232">
        <ele>1873.27</ele>
        <time>2012-11-18T13:11:57Z</time>
      </trkpt>
      <trkpt lat="44.85702" lon="5.52234">
        <ele>1874.23</ele>
        <time>2012-11-18T13:11:59Z</time>
      </trkpt>
      <trkpt lat="44.85696" lon="5.52244">
        <ele>1875.19</ele>
        <time>2012-11-18T13:12:11Z</time>
      </trkpt>
      <trkpt lat="44.85691" lon="5.52249">
        <ele>1876.15</ele>
        <time>2012-11-18T13:12:21Z</time>
      </trkpt>
      <trkpt lat="44.8569" lon="5.52253">
        <ele>1876.63</ele>
        <time>2012-11-18T13:12:27Z</time>
      </trkpt>
      <trkpt lat="44.85686" lon="5.52266">
        <ele>1877.59</ele>
        <time>2012-11-18T13:12:39Z</time>
      </trkpt>
      <trkpt lat="44.85687" lon="5.52271">
        <ele>1878.07</ele>
        <time>2012-11-18T13:12:43Z</time>
      </trkpt>
      <trkpt lat="44.85688" lon="5.52276">
        <ele>1878.07</ele>
        <time>2012-11-18T13:12:46Z</time>
      </trkpt>
      <trkpt lat="44.85691" lon="5.52281">
        <ele>1878.55</ele>
        <time>2012-11-18T13:12:51Z</time>
      </trkpt>
      <trkpt lat="44.85692" lon="5.5229">
        <ele>1879.03</ele>
        <time>2012-11-18T13:12:57Z</time>
      </trkpt>
      <trkpt lat="44.85693" lon="5.52293">
        <ele>1879.51</ele>
        <time>2012-11-18T13:12:59Z</time>
      </trkpt>
      <trkpt lat="44.85695" lon="5.52297">
        <ele>1880</ele>
        <time>2012-11-18T13:13:03Z</time>
      </trkpt>
      <trkpt lat="44.85695" lon="5.52303">
        <ele>1880.96</ele>
        <time>2012-11-18T13:13:08Z</time>
      </trkpt>
      <trkpt lat="44.85694" lon="5.52306">
        <ele>1880.96</ele>
        <time>2012-11-18T13:13:20Z</time>
      </trkpt>
      <trkpt lat="44.85694" lon="5.5231">
        <ele>1880.96</ele>
        <time>2012-11-18T13:13:32Z</time>
      </trkpt>
      <trkpt lat="44.85695" lon="5.52316">
        <ele>1881.92</ele>
        <time>2012-11-18T13:13:37Z</time>
      </trkpt>
      <trkpt lat="44.85694" lon="5.52332">
        <ele>1882.88</ele>
        <time>2012-11-18T13:13:49Z</time>
      </trkpt>
      <trkpt lat="44.85694" lon="5.52333">
        <ele>1883.36</ele>
        <time>2012-11-18T13:13:50Z</time>
      </trkpt>
      <trkpt lat="44.85696" lon="5.52345">
        <ele>1883.84</ele>
        <time>2012-11-18T13:14:02Z</time>
      </trkpt>
      <trkpt lat="44.85696" lon="5.52345">
        <ele>1884.32</ele>
        <time>2012-11-18T13:14:03Z</time>
      </trkpt>
      <trkpt lat="44.85688" lon="5.52347">
        <ele>1885.28</ele>
        <time>2012-11-18T13:14:14Z</time>
      </trkpt>
      <trkpt lat="44.85687" lon="5.52347">
        <ele>1885.76</ele>
        <time>2012-11-18T13:14:15Z</time>
      </trkpt>
      <trkpt lat="44.85679" lon="5.52348">
        <ele>1887.69</ele>
        <time>2012-11-18T13:14:26Z</time>
      </trkpt>
      <trkpt lat="44.85678" lon="5.52347">
        <ele>1888.17</ele>
        <time>2012-11-18T13:14:28Z</time>
      </trkpt>
      <trkpt lat="44.85676" lon="5.52347">
        <ele>1888.17</ele>
        <time>2012-11-18T13:14:30Z</time>
      </trkpt>
      <trkpt lat="44.85668" lon="5.52341">
        <ele>1889.61</ele>
        <time>2012-11-18T13:14:42Z</time>
      </trkpt>
      <trkpt lat="44.85668" lon="5.52341">
        <ele>1890.09</ele>
        <time>2012-11-18T13:14:50Z</time>
      </trkpt>
      <trkpt lat="44.85667" lon="5.52343">
        <ele>1888.17</ele>
        <time>2012-11-18T13:15:03Z</time>
      </trkpt>
      <trkpt lat="44.85667" lon="5.52343">
        <ele>1887.69</ele>
        <time>2012-11-18T13:18:23Z</time>
      </trkpt>
      <trkpt lat="44.85667" lon="5.52342">
        <ele>1887.69</ele>
        <time>2012-11-18T13:20:15Z</time>
      </trkpt>
      <trkpt lat="44.85667" lon="5.52342">
        <ele>1888.17</ele>
        <time>2012-11-18T13:21:19Z</time>
      </trkpt>
      <trkpt lat="44.85667" lon="5.52341">
        <ele>1888.65</ele>
        <time>2012-11-18T13:22:52Z</time>
      </trkpt>
      <trkpt lat="44.85663" lon="5.5234">
        <ele>1890.09</ele>
        <time>2012-11-18T13:22:56Z</time>
      </trkpt>
      <trkpt lat="44.8566" lon="5.52343">
        <ele>1890.57</ele>
        <time>2012-11-18T13:23:01Z</time>
      </trkpt>
      <trkpt lat="44.85646" lon="5.52341">
        <ele>1889.61</ele>
        <time>2012-11-18T13:23:12Z</time>
      </trkpt>
      <trkpt lat="44.85637" lon="5.52334">
        <ele>1886.72</ele>
        <time>2012-11-18T13:23:24Z</time>
      </trkpt>
      <trkpt lat="44.85635" lon="5.52333">
        <ele>1885.76</ele>
        <time>2012-11-18T13:23:26Z</time>
      </trkpt>
      <trkpt lat="44.85624" lon="5.52326">
        <ele>1882.4</ele>
        <time>2012-11-18T13:23:36Z</time>
      </trkpt>
      <trkpt lat="44.85623" lon="5.52326">
        <ele>1882.4</ele>
        <time>2012-11-18T13:23:37Z</time>
      </trkpt>
      <trkpt lat="44.85606" lon="5.52327">
        <ele>1878.55</ele>
        <time>2012-11-18T13:23:52Z</time>
      </trkpt>
      <trkpt lat="44.85601" lon="5.52326">
        <ele>1877.11</ele>
        <time>2012-11-18T13:24:01Z</time>
      </trkpt>
      <trkpt lat="44.85595" lon="5.52322">
        <ele>1875.19</ele>
        <time>2012-11-18T13:24:07Z</time>
      </trkpt>
      <trkpt lat="44.85593" lon="5.5232">
        <ele>1874.71</ele>
        <time>2012-11-18T13:24:20Z</time>
      </trkpt>
      <trkpt lat="44.85588" lon="5.52319">
        <ele>1874.23</ele>
        <time>2012-11-18T13:24:24Z</time>
      </trkpt>
      <trkpt lat="44.85573" lon="5.5231">
        <ele>1870.86</ele>
        <time>2012-11-18T13:24:38Z</time>
      </trkpt>
      <trkpt lat="44.85568" lon="5.5231">
        <ele>1870.86</ele>
        <time>2012-11-18T13:24:42Z</time>
      </trkpt>
      <trkpt lat="44.85551" lon="5.52301">
        <ele>1868.46</ele>
        <time>2012-11-18T13:24:57Z</time>
      </trkpt>
      <trkpt lat="44.85535" lon="5.52291">
        <ele>1866.06</ele>
        <time>2012-11-18T13:25:11Z</time>
      </trkpt>
      <trkpt lat="44.85532" lon="5.52286">
        <ele>1865.58</ele>
        <time>2012-11-18T13:25:14Z</time>
      </trkpt>
      <trkpt lat="44.85529" lon="5.5228">
        <ele>1865.09</ele>
        <time>2012-11-18T13:25:18Z</time>
      </trkpt>
      <trkpt lat="44.85522" lon="5.52268">
        <ele>1864.61</ele>
        <time>2012-11-18T13:25:28Z</time>
      </trkpt>
      <trkpt lat="44.85506" lon="5.52251">
        <ele>1864.13</ele>
        <time>2012-11-18T13:25:43Z</time>
      </trkpt>
      <trkpt lat="44.85502" lon="5.5225">
        <ele>1864.61</ele>
        <time>2012-11-18T13:25:47Z</time>
      </trkpt>
      <trkpt lat="44.85488" lon="5.52248">
        <ele>1864.13</ele>
        <time>2012-11-18T13:26:00Z</time>
      </trkpt>
      <trkpt lat="44.85477" lon="5.52245">
        <ele>1863.65</ele>
        <time>2012-11-18T13:26:10Z</time>
      </trkpt>
      <trkpt lat="44.85466" lon="5.5224">
        <ele>1862.69</ele>
        <time>2012-11-18T13:26:19Z</time>
      </trkpt>
      <trkpt lat="44.85452" lon="5.52237">
        <ele>1863.17</ele>
        <time>2012-11-18T13:26:32Z</time>
      </trkpt>
      <trkpt lat="44.85438" lon="5.52238">
        <ele>1863.17</ele>
        <time>2012-11-18T13:26:44Z</time>
      </trkpt>
      <trkpt lat="44.85425" lon="5.52238">
        <ele>1864.13</ele>
        <time>2012-11-18T13:26:54Z</time>
      </trkpt>
      <trkpt lat="44.85417" lon="5.52237">
        <ele>1866.06</ele>
        <time>2012-11-18T13:27:02Z</time>
      </trkpt>
      <trkpt lat="44.8541" lon="5.52236">
        <ele>1866.06</ele>
        <time>2012-11-18T13:27:08Z</time>
      </trkpt>
      <trkpt lat="44.85406" lon="5.52235">
        <ele>1866.54</ele>
        <time>2012-11-18T13:27:12Z</time>
      </trkpt>
      <trkpt lat="44.85399" lon="5.52234">
        <ele>1868.46</ele>
        <time>2012-11-18T13:27:20Z</time>
      </trkpt>
      <trkpt lat="44.85393" lon="5.52232">
        <ele>1868.94</ele>
        <time>2012-11-18T13:27:26Z</time>
      </trkpt>
      <trkpt lat="44.85381" lon="5.52227">
        <ele>1870.38</ele>
        <time>2012-11-18T13:27:40Z</time>
      </trkpt>
      <trkpt lat="44.85367" lon="5.52223">
        <ele>1872.3</ele>
        <time>2012-11-18T13:27:52Z</time>
      </trkpt>
      <trkpt lat="44.85365" lon="5.52222">
        <ele>1872.79</ele>
        <time>2012-11-18T13:27:54Z</time>
      </trkpt>
      <trkpt lat="44.85361" lon="5.5222">
        <ele>1873.27</ele>
        <time>2012-11-18T13:27:58Z</time>
      </trkpt>
      <trkpt lat="44.85359" lon="5.5222">
        <ele>1873.75</ele>
        <time>2012-11-18T13:28:00Z</time>
      </trkpt>
      <trkpt lat="44.85357" lon="5.52218">
        <ele>1873.75</ele>
        <time>2012-11-18T13:28:02Z</time>
      </trkpt>
      <trkpt lat="44.8535" lon="5.52213">
        <ele>1875.67</ele>
        <time>2012-11-18T13:28:14Z</time>
      </trkpt>
      <trkpt lat="44.85349" lon="5.52215">
        <ele>1875.67</ele>
        <time>2012-11-18T13:28:16Z</time>
      </trkpt>
      <trkpt lat="44.85346" lon="5.52222">
        <ele>1877.59</ele>
        <time>2012-11-18T13:28:26Z</time>
      </trkpt>
      <trkpt lat="44.85343" lon="5.52213">
        <ele>1877.59</ele>
        <time>2012-11-18T13:28:38Z</time>
      </trkpt>
      <trkpt lat="44.85339" lon="5.52207">
        <ele>1877.59</ele>
        <time>2012-11-18T13:28:49Z</time>
      </trkpt>
      <trkpt lat="44.85339" lon="5.52185">
        <ele>1874.23</ele>
        <time>2012-11-18T13:29:01Z</time>
      </trkpt>
      <trkpt lat="44.85338" lon="5.52179">
        <ele>1872.79</ele>
        <time>2012-11-18T13:29:05Z</time>
      </trkpt>
      <trkpt lat="44.85332" lon="5.52151">
        <ele>1872.79</ele>
        <time>2012-11-18T13:29:21Z</time>
      </trkpt>
      <trkpt lat="44.8533" lon="5.52143">
        <ele>1873.27</ele>
        <time>2012-11-18T13:29:26Z</time>
      </trkpt>
      <trkpt lat="44.85325" lon="5.52134">
        <ele>1873.75</ele>
        <time>2012-11-18T13:29:32Z</time>
      </trkpt>
      <trkpt lat="44.85318" lon="5.52122">
        <ele>1873.75</ele>
        <time>2012-11-18T13:29:40Z</time>
      </trkpt>
      <trkpt lat="44.85305" lon="5.52103">
        <ele>1876.15</ele>
        <time>2012-11-18T13:29:55Z</time>
      </trkpt>
      <trkpt lat="44.85304" lon="5.52101">
        <ele>1876.15</ele>
        <time>2012-11-18T13:29:57Z</time>
      </trkpt>
      <trkpt lat="44.85301" lon="5.521">
        <ele>1876.63</ele>
        <time>2012-11-18T13:30:00Z</time>
      </trkpt>
      <trkpt lat="44.85298" lon="5.52098">
        <ele>1877.11</ele>
        <time>2012-11-18T13:30:03Z</time>
      </trkpt>
      <trkpt lat="44.85293" lon="5.52096">
        <ele>1878.07</ele>
        <time>2012-11-18T13:30:17Z</time>
      </trkpt>
      <trkpt lat="44.85291" lon="5.52096">
        <ele>1878.55</ele>
        <time>2012-11-18T13:30:36Z</time>
      </trkpt>
      <trkpt lat="44.85286" lon="5.52094">
        <ele>1879.51</ele>
        <time>2012-11-18T13:30:42Z</time>
      </trkpt>
      <trkpt lat="44.85281" lon="5.52094">
        <ele>1880.96</ele>
        <time>2012-11-18T13:30:49Z</time>
      </trkpt>
      <trkpt lat="44.85279" lon="5.52094">
        <ele>1880.96</ele>
        <time>2012-11-18T13:30:51Z</time>
      </trkpt>
      <trkpt lat="44.85275" lon="5.52093">
        <ele>1881.44</ele>
        <time>2012-11-18T13:30:54Z</time>
      </trkpt>
      <trkpt lat="44.85272" lon="5.52092">
        <ele>1881.92</ele>
        <time>2012-11-18T13:30:58Z</time>
      </trkpt>
      <trkpt lat="44.85269" lon="5.5209">
        <ele>1882.4</ele>
        <time>2012-11-18T13:31:01Z</time>
      </trkpt>
      <trkpt lat="44.85263" lon="5.5209">
        <ele>1883.36</ele>
        <time>2012-11-18T13:31:06Z</time>
      </trkpt>
      <trkpt lat="44.85261" lon="5.5209">
        <ele>1883.84</ele>
        <time>2012-11-18T13:31:09Z</time>
      </trkpt>
      <trkpt lat="44.8526" lon="5.52087">
        <ele>1883.84</ele>
        <time>2012-11-18T13:31:11Z</time>
      </trkpt>
      <trkpt lat="44.85257" lon="5.52086">
        <ele>1884.32</ele>
        <time>2012-11-18T13:31:15Z</time>
      </trkpt>
      <trkpt lat="44.85252" lon="5.52086">
        <ele>1885.28</ele>
        <time>2012-11-18T13:31:21Z</time>
      </trkpt>
      <trkpt lat="44.85246" lon="5.52087">
        <ele>1886.72</ele>
        <time>2012-11-18T13:31:26Z</time>
      </trkpt>
      <trkpt lat="44.85241" lon="5.52087">
        <ele>1888.17</ele>
        <time>2012-11-18T13:31:32Z</time>
      </trkpt>
      <trkpt lat="44.85235" lon="5.52085">
        <ele>1888.65</ele>
        <time>2012-11-18T13:31:39Z</time>
      </trkpt>
      <trkpt lat="44.85232" lon="5.52083">
        <ele>1889.13</ele>
        <time>2012-11-18T13:31:42Z</time>
      </trkpt>
      <trkpt lat="44.85224" lon="5.52082">
        <ele>1891.53</ele>
        <time>2012-11-18T13:31:50Z</time>
      </trkpt>
      <trkpt lat="44.85222" lon="5.5208">
        <ele>1891.05</ele>
        <time>2012-11-18T13:31:53Z</time>
      </trkpt>
      <trkpt lat="44.85217" lon="5.52079">
        <ele>1892.01</ele>
        <time>2012-11-18T13:31:59Z</time>
      </trkpt>
      <trkpt lat="44.85216" lon="5.52078">
        <ele>1892.49</ele>
        <time>2012-11-18T13:32:01Z</time>
      </trkpt>
      <trkpt lat="44.85206" lon="5.52077">
        <ele>1893.45</ele>
        <time>2012-11-18T13:32:10Z</time>
      </trkpt>
      <trkpt lat="44.85202" lon="5.52075">
        <ele>1894.42</ele>
        <time>2012-11-18T13:32:14Z</time>
      </trkpt>
      <trkpt lat="44.85195" lon="5.52074">
        <ele>1895.38</ele>
        <time>2012-11-18T13:32:21Z</time>
      </trkpt>
      <trkpt lat="44.85183" lon="5.52067">
        <ele>1896.82</ele>
        <time>2012-11-18T13:32:34Z</time>
      </trkpt>
      <trkpt lat="44.85172" lon="5.52062">
        <ele>1897.78</ele>
        <time>2012-11-18T13:32:44Z</time>
      </trkpt>
      <trkpt lat="44.85162" lon="5.52054">
        <ele>1898.26</ele>
        <time>2012-11-18T13:32:55Z</time>
      </trkpt>
      <trkpt lat="44.85159" lon="5.52053">
        <ele>1898.26</ele>
        <time>2012-11-18T13:32:58Z</time>
      </trkpt>
      <trkpt lat="44.85156" lon="5.52049">
        <ele>1899.22</ele>
        <time>2012-11-18T13:33:02Z</time>
      </trkpt>
      <trkpt lat="44.85152" lon="5.52048">
        <ele>1900.18</ele>
        <time>2012-11-18T13:33:06Z</time>
      </trkpt>
      <trkpt lat="44.85144" lon="5.52045">
        <ele>1901.14</ele>
        <time>2012-11-18T13:33:14Z</time>
      </trkpt>
      <trkpt lat="44.85141" lon="5.52044">
        <ele>1901.63</ele>
        <time>2012-11-18T13:33:17Z</time>
      </trkpt>
      <trkpt lat="44.85138" lon="5.52045">
        <ele>1901.63</ele>
        <time>2012-11-18T13:33:20Z</time>
      </trkpt>
      <trkpt lat="44.85124" lon="5.52043">
        <ele>1903.07</ele>
        <time>2012-11-18T13:33:33Z</time>
      </trkpt>
      <trkpt lat="44.85109" lon="5.52042">
        <ele>1905.47</ele>
        <time>2012-11-18T13:33:46Z</time>
      </trkpt>
      <trkpt lat="44.85105" lon="5.52041">
        <ele>1905.95</ele>
        <time>2012-11-18T13:33:49Z</time>
      </trkpt>
      <trkpt lat="44.85102" lon="5.52041">
        <ele>1906.91</ele>
        <time>2012-11-18T13:33:52Z</time>
      </trkpt>
      <trkpt lat="44.85094" lon="5.5204">
        <ele>1907.87</ele>
        <time>2012-11-18T13:34:00Z</time>
      </trkpt>
      <trkpt lat="44.85086" lon="5.52036">
        <ele>1908.83</ele>
        <time>2012-11-18T13:34:08Z</time>
      </trkpt>
      <trkpt lat="44.85083" lon="5.52035">
        <ele>1909.32</ele>
        <time>2012-11-18T13:34:11Z</time>
      </trkpt>
      <trkpt lat="44.8508" lon="5.52036">
        <ele>1910.28</ele>
        <time>2012-11-18T13:34:14Z</time>
      </trkpt>
      <trkpt lat="44.85076" lon="5.52034">
        <ele>1910.76</ele>
        <time>2012-11-18T13:34:19Z</time>
      </trkpt>
      <trkpt lat="44.8507" lon="5.52032">
        <ele>1911.72</ele>
        <time>2012-11-18T13:34:25Z</time>
      </trkpt>
      <trkpt lat="44.85066" lon="5.52031">
        <ele>1911.72</ele>
        <time>2012-11-18T13:34:29Z</time>
      </trkpt>
      <trkpt lat="44.85056" lon="5.52028">
        <ele>1914.12</ele>
        <time>2012-11-18T13:34:39Z</time>
      </trkpt>
      <trkpt lat="44.85053" lon="5.52026">
        <ele>1913.64</ele>
        <time>2012-11-18T13:34:42Z</time>
      </trkpt>
      <trkpt lat="44.85043" lon="5.52015">
        <ele>1915.56</ele>
        <time>2012-11-18T13:34:54Z</time>
      </trkpt>
      <trkpt lat="44.8504" lon="5.52013">
        <ele>1916.04</ele>
        <time>2012-11-18T13:34:58Z</time>
      </trkpt>
      <trkpt lat="44.85025" lon="5.5201">
        <ele>1917.97</ele>
        <time>2012-11-18T13:35:12Z</time>
      </trkpt>
      <trkpt lat="44.85019" lon="5.52008">
        <ele>1918.93</ele>
        <time>2012-11-18T13:35:18Z</time>
      </trkpt>
      <trkpt lat="44.85011" lon="5.52004">
        <ele>1919.41</ele>
        <time>2012-11-18T13:35:25Z</time>
      </trkpt>
      <trkpt lat="44.85004" lon="5.52003">
        <ele>1920.85</ele>
        <time>2012-11-18T13:35:32Z</time>
      </trkpt>
      <trkpt lat="44.84999" lon="5.52">
        <ele>1921.81</ele>
        <time>2012-11-18T13:35:37Z</time>
      </trkpt>
      <trkpt lat="44.84997" lon="5.51998">
        <ele>1921.81</ele>
        <time>2012-11-18T13:35:39Z</time>
      </trkpt>
      <trkpt lat="44.84995" lon="5.51997">
        <ele>1922.29</ele>
        <time>2012-11-18T13:35:41Z</time>
      </trkpt>
      <trkpt lat="44.84992" lon="5.51996">
        <ele>1922.77</ele>
        <time>2012-11-18T13:35:44Z</time>
      </trkpt>
      <trkpt lat="44.84984" lon="5.51992">
        <ele>1923.74</ele>
        <time>2012-11-18T13:35:52Z</time>
      </trkpt>
      <trkpt lat="44.84978" lon="5.51989">
        <ele>1924.7</ele>
        <time>2012-11-18T13:35:59Z</time>
      </trkpt>
      <trkpt lat="44.84974" lon="5.51988">
        <ele>1925.18</ele>
        <time>2012-11-18T13:36:03Z</time>
      </trkpt>
      <trkpt lat="44.84969" lon="5.51987">
        <ele>1925.66</ele>
        <time>2012-11-18T13:36:08Z</time>
      </trkpt>
      <trkpt lat="44.84964" lon="5.51984">
        <ele>1926.14</ele>
        <time>2012-11-18T13:36:12Z</time>
      </trkpt>
      <trkpt lat="44.84958" lon="5.51982">
        <ele>1926.62</ele>
        <time>2012-11-18T13:36:16Z</time>
      </trkpt>
      <trkpt lat="44.84955" lon="5.51977">
        <ele>1926.62</ele>
        <time>2012-11-18T13:36:20Z</time>
      </trkpt>
      <trkpt lat="44.84943" lon="5.51973">
        <ele>1929.02</ele>
        <time>2012-11-18T13:36:32Z</time>
      </trkpt>
      <trkpt lat="44.84936" lon="5.51969">
        <ele>1930.46</ele>
        <time>2012-11-18T13:36:42Z</time>
      </trkpt>
      <trkpt lat="44.8492" lon="5.51967">
        <ele>1930.46</ele>
        <time>2012-11-18T13:36:56Z</time>
      </trkpt>
      <trkpt lat="44.8491" lon="5.51971">
        <ele>1930.46</ele>
        <time>2012-11-18T13:37:04Z</time>
      </trkpt>
      <trkpt lat="44.84901" lon="5.51966">
        <ele>1930.95</ele>
        <time>2012-11-18T13:37:17Z</time>
      </trkpt>
      <trkpt lat="44.84895" lon="5.51961">
        <ele>1931.91</ele>
        <time>2012-11-18T13:37:25Z</time>
      </trkpt>
      <trkpt lat="44.84885" lon="5.51955">
        <ele>1932.39</ele>
        <time>2012-11-18T13:37:35Z</time>
      </trkpt>
      <trkpt lat="44.84881" lon="5.51957">
        <ele>1932.87</ele>
        <time>2012-11-18T13:37:49Z</time>
      </trkpt>
      <trkpt lat="44.84881" lon="5.51957">
        <ele>1933.35</ele>
        <time>2012-11-18T13:38:07Z</time>
      </trkpt>
      <trkpt lat="44.8488" lon="5.51956">
        <ele>1932.39</ele>
        <time>2012-11-18T13:38:22Z</time>
      </trkpt>
      <trkpt lat="44.8488" lon="5.51957">
        <ele>1932.87</ele>
        <time>2012-11-18T13:38:28Z</time>
      </trkpt>
      <trkpt lat="44.84872" lon="5.51961">
        <ele>1932.87</ele>
        <time>2012-11-18T13:38:40Z</time>
      </trkpt>
      <trkpt lat="44.8487" lon="5.5196">
        <ele>1932.87</ele>
        <time>2012-11-18T13:38:53Z</time>
      </trkpt>
      <trkpt lat="44.84871" lon="5.51959">
        <ele>1932.87</ele>
        <time>2012-11-18T13:39:07Z</time>
      </trkpt>
      <trkpt lat="44.84871" lon="5.51959">
        <ele>1932.87</ele>
        <time>2012-11-18T13:39:20Z</time>
      </trkpt>
      <trkpt lat="44.84871" lon="5.51959">
        <ele>1932.87</ele>
        <time>2012-11-18T13:39:59Z</time>
      </trkpt>
      <trkpt lat="44.84871" lon="5.51958">
        <ele>1931.43</ele>
        <time>2012-11-18T13:40:41Z</time>
      </trkpt>
      <trkpt lat="44.84871" lon="5.51958">
        <ele>1932.87</ele>
        <time>2012-11-18T13:40:49Z</time>
      </trkpt>
      <trkpt lat="44.84871" lon="5.51958">
        <ele>1929.98</ele>
        <time>2012-11-18T13:40:55Z</time>
      </trkpt>
      <trkpt lat="44.84871" lon="5.51958">
        <ele>1932.87</ele>
        <time>2012-11-18T13:41:00Z</time>
      </trkpt>
      <trkpt lat="44.8487" lon="5.51959">
        <ele>1922.29</ele>
        <time>2012-11-18T13:41:11Z</time>
      </trkpt>
      <trkpt lat="44.8487" lon="5.51959">
        <ele>1936.71</ele>
        <time>2012-11-18T13:41:12Z</time>
      </trkpt>
      <trkpt lat="44.8487" lon="5.51959">
        <ele>1934.79</ele>
        <time>2012-11-18T13:41:13Z</time>
      </trkpt>
      <trkpt lat="44.8487" lon="5.51959">
        <ele>1931.91</ele>
        <time>2012-11-18T13:41:16Z</time>
      </trkpt>
      <trkpt lat="44.8487" lon="5.51959">
        <ele>1930.95</ele>
        <time>2012-11-18T13:41:18Z</time>
      </trkpt>
      <trkpt lat="44.84869" lon="5.51959">
        <ele>1933.35</ele>
        <time>2012-11-18T13:41:27Z</time>
      </trkpt>
      <trkpt lat="44.84849" lon="5.51953">
        <ele>1931.43</ele>
        <time>2012-11-18T13:41:42Z</time>
      </trkpt>
      <trkpt lat="44.84831" lon="5.51938">
        <ele>1930.95</ele>
        <time>2012-11-18T13:41:58Z</time>
      </trkpt>
      <trkpt lat="44.84829" lon="5.51936">
        <ele>1930.46</ele>
        <time>2012-11-18T13:42:00Z</time>
      </trkpt>
      <trkpt lat="44.84824" lon="5.51931">
        <ele>1930.46</ele>
        <time>2012-11-18T13:42:04Z</time>
      </trkpt>
      <trkpt lat="44.84807" lon="5.51913">
        <ele>1928.54</ele>
        <time>2012-11-18T13:42:20Z</time>
      </trkpt>
      <trkpt lat="44.8479" lon="5.51898">
        <ele>1926.62</ele>
        <time>2012-11-18T13:42:35Z</time>
      </trkpt>
      <trkpt lat="44.84776" lon="5.51879">
        <ele>1926.14</ele>
        <time>2012-11-18T13:42:50Z</time>
      </trkpt>
      <trkpt lat="44.84764" lon="5.51867">
        <ele>1925.66</ele>
        <time>2012-11-18T13:43:02Z</time>
      </trkpt>
      <trkpt lat="44.84756" lon="5.51861">
        <ele>1924.7</ele>
        <time>2012-11-18T13:43:15Z</time>
      </trkpt>
      <trkpt lat="44.84756" lon="5.51861">
        <ele>1924.7</ele>
        <time>2012-11-18T13:43:45Z</time>
      </trkpt>
      <trkpt lat="44.84756" lon="5.51861">
        <ele>1925.18</ele>
        <time>2012-11-18T13:43:57Z</time>
      </trkpt>
      <trkpt lat="44.84752" lon="5.51859">
        <ele>1924.22</ele>
        <time>2012-11-18T13:44:01Z</time>
      </trkpt>
      <trkpt lat="44.84735" lon="5.51846">
        <ele>1921.33</ele>
        <time>2012-11-18T13:44:14Z</time>
      </trkpt>
      <trkpt lat="44.8472" lon="5.51834">
        <ele>1920.37</ele>
        <time>2012-11-18T13:44:27Z</time>
      </trkpt>
      <trkpt lat="44.84706" lon="5.51835">
        <ele>1919.89</ele>
        <time>2012-11-18T13:44:38Z</time>
      </trkpt>
      <trkpt lat="44.8469" lon="5.5183">
        <ele>1917.97</ele>
        <time>2012-11-18T13:44:50Z</time>
      </trkpt>
      <trkpt lat="44.84672" lon="5.51824">
        <ele>1917.01</ele>
        <time>2012-11-18T13:45:04Z</time>
      </trkpt>
      <trkpt lat="44.84671" lon="5.51824">
        <ele>1916.53</ele>
        <time>2012-11-18T13:45:05Z</time>
      </trkpt>
      <trkpt lat="44.84665" lon="5.51824">
        <ele>1916.04</ele>
        <time>2012-11-18T13:45:10Z</time>
      </trkpt>
      <trkpt lat="44.84651" lon="5.51818">
        <ele>1914.12</ele>
        <time>2012-11-18T13:45:20Z</time>
      </trkpt>
      <trkpt lat="44.8464" lon="5.51812">
        <ele>1911.24</ele>
        <time>2012-11-18T13:45:30Z</time>
      </trkpt>
      <trkpt lat="44.84628" lon="5.51804">
        <ele>1908.83</ele>
        <time>2012-11-18T13:45:40Z</time>
      </trkpt>
      <trkpt lat="44.84619" lon="5.51801">
        <ele>1906.91</ele>
        <time>2012-11-18T13:45:53Z</time>
      </trkpt>
      <trkpt lat="44.84603" lon="5.51795">
        <ele>1905.95</ele>
        <time>2012-11-18T13:46:06Z</time>
      </trkpt>
      <trkpt lat="44.84597" lon="5.51791">
        <ele>1904.99</ele>
        <time>2012-11-18T13:46:11Z</time>
      </trkpt>
      <trkpt lat="44.84594" lon="5.51791">
        <ele>1904.99</ele>
        <time>2012-11-18T13:46:14Z</time>
      </trkpt>
      <trkpt lat="44.84583" lon="5.51779">
        <ele>1906.43</ele>
        <time>2012-11-18T13:46:26Z</time>
      </trkpt>
      <trkpt lat="44.8457" lon="5.51765">
        <ele>1907.87</ele>
        <time>2012-11-18T13:46:40Z</time>
      </trkpt>
      <trkpt lat="44.84565" lon="5.51764">
        <ele>1908.35</ele>
        <time>2012-11-18T13:46:44Z</time>
      </trkpt>
      <trkpt lat="44.84561" lon="5.5176">
        <ele>1908.83</ele>
        <time>2012-11-18T13:46:48Z</time>
      </trkpt>
      <trkpt lat="44.84543" lon="5.5175">
        <ele>1909.32</ele>
        <time>2012-11-18T13:47:04Z</time>
      </trkpt>
      <trkpt lat="44.8453" lon="5.51746">
        <ele>1910.28</ele>
        <time>2012-11-18T13:47:15Z</time>
      </trkpt>
      <trkpt lat="44.84513" lon="5.51741">
        <ele>1912.2</ele>
        <time>2012-11-18T13:47:30Z</time>
      </trkpt>
      <trkpt lat="44.84504" lon="5.5174">
        <ele>1912.2</ele>
        <time>2012-11-18T13:47:38Z</time>
      </trkpt>
      <trkpt lat="44.84502" lon="5.5174">
        <ele>1912.68</ele>
        <time>2012-11-18T13:47:40Z</time>
      </trkpt>
      <trkpt lat="44.84499" lon="5.51738">
        <ele>1913.16</ele>
        <time>2012-11-18T13:47:43Z</time>
      </trkpt>
      <trkpt lat="44.84492" lon="5.51743">
        <ele>1913.64</ele>
        <time>2012-11-18T13:47:51Z</time>
      </trkpt>
      <trkpt lat="44.84492" lon="5.51746">
        <ele>1914.12</ele>
        <time>2012-11-18T13:47:54Z</time>
      </trkpt>
      <trkpt lat="44.84492" lon="5.51751">
        <ele>1914.6</ele>
        <time>2012-11-18T13:47:58Z</time>
      </trkpt>
      <trkpt lat="44.84483" lon="5.51761">
        <ele>1917.01</ele>
        <time>2012-11-18T13:48:10Z</time>
      </trkpt>
      <trkpt lat="44.84471" lon="5.51764">
        <ele>1919.89</ele>
        <time>2012-11-18T13:48:24Z</time>
      </trkpt>
      <trkpt lat="44.8447" lon="5.51765">
        <ele>1920.37</ele>
        <time>2012-11-18T13:48:26Z</time>
      </trkpt>
      <trkpt lat="44.84468" lon="5.5177">
        <ele>1921.33</ele>
        <time>2012-11-18T13:48:32Z</time>
      </trkpt>
      <trkpt lat="44.84462" lon="5.51774">
        <ele>1923.74</ele>
        <time>2012-11-18T13:48:41Z</time>
      </trkpt>
      <trkpt lat="44.84451" lon="5.51776">
        <ele>1926.14</ele>
        <time>2012-11-18T13:48:53Z</time>
      </trkpt>
      <trkpt lat="44.84441" lon="5.51776">
        <ele>1927.1</ele>
        <time>2012-11-18T13:49:02Z</time>
      </trkpt>
      <trkpt lat="44.8443" lon="5.51781">
        <ele>1927.1</ele>
        <time>2012-11-18T13:49:11Z</time>
      </trkpt>
      <trkpt lat="44.84426" lon="5.51778">
        <ele>1926.62</ele>
        <time>2012-11-18T13:49:15Z</time>
      </trkpt>
      <trkpt lat="44.84406" lon="5.51788">
        <ele>1926.14</ele>
        <time>2012-11-18T13:49:31Z</time>
      </trkpt>
      <trkpt lat="44.84395" lon="5.51795">
        <ele>1927.58</ele>
        <time>2012-11-18T13:49:44Z</time>
      </trkpt>
      <trkpt lat="44.84392" lon="5.51797">
        <ele>1928.54</ele>
        <time>2012-11-18T13:49:47Z</time>
      </trkpt>
      <trkpt lat="44.84387" lon="5.51803">
        <ele>1929.02</ele>
        <time>2012-11-18T13:49:54Z</time>
      </trkpt>
      <trkpt lat="44.84385" lon="5.51806">
        <ele>1929.98</ele>
        <time>2012-11-18T13:49:57Z</time>
      </trkpt>
      <trkpt lat="44.84377" lon="5.51816">
        <ele>1931.43</ele>
        <time>2012-11-18T13:50:09Z</time>
      </trkpt>
      <trkpt lat="44.84375" lon="5.51823">
        <ele>1931.43</ele>
        <time>2012-11-18T13:50:14Z</time>
      </trkpt>
      <trkpt lat="44.84372" lon="5.51834">
        <ele>1932.39</ele>
        <time>2012-11-18T13:50:22Z</time>
      </trkpt>
      <trkpt lat="44.8437" lon="5.51842">
        <ele>1932.39</ele>
        <time>2012-11-18T13:50:27Z</time>
      </trkpt>
      <trkpt lat="44.84364" lon="5.51852">
        <ele>1932.87</ele>
        <time>2012-11-18T13:50:36Z</time>
      </trkpt>
      <trkpt lat="44.84355" lon="5.5186">
        <ele>1935.27</ele>
        <time>2012-11-18T13:50:48Z</time>
      </trkpt>
      <trkpt lat="44.84353" lon="5.51861">
        <ele>1936.23</ele>
        <time>2012-11-18T13:50:52Z</time>
      </trkpt>
      <trkpt lat="44.84347" lon="5.51864">
        <ele>1938.16</ele>
        <time>2012-11-18T13:51:01Z</time>
      </trkpt>
      <trkpt lat="44.84338" lon="5.51863">
        <ele>1940.56</ele>
        <time>2012-11-18T13:51:12Z</time>
      </trkpt>
      <trkpt lat="44.8433" lon="5.51861">
        <ele>1942</ele>
        <time>2012-11-18T13:51:23Z</time>
      </trkpt>
      <trkpt lat="44.84326" lon="5.51866">
        <ele>1943.44</ele>
        <time>2012-11-18T13:51:31Z</time>
      </trkpt>
      <trkpt lat="44.84323" lon="5.51869">
        <ele>1944.4</ele>
        <time>2012-11-18T13:51:37Z</time>
      </trkpt>
      <trkpt lat="44.8432" lon="5.51875">
        <ele>1945.36</ele>
        <time>2012-11-18T13:51:42Z</time>
      </trkpt>
      <trkpt lat="44.84314" lon="5.51884">
        <ele>1946.81</ele>
        <time>2012-11-18T13:51:50Z</time>
      </trkpt>
      <trkpt lat="44.8431" lon="5.51887">
        <ele>1947.29</ele>
        <time>2012-11-18T13:51:54Z</time>
      </trkpt>
      <trkpt lat="44.84306" lon="5.51894">
        <ele>1947.29</ele>
        <time>2012-11-18T13:52:00Z</time>
      </trkpt>
      <trkpt lat="44.84298" lon="5.51897">
        <ele>1948.73</ele>
        <time>2012-11-18T13:52:09Z</time>
      </trkpt>
      <trkpt lat="44.84295" lon="5.519">
        <ele>1948.73</ele>
        <time>2012-11-18T13:52:12Z</time>
      </trkpt>
      <trkpt lat="44.84295" lon="5.51904">
        <ele>1950.17</ele>
        <time>2012-11-18T13:52:15Z</time>
      </trkpt>
      <trkpt lat="44.84291" lon="5.51914">
        <ele>1952.09</ele>
        <time>2012-11-18T13:52:24Z</time>
      </trkpt>
      <trkpt lat="44.84289" lon="5.51917">
        <ele>1951.61</ele>
        <time>2012-11-18T13:52:27Z</time>
      </trkpt>
      <trkpt lat="44.84285" lon="5.51923">
        <ele>1951.61</ele>
        <time>2012-11-18T13:52:39Z</time>
      </trkpt>
      <trkpt lat="44.84284" lon="5.51924">
        <ele>1951.61</ele>
        <time>2012-11-18T13:52:48Z</time>
      </trkpt>
      <trkpt lat="44.84285" lon="5.51928">
        <ele>1951.13</ele>
        <time>2012-11-18T13:53:00Z</time>
      </trkpt>
      <trkpt lat="44.84285" lon="5.51928">
        <ele>1951.61</ele>
        <time>2012-11-18T13:54:01Z</time>
      </trkpt>
      <trkpt lat="44.84284" lon="5.51927">
        <ele>1951.13</ele>
        <time>2012-11-18T13:54:11Z</time>
      </trkpt>
      <trkpt lat="44.84284" lon="5.51927">
        <ele>1951.13</ele>
        <time>2012-11-18T13:54:21Z</time>
      </trkpt>
      <trkpt lat="44.84283" lon="5.51929">
        <ele>1951.13</ele>
        <time>2012-11-18T13:54:33Z</time>
      </trkpt>
      <trkpt lat="44.84283" lon="5.51929">
        <ele>1951.13</ele>
        <time>2012-11-18T13:54:46Z</time>
      </trkpt>
      <trkpt lat="44.84283" lon="5.5193">
        <ele>1951.13</ele>
        <time>2012-11-18T13:55:42Z</time>
      </trkpt>
      <trkpt lat="44.84283" lon="5.5193">
        <ele>1950.65</ele>
        <time>2012-11-18T13:56:21Z</time>
      </trkpt>
      <trkpt lat="44.84282" lon="5.51931">
        <ele>1950.65</ele>
        <time>2012-11-18T13:56:22Z</time>
      </trkpt>
      <trkpt lat="44.84281" lon="5.51934">
        <ele>1950.17</ele>
        <time>2012-11-18T13:56:24Z</time>
      </trkpt>
      <trkpt lat="44.84279" lon="5.5194">
        <ele>1949.69</ele>
        <time>2012-11-18T13:56:28Z</time>
      </trkpt>
      <trkpt lat="44.84274" lon="5.51943">
        <ele>1948.73</ele>
        <time>2012-11-18T13:56:33Z</time>
      </trkpt>
      <trkpt lat="44.84265" lon="5.5195">
        <ele>1946.81</ele>
        <time>2012-11-18T13:56:47Z</time>
      </trkpt>
      <trkpt lat="44.8426" lon="5.51957">
        <ele>1944.88</ele>
        <time>2012-11-18T13:57:04Z</time>
      </trkpt>
      <trkpt lat="44.84259" lon="5.5196">
        <ele>1943.92</ele>
        <time>2012-11-18T13:57:07Z</time>
      </trkpt>
      <trkpt lat="44.84257" lon="5.51963">
        <ele>1942.48</ele>
        <time>2012-11-18T13:57:10Z</time>
      </trkpt>
      <trkpt lat="44.84255" lon="5.51967">
        <ele>1941.52</ele>
        <time>2012-11-18T13:57:29Z</time>
      </trkpt>
      <trkpt lat="44.84253" lon="5.5197">
        <ele>1941.04</ele>
        <time>2012-11-18T13:57:32Z</time>
      </trkpt>
      <trkpt lat="44.84241" lon="5.51978">
        <ele>1937.19</ele>
        <time>2012-11-18T13:57:43Z</time>
      </trkpt>
      <trkpt lat="44.84232" lon="5.51984">
        <ele>1935.75</ele>
        <time>2012-11-18T13:57:51Z</time>
      </trkpt>
      <trkpt lat="44.8423" lon="5.51987">
        <ele>1934.79</ele>
        <time>2012-11-18T13:57:54Z</time>
      </trkpt>
      <trkpt lat="44.84221" lon="5.51995">
        <ele>1932.87</ele>
        <time>2012-11-18T13:58:03Z</time>
      </trkpt>
      <trkpt lat="44.84218" lon="5.51999">
        <ele>1931.43</ele>
        <time>2012-11-18T13:58:07Z</time>
      </trkpt>
      <trkpt lat="44.84214" lon="5.51999">
        <ele>1930.95</ele>
        <time>2012-11-18T13:58:11Z</time>
      </trkpt>
      <trkpt lat="44.84209" lon="5.51998">
        <ele>1931.43</ele>
        <time>2012-11-18T13:58:15Z</time>
      </trkpt>
      <trkpt lat="44.84194" lon="5.51992">
        <ele>1931.91</ele>
        <time>2012-11-18T13:58:30Z</time>
      </trkpt>
      <trkpt lat="44.84193" lon="5.51992">
        <ele>1931.91</ele>
        <time>2012-11-18T13:58:49Z</time>
      </trkpt>
      <trkpt lat="44.84193" lon="5.51992">
        <ele>1931.91</ele>
        <time>2012-11-18T13:58:53Z</time>
      </trkpt>
      <trkpt lat="44.84182" lon="5.52003">
        <ele>1931.43</ele>
        <time>2012-11-18T13:59:04Z</time>
      </trkpt>
      <trkpt lat="44.84175" lon="5.52015">
        <ele>1930.46</ele>
        <time>2012-11-18T13:59:13Z</time>
      </trkpt>
      <trkpt lat="44.84168" lon="5.52035">
        <ele>1928.06</ele>
        <time>2012-11-18T13:59:27Z</time>
      </trkpt>
      <trkpt lat="44.84163" lon="5.5204">
        <ele>1925.66</ele>
        <time>2012-11-18T13:59:33Z</time>
      </trkpt>
      <trkpt lat="44.84152" lon="5.52043">
        <ele>1923.25</ele>
        <time>2012-11-18T13:59:43Z</time>
      </trkpt>
      <trkpt lat="44.84151" lon="5.5205">
        <ele>1922.29</ele>
        <time>2012-11-18T13:59:49Z</time>
      </trkpt>
      <trkpt lat="44.84149" lon="5.52054">
        <ele>1921.33</ele>
        <time>2012-11-18T13:59:52Z</time>
      </trkpt>
      <trkpt lat="44.84144" lon="5.52057">
        <ele>1920.37</ele>
        <time>2012-11-18T13:59:56Z</time>
      </trkpt>
      <trkpt lat="44.84142" lon="5.52057">
        <ele>1919.41</ele>
        <time>2012-11-18T13:59:58Z</time>
      </trkpt>
      <trkpt lat="44.84138" lon="5.52058">
        <ele>1918.93</ele>
        <time>2012-11-18T14:00:03Z</time>
      </trkpt>
      <trkpt lat="44.84133" lon="5.52082">
        <ele>1915.56</ele>
        <time>2012-11-18T14:00:18Z</time>
      </trkpt>
      <trkpt lat="44.84133" lon="5.52089">
        <ele>1915.08</ele>
        <time>2012-11-18T14:00:23Z</time>
      </trkpt>
      <trkpt lat="44.84134" lon="5.52095">
        <ele>1913.64</ele>
        <time>2012-11-18T14:00:28Z</time>
      </trkpt>
      <trkpt lat="44.84131" lon="5.52102">
        <ele>1911.72</ele>
        <time>2012-11-18T14:00:33Z</time>
      </trkpt>
      <trkpt lat="44.8413" lon="5.52115">
        <ele>1908.83</ele>
        <time>2012-11-18T14:00:39Z</time>
      </trkpt>
      <trkpt lat="44.8413" lon="5.52116">
        <ele>1906.91</ele>
        <time>2012-11-18T14:00:49Z</time>
      </trkpt>
      <trkpt lat="44.8413" lon="5.52116">
        <ele>1907.87</ele>
        <time>2012-11-18T14:01:10Z</time>
      </trkpt>
      <trkpt lat="44.8413" lon="5.52116">
        <ele>1904.99</ele>
        <time>2012-11-18T14:01:19Z</time>
      </trkpt>
      <trkpt lat="44.84129" lon="5.5212">
        <ele>1908.35</ele>
        <time>2012-11-18T14:01:22Z</time>
      </trkpt>
      <trkpt lat="44.84123" lon="5.52128">
        <ele>1906.43</ele>
        <time>2012-11-18T14:01:33Z</time>
      </trkpt>
      <trkpt lat="44.84121" lon="5.52136">
        <ele>1904.99</ele>
        <time>2012-11-18T14:01:38Z</time>
      </trkpt>
      <trkpt lat="44.8412" lon="5.5214">
        <ele>1904.99</ele>
        <time>2012-11-18T14:01:41Z</time>
      </trkpt>
      <trkpt lat="44.84115" lon="5.52147">
        <ele>1903.55</ele>
        <time>2012-11-18T14:01:53Z</time>
      </trkpt>
      <trkpt lat="44.84115" lon="5.52147">
        <ele>1902.59</ele>
        <time>2012-11-18T14:02:23Z</time>
      </trkpt>
      <trkpt lat="44.84116" lon="5.52147">
        <ele>1901.14</ele>
        <time>2012-11-18T14:02:49Z</time>
      </trkpt>
      <trkpt lat="44.84116" lon="5.52147">
        <ele>1902.11</ele>
        <time>2012-11-18T14:03:22Z</time>
      </trkpt>
      <trkpt lat="44.84112" lon="5.52148">
        <ele>1902.59</ele>
        <time>2012-11-18T14:03:31Z</time>
      </trkpt>
      <trkpt lat="44.84105" lon="5.52173">
        <ele>1900.66</ele>
        <time>2012-11-18T14:03:47Z</time>
      </trkpt>
      <trkpt lat="44.84097" lon="5.52193">
        <ele>1898.74</ele>
        <time>2012-11-18T14:03:59Z</time>
      </trkpt>
      <trkpt lat="44.84077" lon="5.52207">
        <ele>1897.78</ele>
        <time>2012-11-18T14:04:15Z</time>
      </trkpt>
      <trkpt lat="44.84071" lon="5.52211">
        <ele>1897.78</ele>
        <time>2012-11-18T14:04:19Z</time>
      </trkpt>
      <trkpt lat="44.84063" lon="5.52224">
        <ele>1896.34</ele>
        <time>2012-11-18T14:04:31Z</time>
      </trkpt>
      <trkpt lat="44.84062" lon="5.52225">
        <ele>1896.34</ele>
        <time>2012-11-18T14:04:32Z</time>
      </trkpt>
      <trkpt lat="44.84057" lon="5.52226">
        <ele>1895.86</ele>
        <time>2012-11-18T14:04:37Z</time>
      </trkpt>
      <trkpt lat="44.84044" lon="5.52236">
        <ele>1894.9</ele>
        <time>2012-11-18T14:04:48Z</time>
      </trkpt>
      <trkpt lat="44.84035" lon="5.5225">
        <ele>1891.53</ele>
        <time>2012-11-18T14:04:59Z</time>
      </trkpt>
      <trkpt lat="44.84028" lon="5.5226">
        <ele>1890.09</ele>
        <time>2012-11-18T14:05:06Z</time>
      </trkpt>
      <trkpt lat="44.84018" lon="5.52261">
        <ele>1888.65</ele>
        <time>2012-11-18T14:05:13Z</time>
      </trkpt>
      <trkpt lat="44.84011" lon="5.52262">
        <ele>1886.72</ele>
        <time>2012-11-18T14:05:17Z</time>
      </trkpt>
      <trkpt lat="44.83997" lon="5.52274">
        <ele>1887.21</ele>
        <time>2012-11-18T14:05:29Z</time>
      </trkpt>
      <trkpt lat="44.83994" lon="5.52275">
        <ele>1887.69</ele>
        <time>2012-11-18T14:05:31Z</time>
      </trkpt>
      <trkpt lat="44.83986" lon="5.5228">
        <ele>1890.09</ele>
        <time>2012-11-18T14:05:39Z</time>
      </trkpt>
      <trkpt lat="44.83983" lon="5.5228">
        <ele>1890.09</ele>
        <time>2012-11-18T14:05:42Z</time>
      </trkpt>
      <trkpt lat="44.83975" lon="5.52289">
        <ele>1892.97</ele>
        <time>2012-11-18T14:05:54Z</time>
      </trkpt>
      <trkpt lat="44.8397" lon="5.52287">
        <ele>1894.42</ele>
        <time>2012-11-18T14:05:58Z</time>
      </trkpt>
      <trkpt lat="44.83967" lon="5.52287">
        <ele>1894.9</ele>
        <time>2012-11-18T14:06:02Z</time>
      </trkpt>
      <trkpt lat="44.83956" lon="5.52293">
        <ele>1896.82</ele>
        <time>2012-11-18T14:06:12Z</time>
      </trkpt>
      <trkpt lat="44.83954" lon="5.52296">
        <ele>1897.3</ele>
        <time>2012-11-18T14:06:15Z</time>
      </trkpt>
      <trkpt lat="44.83949" lon="5.52303">
        <ele>1898.74</ele>
        <time>2012-11-18T14:06:22Z</time>
      </trkpt>
      <trkpt lat="44.83946" lon="5.52306">
        <ele>1899.7</ele>
        <time>2012-11-18T14:06:25Z</time>
      </trkpt>
      <trkpt lat="44.83943" lon="5.52313">
        <ele>1900.18</ele>
        <time>2012-11-18T14:06:31Z</time>
      </trkpt>
      <trkpt lat="44.83935" lon="5.52324">
        <ele>1899.7</ele>
        <time>2012-11-18T14:06:40Z</time>
      </trkpt>
      <trkpt lat="44.8393" lon="5.52327">
        <ele>1898.26</ele>
        <time>2012-11-18T14:06:46Z</time>
      </trkpt>
      <trkpt lat="44.83927" lon="5.52331">
        <ele>1896.34</ele>
        <time>2012-11-18T14:06:50Z</time>
      </trkpt>
      <trkpt lat="44.83926" lon="5.52334">
        <ele>1896.34</ele>
        <time>2012-11-18T14:06:52Z</time>
      </trkpt>
      <trkpt lat="44.83925" lon="5.52338">
        <ele>1895.38</ele>
        <time>2012-11-18T14:06:55Z</time>
      </trkpt>
      <trkpt lat="44.83922" lon="5.52349">
        <ele>1893.45</ele>
        <time>2012-11-18T14:07:04Z</time>
      </trkpt>
      <trkpt lat="44.83914" lon="5.5237">
        <ele>1890.09</ele>
        <time>2012-11-18T14:07:18Z</time>
      </trkpt>
      <trkpt lat="44.83913" lon="5.52373">
        <ele>1890.09</ele>
        <time>2012-11-18T14:07:20Z</time>
      </trkpt>
      <trkpt lat="44.83897" lon="5.5239">
        <ele>1886.72</ele>
        <time>2012-11-18T14:07:35Z</time>
      </trkpt>
      <trkpt lat="44.83895" lon="5.52391">
        <ele>1886.24</ele>
        <time>2012-11-18T14:07:37Z</time>
      </trkpt>
      <trkpt lat="44.83888" lon="5.52392">
        <ele>1884.8</ele>
        <time>2012-11-18T14:07:43Z</time>
      </trkpt>
      <trkpt lat="44.83872" lon="5.5241">
        <ele>1883.84</ele>
        <time>2012-11-18T14:07:59Z</time>
      </trkpt>
      <trkpt lat="44.83863" lon="5.52414">
        <ele>1884.32</ele>
        <time>2012-11-18T14:08:07Z</time>
      </trkpt>
      <trkpt lat="44.83861" lon="5.52414">
        <ele>1885.28</ele>
        <time>2012-11-18T14:08:09Z</time>
      </trkpt>
      <trkpt lat="44.8386" lon="5.52418">
        <ele>1886.24</ele>
        <time>2012-11-18T14:08:13Z</time>
      </trkpt>
      <trkpt lat="44.83848" lon="5.52423">
        <ele>1885.76</ele>
        <time>2012-11-18T14:08:27Z</time>
      </trkpt>
      <trkpt lat="44.83844" lon="5.52423">
        <ele>1884.8</ele>
        <time>2012-11-18T14:08:30Z</time>
      </trkpt>
      <trkpt lat="44.83834" lon="5.52427">
        <ele>1883.84</ele>
        <time>2012-11-18T14:08:39Z</time>
      </trkpt>
      <trkpt lat="44.83827" lon="5.52436">
        <ele>1881.44</ele>
        <time>2012-11-18T14:08:47Z</time>
      </trkpt>
      <trkpt lat="44.83814" lon="5.5245">
        <ele>1881.44</ele>
        <time>2012-11-18T14:09:01Z</time>
      </trkpt>
      <trkpt lat="44.83803" lon="5.52471">
        <ele>1883.36</ele>
        <time>2012-11-18T14:09:17Z</time>
      </trkpt>
      <trkpt lat="44.83797" lon="5.5248">
        <ele>1884.8</ele>
        <time>2012-11-18T14:09:25Z</time>
      </trkpt>
      <trkpt lat="44.83796" lon="5.52484">
        <ele>1885.28</ele>
        <time>2012-11-18T14:09:28Z</time>
      </trkpt>
      <trkpt lat="44.83793" lon="5.52488">
        <ele>1886.24</ele>
        <time>2012-11-18T14:09:33Z</time>
      </trkpt>
      <trkpt lat="44.83786" lon="5.52493">
        <ele>1887.69</ele>
        <time>2012-11-18T14:09:42Z</time>
      </trkpt>
      <trkpt lat="44.83783" lon="5.52502">
        <ele>1890.09</ele>
        <time>2012-11-18T14:09:53Z</time>
      </trkpt>
      <trkpt lat="44.8378" lon="5.5251">
        <ele>1891.53</ele>
        <time>2012-11-18T14:10:02Z</time>
      </trkpt>
      <trkpt lat="44.83776" lon="5.52517">
        <ele>1892.97</ele>
        <time>2012-11-18T14:10:11Z</time>
      </trkpt>
      <trkpt lat="44.83774" lon="5.52521">
        <ele>1893.93</ele>
        <time>2012-11-18T14:10:14Z</time>
      </trkpt>
      <trkpt lat="44.83767" lon="5.5253">
        <ele>1894.9</ele>
        <time>2012-11-18T14:10:22Z</time>
      </trkpt>
      <trkpt lat="44.83762" lon="5.52537">
        <ele>1894.9</ele>
        <time>2012-11-18T14:10:28Z</time>
      </trkpt>
      <trkpt lat="44.83758" lon="5.52549">
        <ele>1896.34</ele>
        <time>2012-11-18T14:10:38Z</time>
      </trkpt>
      <trkpt lat="44.83757" lon="5.52552">
        <ele>1896.82</ele>
        <time>2012-11-18T14:10:40Z</time>
      </trkpt>
      <trkpt lat="44.83756" lon="5.5256">
        <ele>1898.74</ele>
        <time>2012-11-18T14:10:47Z</time>
      </trkpt>
      <trkpt lat="44.83754" lon="5.52568">
        <ele>1900.18</ele>
        <time>2012-11-18T14:10:53Z</time>
      </trkpt>
      <trkpt lat="44.83745" lon="5.52577">
        <ele>1900.18</ele>
        <time>2012-11-18T14:11:06Z</time>
      </trkpt>
      <trkpt lat="44.83738" lon="5.52586">
        <ele>1903.07</ele>
        <time>2012-11-18T14:11:16Z</time>
      </trkpt>
      <trkpt lat="44.83735" lon="5.52593">
        <ele>1904.03</ele>
        <time>2012-11-18T14:11:22Z</time>
      </trkpt>
      <trkpt lat="44.83733" lon="5.52598">
        <ele>1904.51</ele>
        <time>2012-11-18T14:11:26Z</time>
      </trkpt>
      <trkpt lat="44.83725" lon="5.5261">
        <ele>1906.91</ele>
        <time>2012-11-18T14:11:40Z</time>
      </trkpt>
      <trkpt lat="44.83721" lon="5.52615">
        <ele>1908.35</ele>
        <time>2012-11-18T14:11:46Z</time>
      </trkpt>
      <trkpt lat="44.83717" lon="5.5262">
        <ele>1909.32</ele>
        <time>2012-11-18T14:11:53Z</time>
      </trkpt>
      <trkpt lat="44.83712" lon="5.52627">
        <ele>1911.72</ele>
        <time>2012-11-18T14:12:02Z</time>
      </trkpt>
      <trkpt lat="44.83712" lon="5.5263">
        <ele>1911.24</ele>
        <time>2012-11-18T14:12:04Z</time>
      </trkpt>
      <trkpt lat="44.83713" lon="5.52632">
        <ele>1911.72</ele>
        <time>2012-11-18T14:12:07Z</time>
      </trkpt>
      <trkpt lat="44.83707" lon="5.52635">
        <ele>1913.16</ele>
        <time>2012-11-18T14:12:14Z</time>
      </trkpt>
      <trkpt lat="44.83704" lon="5.52637">
        <ele>1914.6</ele>
        <time>2012-11-18T14:12:18Z</time>
      </trkpt>
      <trkpt lat="44.83702" lon="5.52637">
        <ele>1915.08</ele>
        <time>2012-11-18T14:12:21Z</time>
      </trkpt>
      <trkpt lat="44.83701" lon="5.52638">
        <ele>1915.08</ele>
        <time>2012-11-18T14:12:23Z</time>
      </trkpt>
      <trkpt lat="44.83695" lon="5.5264">
        <ele>1917.01</ele>
        <time>2012-11-18T14:12:30Z</time>
      </trkpt>
      <trkpt lat="44.83682" lon="5.52641">
        <ele>1918.45</ele>
        <time>2012-11-18T14:12:42Z</time>
      </trkpt>
      <trkpt lat="44.83676" lon="5.52641">
        <ele>1918.93</ele>
        <time>2012-11-18T14:12:49Z</time>
      </trkpt>
      <trkpt lat="44.83667" lon="5.5264">
        <ele>1920.37</ele>
        <time>2012-11-18T14:12:58Z</time>
      </trkpt>
      <trkpt lat="44.83659" lon="5.52646">
        <ele>1921.81</ele>
        <time>2012-11-18T14:13:11Z</time>
      </trkpt>
      <trkpt lat="44.83658" lon="5.52647">
        <ele>1921.81</ele>
        <time>2012-11-18T14:13:29Z</time>
      </trkpt>
      <trkpt lat="44.83659" lon="5.52647">
        <ele>1922.77</ele>
        <time>2012-11-18T14:14:13Z</time>
      </trkpt>
      <trkpt lat="44.83659" lon="5.52647">
        <ele>1922.29</ele>
        <time>2012-11-18T14:14:17Z</time>
      </trkpt>
      <trkpt lat="44.83658" lon="5.52649">
        <ele>1921.81</ele>
        <time>2012-11-18T14:14:19Z</time>
      </trkpt>
      <trkpt lat="44.83651" lon="5.52654">
        <ele>1920.85</ele>
        <time>2012-11-18T14:14:25Z</time>
      </trkpt>
      <trkpt lat="44.83644" lon="5.52663">
        <ele>1920.85</ele>
        <time>2012-11-18T14:14:34Z</time>
      </trkpt>
      <trkpt lat="44.83639" lon="5.52671">
        <ele>1920.85</ele>
        <time>2012-11-18T14:14:45Z</time>
      </trkpt>
      <trkpt lat="44.83639" lon="5.52671">
        <ele>1920.85</ele>
        <time>2012-11-18T14:14:46Z</time>
      </trkpt>
      <trkpt lat="44.83638" lon="5.52676">
        <ele>1920.37</ele>
        <time>2012-11-18T14:14:49Z</time>
      </trkpt>
      <trkpt lat="44.83636" lon="5.52678">
        <ele>1920.37</ele>
        <time>2012-11-18T14:14:51Z</time>
      </trkpt>
      <trkpt lat="44.83624" lon="5.52685">
        <ele>1918.45</ele>
        <time>2012-11-18T14:15:04Z</time>
      </trkpt>
      <trkpt lat="44.83617" lon="5.52683">
        <ele>1918.45</ele>
        <time>2012-11-18T14:15:14Z</time>
      </trkpt>
      <trkpt lat="44.83615" lon="5.52685">
        <ele>1917.97</ele>
        <time>2012-11-18T14:15:21Z</time>
      </trkpt>
      <trkpt lat="44.83612" lon="5.52684">
        <ele>1916.53</ele>
        <time>2012-11-18T14:15:26Z</time>
      </trkpt>
      <trkpt lat="44.83602" lon="5.52688">
        <ele>1917.01</ele>
        <time>2012-11-18T14:15:39Z</time>
      </trkpt>
      <trkpt lat="44.83595" lon="5.52693">
        <ele>1915.56</ele>
        <time>2012-11-18T14:15:49Z</time>
      </trkpt>
      <trkpt lat="44.83595" lon="5.52695">
        <ele>1915.08</ele>
        <time>2012-11-18T14:15:51Z</time>
      </trkpt>
      <trkpt lat="44.83591" lon="5.52706">
        <ele>1914.12</ele>
        <time>2012-11-18T14:16:03Z</time>
      </trkpt>
      <trkpt lat="44.83591" lon="5.52706">
        <ele>1914.12</ele>
        <time>2012-11-18T14:16:04Z</time>
      </trkpt>
      <trkpt lat="44.83589" lon="5.52711">
        <ele>1912.2</ele>
        <time>2012-11-18T14:16:10Z</time>
      </trkpt>
      <trkpt lat="44.83584" lon="5.52716">
        <ele>1910.28</ele>
        <time>2012-11-18T14:16:16Z</time>
      </trkpt>
      <trkpt lat="44.83579" lon="5.52718">
        <ele>1908.83</ele>
        <time>2012-11-18T14:16:20Z</time>
      </trkpt>
      <trkpt lat="44.83573" lon="5.52724">
        <ele>1907.39</ele>
        <time>2012-11-18T14:16:25Z</time>
      </trkpt>
      <trkpt lat="44.83557" lon="5.52722">
        <ele>1906.43</ele>
        <time>2012-11-18T14:16:38Z</time>
      </trkpt>
      <trkpt lat="44.83541" lon="5.52715">
        <ele>1905.95</ele>
        <time>2012-11-18T14:16:52Z</time>
      </trkpt>
      <trkpt lat="44.83537" lon="5.52711">
        <ele>1905.95</ele>
        <time>2012-11-18T14:16:57Z</time>
      </trkpt>
      <trkpt lat="44.83534" lon="5.52711">
        <ele>1905.95</ele>
        <time>2012-11-18T14:17:00Z</time>
      </trkpt>
      <trkpt lat="44.83529" lon="5.52709">
        <ele>1906.91</ele>
        <time>2012-11-18T14:17:06Z</time>
      </trkpt>
      <trkpt lat="44.83511" lon="5.52706">
        <ele>1906.91</ele>
        <time>2012-11-18T14:17:21Z</time>
      </trkpt>
      <trkpt lat="44.83509" lon="5.52712">
        <ele>1906.43</ele>
        <time>2012-11-18T14:17:32Z</time>
      </trkpt>
      <trkpt lat="44.83508" lon="5.52708">
        <ele>1906.43</ele>
        <time>2012-11-18T14:18:04Z</time>
      </trkpt>
      <trkpt lat="44.83508" lon="5.52708">
        <ele>1905.95</ele>
        <time>2012-11-18T14:18:36Z</time>
      </trkpt>
      <trkpt lat="44.83505" lon="5.52702">
        <ele>1905.95</ele>
        <time>2012-11-18T14:18:54Z</time>
      </trkpt>
      <trkpt lat="44.83503" lon="5.527">
        <ele>1906.43</ele>
        <time>2012-11-18T14:18:57Z</time>
      </trkpt>
      <trkpt lat="44.83502" lon="5.52699">
        <ele>1906.43</ele>
        <time>2012-11-18T14:18:59Z</time>
      </trkpt>
      <trkpt lat="44.83494" lon="5.52692">
        <ele>1908.35</ele>
        <time>2012-11-18T14:19:10Z</time>
      </trkpt>
      <trkpt lat="44.8349" lon="5.52685">
        <ele>1910.28</ele>
        <time>2012-11-18T14:19:21Z</time>
      </trkpt>
      <trkpt lat="44.83489" lon="5.52681">
        <ele>1912.2</ele>
        <time>2012-11-18T14:19:28Z</time>
      </trkpt>
      <trkpt lat="44.83487" lon="5.52679">
        <ele>1913.64</ele>
        <time>2012-11-18T14:19:37Z</time>
      </trkpt>
      <trkpt lat="44.83487" lon="5.52679">
        <ele>1913.64</ele>
        <time>2012-11-18T14:19:57Z</time>
      </trkpt>
      <trkpt lat="44.83487" lon="5.52676">
        <ele>1914.6</ele>
        <time>2012-11-18T14:20:22Z</time>
      </trkpt>
      <trkpt lat="44.83488" lon="5.52677">
        <ele>1914.6</ele>
        <time>2012-11-18T14:20:34Z</time>
      </trkpt>
      <trkpt lat="44.83488" lon="5.52677">
        <ele>1914.6</ele>
        <time>2012-11-18T14:21:06Z</time>
      </trkpt>
      <trkpt lat="44.83485" lon="5.52675">
        <ele>1915.08</ele>
        <time>2012-11-18T14:21:22Z</time>
      </trkpt>
      <trkpt lat="44.83484" lon="5.52675">
        <ele>1915.08</ele>
        <time>2012-11-18T14:21:46Z</time>
      </trkpt>
      <trkpt lat="44.83483" lon="5.52675">
        <ele>1915.56</ele>
        <time>2012-11-18T14:22:21Z</time>
      </trkpt>
      <trkpt lat="44.83483" lon="5.52675">
        <ele>1915.56</ele>
        <time>2012-11-18T14:23:04Z</time>
      </trkpt>
      <trkpt lat="44.83483" lon="5.52675">
        <ele>1915.56</ele>
        <time>2012-11-18T14:23:44Z</time>
      </trkpt>
      <trkpt lat="44.83481" lon="5.52675">
        <ele>1915.56</ele>
        <time>2012-11-18T14:23:52Z</time>
      </trkpt>
      <trkpt lat="44.83476" lon="5.52676">
        <ele>1916.04</ele>
        <time>2012-11-18T14:23:56Z</time>
      </trkpt>
      <trkpt lat="44.8347" lon="5.52674">
        <ele>1915.56</ele>
        <time>2012-11-18T14:24:01Z</time>
      </trkpt>
      <trkpt lat="44.83461" lon="5.5266">
        <ele>1913.64</ele>
        <time>2012-11-18T14:24:12Z</time>
      </trkpt>
      <trkpt lat="44.83456" lon="5.52656">
        <ele>1912.2</ele>
        <time>2012-11-18T14:24:16Z</time>
      </trkpt>
      <trkpt lat="44.8345" lon="5.52654">
        <ele>1912.2</ele>
        <time>2012-11-18T14:24:20Z</time>
      </trkpt>
      <trkpt lat="44.8343" lon="5.52648">
        <ele>1912.68</ele>
        <time>2012-11-18T14:24:35Z</time>
      </trkpt>
      <trkpt lat="44.83421" lon="5.5264">
        <ele>1912.68</ele>
        <time>2012-11-18T14:24:44Z</time>
      </trkpt>
      <trkpt lat="44.83406" lon="5.52642">
        <ele>1913.16</ele>
        <time>2012-11-18T14:24:58Z</time>
      </trkpt>
      <trkpt lat="44.83397" lon="5.52641">
        <ele>1912.2</ele>
        <time>2012-11-18T14:25:05Z</time>
      </trkpt>
      <trkpt lat="44.83387" lon="5.52643">
        <ele>1911.24</ele>
        <time>2012-11-18T14:25:12Z</time>
      </trkpt>
      <trkpt lat="44.83366" lon="5.52647">
        <ele>1907.39</ele>
        <time>2012-11-18T14:25:26Z</time>
      </trkpt>
      <trkpt lat="44.83352" lon="5.52645">
        <ele>1904.51</ele>
        <time>2012-11-18T14:25:37Z</time>
      </trkpt>
      <trkpt lat="44.8334" lon="5.52641">
        <ele>1902.11</ele>
        <time>2012-11-18T14:25:44Z</time>
      </trkpt>
      <trkpt lat="44.83334" lon="5.52641">
        <ele>1902.59</ele>
        <time>2012-11-18T14:25:49Z</time>
      </trkpt>
      <trkpt lat="44.83322" lon="5.52639">
        <ele>1904.51</ele>
        <time>2012-11-18T14:26:00Z</time>
      </trkpt>
      <trkpt lat="44.83311" lon="5.52632">
        <ele>1906.43</ele>
        <time>2012-11-18T14:26:10Z</time>
      </trkpt>
      <trkpt lat="44.83308" lon="5.52631">
        <ele>1907.39</ele>
        <time>2012-11-18T14:26:17Z</time>
      </trkpt>
      <trkpt lat="44.83306" lon="5.52629">
        <ele>1906.91</ele>
        <time>2012-11-18T14:26:19Z</time>
      </trkpt>
      <trkpt lat="44.83305" lon="5.52627">
        <ele>1906.91</ele>
        <time>2012-11-18T14:26:21Z</time>
      </trkpt>
      <trkpt lat="44.83302" lon="5.52621">
        <ele>1905.47</ele>
        <time>2012-11-18T14:26:27Z</time>
      </trkpt>
      <trkpt lat="44.83298" lon="5.52616">
        <ele>1904.03</ele>
        <time>2012-11-18T14:26:31Z</time>
      </trkpt>
      <trkpt lat="44.83295" lon="5.52611">
        <ele>1902.59</ele>
        <time>2012-11-18T14:26:35Z</time>
      </trkpt>
      <trkpt lat="44.83292" lon="5.52607">
        <ele>1902.11</ele>
        <time>2012-11-18T14:26:38Z</time>
      </trkpt>
      <trkpt lat="44.83289" lon="5.52606">
        <ele>1901.14</ele>
        <time>2012-11-18T14:26:41Z</time>
      </trkpt>
      <trkpt lat="44.83276" lon="5.52614">
        <ele>1902.11</ele>
        <time>2012-11-18T14:26:52Z</time>
      </trkpt>
      <trkpt lat="44.83268" lon="5.52618">
        <ele>1901.14</ele>
        <time>2012-11-18T14:27:05Z</time>
      </trkpt>
      <trkpt lat="44.83262" lon="5.52624">
        <ele>1900.18</ele>
        <time>2012-11-18T14:27:35Z</time>
      </trkpt>
      <trkpt lat="44.83258" lon="5.52627">
        <ele>1900.18</ele>
        <time>2012-11-18T14:27:39Z</time>
      </trkpt>
      <trkpt lat="44.83244" lon="5.52641">
        <ele>1898.74</ele>
        <time>2012-11-18T14:27:52Z</time>
      </trkpt>
      <trkpt lat="44.83224" lon="5.52647">
        <ele>1898.26</ele>
        <time>2012-11-18T14:28:08Z</time>
      </trkpt>
      <trkpt lat="44.83218" lon="5.5265">
        <ele>1898.26</ele>
        <time>2012-11-18T14:28:13Z</time>
      </trkpt>
      <trkpt lat="44.83211" lon="5.52654">
        <ele>1896.82</ele>
        <time>2012-11-18T14:28:18Z</time>
      </trkpt>
      <trkpt lat="44.83206" lon="5.52659">
        <ele>1896.82</ele>
        <time>2012-11-18T14:28:23Z</time>
      </trkpt>
      <trkpt lat="44.83201" lon="5.5266">
        <ele>1896.34</ele>
        <time>2012-11-18T14:28:27Z</time>
      </trkpt>
      <trkpt lat="44.83199" lon="5.52659">
        <ele>1896.82</ele>
        <time>2012-11-18T14:28:29Z</time>
      </trkpt>
      <trkpt lat="44.83188" lon="5.52663">
        <ele>1896.34</ele>
        <time>2012-11-18T14:28:38Z</time>
      </trkpt>
      <trkpt lat="44.83185" lon="5.52663">
        <ele>1895.38</ele>
        <time>2012-11-18T14:28:41Z</time>
      </trkpt>
      <trkpt lat="44.83171" lon="5.52662">
        <ele>1895.86</ele>
        <time>2012-11-18T14:28:53Z</time>
      </trkpt>
      <trkpt lat="44.8317" lon="5.52662">
        <ele>1895.38</ele>
        <time>2012-11-18T14:28:54Z</time>
      </trkpt>
      <trkpt lat="44.83167" lon="5.52663">
        <ele>1895.38</ele>
        <time>2012-11-18T14:28:57Z</time>
      </trkpt>
      <trkpt lat="44.83156" lon="5.52662">
        <ele>1895.86</ele>
        <time>2012-11-18T14:29:07Z</time>
      </trkpt>
      <trkpt lat="44.8315" lon="5.52665">
        <ele>1895.86</ele>
        <time>2012-11-18T14:29:13Z</time>
      </trkpt>
      <trkpt lat="44.83145" lon="5.52668">
        <ele>1896.34</ele>
        <time>2012-11-18T14:29:18Z</time>
      </trkpt>
      <trkpt lat="44.83138" lon="5.52672">
        <ele>1895.86</ele>
        <time>2012-11-18T14:29:24Z</time>
      </trkpt>
      <trkpt lat="44.83132" lon="5.52674">
        <ele>1895.38</ele>
        <time>2012-11-18T14:29:29Z</time>
      </trkpt>
      <trkpt lat="44.83125" lon="5.52676">
        <ele>1895.38</ele>
        <time>2012-11-18T14:29:35Z</time>
      </trkpt>
      <trkpt lat="44.8312" lon="5.52674">
        <ele>1895.38</ele>
        <time>2012-11-18T14:29:39Z</time>
      </trkpt>
      <trkpt lat="44.83115" lon="5.52674">
        <ele>1895.38</ele>
        <time>2012-11-18T14:29:44Z</time>
      </trkpt>
      <trkpt lat="44.83112" lon="5.52677">
        <ele>1895.38</ele>
        <time>2012-11-18T14:29:47Z</time>
      </trkpt>
      <trkpt lat="44.83108" lon="5.52678">
        <ele>1895.38</ele>
        <time>2012-11-18T14:29:51Z</time>
      </trkpt>
      <trkpt lat="44.83103" lon="5.52678">
        <ele>1894.9</ele>
        <time>2012-11-18T14:29:59Z</time>
      </trkpt>
      <trkpt lat="44.83102" lon="5.52677">
        <ele>1893.45</ele>
        <time>2012-11-18T14:30:01Z</time>
      </trkpt>
      <trkpt lat="44.83098" lon="5.52678">
        <ele>1892.97</ele>
        <time>2012-11-18T14:30:04Z</time>
      </trkpt>
      <trkpt lat="44.83089" lon="5.52675">
        <ele>1892.97</ele>
        <time>2012-11-18T14:30:12Z</time>
      </trkpt>
      <trkpt lat="44.83074" lon="5.52674">
        <ele>1889.13</ele>
        <time>2012-11-18T14:30:24Z</time>
      </trkpt>
      <trkpt lat="44.83069" lon="5.5267">
        <ele>1888.17</ele>
        <time>2012-11-18T14:30:29Z</time>
      </trkpt>
      <trkpt lat="44.83066" lon="5.52669">
        <ele>1887.21</ele>
        <time>2012-11-18T14:30:31Z</time>
      </trkpt>
      <trkpt lat="44.83058" lon="5.52668">
        <ele>1885.76</ele>
        <time>2012-11-18T14:30:38Z</time>
      </trkpt>
      <trkpt lat="44.83044" lon="5.52662">
        <ele>1883.84</ele>
        <time>2012-11-18T14:30:49Z</time>
      </trkpt>
      <trkpt lat="44.83032" lon="5.5266">
        <ele>1884.8</ele>
        <time>2012-11-18T14:31:00Z</time>
      </trkpt>
      <trkpt lat="44.8303" lon="5.52659">
        <ele>1885.28</ele>
        <time>2012-11-18T14:31:02Z</time>
      </trkpt>
      <trkpt lat="44.83027" lon="5.52661">
        <ele>1885.76</ele>
        <time>2012-11-18T14:31:05Z</time>
      </trkpt>
      <trkpt lat="44.83015" lon="5.52663">
        <ele>1884.32</ele>
        <time>2012-11-18T14:31:17Z</time>
      </trkpt>
      <trkpt lat="44.83001" lon="5.52667">
        <ele>1885.28</ele>
        <time>2012-11-18T14:31:30Z</time>
      </trkpt>
      <trkpt lat="44.82995" lon="5.52668">
        <ele>1886.72</ele>
        <time>2012-11-18T14:31:38Z</time>
      </trkpt>
      <trkpt lat="44.82986" lon="5.52666">
        <ele>1887.21</ele>
        <time>2012-11-18T14:31:46Z</time>
      </trkpt>
      <trkpt lat="44.82984" lon="5.52666">
        <ele>1887.21</ele>
        <time>2012-11-18T14:31:48Z</time>
      </trkpt>
      <trkpt lat="44.82971" lon="5.52664">
        <ele>1885.28</ele>
        <time>2012-11-18T14:32:00Z</time>
      </trkpt>
      <trkpt lat="44.82967" lon="5.52663">
        <ele>1884.32</ele>
        <time>2012-11-18T14:32:03Z</time>
      </trkpt>
      <trkpt lat="44.82961" lon="5.52663">
        <ele>1883.36</ele>
        <time>2012-11-18T14:32:10Z</time>
      </trkpt>
      <trkpt lat="44.82955" lon="5.52665">
        <ele>1882.88</ele>
        <time>2012-11-18T14:32:16Z</time>
      </trkpt>
      <trkpt lat="44.82952" lon="5.52665">
        <ele>1881.92</ele>
        <time>2012-11-18T14:32:18Z</time>
      </trkpt>
      <trkpt lat="44.82944" lon="5.5267">
        <ele>1879.51</ele>
        <time>2012-11-18T14:32:27Z</time>
      </trkpt>
      <trkpt lat="44.82941" lon="5.52672">
        <ele>1879.51</ele>
        <time>2012-11-18T14:32:29Z</time>
      </trkpt>
      <trkpt lat="44.82927" lon="5.52672">
        <ele>1878.07</ele>
        <time>2012-11-18T14:32:41Z</time>
      </trkpt>
      <trkpt lat="44.82921" lon="5.52674">
        <ele>1876.63</ele>
        <time>2012-11-18T14:32:47Z</time>
      </trkpt>
      <trkpt lat="44.82915" lon="5.52679">
        <ele>1875.67</ele>
        <time>2012-11-18T14:32:54Z</time>
      </trkpt>
      <trkpt lat="44.82915" lon="5.52683">
        <ele>1876.63</ele>
        <time>2012-11-18T14:33:10Z</time>
      </trkpt>
      <trkpt lat="44.82915" lon="5.52683">
        <ele>1876.15</ele>
        <time>2012-11-18T14:33:28Z</time>
      </trkpt>
      <trkpt lat="44.82917" lon="5.52671">
        <ele>1873.75</ele>
        <time>2012-11-18T14:33:40Z</time>
      </trkpt>
      <trkpt lat="44.82917" lon="5.52671">
        <ele>1873.75</ele>
        <time>2012-11-18T14:33:44Z</time>
      </trkpt>
      <trkpt lat="44.82917" lon="5.52669">
        <ele>1873.75</ele>
        <time>2012-11-18T14:33:49Z</time>
      </trkpt>
      <trkpt lat="44.82917" lon="5.52667">
        <ele>1872.79</ele>
        <time>2012-11-18T14:33:51Z</time>
      </trkpt>
      <trkpt lat="44.82917" lon="5.52665">
        <ele>1872.3</ele>
        <time>2012-11-18T14:33:53Z</time>
      </trkpt>
      <trkpt lat="44.82912" lon="5.52661">
        <ele>1870.86</ele>
        <time>2012-11-18T14:33:57Z</time>
      </trkpt>
      <trkpt lat="44.82911" lon="5.52658">
        <ele>1869.9</ele>
        <time>2012-11-18T14:34:00Z</time>
      </trkpt>
      <trkpt lat="44.82909" lon="5.52657">
        <ele>1869.42</ele>
        <time>2012-11-18T14:34:02Z</time>
      </trkpt>
      <trkpt lat="44.82905" lon="5.52656">
        <ele>1867.98</ele>
        <time>2012-11-18T14:34:05Z</time>
      </trkpt>
      <trkpt lat="44.82904" lon="5.52655">
        <ele>1867.98</ele>
        <time>2012-11-18T14:34:06Z</time>
      </trkpt>
      <trkpt lat="44.82903" lon="5.52648">
        <ele>1866.06</ele>
        <time>2012-11-18T14:34:10Z</time>
      </trkpt>
      <trkpt lat="44.82906" lon="5.52635">
        <ele>1862.69</ele>
        <time>2012-11-18T14:34:19Z</time>
      </trkpt>
      <trkpt lat="44.82909" lon="5.52629">
        <ele>1860.77</ele>
        <time>2012-11-18T14:34:23Z</time>
      </trkpt>
      <trkpt lat="44.82911" lon="5.52624">
        <ele>1859.33</ele>
        <time>2012-11-18T14:34:31Z</time>
      </trkpt>
      <trkpt lat="44.82906" lon="5.52618">
        <ele>1856.92</ele>
        <time>2012-11-18T14:34:38Z</time>
      </trkpt>
      <trkpt lat="44.82909" lon="5.52615">
        <ele>1856.44</ele>
        <time>2012-11-18T14:34:41Z</time>
      </trkpt>
      <trkpt lat="44.8291" lon="5.52612">
        <ele>1855.48</ele>
        <time>2012-11-18T14:34:43Z</time>
      </trkpt>
      <trkpt lat="44.82909" lon="5.52607">
        <ele>1853.56</ele>
        <time>2012-11-18T14:34:46Z</time>
      </trkpt>
      <trkpt lat="44.82912" lon="5.52598">
        <ele>1850.19</ele>
        <time>2012-11-18T14:34:54Z</time>
      </trkpt>
      <trkpt lat="44.82912" lon="5.52597">
        <ele>1850.19</ele>
        <time>2012-11-18T14:34:55Z</time>
      </trkpt>
      <trkpt lat="44.82912" lon="5.52594">
        <ele>1848.75</ele>
        <time>2012-11-18T14:34:58Z</time>
      </trkpt>
      <trkpt lat="44.8291" lon="5.52588">
        <ele>1847.79</ele>
        <time>2012-11-18T14:35:01Z</time>
      </trkpt>
      <trkpt lat="44.82911" lon="5.52585">
        <ele>1846.83</ele>
        <time>2012-11-18T14:35:04Z</time>
      </trkpt>
      <trkpt lat="44.82911" lon="5.52581">
        <ele>1845.39</ele>
        <time>2012-11-18T14:35:07Z</time>
      </trkpt>
      <trkpt lat="44.82912" lon="5.52573">
        <ele>1842.5</ele>
        <time>2012-11-18T14:35:13Z</time>
      </trkpt>
      <trkpt lat="44.82912" lon="5.52571">
        <ele>1842.5</ele>
        <time>2012-11-18T14:35:14Z</time>
      </trkpt>
      <trkpt lat="44.82911" lon="5.5256">
        <ele>1839.14</ele>
        <time>2012-11-18T14:35:21Z</time>
      </trkpt>
      <trkpt lat="44.82911" lon="5.52559">
        <ele>1839.14</ele>
        <time>2012-11-18T14:35:22Z</time>
      </trkpt>
      <trkpt lat="44.82908" lon="5.52549">
        <ele>1836.74</ele>
        <time>2012-11-18T14:35:29Z</time>
      </trkpt>
      <trkpt lat="44.8291" lon="5.52546">
        <ele>1836.26</ele>
        <time>2012-11-18T14:35:33Z</time>
      </trkpt>
      <trkpt lat="44.82907" lon="5.52543">
        <ele>1834.81</ele>
        <time>2012-11-18T14:35:37Z</time>
      </trkpt>
      <trkpt lat="44.82903" lon="5.52537">
        <ele>1833.37</ele>
        <time>2012-11-18T14:35:42Z</time>
      </trkpt>
      <trkpt lat="44.829" lon="5.52534">
        <ele>1831.93</ele>
        <time>2012-11-18T14:35:45Z</time>
      </trkpt>
      <trkpt lat="44.82895" lon="5.52528">
        <ele>1830.97</ele>
        <time>2012-11-18T14:35:51Z</time>
      </trkpt>
      <trkpt lat="44.82892" lon="5.52524">
        <ele>1830.01</ele>
        <time>2012-11-18T14:35:55Z</time>
      </trkpt>
      <trkpt lat="44.82887" lon="5.52515">
        <ele>1828.08</ele>
        <time>2012-11-18T14:36:03Z</time>
      </trkpt>
      <trkpt lat="44.82886" lon="5.52513">
        <ele>1827.6</ele>
        <time>2012-11-18T14:36:04Z</time>
      </trkpt>
      <trkpt lat="44.82882" lon="5.525">
        <ele>1823.76</ele>
        <time>2012-11-18T14:36:13Z</time>
      </trkpt>
      <trkpt lat="44.82882" lon="5.52496">
        <ele>1823.76</ele>
        <time>2012-11-18T14:36:15Z</time>
      </trkpt>
      <trkpt lat="44.82884" lon="5.52492">
        <ele>1821.84</ele>
        <time>2012-11-18T14:36:18Z</time>
      </trkpt>
      <trkpt lat="44.82884" lon="5.52479">
        <ele>1819.43</ele>
        <time>2012-11-18T14:36:25Z</time>
      </trkpt>
      <trkpt lat="44.82877" lon="5.52462">
        <ele>1818.47</ele>
        <time>2012-11-18T14:36:36Z</time>
      </trkpt>
      <trkpt lat="44.82871" lon="5.52452">
        <ele>1818.47</ele>
        <time>2012-11-18T14:36:42Z</time>
      </trkpt>
      <trkpt lat="44.82865" lon="5.52443">
        <ele>1816.55</ele>
        <time>2012-11-18T14:36:51Z</time>
      </trkpt>
      <trkpt lat="44.82857" lon="5.52434">
        <ele>1813.66</ele>
        <time>2012-11-18T14:36:59Z</time>
      </trkpt>
      <trkpt lat="44.82855" lon="5.52432">
        <ele>1812.7</ele>
        <time>2012-11-18T14:37:01Z</time>
      </trkpt>
      <trkpt lat="44.82863" lon="5.52413">
        <ele>1809.82</ele>
        <time>2012-11-18T14:37:13Z</time>
      </trkpt>
      <trkpt lat="44.82864" lon="5.52407">
        <ele>1808.86</ele>
        <time>2012-11-18T14:37:16Z</time>
      </trkpt>
      <trkpt lat="44.82863" lon="5.52398">
        <ele>1808.38</ele>
        <time>2012-11-18T14:37:25Z</time>
      </trkpt>
      <trkpt lat="44.8286" lon="5.524">
        <ele>1807.42</ele>
        <time>2012-11-18T14:37:35Z</time>
      </trkpt>
      <trkpt lat="44.82843" lon="5.5241">
        <ele>1804.53</ele>
        <time>2012-11-18T14:37:47Z</time>
      </trkpt>
      <trkpt lat="44.82826" lon="5.52411">
        <ele>1801.65</ele>
        <time>2012-11-18T14:37:59Z</time>
      </trkpt>
      <trkpt lat="44.82813" lon="5.52407">
        <ele>1798.76</ele>
        <time>2012-11-18T14:38:11Z</time>
      </trkpt>
      <trkpt lat="44.82807" lon="5.52409">
        <ele>1798.76</ele>
        <time>2012-11-18T14:38:16Z</time>
      </trkpt>
      <trkpt lat="44.82799" lon="5.52407">
        <ele>1797.32</ele>
        <time>2012-11-18T14:38:23Z</time>
      </trkpt>
      <trkpt lat="44.82796" lon="5.52403">
        <ele>1795.88</ele>
        <time>2012-11-18T14:38:27Z</time>
      </trkpt>
      <trkpt lat="44.82795" lon="5.52399">
        <ele>1794.44</ele>
        <time>2012-11-18T14:38:31Z</time>
      </trkpt>
      <trkpt lat="44.82785" lon="5.52401">
        <ele>1793.48</ele>
        <time>2012-11-18T14:38:38Z</time>
      </trkpt>
      <trkpt lat="44.82781" lon="5.52402">
        <ele>1793</ele>
        <time>2012-11-18T14:38:53Z</time>
      </trkpt>
      <trkpt lat="44.82781" lon="5.52402">
        <ele>1793</ele>
        <time>2012-11-18T14:38:58Z</time>
      </trkpt>
      <trkpt lat="44.82785" lon="5.524">
        <ele>1793</ele>
        <time>2012-11-18T14:39:02Z</time>
      </trkpt>
      <trkpt lat="44.8279" lon="5.52387">
        <ele>1794.92</ele>
        <time>2012-11-18T14:39:14Z</time>
      </trkpt>
      <trkpt lat="44.82789" lon="5.52386">
        <ele>1795.4</ele>
        <time>2012-11-18T14:39:17Z</time>
      </trkpt>
      <trkpt lat="44.82787" lon="5.52382">
        <ele>1795.88</ele>
        <time>2012-11-18T14:39:22Z</time>
      </trkpt>
      <trkpt lat="44.82782" lon="5.52378">
        <ele>1795.88</ele>
        <time>2012-11-18T14:39:29Z</time>
      </trkpt>
      <trkpt lat="44.82779" lon="5.52367">
        <ele>1795.4</ele>
        <time>2012-11-18T14:39:38Z</time>
      </trkpt>
      <trkpt lat="44.82784" lon="5.52355">
        <ele>1793.96</ele>
        <time>2012-11-18T14:39:47Z</time>
      </trkpt>
      <trkpt lat="44.82787" lon="5.52347">
        <ele>1793.48</ele>
        <time>2012-11-18T14:39:52Z</time>
      </trkpt>
      <trkpt lat="44.82788" lon="5.52335">
        <ele>1794.44</ele>
        <time>2012-11-18T14:40:03Z</time>
      </trkpt>
      <trkpt lat="44.82789" lon="5.5233">
        <ele>1794.92</ele>
        <time>2012-11-18T14:40:07Z</time>
      </trkpt>
      <trkpt lat="44.82791" lon="5.52318">
        <ele>1793.96</ele>
        <time>2012-11-18T14:40:17Z</time>
      </trkpt>
      <trkpt lat="44.82791" lon="5.5231">
        <ele>1793.48</ele>
        <time>2012-11-18T14:40:23Z</time>
      </trkpt>
      <trkpt lat="44.82794" lon="5.52304">
        <ele>1792.52</ele>
        <time>2012-11-18T14:40:28Z</time>
      </trkpt>
      <trkpt lat="44.82796" lon="5.52295">
        <ele>1791.07</ele>
        <time>2012-11-18T14:40:40Z</time>
      </trkpt>
      <trkpt lat="44.82797" lon="5.52292">
        <ele>1790.59</ele>
        <time>2012-11-18T14:40:42Z</time>
      </trkpt>
      <trkpt lat="44.82802" lon="5.52285">
        <ele>1788.67</ele>
        <time>2012-11-18T14:40:46Z</time>
      </trkpt>
      <trkpt lat="44.82805" lon="5.52283">
        <ele>1788.19</ele>
        <time>2012-11-18T14:40:48Z</time>
      </trkpt>
      <trkpt lat="44.82804" lon="5.52278">
        <ele>1786.75</ele>
        <time>2012-11-18T14:40:55Z</time>
      </trkpt>
      <trkpt lat="44.82802" lon="5.52276">
        <ele>1786.75</ele>
        <time>2012-11-18T14:40:57Z</time>
      </trkpt>
      <trkpt lat="44.82797" lon="5.52271">
        <ele>1786.75</ele>
        <time>2012-11-18T14:41:02Z</time>
      </trkpt>
      <trkpt lat="44.82794" lon="5.52269">
        <ele>1787.71</ele>
        <time>2012-11-18T14:41:09Z</time>
      </trkpt>
      <trkpt lat="44.82788" lon="5.52265">
        <ele>1788.67</ele>
        <time>2012-11-18T14:41:17Z</time>
      </trkpt>
      <trkpt lat="44.82782" lon="5.52264">
        <ele>1789.15</ele>
        <time>2012-11-18T14:41:25Z</time>
      </trkpt>
      <trkpt lat="44.82772" lon="5.52262">
        <ele>1788.67</ele>
        <time>2012-11-18T14:41:35Z</time>
      </trkpt>
      <trkpt lat="44.82771" lon="5.52259">
        <ele>1788.67</ele>
        <time>2012-11-18T14:41:38Z</time>
      </trkpt>
      <trkpt lat="44.82768" lon="5.52251">
        <ele>1786.27</ele>
        <time>2012-11-18T14:41:43Z</time>
      </trkpt>
      <trkpt lat="44.82767" lon="5.52248">
        <ele>1785.79</ele>
        <time>2012-11-18T14:41:44Z</time>
      </trkpt>
      <trkpt lat="44.8276" lon="5.52246">
        <ele>1784.34</ele>
        <time>2012-11-18T14:41:49Z</time>
      </trkpt>
      <trkpt lat="44.82748" lon="5.52242">
        <ele>1782.9</ele>
        <time>2012-11-18T14:41:58Z</time>
      </trkpt>
      <trkpt lat="44.82735" lon="5.52241">
        <ele>1782.42</ele>
        <time>2012-11-18T14:42:07Z</time>
      </trkpt>
      <trkpt lat="44.82732" lon="5.52241">
        <ele>1781.94</ele>
        <time>2012-11-18T14:42:10Z</time>
      </trkpt>
      <trkpt lat="44.82726" lon="5.52235">
        <ele>1781.94</ele>
        <time>2012-11-18T14:42:19Z</time>
      </trkpt>
      <trkpt lat="44.8272" lon="5.52222">
        <ele>1781.94</ele>
        <time>2012-11-18T14:42:27Z</time>
      </trkpt>
      <trkpt lat="44.82715" lon="5.5221">
        <ele>1782.42</ele>
        <time>2012-11-18T14:42:38Z</time>
      </trkpt>
      <trkpt lat="44.82708" lon="5.52204">
        <ele>1784.82</ele>
        <time>2012-11-18T14:42:46Z</time>
      </trkpt>
      <trkpt lat="44.82705" lon="5.52202">
        <ele>1784.82</ele>
        <time>2012-11-18T14:42:48Z</time>
      </trkpt>
      <trkpt lat="44.8269" lon="5.52204">
        <ele>1785.31</ele>
        <time>2012-11-18T14:43:00Z</time>
      </trkpt>
      <trkpt lat="44.82684" lon="5.52206">
        <ele>1783.86</ele>
        <time>2012-11-18T14:43:12Z</time>
      </trkpt>
      <trkpt lat="44.82684" lon="5.52206">
        <ele>1784.34</ele>
        <time>2012-11-18T14:43:30Z</time>
      </trkpt>
      <trkpt lat="44.8268" lon="5.52203">
        <ele>1783.38</ele>
        <time>2012-11-18T14:43:37Z</time>
      </trkpt>
      <trkpt lat="44.82678" lon="5.52199">
        <ele>1782.9</ele>
        <time>2012-11-18T14:43:40Z</time>
      </trkpt>
      <trkpt lat="44.82675" lon="5.52199">
        <ele>1782.42</ele>
        <time>2012-11-18T14:43:43Z</time>
      </trkpt>
      <trkpt lat="44.82668" lon="5.52193">
        <ele>1780.98</ele>
        <time>2012-11-18T14:43:50Z</time>
      </trkpt>
      <trkpt lat="44.82667" lon="5.5219">
        <ele>1780.98</ele>
        <time>2012-11-18T14:43:52Z</time>
      </trkpt>
      <trkpt lat="44.8266" lon="5.52183">
        <ele>1780.5</ele>
        <time>2012-11-18T14:44:03Z</time>
      </trkpt>
      <trkpt lat="44.82655" lon="5.52181">
        <ele>1779.54</ele>
        <time>2012-11-18T14:44:09Z</time>
      </trkpt>
      <trkpt lat="44.8265" lon="5.52182">
        <ele>1778.58</ele>
        <time>2012-11-18T14:44:15Z</time>
      </trkpt>
      <trkpt lat="44.82644" lon="5.5218">
        <ele>1778.58</ele>
        <time>2012-11-18T14:44:20Z</time>
      </trkpt>
      <trkpt lat="44.82641" lon="5.52176">
        <ele>1777.13</ele>
        <time>2012-11-18T14:44:24Z</time>
      </trkpt>
      <trkpt lat="44.82637" lon="5.52172">
        <ele>1775.69</ele>
        <time>2012-11-18T14:44:28Z</time>
      </trkpt>
      <trkpt lat="44.8263" lon="5.52167">
        <ele>1775.69</ele>
        <time>2012-11-18T14:44:34Z</time>
      </trkpt>
      <trkpt lat="44.82624" lon="5.52165">
        <ele>1777.13</ele>
        <time>2012-11-18T14:44:46Z</time>
      </trkpt>
      <trkpt lat="44.8262" lon="5.52164">
        <ele>1778.58</ele>
        <time>2012-11-18T14:44:50Z</time>
      </trkpt>
      <trkpt lat="44.82613" lon="5.5216">
        <ele>1780.5</ele>
        <time>2012-11-18T14:44:58Z</time>
      </trkpt>
      <trkpt lat="44.82611" lon="5.5216">
        <ele>1781.46</ele>
        <time>2012-11-18T14:45:01Z</time>
      </trkpt>
      <trkpt lat="44.82608" lon="5.52162">
        <ele>1781.46</ele>
        <time>2012-11-18T14:45:03Z</time>
      </trkpt>
      <trkpt lat="44.82602" lon="5.52164">
        <ele>1781.46</ele>
        <time>2012-11-18T14:45:08Z</time>
      </trkpt>
      <trkpt lat="44.82591" lon="5.5217">
        <ele>1780.02</ele>
        <time>2012-11-18T14:45:18Z</time>
      </trkpt>
      <trkpt lat="44.82587" lon="5.52171">
        <ele>1780.02</ele>
        <time>2012-11-18T14:45:22Z</time>
      </trkpt>
      <trkpt lat="44.8258" lon="5.52181">
        <ele>1778.58</ele>
        <time>2012-11-18T14:45:29Z</time>
      </trkpt>
      <trkpt lat="44.8257" lon="5.5219">
        <ele>1778.58</ele>
        <time>2012-11-18T14:45:40Z</time>
      </trkpt>
      <trkpt lat="44.82565" lon="5.5219">
        <ele>1778.1</ele>
        <time>2012-11-18T14:45:46Z</time>
      </trkpt>
      <trkpt lat="44.82555" lon="5.52183">
        <ele>1777.61</ele>
        <time>2012-11-18T14:45:57Z</time>
      </trkpt>
      <trkpt lat="44.82554" lon="5.52183">
        <ele>1777.13</ele>
        <time>2012-11-18T14:45:58Z</time>
      </trkpt>
      <trkpt lat="44.82547" lon="5.52184">
        <ele>1775.21</ele>
        <time>2012-11-18T14:46:07Z</time>
      </trkpt>
      <trkpt lat="44.82541" lon="5.52188">
        <ele>1773.77</ele>
        <time>2012-11-18T14:46:14Z</time>
      </trkpt>
      <trkpt lat="44.82531" lon="5.52185">
        <ele>1771.37</ele>
        <time>2012-11-18T14:46:23Z</time>
      </trkpt>
      <trkpt lat="44.82523" lon="5.52176">
        <ele>1769.92</ele>
        <time>2012-11-18T14:46:30Z</time>
      </trkpt>
      <trkpt lat="44.8252" lon="5.52173">
        <ele>1769.92</ele>
        <time>2012-11-18T14:46:33Z</time>
      </trkpt>
      <trkpt lat="44.82515" lon="5.52173">
        <ele>1769.92</ele>
        <time>2012-11-18T14:46:37Z</time>
      </trkpt>
      <trkpt lat="44.82511" lon="5.52176">
        <ele>1770.41</ele>
        <time>2012-11-18T14:46:41Z</time>
      </trkpt>
      <trkpt lat="44.82503" lon="5.52175">
        <ele>1771.37</ele>
        <time>2012-11-18T14:46:48Z</time>
      </trkpt>
      <trkpt lat="44.825" lon="5.52173">
        <ele>1771.37</ele>
        <time>2012-11-18T14:46:51Z</time>
      </trkpt>
      <trkpt lat="44.82499" lon="5.52165">
        <ele>1772.81</ele>
        <time>2012-11-18T14:46:59Z</time>
      </trkpt>
      <trkpt lat="44.82496" lon="5.52162">
        <ele>1773.29</ele>
        <time>2012-11-18T14:47:02Z</time>
      </trkpt>
      <trkpt lat="44.82494" lon="5.52154">
        <ele>1774.25</ele>
        <time>2012-11-18T14:47:07Z</time>
      </trkpt>
      <trkpt lat="44.82491" lon="5.5215">
        <ele>1775.21</ele>
        <time>2012-11-18T14:47:11Z</time>
      </trkpt>
      <trkpt lat="44.82491" lon="5.52146">
        <ele>1775.69</ele>
        <time>2012-11-18T14:47:14Z</time>
      </trkpt>
      <trkpt lat="44.82488" lon="5.52129">
        <ele>1774.25</ele>
        <time>2012-11-18T14:47:26Z</time>
      </trkpt>
      <trkpt lat="44.82488" lon="5.52123">
        <ele>1773.29</ele>
        <time>2012-11-18T14:47:29Z</time>
      </trkpt>
      <trkpt lat="44.82489" lon="5.52107">
        <ele>1773.77</ele>
        <time>2012-11-18T14:47:44Z</time>
      </trkpt>
      <trkpt lat="44.82489" lon="5.52106">
        <ele>1773.77</ele>
        <time>2012-11-18T14:47:54Z</time>
      </trkpt>
      <trkpt lat="44.82491" lon="5.52094">
        <ele>1775.69</ele>
        <time>2012-11-18T14:48:15Z</time>
      </trkpt>
      <trkpt lat="44.8249" lon="5.52089">
        <ele>1776.17</ele>
        <time>2012-11-18T14:48:18Z</time>
      </trkpt>
      <trkpt lat="44.82488" lon="5.52076">
        <ele>1779.06</ele>
        <time>2012-11-18T14:48:28Z</time>
      </trkpt>
      <trkpt lat="44.82486" lon="5.52074">
        <ele>1779.06</ele>
        <time>2012-11-18T14:48:30Z</time>
      </trkpt>
      <trkpt lat="44.82479" lon="5.52065">
        <ele>1778.58</ele>
        <time>2012-11-18T14:48:38Z</time>
      </trkpt>
      <trkpt lat="44.8247" lon="5.52059">
        <ele>1779.06</ele>
        <time>2012-11-18T14:48:48Z</time>
      </trkpt>
      <trkpt lat="44.82457" lon="5.5205">
        <ele>1776.65</ele>
        <time>2012-11-18T14:49:00Z</time>
      </trkpt>
      <trkpt lat="44.82455" lon="5.52049">
        <ele>1776.17</ele>
        <time>2012-11-18T14:49:08Z</time>
      </trkpt>
      <trkpt lat="44.82441" lon="5.52046">
        <ele>1775.21</ele>
        <time>2012-11-18T14:49:18Z</time>
      </trkpt>
      <trkpt lat="44.82436" lon="5.52024">
        <ele>1772.81</ele>
        <time>2012-11-18T14:49:28Z</time>
      </trkpt>
      <trkpt lat="44.82441" lon="5.52012">
        <ele>1773.77</ele>
        <time>2012-11-18T14:49:35Z</time>
      </trkpt>
      <trkpt lat="44.82441" lon="5.51997">
        <ele>1773.29</ele>
        <time>2012-11-18T14:49:42Z</time>
      </trkpt>
      <trkpt lat="44.82442" lon="5.51983">
        <ele>1773.77</ele>
        <time>2012-11-18T14:49:50Z</time>
      </trkpt>
      <trkpt lat="44.82436" lon="5.51976">
        <ele>1775.21</ele>
        <time>2012-11-18T14:49:57Z</time>
      </trkpt>
      <trkpt lat="44.82429" lon="5.51972">
        <ele>1775.21</ele>
        <time>2012-11-18T14:50:03Z</time>
      </trkpt>
      <trkpt lat="44.82425" lon="5.51969">
        <ele>1774.73</ele>
        <time>2012-11-18T14:50:07Z</time>
      </trkpt>
      <trkpt lat="44.82416" lon="5.5196">
        <ele>1774.25</ele>
        <time>2012-11-18T14:50:16Z</time>
      </trkpt>
      <trkpt lat="44.82415" lon="5.51956">
        <ele>1773.77</ele>
        <time>2012-11-18T14:50:18Z</time>
      </trkpt>
      <trkpt lat="44.82402" lon="5.51945">
        <ele>1771.37</ele>
        <time>2012-11-18T14:50:29Z</time>
      </trkpt>
      <trkpt lat="44.82395" lon="5.5194">
        <ele>1770.41</ele>
        <time>2012-11-18T14:50:35Z</time>
      </trkpt>
      <trkpt lat="44.82392" lon="5.51935">
        <ele>1768.96</ele>
        <time>2012-11-18T14:50:42Z</time>
      </trkpt>
      <trkpt lat="44.82378" lon="5.51927">
        <ele>1767.52</ele>
        <time>2012-11-18T14:50:53Z</time>
      </trkpt>
      <trkpt lat="44.82374" lon="5.51919">
        <ele>1766.56</ele>
        <time>2012-11-18T14:50:58Z</time>
      </trkpt>
      <trkpt lat="44.82362" lon="5.51888">
        <ele>1763.2</ele>
        <time>2012-11-18T14:51:16Z</time>
      </trkpt>
      <trkpt lat="44.82353" lon="5.51866">
        <ele>1759.83</ele>
        <time>2012-11-18T14:51:29Z</time>
      </trkpt>
      <trkpt lat="44.82351" lon="5.51865">
        <ele>1759.83</ele>
        <time>2012-11-18T14:51:30Z</time>
      </trkpt>
      <trkpt lat="44.82338" lon="5.51847">
        <ele>1756.95</ele>
        <time>2012-11-18T14:51:43Z</time>
      </trkpt>
      <trkpt lat="44.82334" lon="5.5184">
        <ele>1754.54</ele>
        <time>2012-11-18T14:51:47Z</time>
      </trkpt>
      <trkpt lat="44.82332" lon="5.5183">
        <ele>1752.14</ele>
        <time>2012-11-18T14:52:02Z</time>
      </trkpt>
      <trkpt lat="44.8233" lon="5.51828">
        <ele>1751.18</ele>
        <time>2012-11-18T14:52:05Z</time>
      </trkpt>
      <trkpt lat="44.82326" lon="5.51821">
        <ele>1749.26</ele>
        <time>2012-11-18T14:52:11Z</time>
      </trkpt>
      <trkpt lat="44.82318" lon="5.51803">
        <ele>1746.37</ele>
        <time>2012-11-18T14:52:24Z</time>
      </trkpt>
      <trkpt lat="44.82315" lon="5.51777">
        <ele>1744.45</ele>
        <time>2012-11-18T14:52:38Z</time>
      </trkpt>
      <trkpt lat="44.82312" lon="5.51762">
        <ele>1741.08</ele>
        <time>2012-11-18T14:52:49Z</time>
      </trkpt>
      <trkpt lat="44.82309" lon="5.51748">
        <ele>1737.72</ele>
        <time>2012-11-18T14:52:59Z</time>
      </trkpt>
      <trkpt lat="44.8231" lon="5.51744">
        <ele>1736.76</ele>
        <time>2012-11-18T14:53:02Z</time>
      </trkpt>
      <trkpt lat="44.82308" lon="5.5174">
        <ele>1736.28</ele>
        <time>2012-11-18T14:53:05Z</time>
      </trkpt>
      <trkpt lat="44.8231" lon="5.51733">
        <ele>1734.36</ele>
        <time>2012-11-18T14:53:12Z</time>
      </trkpt>
      <trkpt lat="44.8231" lon="5.51722">
        <ele>1731.47</ele>
        <time>2012-11-18T14:53:20Z</time>
      </trkpt>
      <trkpt lat="44.82305" lon="5.51706">
        <ele>1728.59</ele>
        <time>2012-11-18T14:53:31Z</time>
      </trkpt>
      <trkpt lat="44.82302" lon="5.51704">
        <ele>1727.15</ele>
        <time>2012-11-18T14:53:37Z</time>
      </trkpt>
      <trkpt lat="44.82299" lon="5.51703">
        <ele>1726.18</ele>
        <time>2012-11-18T14:53:42Z</time>
      </trkpt>
      <trkpt lat="44.82297" lon="5.51694">
        <ele>1723.3</ele>
        <time>2012-11-18T14:53:51Z</time>
      </trkpt>
      <trkpt lat="44.82298" lon="5.51686">
        <ele>1722.82</ele>
        <time>2012-11-18T14:53:59Z</time>
      </trkpt>
      <trkpt lat="44.823" lon="5.51668">
        <ele>1723.78</ele>
        <time>2012-11-18T14:54:09Z</time>
      </trkpt>
      <trkpt lat="44.823" lon="5.51653">
        <ele>1722.34</ele>
        <time>2012-11-18T14:54:17Z</time>
      </trkpt>
      <trkpt lat="44.82298" lon="5.51648">
        <ele>1722.82</ele>
        <time>2012-11-18T14:54:20Z</time>
      </trkpt>
      <trkpt lat="44.82294" lon="5.51643">
        <ele>1722.82</ele>
        <time>2012-11-18T14:54:29Z</time>
      </trkpt>
      <trkpt lat="44.82288" lon="5.51633">
        <ele>1719.94</ele>
        <time>2012-11-18T14:54:37Z</time>
      </trkpt>
      <trkpt lat="44.82288" lon="5.51629">
        <ele>1719.46</ele>
        <time>2012-11-18T14:54:41Z</time>
      </trkpt>
      <trkpt lat="44.82284" lon="5.51626">
        <ele>1718.01</ele>
        <time>2012-11-18T14:54:43Z</time>
      </trkpt>
      <trkpt lat="44.82278" lon="5.5162">
        <ele>1718.49</ele>
        <time>2012-11-18T14:54:48Z</time>
      </trkpt>
      <trkpt lat="44.82275" lon="5.5161">
        <ele>1719.94</ele>
        <time>2012-11-18T14:54:56Z</time>
      </trkpt>
      <trkpt lat="44.82275" lon="5.51608">
        <ele>1720.42</ele>
        <time>2012-11-18T14:54:58Z</time>
      </trkpt>
      <trkpt lat="44.82274" lon="5.51604">
        <ele>1721.38</ele>
        <time>2012-11-18T14:55:01Z</time>
      </trkpt>
      <trkpt lat="44.82271" lon="5.51598">
        <ele>1721.86</ele>
        <time>2012-11-18T14:55:06Z</time>
      </trkpt>
      <trkpt lat="44.82269" lon="5.51595">
        <ele>1721.86</ele>
        <time>2012-11-18T14:55:09Z</time>
      </trkpt>
      <trkpt lat="44.82267" lon="5.51586">
        <ele>1722.34</ele>
        <time>2012-11-18T14:55:15Z</time>
      </trkpt>
      <trkpt lat="44.8226" lon="5.51568">
        <ele>1721.86</ele>
        <time>2012-11-18T14:55:27Z</time>
      </trkpt>
      <trkpt lat="44.82255" lon="5.51549">
        <ele>1718.97</ele>
        <time>2012-11-18T14:55:40Z</time>
      </trkpt>
      <trkpt lat="44.82255" lon="5.51548">
        <ele>1718.97</ele>
        <time>2012-11-18T14:55:41Z</time>
      </trkpt>
      <trkpt lat="44.82253" lon="5.51546">
        <ele>1718.01</ele>
        <time>2012-11-18T14:55:44Z</time>
      </trkpt>
      <trkpt lat="44.8225" lon="5.51544">
        <ele>1715.61</ele>
        <time>2012-11-18T14:55:48Z</time>
      </trkpt>
      <trkpt lat="44.82248" lon="5.51541">
        <ele>1715.13</ele>
        <time>2012-11-18T14:55:50Z</time>
      </trkpt>
      <trkpt lat="44.82244" lon="5.51538">
        <ele>1713.21</ele>
        <time>2012-11-18T14:55:54Z</time>
      </trkpt>
      <trkpt lat="44.8224" lon="5.51535">
        <ele>1711.76</ele>
        <time>2012-11-18T14:55:58Z</time>
      </trkpt>
      <trkpt lat="44.82239" lon="5.51535">
        <ele>1710.8</ele>
        <time>2012-11-18T14:56:00Z</time>
      </trkpt>
      <trkpt lat="44.82235" lon="5.51527">
        <ele>1708.4</ele>
        <time>2012-11-18T14:56:05Z</time>
      </trkpt>
      <trkpt lat="44.82235" lon="5.51521">
        <ele>1707.92</ele>
        <time>2012-11-18T14:56:10Z</time>
      </trkpt>
      <trkpt lat="44.82234" lon="5.51516">
        <ele>1707.44</ele>
        <time>2012-11-18T14:56:13Z</time>
      </trkpt>
      <trkpt lat="44.8223" lon="5.51511">
        <ele>1706.48</ele>
        <time>2012-11-18T14:56:17Z</time>
      </trkpt>
      <trkpt lat="44.82228" lon="5.51503">
        <ele>1706.48</ele>
        <time>2012-11-18T14:56:23Z</time>
      </trkpt>
      <trkpt lat="44.82228" lon="5.515">
        <ele>1705.52</ele>
        <time>2012-11-18T14:56:36Z</time>
      </trkpt>
      <trkpt lat="44.82221" lon="5.51499">
        <ele>1702.63</ele>
        <time>2012-11-18T14:56:46Z</time>
      </trkpt>
      <trkpt lat="44.82219" lon="5.51495">
        <ele>1701.19</ele>
        <time>2012-11-18T14:56:52Z</time>
      </trkpt>
      <trkpt lat="44.82219" lon="5.5149">
        <ele>1698.79</ele>
        <time>2012-11-18T14:57:01Z</time>
      </trkpt>
      <trkpt lat="44.82217" lon="5.51484">
        <ele>1696.38</ele>
        <time>2012-11-18T14:57:07Z</time>
      </trkpt>
      <trkpt lat="44.82217" lon="5.51482">
        <ele>1696.38</ele>
        <time>2012-11-18T14:57:08Z</time>
      </trkpt>
      <trkpt lat="44.82212" lon="5.51473">
        <ele>1693.98</ele>
        <time>2012-11-18T14:57:15Z</time>
      </trkpt>
      <trkpt lat="44.8221" lon="5.51469">
        <ele>1692.54</ele>
        <time>2012-11-18T14:57:18Z</time>
      </trkpt>
      <trkpt lat="44.82208" lon="5.51465">
        <ele>1692.06</ele>
        <time>2012-11-18T14:57:25Z</time>
      </trkpt>
      <trkpt lat="44.82207" lon="5.51459">
        <ele>1690.14</ele>
        <time>2012-11-18T14:57:30Z</time>
      </trkpt>
      <trkpt lat="44.82205" lon="5.51453">
        <ele>1688.21</ele>
        <time>2012-11-18T14:57:35Z</time>
      </trkpt>
      <trkpt lat="44.82208" lon="5.5145">
        <ele>1687.73</ele>
        <time>2012-11-18T14:57:39Z</time>
      </trkpt>
      <trkpt lat="44.82209" lon="5.51445">
        <ele>1686.29</ele>
        <time>2012-11-18T14:57:49Z</time>
      </trkpt>
      <trkpt lat="44.82207" lon="5.5144">
        <ele>1683.41</ele>
        <time>2012-11-18T14:57:58Z</time>
      </trkpt>
      <trkpt lat="44.82206" lon="5.51439">
        <ele>1682.93</ele>
        <time>2012-11-18T14:58:00Z</time>
      </trkpt>
      <trkpt lat="44.82206" lon="5.51429">
        <ele>1679.56</ele>
        <time>2012-11-18T14:58:10Z</time>
      </trkpt>
      <trkpt lat="44.82205" lon="5.51427">
        <ele>1679.08</ele>
        <time>2012-11-18T14:58:12Z</time>
      </trkpt>
      <trkpt lat="44.82203" lon="5.51425">
        <ele>1678.6</ele>
        <time>2012-11-18T14:58:14Z</time>
      </trkpt>
      <trkpt lat="44.82199" lon="5.51418">
        <ele>1676.68</ele>
        <time>2012-11-18T14:58:25Z</time>
      </trkpt>
      <trkpt lat="44.82192" lon="5.51411">
        <ele>1676.2</ele>
        <time>2012-11-18T14:58:32Z</time>
      </trkpt>
      <trkpt lat="44.82189" lon="5.5141">
        <ele>1676.2</ele>
        <time>2012-11-18T14:58:36Z</time>
      </trkpt>
      <trkpt lat="44.82187" lon="5.51399">
        <ele>1672.83</ele>
        <time>2012-11-18T14:58:40Z</time>
      </trkpt>
      <trkpt lat="44.82173" lon="5.51394">
        <ele>1670.91</ele>
        <time>2012-11-18T14:58:53Z</time>
      </trkpt>
      <trkpt lat="44.82168" lon="5.51394">
        <ele>1669.95</ele>
        <time>2012-11-18T14:58:57Z</time>
      </trkpt>
      <trkpt lat="44.82163" lon="5.51396">
        <ele>1669.95</ele>
        <time>2012-11-18T14:59:02Z</time>
      </trkpt>
      <trkpt lat="44.82154" lon="5.51395">
        <ele>1667.54</ele>
        <time>2012-11-18T14:59:10Z</time>
      </trkpt>
      <trkpt lat="44.8215" lon="5.51394">
        <ele>1666.1</ele>
        <time>2012-11-18T14:59:14Z</time>
      </trkpt>
      <trkpt lat="44.82149" lon="5.51394">
        <ele>1665.62</ele>
        <time>2012-11-18T14:59:15Z</time>
      </trkpt>
      <trkpt lat="44.82147" lon="5.51396">
        <ele>1665.14</ele>
        <time>2012-11-18T14:59:17Z</time>
      </trkpt>
      <trkpt lat="44.82142" lon="5.51393">
        <ele>1662.74</ele>
        <time>2012-11-18T14:59:23Z</time>
      </trkpt>
      <trkpt lat="44.82139" lon="5.51386">
        <ele>1661.3</ele>
        <time>2012-11-18T14:59:27Z</time>
      </trkpt>
      <trkpt lat="44.82137" lon="5.51383">
        <ele>1660.81</ele>
        <time>2012-11-18T14:59:29Z</time>
      </trkpt>
      <trkpt lat="44.82132" lon="5.51379">
        <ele>1659.85</ele>
        <time>2012-11-18T14:59:32Z</time>
      </trkpt>
      <trkpt lat="44.82129" lon="5.51377">
        <ele>1658.89</ele>
        <time>2012-11-18T14:59:34Z</time>
      </trkpt>
      <trkpt lat="44.82124" lon="5.51373">
        <ele>1657.45</ele>
        <time>2012-11-18T14:59:40Z</time>
      </trkpt>
      <trkpt lat="44.82118" lon="5.51374">
        <ele>1655.05</ele>
        <time>2012-11-18T14:59:44Z</time>
      </trkpt>
      <trkpt lat="44.82108" lon="5.51367">
        <ele>1651.2</ele>
        <time>2012-11-18T14:59:50Z</time>
      </trkpt>
      <trkpt lat="44.82106" lon="5.51364">
        <ele>1650.72</ele>
        <time>2012-11-18T14:59:51Z</time>
      </trkpt>
      <trkpt lat="44.82105" lon="5.51357">
        <ele>1649.28</ele>
        <time>2012-11-18T14:59:54Z</time>
      </trkpt>
      <trkpt lat="44.82105" lon="5.51355">
        <ele>1649.28</ele>
        <time>2012-11-18T14:59:55Z</time>
      </trkpt>
      <trkpt lat="44.82102" lon="5.51344">
        <ele>1649.76</ele>
        <time>2012-11-18T15:00:09Z</time>
      </trkpt>
      <trkpt lat="44.82102" lon="5.51343">
        <ele>1649.28</ele>
        <time>2012-11-18T15:00:24Z</time>
      </trkpt>
      <trkpt lat="44.82102" lon="5.51343">
        <ele>1649.28</ele>
        <time>2012-11-18T15:00:39Z</time>
      </trkpt>
      <trkpt lat="44.82102" lon="5.51342">
        <ele>1650.24</ele>
        <time>2012-11-18T15:00:45Z</time>
      </trkpt>
      <trkpt lat="44.82099" lon="5.51333">
        <ele>1649.76</ele>
        <time>2012-11-18T15:00:51Z</time>
      </trkpt>
      <trkpt lat="44.82092" lon="5.51324">
        <ele>1648.8</ele>
        <time>2012-11-18T15:00:57Z</time>
      </trkpt>
      <trkpt lat="44.8209" lon="5.51321">
        <ele>1648.8</ele>
        <time>2012-11-18T15:00:59Z</time>
      </trkpt>
      <trkpt lat="44.82081" lon="5.51321">
        <ele>1649.28</ele>
        <time>2012-11-18T15:01:05Z</time>
      </trkpt>
      <trkpt lat="44.82073" lon="5.51323">
        <ele>1648.8</ele>
        <time>2012-11-18T15:01:12Z</time>
      </trkpt>
      <trkpt lat="44.82062" lon="5.51315">
        <ele>1649.76</ele>
        <time>2012-11-18T15:01:22Z</time>
      </trkpt>
      <trkpt lat="44.82048" lon="5.51312">
        <ele>1652.16</ele>
        <time>2012-11-18T15:01:34Z</time>
      </trkpt>
      <trkpt lat="44.82043" lon="5.51314">
        <ele>1652.64</ele>
        <time>2012-11-18T15:01:39Z</time>
      </trkpt>
      <trkpt lat="44.82038" lon="5.51311">
        <ele>1653.12</ele>
        <time>2012-11-18T15:01:43Z</time>
      </trkpt>
      <trkpt lat="44.82034" lon="5.51312">
        <ele>1654.09</ele>
        <time>2012-11-18T15:01:48Z</time>
      </trkpt>
      <trkpt lat="44.82024" lon="5.51306">
        <ele>1655.53</ele>
        <time>2012-11-18T15:01:57Z</time>
      </trkpt>
      <trkpt lat="44.82014" lon="5.51303">
        <ele>1657.45</ele>
        <time>2012-11-18T15:02:09Z</time>
      </trkpt>
      <trkpt lat="44.82011" lon="5.51303">
        <ele>1658.41</ele>
        <time>2012-11-18T15:02:13Z</time>
      </trkpt>
      <trkpt lat="44.82007" lon="5.51303">
        <ele>1659.37</ele>
        <time>2012-11-18T15:02:18Z</time>
      </trkpt>
      <trkpt lat="44.82003" lon="5.51302">
        <ele>1659.85</ele>
        <time>2012-11-18T15:02:22Z</time>
      </trkpt>
      <trkpt lat="44.82001" lon="5.51302">
        <ele>1659.85</ele>
        <time>2012-11-18T15:02:24Z</time>
      </trkpt>
      <trkpt lat="44.81998" lon="5.51303">
        <ele>1661.3</ele>
        <time>2012-11-18T15:02:28Z</time>
      </trkpt>
      <trkpt lat="44.81987" lon="5.51299">
        <ele>1661.78</ele>
        <time>2012-11-18T15:02:37Z</time>
      </trkpt>
      <trkpt lat="44.8198" lon="5.51297">
        <ele>1662.74</ele>
        <time>2012-11-18T15:02:44Z</time>
      </trkpt>
      <trkpt lat="44.81975" lon="5.51295">
        <ele>1663.22</ele>
        <time>2012-11-18T15:02:48Z</time>
      </trkpt>
      <trkpt lat="44.81966" lon="5.51289">
        <ele>1662.26</ele>
        <time>2012-11-18T15:02:55Z</time>
      </trkpt>
      <trkpt lat="44.8196" lon="5.51289">
        <ele>1662.26</ele>
        <time>2012-11-18T15:03:00Z</time>
      </trkpt>
      <trkpt lat="44.81948" lon="5.51289">
        <ele>1659.85</ele>
        <time>2012-11-18T15:03:12Z</time>
      </trkpt>
      <trkpt lat="44.81948" lon="5.51288">
        <ele>1659.37</ele>
        <time>2012-11-18T15:03:22Z</time>
      </trkpt>
      <trkpt lat="44.81934" lon="5.51283">
        <ele>1657.45</ele>
        <time>2012-11-18T15:03:32Z</time>
      </trkpt>
      <trkpt lat="44.81923" lon="5.51287">
        <ele>1656.01</ele>
        <time>2012-11-18T15:03:41Z</time>
      </trkpt>
      <trkpt lat="44.81909" lon="5.51291">
        <ele>1656.01</ele>
        <time>2012-11-18T15:03:52Z</time>
      </trkpt>
      <trkpt lat="44.819" lon="5.51287">
        <ele>1655.53</ele>
        <time>2012-11-18T15:03:58Z</time>
      </trkpt>
      <trkpt lat="44.81888" lon="5.51282">
        <ele>1654.57</ele>
        <time>2012-11-18T15:04:08Z</time>
      </trkpt>
      <trkpt lat="44.81887" lon="5.51282">
        <ele>1654.09</ele>
        <time>2012-11-18T15:04:09Z</time>
      </trkpt>
      <trkpt lat="44.8188" lon="5.51283">
        <ele>1654.57</ele>
        <time>2012-11-18T15:04:14Z</time>
      </trkpt>
      <trkpt lat="44.81875" lon="5.51283">
        <ele>1654.57</ele>
        <time>2012-11-18T15:04:18Z</time>
      </trkpt>
      <trkpt lat="44.81861" lon="5.51285">
        <ele>1654.09</ele>
        <time>2012-11-18T15:04:29Z</time>
      </trkpt>
      <trkpt lat="44.81852" lon="5.51296">
        <ele>1654.57</ele>
        <time>2012-11-18T15:04:39Z</time>
      </trkpt>
      <trkpt lat="44.81849" lon="5.51299">
        <ele>1655.05</ele>
        <time>2012-11-18T15:04:42Z</time>
      </trkpt>
      <trkpt lat="44.81846" lon="5.51296">
        <ele>1656.49</ele>
        <time>2012-11-18T15:04:47Z</time>
      </trkpt>
      <trkpt lat="44.81846" lon="5.51289">
        <ele>1656.49</ele>
        <time>2012-11-18T15:04:51Z</time>
      </trkpt>
      <trkpt lat="44.81834" lon="5.51284">
        <ele>1656.97</ele>
        <time>2012-11-18T15:05:02Z</time>
      </trkpt>
      <trkpt lat="44.81818" lon="5.51277">
        <ele>1656.49</ele>
        <time>2012-11-18T15:05:15Z</time>
      </trkpt>
      <trkpt lat="44.81811" lon="5.51277">
        <ele>1657.45</ele>
        <time>2012-11-18T15:05:21Z</time>
      </trkpt>
      <trkpt lat="44.81806" lon="5.51279">
        <ele>1657.93</ele>
        <time>2012-11-18T15:05:25Z</time>
      </trkpt>
      <trkpt lat="44.81802" lon="5.51278">
        <ele>1658.89</ele>
        <time>2012-11-18T15:05:28Z</time>
      </trkpt>
      <trkpt lat="44.81797" lon="5.51281">
        <ele>1658.41</ele>
        <time>2012-11-18T15:05:32Z</time>
      </trkpt>
      <trkpt lat="44.81794" lon="5.51284">
        <ele>1658.41</ele>
        <time>2012-11-18T15:05:35Z</time>
      </trkpt>
      <trkpt lat="44.81788" lon="5.51289">
        <ele>1658.89</ele>
        <time>2012-11-18T15:05:41Z</time>
      </trkpt>
      <trkpt lat="44.81779" lon="5.5129">
        <ele>1657.45</ele>
        <time>2012-11-18T15:05:48Z</time>
      </trkpt>
      <trkpt lat="44.8177" lon="5.5129">
        <ele>1655.05</ele>
        <time>2012-11-18T15:05:52Z</time>
      </trkpt>
      <trkpt lat="44.81754" lon="5.51297">
        <ele>1655.53</ele>
        <time>2012-11-18T15:06:06Z</time>
      </trkpt>
      <trkpt lat="44.81753" lon="5.51298">
        <ele>1655.53</ele>
        <time>2012-11-18T15:06:07Z</time>
      </trkpt>
      <trkpt lat="44.81737" lon="5.513">
        <ele>1654.57</ele>
        <time>2012-11-18T15:06:18Z</time>
      </trkpt>
      <trkpt lat="44.81731" lon="5.513">
        <ele>1653.6</ele>
        <time>2012-11-18T15:06:23Z</time>
      </trkpt>
      <trkpt lat="44.81722" lon="5.51293">
        <ele>1652.16</ele>
        <time>2012-11-18T15:06:34Z</time>
      </trkpt>
      <trkpt lat="44.81712" lon="5.51279">
        <ele>1651.2</ele>
        <time>2012-11-18T15:06:42Z</time>
      </trkpt>
      <trkpt lat="44.81706" lon="5.51273">
        <ele>1650.72</ele>
        <time>2012-11-18T15:06:46Z</time>
      </trkpt>
      <trkpt lat="44.81688" lon="5.51246">
        <ele>1648.8</ele>
        <time>2012-11-18T15:07:00Z</time>
      </trkpt>
      <trkpt lat="44.81687" lon="5.51242">
        <ele>1648.32</ele>
        <time>2012-11-18T15:07:02Z</time>
      </trkpt>
      <trkpt lat="44.81676" lon="5.51223">
        <ele>1647.84</ele>
        <time>2012-11-18T15:07:14Z</time>
      </trkpt>
      <trkpt lat="44.81676" lon="5.51222">
        <ele>1647.84</ele>
        <time>2012-11-18T15:07:15Z</time>
      </trkpt>
      <trkpt lat="44.81664" lon="5.51225">
        <ele>1647.36</ele>
        <time>2012-11-18T15:07:27Z</time>
      </trkpt>
      <trkpt lat="44.81659" lon="5.5123">
        <ele>1647.36</ele>
        <time>2012-11-18T15:07:32Z</time>
      </trkpt>
      <trkpt lat="44.81652" lon="5.51242">
        <ele>1647.84</ele>
        <time>2012-11-18T15:07:45Z</time>
      </trkpt>
      <trkpt lat="44.81651" lon="5.51245">
        <ele>1647.84</ele>
        <time>2012-11-18T15:07:47Z</time>
      </trkpt>
      <trkpt lat="44.81645" lon="5.51254">
        <ele>1646.88</ele>
        <time>2012-11-18T15:07:55Z</time>
      </trkpt>
      <trkpt lat="44.81643" lon="5.5128">
        <ele>1646.4</ele>
        <time>2012-11-18T15:08:10Z</time>
      </trkpt>
      <trkpt lat="44.81642" lon="5.51289">
        <ele>1645.91</ele>
        <time>2012-11-18T15:08:15Z</time>
      </trkpt>
      <trkpt lat="44.81637" lon="5.51295">
        <ele>1646.4</ele>
        <time>2012-11-18T15:08:21Z</time>
      </trkpt>
      <trkpt lat="44.81633" lon="5.513">
        <ele>1645.43</ele>
        <time>2012-11-18T15:08:25Z</time>
      </trkpt>
      <trkpt lat="44.81618" lon="5.51304">
        <ele>1644.47</ele>
        <time>2012-11-18T15:08:35Z</time>
      </trkpt>
      <trkpt lat="44.81615" lon="5.51309">
        <ele>1644.47</ele>
        <time>2012-11-18T15:08:39Z</time>
      </trkpt>
      <trkpt lat="44.81608" lon="5.51316">
        <ele>1643.03</ele>
        <time>2012-11-18T15:08:52Z</time>
      </trkpt>
      <trkpt lat="44.81604" lon="5.51319">
        <ele>1642.55</ele>
        <time>2012-11-18T15:09:07Z</time>
      </trkpt>
      <trkpt lat="44.81601" lon="5.51319">
        <ele>1642.07</ele>
        <time>2012-11-18T15:09:09Z</time>
      </trkpt>
      <trkpt lat="44.81597" lon="5.51319">
        <ele>1641.59</ele>
        <time>2012-11-18T15:09:12Z</time>
      </trkpt>
      <trkpt lat="44.81589" lon="5.51318">
        <ele>1640.63</ele>
        <time>2012-11-18T15:09:18Z</time>
      </trkpt>
      <trkpt lat="44.81579" lon="5.51313">
        <ele>1638.7</ele>
        <time>2012-11-18T15:09:25Z</time>
      </trkpt>
      <trkpt lat="44.81571" lon="5.51306">
        <ele>1637.26</ele>
        <time>2012-11-18T15:09:31Z</time>
      </trkpt>
      <trkpt lat="44.81567" lon="5.51307">
        <ele>1636.78</ele>
        <time>2012-11-18T15:09:34Z</time>
      </trkpt>
      <trkpt lat="44.81561" lon="5.51308">
        <ele>1635.82</ele>
        <time>2012-11-18T15:09:38Z</time>
      </trkpt>
      <trkpt lat="44.81558" lon="5.5131">
        <ele>1635.82</ele>
        <time>2012-11-18T15:09:41Z</time>
      </trkpt>
      <trkpt lat="44.81553" lon="5.51316">
        <ele>1636.3</ele>
        <time>2012-11-18T15:09:46Z</time>
      </trkpt>
      <trkpt lat="44.81549" lon="5.51318">
        <ele>1636.3</ele>
        <time>2012-11-18T15:09:49Z</time>
      </trkpt>
      <trkpt lat="44.81544" lon="5.51322">
        <ele>1637.74</ele>
        <time>2012-11-18T15:09:54Z</time>
      </trkpt>
      <trkpt lat="44.81536" lon="5.51324">
        <ele>1638.7</ele>
        <time>2012-11-18T15:10:00Z</time>
      </trkpt>
      <trkpt lat="44.81529" lon="5.51325">
        <ele>1640.15</ele>
        <time>2012-11-18T15:10:05Z</time>
      </trkpt>
      <trkpt lat="44.81524" lon="5.51325">
        <ele>1640.15</ele>
        <time>2012-11-18T15:10:09Z</time>
      </trkpt>
      <trkpt lat="44.81514" lon="5.51328">
        <ele>1640.15</ele>
        <time>2012-11-18T15:10:18Z</time>
      </trkpt>
      <trkpt lat="44.81508" lon="5.51327">
        <ele>1639.67</ele>
        <time>2012-11-18T15:10:22Z</time>
      </trkpt>
      <trkpt lat="44.81503" lon="5.51324">
        <ele>1639.19</ele>
        <time>2012-11-18T15:10:26Z</time>
      </trkpt>
      <trkpt lat="44.81497" lon="5.51323">
        <ele>1639.19</ele>
        <time>2012-11-18T15:10:30Z</time>
      </trkpt>
      <trkpt lat="44.81476" lon="5.51329">
        <ele>1639.67</ele>
        <time>2012-11-18T15:10:45Z</time>
      </trkpt>
      <trkpt lat="44.8146" lon="5.5133">
        <ele>1640.15</ele>
        <time>2012-11-18T15:10:58Z</time>
      </trkpt>
      <trkpt lat="44.81455" lon="5.51333">
        <ele>1642.07</ele>
        <time>2012-11-18T15:11:02Z</time>
      </trkpt>
      <trkpt lat="44.81451" lon="5.51333">
        <ele>1643.03</ele>
        <time>2012-11-18T15:11:05Z</time>
      </trkpt>
      <trkpt lat="44.81443" lon="5.51339">
        <ele>1643.03</ele>
        <time>2012-11-18T15:11:11Z</time>
      </trkpt>
      <trkpt lat="44.81437" lon="5.51353">
        <ele>1643.99</ele>
        <time>2012-11-18T15:11:21Z</time>
      </trkpt>
      <trkpt lat="44.81435" lon="5.51356">
        <ele>1643.51</ele>
        <time>2012-11-18T15:11:23Z</time>
      </trkpt>
      <trkpt lat="44.81433" lon="5.5136">
        <ele>1643.03</ele>
        <time>2012-11-18T15:11:26Z</time>
      </trkpt>
      <trkpt lat="44.81431" lon="5.51363">
        <ele>1643.51</ele>
        <time>2012-11-18T15:11:28Z</time>
      </trkpt>
      <trkpt lat="44.81428" lon="5.51364">
        <ele>1643.99</ele>
        <time>2012-11-18T15:11:31Z</time>
      </trkpt>
      <trkpt lat="44.81414" lon="5.51369">
        <ele>1643.03</ele>
        <time>2012-11-18T15:11:42Z</time>
      </trkpt>
      <trkpt lat="44.81401" lon="5.51372">
        <ele>1643.03</ele>
        <time>2012-11-18T15:11:52Z</time>
      </trkpt>
      <trkpt lat="44.81389" lon="5.51375">
        <ele>1641.59</ele>
        <time>2012-11-18T15:12:04Z</time>
      </trkpt>
      <trkpt lat="44.81389" lon="5.51375">
        <ele>1640.63</ele>
        <time>2012-11-18T15:12:33Z</time>
      </trkpt>
      <trkpt lat="44.81389" lon="5.51375">
        <ele>1639.67</ele>
        <time>2012-11-18T15:14:16Z</time>
      </trkpt>
      <trkpt lat="44.81389" lon="5.51375">
        <ele>1640.63</ele>
        <time>2012-11-18T15:14:18Z</time>
      </trkpt>
      <trkpt lat="44.8139" lon="5.51375">
        <ele>1640.63</ele>
        <time>2012-11-18T15:14:22Z</time>
      </trkpt>
      <trkpt lat="44.81387" lon="5.51373">
        <ele>1641.59</ele>
        <time>2012-11-18T15:14:31Z</time>
      </trkpt>
      <trkpt lat="44.81386" lon="5.51375">
        <ele>1641.59</ele>
        <time>2012-11-18T15:14:51Z</time>
      </trkpt>
      <trkpt lat="44.81383" lon="5.51374">
        <ele>1641.11</ele>
        <time>2012-11-18T15:14:54Z</time>
      </trkpt>
      <trkpt lat="44.81378" lon="5.5137">
        <ele>1639.67</ele>
        <time>2012-11-18T15:14:59Z</time>
      </trkpt>
      <trkpt lat="44.81373" lon="5.51369">
        <ele>1639.19</ele>
        <time>2012-11-18T15:15:04Z</time>
      </trkpt>
      <trkpt lat="44.81368" lon="5.51369">
        <ele>1638.22</ele>
        <time>2012-11-18T15:15:08Z</time>
      </trkpt>
      <trkpt lat="44.81359" lon="5.51366">
        <ele>1638.22</ele>
        <time>2012-11-18T15:15:15Z</time>
      </trkpt>
      <trkpt lat="44.8135" lon="5.51366">
        <ele>1639.67</ele>
        <time>2012-11-18T15:15:24Z</time>
      </trkpt>
      <trkpt lat="44.81341" lon="5.51364">
        <ele>1638.22</ele>
        <time>2012-11-18T15:15:33Z</time>
      </trkpt>
      <trkpt lat="44.81334" lon="5.51365">
        <ele>1636.78</ele>
        <time>2012-11-18T15:15:38Z</time>
      </trkpt>
      <trkpt lat="44.81326" lon="5.51358">
        <ele>1635.82</ele>
        <time>2012-11-18T15:15:44Z</time>
      </trkpt>
      <trkpt lat="44.81309" lon="5.51349">
        <ele>1635.34</ele>
        <time>2012-11-18T15:15:57Z</time>
      </trkpt>
      <trkpt lat="44.81306" lon="5.51348">
        <ele>1635.34</ele>
        <time>2012-11-18T15:15:59Z</time>
      </trkpt>
      <trkpt lat="44.81294" lon="5.5134">
        <ele>1635.34</ele>
        <time>2012-11-18T15:16:08Z</time>
      </trkpt>
      <trkpt lat="44.81286" lon="5.51332">
        <ele>1637.26</ele>
        <time>2012-11-18T15:16:16Z</time>
      </trkpt>
      <trkpt lat="44.81282" lon="5.51326">
        <ele>1638.7</ele>
        <time>2012-11-18T15:16:24Z</time>
      </trkpt>
      <trkpt lat="44.81278" lon="5.51319">
        <ele>1639.67</ele>
        <time>2012-11-18T15:16:29Z</time>
      </trkpt>
      <trkpt lat="44.81276" lon="5.51305">
        <ele>1639.67</ele>
        <time>2012-11-18T15:16:37Z</time>
      </trkpt>
      <trkpt lat="44.81274" lon="5.513">
        <ele>1640.15</ele>
        <time>2012-11-18T15:16:40Z</time>
      </trkpt>
      <trkpt lat="44.81267" lon="5.5129">
        <ele>1638.22</ele>
        <time>2012-11-18T15:16:47Z</time>
      </trkpt>
      <trkpt lat="44.81255" lon="5.51277">
        <ele>1638.22</ele>
        <time>2012-11-18T15:16:58Z</time>
      </trkpt>
      <trkpt lat="44.81246" lon="5.51263">
        <ele>1637.26</ele>
        <time>2012-11-18T15:17:07Z</time>
      </trkpt>
      <trkpt lat="44.81237" lon="5.51254">
        <ele>1637.26</ele>
        <time>2012-11-18T15:17:14Z</time>
      </trkpt>
      <trkpt lat="44.8123" lon="5.51248">
        <ele>1637.26</ele>
        <time>2012-11-18T15:17:20Z</time>
      </trkpt>
      <trkpt lat="44.81226" lon="5.51243">
        <ele>1637.74</ele>
        <time>2012-11-18T15:17:24Z</time>
      </trkpt>
      <trkpt lat="44.81224" lon="5.51241">
        <ele>1638.7</ele>
        <time>2012-11-18T15:17:26Z</time>
      </trkpt>
      <trkpt lat="44.81218" lon="5.51233">
        <ele>1638.7</ele>
        <time>2012-11-18T15:17:32Z</time>
      </trkpt>
      <trkpt lat="44.812" lon="5.51229">
        <ele>1640.63</ele>
        <time>2012-11-18T15:17:46Z</time>
      </trkpt>
      <trkpt lat="44.81194" lon="5.5123">
        <ele>1642.07</ele>
        <time>2012-11-18T15:17:52Z</time>
      </trkpt>
      <trkpt lat="44.8119" lon="5.51226">
        <ele>1642.55</ele>
        <time>2012-11-18T15:17:56Z</time>
      </trkpt>
      <trkpt lat="44.81178" lon="5.51209">
        <ele>1644.47</ele>
        <time>2012-11-18T15:18:09Z</time>
      </trkpt>
      <trkpt lat="44.81172" lon="5.51206">
        <ele>1645.91</ele>
        <time>2012-11-18T15:18:15Z</time>
      </trkpt>
      <trkpt lat="44.81161" lon="5.51203">
        <ele>1646.88</ele>
        <time>2012-11-18T15:18:25Z</time>
      </trkpt>
      <trkpt lat="44.81153" lon="5.512">
        <ele>1646.88</ele>
        <time>2012-11-18T15:18:31Z</time>
      </trkpt>
      <trkpt lat="44.81149" lon="5.51202">
        <ele>1647.36</ele>
        <time>2012-11-18T15:18:34Z</time>
      </trkpt>
      <trkpt lat="44.81147" lon="5.51204">
        <ele>1648.32</ele>
        <time>2012-11-18T15:18:37Z</time>
      </trkpt>
      <trkpt lat="44.81132" lon="5.51206">
        <ele>1646.88</ele>
        <time>2012-11-18T15:18:49Z</time>
      </trkpt>
      <trkpt lat="44.81122" lon="5.51201">
        <ele>1646.4</ele>
        <time>2012-11-18T15:18:57Z</time>
      </trkpt>
      <trkpt lat="44.81119" lon="5.51202">
        <ele>1646.88</ele>
        <time>2012-11-18T15:19:00Z</time>
      </trkpt>
      <trkpt lat="44.81098" lon="5.51189">
        <ele>1646.4</ele>
        <time>2012-11-18T15:19:15Z</time>
      </trkpt>
      <trkpt lat="44.81093" lon="5.51183">
        <ele>1646.88</ele>
        <time>2012-11-18T15:19:19Z</time>
      </trkpt>
      <trkpt lat="44.81085" lon="5.51176">
        <ele>1646.88</ele>
        <time>2012-11-18T15:19:26Z</time>
      </trkpt>
      <trkpt lat="44.81077" lon="5.51164">
        <ele>1645.91</ele>
        <time>2012-11-18T15:19:34Z</time>
      </trkpt>
      <trkpt lat="44.81074" lon="5.5116">
        <ele>1645.91</ele>
        <time>2012-11-18T15:19:37Z</time>
      </trkpt>
      <trkpt lat="44.81069" lon="5.51155">
        <ele>1645.43</ele>
        <time>2012-11-18T15:19:42Z</time>
      </trkpt>
      <trkpt lat="44.81055" lon="5.51143">
        <ele>1646.88</ele>
        <time>2012-11-18T15:19:55Z</time>
      </trkpt>
      <trkpt lat="44.81047" lon="5.51135">
        <ele>1646.4</ele>
        <time>2012-11-18T15:20:02Z</time>
      </trkpt>
      <trkpt lat="44.81035" lon="5.5113">
        <ele>1643.99</ele>
        <time>2012-11-18T15:20:14Z</time>
      </trkpt>
      <trkpt lat="44.81034" lon="5.51127">
        <ele>1643.99</ele>
        <time>2012-11-18T15:20:17Z</time>
      </trkpt>
      <trkpt lat="44.81031" lon="5.51128">
        <ele>1643.03</ele>
        <time>2012-11-18T15:20:21Z</time>
      </trkpt>
      <trkpt lat="44.81026" lon="5.51123">
        <ele>1641.11</ele>
        <time>2012-11-18T15:20:32Z</time>
      </trkpt>
      <trkpt lat="44.81026" lon="5.51125">
        <ele>1640.63</ele>
        <time>2012-11-18T15:20:34Z</time>
      </trkpt>
      <trkpt lat="44.81025" lon="5.51128">
        <ele>1638.7</ele>
        <time>2012-11-18T15:20:38Z</time>
      </trkpt>
      <trkpt lat="44.81023" lon="5.51129">
        <ele>1638.7</ele>
        <time>2012-11-18T15:20:40Z</time>
      </trkpt>
      <trkpt lat="44.81016" lon="5.51124">
        <ele>1637.74</ele>
        <time>2012-11-18T15:20:46Z</time>
      </trkpt>
      <trkpt lat="44.81006" lon="5.51113">
        <ele>1637.74</ele>
        <time>2012-11-18T15:20:56Z</time>
      </trkpt>
      <trkpt lat="44.81" lon="5.51107">
        <ele>1637.74</ele>
        <time>2012-11-18T15:21:02Z</time>
      </trkpt>
      <trkpt lat="44.80996" lon="5.51101">
        <ele>1637.26</ele>
        <time>2012-11-18T15:21:10Z</time>
      </trkpt>
      <trkpt lat="44.80981" lon="5.51077">
        <ele>1634.86</ele>
        <time>2012-11-18T15:21:24Z</time>
      </trkpt>
      <trkpt lat="44.80979" lon="5.51075">
        <ele>1634.38</ele>
        <time>2012-11-18T15:21:26Z</time>
      </trkpt>
      <trkpt lat="44.80971" lon="5.51063">
        <ele>1631.98</ele>
        <time>2012-11-18T15:21:34Z</time>
      </trkpt>
      <trkpt lat="44.80968" lon="5.5106">
        <ele>1631.49</ele>
        <time>2012-11-18T15:21:38Z</time>
      </trkpt>
      <trkpt lat="44.80963" lon="5.51053">
        <ele>1630.53</ele>
        <time>2012-11-18T15:21:42Z</time>
      </trkpt>
      <trkpt lat="44.80957" lon="5.51048">
        <ele>1630.05</ele>
        <time>2012-11-18T15:21:48Z</time>
      </trkpt>
      <trkpt lat="44.80949" lon="5.5104">
        <ele>1629.09</ele>
        <time>2012-11-18T15:21:55Z</time>
      </trkpt>
      <trkpt lat="44.80942" lon="5.51027">
        <ele>1628.61</ele>
        <time>2012-11-18T15:22:03Z</time>
      </trkpt>
      <trkpt lat="44.80939" lon="5.51023">
        <ele>1629.09</ele>
        <time>2012-11-18T15:22:06Z</time>
      </trkpt>
      <trkpt lat="44.80936" lon="5.5102">
        <ele>1629.09</ele>
        <time>2012-11-18T15:22:09Z</time>
      </trkpt>
      <trkpt lat="44.80932" lon="5.50998">
        <ele>1631.98</ele>
        <time>2012-11-18T15:22:23Z</time>
      </trkpt>
      <trkpt lat="44.80934" lon="5.50975">
        <ele>1631.98</ele>
        <time>2012-11-18T15:22:35Z</time>
      </trkpt>
      <trkpt lat="44.80933" lon="5.5097">
        <ele>1631.49</ele>
        <time>2012-11-18T15:22:38Z</time>
      </trkpt>
      <trkpt lat="44.80926" lon="5.50959">
        <ele>1630.53</ele>
        <time>2012-11-18T15:22:48Z</time>
      </trkpt>
      <trkpt lat="44.80917" lon="5.50952">
        <ele>1629.57</ele>
        <time>2012-11-18T15:22:59Z</time>
      </trkpt>
      <trkpt lat="44.80911" lon="5.5095">
        <ele>1629.57</ele>
        <time>2012-11-18T15:23:06Z</time>
      </trkpt>
      <trkpt lat="44.80909" lon="5.50947">
        <ele>1630.05</ele>
        <time>2012-11-18T15:23:08Z</time>
      </trkpt>
      <trkpt lat="44.80906" lon="5.50946">
        <ele>1629.57</ele>
        <time>2012-11-18T15:23:11Z</time>
      </trkpt>
      <trkpt lat="44.80898" lon="5.50948">
        <ele>1630.05</ele>
        <time>2012-11-18T15:23:20Z</time>
      </trkpt>
      <trkpt lat="44.80894" lon="5.50952">
        <ele>1631.01</ele>
        <time>2012-11-18T15:23:26Z</time>
      </trkpt>
      <trkpt lat="44.80891" lon="5.50947">
        <ele>1631.01</ele>
        <time>2012-11-18T15:23:41Z</time>
      </trkpt>
      <trkpt lat="44.80885" lon="5.50949">
        <ele>1631.98</ele>
        <time>2012-11-18T15:23:52Z</time>
      </trkpt>
      <trkpt lat="44.80883" lon="5.50951">
        <ele>1631.49</ele>
        <time>2012-11-18T15:23:56Z</time>
      </trkpt>
      <trkpt lat="44.80876" lon="5.50959">
        <ele>1632.94</ele>
        <time>2012-11-18T15:24:09Z</time>
      </trkpt>
      <trkpt lat="44.80873" lon="5.5096">
        <ele>1632.94</ele>
        <time>2012-11-18T15:24:19Z</time>
      </trkpt>
      <trkpt lat="44.80869" lon="5.50959">
        <ele>1632.46</ele>
        <time>2012-11-18T15:24:22Z</time>
      </trkpt>
      <trkpt lat="44.80866" lon="5.5096">
        <ele>1631.49</ele>
        <time>2012-11-18T15:24:25Z</time>
      </trkpt>
      <trkpt lat="44.80859" lon="5.50956">
        <ele>1630.53</ele>
        <time>2012-11-18T15:24:31Z</time>
      </trkpt>
      <trkpt lat="44.80849" lon="5.50956">
        <ele>1630.05</ele>
        <time>2012-11-18T15:24:38Z</time>
      </trkpt>
      <trkpt lat="44.80844" lon="5.50956">
        <ele>1629.57</ele>
        <time>2012-11-18T15:24:42Z</time>
      </trkpt>
      <trkpt lat="44.80832" lon="5.50953">
        <ele>1629.09</ele>
        <time>2012-11-18T15:24:50Z</time>
      </trkpt>
      <trkpt lat="44.80824" lon="5.50952">
        <ele>1629.09</ele>
        <time>2012-11-18T15:24:56Z</time>
      </trkpt>
      <trkpt lat="44.80817" lon="5.50945">
        <ele>1629.57</ele>
        <time>2012-11-18T15:25:02Z</time>
      </trkpt>
      <trkpt lat="44.80812" lon="5.50941">
        <ele>1630.53</ele>
        <time>2012-11-18T15:25:06Z</time>
      </trkpt>
      <trkpt lat="44.8081" lon="5.50936">
        <ele>1631.01</ele>
        <time>2012-11-18T15:25:09Z</time>
      </trkpt>
      <trkpt lat="44.80809" lon="5.50927">
        <ele>1631.49</ele>
        <time>2012-11-18T15:25:14Z</time>
      </trkpt>
      <trkpt lat="44.80803" lon="5.50911">
        <ele>1632.46</ele>
        <time>2012-11-18T15:25:25Z</time>
      </trkpt>
      <trkpt lat="44.80802" lon="5.50907">
        <ele>1633.42</ele>
        <time>2012-11-18T15:25:28Z</time>
      </trkpt>
      <trkpt lat="44.80795" lon="5.50904">
        <ele>1634.86</ele>
        <time>2012-11-18T15:25:35Z</time>
      </trkpt>
      <trkpt lat="44.8079" lon="5.50901">
        <ele>1635.34</ele>
        <time>2012-11-18T15:25:39Z</time>
      </trkpt>
      <trkpt lat="44.80787" lon="5.50899">
        <ele>1635.34</ele>
        <time>2012-11-18T15:25:42Z</time>
      </trkpt>
      <trkpt lat="44.80783" lon="5.50899">
        <ele>1635.82</ele>
        <time>2012-11-18T15:25:46Z</time>
      </trkpt>
      <trkpt lat="44.8078" lon="5.50898">
        <ele>1635.82</ele>
        <time>2012-11-18T15:25:49Z</time>
      </trkpt>
      <trkpt lat="44.80776" lon="5.509">
        <ele>1634.86</ele>
        <time>2012-11-18T15:25:53Z</time>
      </trkpt>
      <trkpt lat="44.80766" lon="5.50911">
        <ele>1633.9</ele>
        <time>2012-11-18T15:26:04Z</time>
      </trkpt>
      <trkpt lat="44.80755" lon="5.50921">
        <ele>1631.98</ele>
        <time>2012-11-18T15:26:13Z</time>
      </trkpt>
      <trkpt lat="44.80745" lon="5.50931">
        <ele>1628.61</ele>
        <time>2012-11-18T15:26:22Z</time>
      </trkpt>
      <trkpt lat="44.80737" lon="5.50931">
        <ele>1628.13</ele>
        <time>2012-11-18T15:26:28Z</time>
      </trkpt>
      <trkpt lat="44.80728" lon="5.50954">
        <ele>1626.69</ele>
        <time>2012-11-18T15:26:42Z</time>
      </trkpt>
      <trkpt lat="44.80717" lon="5.50968">
        <ele>1624.77</ele>
        <time>2012-11-18T15:26:52Z</time>
      </trkpt>
      <trkpt lat="44.80708" lon="5.50966">
        <ele>1625.25</ele>
        <time>2012-11-18T15:26:58Z</time>
      </trkpt>
      <trkpt lat="44.80701" lon="5.5096">
        <ele>1626.21</ele>
        <time>2012-11-18T15:27:06Z</time>
      </trkpt>
      <trkpt lat="44.8069" lon="5.5095">
        <ele>1627.17</ele>
        <time>2012-11-18T15:27:16Z</time>
      </trkpt>
      <trkpt lat="44.80685" lon="5.50946">
        <ele>1627.17</ele>
        <time>2012-11-18T15:27:20Z</time>
      </trkpt>
      <trkpt lat="44.80681" lon="5.50943">
        <ele>1627.17</ele>
        <time>2012-11-18T15:27:31Z</time>
      </trkpt>
      <trkpt lat="44.80674" lon="5.50944">
        <ele>1627.17</ele>
        <time>2012-11-18T15:27:36Z</time>
      </trkpt>
      <trkpt lat="44.80667" lon="5.50941">
        <ele>1627.65</ele>
        <time>2012-11-18T15:27:41Z</time>
      </trkpt>
      <trkpt lat="44.80664" lon="5.50941">
        <ele>1628.61</ele>
        <time>2012-11-18T15:27:45Z</time>
      </trkpt>
      <trkpt lat="44.80659" lon="5.5094">
        <ele>1630.05</ele>
        <time>2012-11-18T15:27:49Z</time>
      </trkpt>
      <trkpt lat="44.80654" lon="5.50939">
        <ele>1631.01</ele>
        <time>2012-11-18T15:27:58Z</time>
      </trkpt>
      <trkpt lat="44.80647" lon="5.50944">
        <ele>1632.94</ele>
        <time>2012-11-18T15:28:05Z</time>
      </trkpt>
      <trkpt lat="44.80641" lon="5.5095">
        <ele>1632.94</ele>
        <time>2012-11-18T15:28:12Z</time>
      </trkpt>
      <trkpt lat="44.80634" lon="5.50956">
        <ele>1633.9</ele>
        <time>2012-11-18T15:28:17Z</time>
      </trkpt>
      <trkpt lat="44.80626" lon="5.5097">
        <ele>1633.9</ele>
        <time>2012-11-18T15:28:27Z</time>
      </trkpt>
      <trkpt lat="44.8062" lon="5.50975">
        <ele>1634.38</ele>
        <time>2012-11-18T15:28:32Z</time>
      </trkpt>
      <trkpt lat="44.80617" lon="5.50998">
        <ele>1633.42</ele>
        <time>2012-11-18T15:28:45Z</time>
      </trkpt>
      <trkpt lat="44.80617" lon="5.5101">
        <ele>1633.42</ele>
        <time>2012-11-18T15:28:51Z</time>
      </trkpt>
      <trkpt lat="44.80615" lon="5.51031">
        <ele>1631.01</ele>
        <time>2012-11-18T15:29:01Z</time>
      </trkpt>
      <trkpt lat="44.80612" lon="5.51056">
        <ele>1631.01</ele>
        <time>2012-11-18T15:29:14Z</time>
      </trkpt>
      <trkpt lat="44.80611" lon="5.51064">
        <ele>1630.53</ele>
        <time>2012-11-18T15:29:18Z</time>
      </trkpt>
      <trkpt lat="44.80614" lon="5.5108">
        <ele>1629.09</ele>
        <time>2012-11-18T15:29:26Z</time>
      </trkpt>
      <trkpt lat="44.8062" lon="5.51091">
        <ele>1628.13</ele>
        <time>2012-11-18T15:29:38Z</time>
      </trkpt>
      <trkpt lat="44.80621" lon="5.51093">
        <ele>1628.61</ele>
        <time>2012-11-18T15:30:07Z</time>
      </trkpt>
      <trkpt lat="44.80621" lon="5.51092">
        <ele>1628.61</ele>
        <time>2012-11-18T15:30:51Z</time>
      </trkpt>
      <trkpt lat="44.80627" lon="5.51097">
        <ele>1626.69</ele>
        <time>2012-11-18T15:31:16Z</time>
      </trkpt>
      <trkpt lat="44.80629" lon="5.51101">
        <ele>1624.28</ele>
        <time>2012-11-18T15:31:29Z</time>
      </trkpt>
      <trkpt lat="44.8063" lon="5.51105">
        <ele>1621.88</ele>
        <time>2012-11-18T15:31:34Z</time>
      </trkpt>
      <trkpt lat="44.80626" lon="5.51108">
        <ele>1620.44</ele>
        <time>2012-11-18T15:31:39Z</time>
      </trkpt>
      <trkpt lat="44.80622" lon="5.51113">
        <ele>1618.04</ele>
        <time>2012-11-18T15:31:46Z</time>
      </trkpt>
      <trkpt lat="44.80618" lon="5.51117">
        <ele>1616.59</ele>
        <time>2012-11-18T15:31:50Z</time>
      </trkpt>
      <trkpt lat="44.80614" lon="5.51118">
        <ele>1615.63</ele>
        <time>2012-11-18T15:31:52Z</time>
      </trkpt>
      <trkpt lat="44.80613" lon="5.51125">
        <ele>1614.19</ele>
        <time>2012-11-18T15:31:56Z</time>
      </trkpt>
      <trkpt lat="44.80613" lon="5.51131">
        <ele>1613.23</ele>
        <time>2012-11-18T15:32:00Z</time>
      </trkpt>
      <trkpt lat="44.8062" lon="5.51139">
        <ele>1610.35</ele>
        <time>2012-11-18T15:32:08Z</time>
      </trkpt>
      <trkpt lat="44.80627" lon="5.51143">
        <ele>1607.46</ele>
        <time>2012-11-18T15:32:14Z</time>
      </trkpt>
      <trkpt lat="44.80635" lon="5.51153">
        <ele>1606.98</ele>
        <time>2012-11-18T15:32:22Z</time>
      </trkpt>
      <trkpt lat="44.80651" lon="5.51171">
        <ele>1605.54</ele>
        <time>2012-11-18T15:32:38Z</time>
      </trkpt>
      <trkpt lat="44.80657" lon="5.51178">
        <ele>1605.06</ele>
        <time>2012-11-18T15:32:43Z</time>
      </trkpt>
      <trkpt lat="44.80677" lon="5.51187">
        <ele>1603.62</ele>
        <time>2012-11-18T15:32:58Z</time>
      </trkpt>
      <trkpt lat="44.80682" lon="5.51187">
        <ele>1604.1</ele>
        <time>2012-11-18T15:33:02Z</time>
      </trkpt>
      <trkpt lat="44.80701" lon="5.51185">
        <ele>1603.14</ele>
        <time>2012-11-18T15:33:17Z</time>
      </trkpt>
      <trkpt lat="44.8071" lon="5.51183">
        <ele>1604.1</ele>
        <time>2012-11-18T15:33:29Z</time>
      </trkpt>
      <trkpt lat="44.80712" lon="5.51191">
        <ele>1603.14</ele>
        <time>2012-11-18T15:33:34Z</time>
      </trkpt>
      <trkpt lat="44.80714" lon="5.51193">
        <ele>1603.14</ele>
        <time>2012-11-18T15:33:40Z</time>
      </trkpt>
      <trkpt lat="44.80711" lon="5.51196">
        <ele>1603.14</ele>
        <time>2012-11-18T15:33:43Z</time>
      </trkpt>
      <trkpt lat="44.80707" lon="5.51213">
        <ele>1602.66</ele>
        <time>2012-11-18T15:33:55Z</time>
      </trkpt>
      <trkpt lat="44.8071" lon="5.51217">
        <ele>1602.66</ele>
        <time>2012-11-18T15:33:59Z</time>
      </trkpt>
      <trkpt lat="44.80717" lon="5.51218">
        <ele>1602.17</ele>
        <time>2012-11-18T15:34:04Z</time>
      </trkpt>
      <trkpt lat="44.80737" lon="5.51219">
        <ele>1601.69</ele>
        <time>2012-11-18T15:34:18Z</time>
      </trkpt>
      <trkpt lat="44.80758" lon="5.5122">
        <ele>1599.77</ele>
        <time>2012-11-18T15:34:31Z</time>
      </trkpt>
      <trkpt lat="44.80778" lon="5.51222">
        <ele>1598.81</ele>
        <time>2012-11-18T15:34:44Z</time>
      </trkpt>
      <trkpt lat="44.80796" lon="5.51223">
        <ele>1597.85</ele>
        <time>2012-11-18T15:34:57Z</time>
      </trkpt>
      <trkpt lat="44.80798" lon="5.51222">
        <ele>1596.89</ele>
        <time>2012-11-18T15:34:59Z</time>
      </trkpt>
      <trkpt lat="44.80809" lon="5.51217">
        <ele>1594.96</ele>
        <time>2012-11-18T15:35:07Z</time>
      </trkpt>
      <trkpt lat="44.80815" lon="5.51223">
        <ele>1593.52</ele>
        <time>2012-11-18T15:35:13Z</time>
      </trkpt>
      <trkpt lat="44.80821" lon="5.51225">
        <ele>1593.52</ele>
        <time>2012-11-18T15:35:17Z</time>
      </trkpt>
      <trkpt lat="44.80837" lon="5.51231">
        <ele>1589.68</ele>
        <time>2012-11-18T15:35:28Z</time>
      </trkpt>
      <trkpt lat="44.8084" lon="5.51232">
        <ele>1589.2</ele>
        <time>2012-11-18T15:35:30Z</time>
      </trkpt>
      <trkpt lat="44.80843" lon="5.51231">
        <ele>1588.72</ele>
        <time>2012-11-18T15:35:32Z</time>
      </trkpt>
      <trkpt lat="44.80849" lon="5.51234">
        <ele>1586.31</ele>
        <time>2012-11-18T15:35:37Z</time>
      </trkpt>
      <trkpt lat="44.80862" lon="5.51233">
        <ele>1583.91</ele>
        <time>2012-11-18T15:35:45Z</time>
      </trkpt>
      <trkpt lat="44.80869" lon="5.51237">
        <ele>1582.47</ele>
        <time>2012-11-18T15:35:51Z</time>
      </trkpt>
      <trkpt lat="44.80877" lon="5.51239">
        <ele>1581.99</ele>
        <time>2012-11-18T15:35:55Z</time>
      </trkpt>
      <trkpt lat="44.80889" lon="5.51231">
        <ele>1581.03</ele>
        <time>2012-11-18T15:36:05Z</time>
      </trkpt>
      <trkpt lat="44.80897" lon="5.51229">
        <ele>1580.06</ele>
        <time>2012-11-18T15:36:13Z</time>
      </trkpt>
      <trkpt lat="44.80909" lon="5.51224">
        <ele>1581.03</ele>
        <time>2012-11-18T15:36:23Z</time>
      </trkpt>
      <trkpt lat="44.80912" lon="5.51222">
        <ele>1580.06</ele>
        <time>2012-11-18T15:36:26Z</time>
      </trkpt>
      <trkpt lat="44.80916" lon="5.51225">
        <ele>1579.58</ele>
        <time>2012-11-18T15:36:30Z</time>
      </trkpt>
      <trkpt lat="44.80925" lon="5.51229">
        <ele>1578.14</ele>
        <time>2012-11-18T15:36:37Z</time>
      </trkpt>
      <trkpt lat="44.80931" lon="5.51234">
        <ele>1577.66</ele>
        <time>2012-11-18T15:36:41Z</time>
      </trkpt>
      <trkpt lat="44.80936" lon="5.51241">
        <ele>1576.7</ele>
        <time>2012-11-18T15:36:45Z</time>
      </trkpt>
      <trkpt lat="44.80942" lon="5.51243">
        <ele>1576.22</ele>
        <time>2012-11-18T15:36:49Z</time>
      </trkpt>
      <trkpt lat="44.80965" lon="5.51249">
        <ele>1575.26</ele>
        <time>2012-11-18T15:37:04Z</time>
      </trkpt>
      <trkpt lat="44.80967" lon="5.51251">
        <ele>1573.82</ele>
        <time>2012-11-18T15:37:06Z</time>
      </trkpt>
      <trkpt lat="44.8097" lon="5.51255">
        <ele>1571.41</ele>
        <time>2012-11-18T15:37:10Z</time>
      </trkpt>
      <trkpt lat="44.80973" lon="5.5126">
        <ele>1570.45</ele>
        <time>2012-11-18T15:37:14Z</time>
      </trkpt>
      <trkpt lat="44.80978" lon="5.51264">
        <ele>1567.57</ele>
        <time>2012-11-18T15:37:21Z</time>
      </trkpt>
      <trkpt lat="44.8098" lon="5.51262">
        <ele>1566.61</ele>
        <time>2012-11-18T15:37:23Z</time>
      </trkpt>
      <trkpt lat="44.80981" lon="5.51263">
        <ele>1566.12</ele>
        <time>2012-11-18T15:37:24Z</time>
      </trkpt>
      <trkpt lat="44.8098" lon="5.51275">
        <ele>1563.72</ele>
        <time>2012-11-18T15:37:31Z</time>
      </trkpt>
      <trkpt lat="44.80985" lon="5.51285">
        <ele>1560.84</ele>
        <time>2012-11-18T15:37:38Z</time>
      </trkpt>
      <trkpt lat="44.80989" lon="5.51284">
        <ele>1560.36</ele>
        <time>2012-11-18T15:37:42Z</time>
      </trkpt>
      <trkpt lat="44.80989" lon="5.51278">
        <ele>1559.88</ele>
        <time>2012-11-18T15:37:45Z</time>
      </trkpt>
      <trkpt lat="44.80999" lon="5.51267">
        <ele>1556.99</ele>
        <time>2012-11-18T15:37:55Z</time>
      </trkpt>
      <trkpt lat="44.81009" lon="5.51261">
        <ele>1554.11</ele>
        <time>2012-11-18T15:38:04Z</time>
      </trkpt>
      <trkpt lat="44.81013" lon="5.51262">
        <ele>1552.19</ele>
        <time>2012-11-18T15:38:10Z</time>
      </trkpt>
      <trkpt lat="44.81014" lon="5.51262">
        <ele>1552.19</ele>
        <time>2012-11-18T15:38:11Z</time>
      </trkpt>
      <trkpt lat="44.81015" lon="5.51263">
        <ele>1550.74</ele>
        <time>2012-11-18T15:38:13Z</time>
      </trkpt>
      <trkpt lat="44.81019" lon="5.51265">
        <ele>1549.78</ele>
        <time>2012-11-18T15:38:17Z</time>
      </trkpt>
      <trkpt lat="44.81017" lon="5.51267">
        <ele>1547.86</ele>
        <time>2012-11-18T15:38:26Z</time>
      </trkpt>
      <trkpt lat="44.81017" lon="5.51267">
        <ele>1547.86</ele>
        <time>2012-11-18T15:38:27Z</time>
      </trkpt>
      <trkpt lat="44.81013" lon="5.51276">
        <ele>1544.98</ele>
        <time>2012-11-18T15:38:37Z</time>
      </trkpt>
      <trkpt lat="44.81013" lon="5.51277">
        <ele>1543.53</ele>
        <time>2012-11-18T15:38:38Z</time>
      </trkpt>
      <trkpt lat="44.8101" lon="5.51283">
        <ele>1541.61</ele>
        <time>2012-11-18T15:38:49Z</time>
      </trkpt>
      <trkpt lat="44.81016" lon="5.51286">
        <ele>1538.73</ele>
        <time>2012-11-18T15:39:07Z</time>
      </trkpt>
      <trkpt lat="44.81017" lon="5.51287">
        <ele>1539.21</ele>
        <time>2012-11-18T15:39:08Z</time>
      </trkpt>
      <trkpt lat="44.8102" lon="5.51289">
        <ele>1536.8</ele>
        <time>2012-11-18T15:39:13Z</time>
      </trkpt>
      <trkpt lat="44.81021" lon="5.51294">
        <ele>1535.36</ele>
        <time>2012-11-18T15:39:18Z</time>
      </trkpt>
      <trkpt lat="44.81016" lon="5.51298">
        <ele>1532.96</ele>
        <time>2012-11-18T15:39:25Z</time>
      </trkpt>
      <trkpt lat="44.81021" lon="5.51303">
        <ele>1531.04</ele>
        <time>2012-11-18T15:39:36Z</time>
      </trkpt>
      <trkpt lat="44.81024" lon="5.51299">
        <ele>1529.59</ele>
        <time>2012-11-18T15:39:41Z</time>
      </trkpt>
      <trkpt lat="44.81029" lon="5.51298">
        <ele>1527.67</ele>
        <time>2012-11-18T15:39:51Z</time>
      </trkpt>
      <trkpt lat="44.81034" lon="5.51299">
        <ele>1525.27</ele>
        <time>2012-11-18T15:40:00Z</time>
      </trkpt>
      <trkpt lat="44.81034" lon="5.51301">
        <ele>1524.79</ele>
        <time>2012-11-18T15:40:02Z</time>
      </trkpt>
      <trkpt lat="44.8104" lon="5.51311">
        <ele>1521.9</ele>
        <time>2012-11-18T15:40:14Z</time>
      </trkpt>
      <trkpt lat="44.81045" lon="5.51313">
        <ele>1520.46</ele>
        <time>2012-11-18T15:40:18Z</time>
      </trkpt>
      <trkpt lat="44.81047" lon="5.51312">
        <ele>1520.46</ele>
        <time>2012-11-18T15:40:24Z</time>
      </trkpt>
      <trkpt lat="44.81053" lon="5.51315">
        <ele>1518.06</ele>
        <time>2012-11-18T15:40:30Z</time>
      </trkpt>
      <trkpt lat="44.81057" lon="5.51315">
        <ele>1517.58</ele>
        <time>2012-11-18T15:40:34Z</time>
      </trkpt>
      <trkpt lat="44.81061" lon="5.5132">
        <ele>1516.14</ele>
        <time>2012-11-18T15:40:39Z</time>
      </trkpt>
      <trkpt lat="44.81066" lon="5.51324">
        <ele>1515.18</ele>
        <time>2012-11-18T15:40:44Z</time>
      </trkpt>
      <trkpt lat="44.8107" lon="5.51326">
        <ele>1514.69</ele>
        <time>2012-11-18T15:40:48Z</time>
      </trkpt>
      <trkpt lat="44.81078" lon="5.51331">
        <ele>1510.85</ele>
        <time>2012-11-18T15:41:00Z</time>
      </trkpt>
      <trkpt lat="44.81086" lon="5.51335">
        <ele>1507.48</ele>
        <time>2012-11-18T15:41:10Z</time>
      </trkpt>
      <trkpt lat="44.81085" lon="5.51336">
        <ele>1507.48</ele>
        <time>2012-11-18T15:41:11Z</time>
      </trkpt>
      <trkpt lat="44.81089" lon="5.51341">
        <ele>1505.56</ele>
        <time>2012-11-18T15:41:17Z</time>
      </trkpt>
      <trkpt lat="44.81097" lon="5.51349">
        <ele>1502.68</ele>
        <time>2012-11-18T15:41:28Z</time>
      </trkpt>
      <trkpt lat="44.8109" lon="5.51349">
        <ele>1500.27</ele>
        <time>2012-11-18T15:41:38Z</time>
      </trkpt>
      <trkpt lat="44.81087" lon="5.51353">
        <ele>1497.39</ele>
        <time>2012-11-18T15:41:50Z</time>
      </trkpt>
      <trkpt lat="44.81088" lon="5.51354">
        <ele>1496.43</ele>
        <time>2012-11-18T15:41:52Z</time>
      </trkpt>
      <trkpt lat="44.81089" lon="5.51357">
        <ele>1495.95</ele>
        <time>2012-11-18T15:41:54Z</time>
      </trkpt>
      <trkpt lat="44.81092" lon="5.5136">
        <ele>1494.99</ele>
        <time>2012-11-18T15:41:59Z</time>
      </trkpt>
      <trkpt lat="44.81093" lon="5.51366">
        <ele>1493.55</ele>
        <time>2012-11-18T15:42:02Z</time>
      </trkpt>
      <trkpt lat="44.81095" lon="5.51368">
        <ele>1492.58</ele>
        <time>2012-11-18T15:42:04Z</time>
      </trkpt>
      <trkpt lat="44.81095" lon="5.51377">
        <ele>1491.14</ele>
        <time>2012-11-18T15:42:10Z</time>
      </trkpt>
      <trkpt lat="44.81097" lon="5.51381">
        <ele>1490.18</ele>
        <time>2012-11-18T15:42:14Z</time>
      </trkpt>
      <trkpt lat="44.81106" lon="5.51381">
        <ele>1487.3</ele>
        <time>2012-11-18T15:42:23Z</time>
      </trkpt>
      <trkpt lat="44.81109" lon="5.51381">
        <ele>1486.34</ele>
        <time>2012-11-18T15:42:26Z</time>
      </trkpt>
      <trkpt lat="44.81114" lon="5.5138">
        <ele>1484.41</ele>
        <time>2012-11-18T15:42:32Z</time>
      </trkpt>
      <trkpt lat="44.81117" lon="5.51385">
        <ele>1482.49</ele>
        <time>2012-11-18T15:42:36Z</time>
      </trkpt>
      <trkpt lat="44.81122" lon="5.51385">
        <ele>1482.01</ele>
        <time>2012-11-18T15:42:41Z</time>
      </trkpt>
      <trkpt lat="44.81125" lon="5.51385">
        <ele>1481.05</ele>
        <time>2012-11-18T15:42:43Z</time>
      </trkpt>
      <trkpt lat="44.8113" lon="5.51392">
        <ele>1478.65</ele>
        <time>2012-11-18T15:42:49Z</time>
      </trkpt>
      <trkpt lat="44.81139" lon="5.51394">
        <ele>1475.76</ele>
        <time>2012-11-18T15:43:00Z</time>
      </trkpt>
      <trkpt lat="44.81143" lon="5.51398">
        <ele>1473.84</ele>
        <time>2012-11-18T15:43:10Z</time>
      </trkpt>
      <trkpt lat="44.81145" lon="5.51399">
        <ele>1472.88</ele>
        <time>2012-11-18T15:43:13Z</time>
      </trkpt>
      <trkpt lat="44.81148" lon="5.51408">
        <ele>1469.99</ele>
        <time>2012-11-18T15:43:23Z</time>
      </trkpt>
      <trkpt lat="44.81149" lon="5.51409">
        <ele>1469.99</ele>
        <time>2012-11-18T15:43:25Z</time>
      </trkpt>
      <trkpt lat="44.81151" lon="5.51408">
        <ele>1469.03</ele>
        <time>2012-11-18T15:43:28Z</time>
      </trkpt>
      <trkpt lat="44.81153" lon="5.5141">
        <ele>1468.55</ele>
        <time>2012-11-18T15:43:30Z</time>
      </trkpt>
      <trkpt lat="44.81156" lon="5.5141">
        <ele>1467.59</ele>
        <time>2012-11-18T15:43:33Z</time>
      </trkpt>
      <trkpt lat="44.8116" lon="5.51413">
        <ele>1466.15</ele>
        <time>2012-11-18T15:43:38Z</time>
      </trkpt>
      <trkpt lat="44.81161" lon="5.5142">
        <ele>1464.71</ele>
        <time>2012-11-18T15:43:44Z</time>
      </trkpt>
      <trkpt lat="44.81162" lon="5.51422">
        <ele>1463.26</ele>
        <time>2012-11-18T15:43:46Z</time>
      </trkpt>
      <trkpt lat="44.81161" lon="5.51424">
        <ele>1463.26</ele>
        <time>2012-11-18T15:43:48Z</time>
      </trkpt>
      <trkpt lat="44.81163" lon="5.51425">
        <ele>1461.34</ele>
        <time>2012-11-18T15:43:58Z</time>
      </trkpt>
      <trkpt lat="44.8117" lon="5.51428">
        <ele>1458.46</ele>
        <time>2012-11-18T15:44:10Z</time>
      </trkpt>
      <trkpt lat="44.81171" lon="5.51435">
        <ele>1456.53</ele>
        <time>2012-11-18T15:44:19Z</time>
      </trkpt>
      <trkpt lat="44.81174" lon="5.5144">
        <ele>1455.09</ele>
        <time>2012-11-18T15:44:24Z</time>
      </trkpt>
      <trkpt lat="44.81177" lon="5.51443">
        <ele>1454.13</ele>
        <time>2012-11-18T15:44:28Z</time>
      </trkpt>
      <trkpt lat="44.81177" lon="5.51446">
        <ele>1453.65</ele>
        <time>2012-11-18T15:44:30Z</time>
      </trkpt>
      <trkpt lat="44.81179" lon="5.51447">
        <ele>1452.69</ele>
        <time>2012-11-18T15:44:32Z</time>
      </trkpt>
      <trkpt lat="44.81183" lon="5.51449">
        <ele>1450.77</ele>
        <time>2012-11-18T15:44:36Z</time>
      </trkpt>
      <trkpt lat="44.81189" lon="5.51458">
        <ele>1448.36</ele>
        <time>2012-11-18T15:44:46Z</time>
      </trkpt>
      <trkpt lat="44.8119" lon="5.51458">
        <ele>1448.84</ele>
        <time>2012-11-18T15:44:47Z</time>
      </trkpt>
      <trkpt lat="44.8119" lon="5.51462">
        <ele>1446.92</ele>
        <time>2012-11-18T15:44:50Z</time>
      </trkpt>
      <trkpt lat="44.81191" lon="5.51464">
        <ele>1446.44</ele>
        <time>2012-11-18T15:45:01Z</time>
      </trkpt>
      <trkpt lat="44.81191" lon="5.51464">
        <ele>1446.92</ele>
        <time>2012-11-18T15:45:24Z</time>
      </trkpt>
      <trkpt lat="44.81192" lon="5.51466">
        <ele>1445.48</ele>
        <time>2012-11-18T15:46:00Z</time>
      </trkpt>
      <trkpt lat="44.81196" lon="5.51473">
        <ele>1444.04</ele>
        <time>2012-11-18T15:46:09Z</time>
      </trkpt>
      <trkpt lat="44.81196" lon="5.51477">
        <ele>1442.6</ele>
        <time>2012-11-18T15:46:11Z</time>
      </trkpt>
      <trkpt lat="44.81198" lon="5.51479">
        <ele>1441.63</ele>
        <time>2012-11-18T15:46:14Z</time>
      </trkpt>
      <trkpt lat="44.81201" lon="5.51481">
        <ele>1440.67</ele>
        <time>2012-11-18T15:46:18Z</time>
      </trkpt>
      <trkpt lat="44.81206" lon="5.5148">
        <ele>1439.23</ele>
        <time>2012-11-18T15:46:22Z</time>
      </trkpt>
      <trkpt lat="44.81212" lon="5.5148">
        <ele>1436.83</ele>
        <time>2012-11-18T15:46:30Z</time>
      </trkpt>
      <trkpt lat="44.81215" lon="5.51482">
        <ele>1435.87</ele>
        <time>2012-11-18T15:46:33Z</time>
      </trkpt>
      <trkpt lat="44.81221" lon="5.51485">
        <ele>1434.91</ele>
        <time>2012-11-18T15:46:38Z</time>
      </trkpt>
      <trkpt lat="44.81222" lon="5.5149">
        <ele>1433.94</ele>
        <time>2012-11-18T15:46:43Z</time>
      </trkpt>
      <trkpt lat="44.81223" lon="5.51496">
        <ele>1432.5</ele>
        <time>2012-11-18T15:46:47Z</time>
      </trkpt>
      <trkpt lat="44.8122" lon="5.51499">
        <ele>1431.54</ele>
        <time>2012-11-18T15:46:51Z</time>
      </trkpt>
      <trkpt lat="44.8122" lon="5.51504">
        <ele>1430.1</ele>
        <time>2012-11-18T15:46:55Z</time>
      </trkpt>
      <trkpt lat="44.81225" lon="5.51508">
        <ele>1427.7</ele>
        <time>2012-11-18T15:47:02Z</time>
      </trkpt>
      <trkpt lat="44.81228" lon="5.51506">
        <ele>1427.21</ele>
        <time>2012-11-18T15:47:05Z</time>
      </trkpt>
      <trkpt lat="44.81229" lon="5.51507">
        <ele>1426.25</ele>
        <time>2012-11-18T15:47:07Z</time>
      </trkpt>
      <trkpt lat="44.81232" lon="5.51513">
        <ele>1424.33</ele>
        <time>2012-11-18T15:47:16Z</time>
      </trkpt>
      <trkpt lat="44.81233" lon="5.51514">
        <ele>1423.37</ele>
        <time>2012-11-18T15:47:18Z</time>
      </trkpt>
      <trkpt lat="44.81235" lon="5.51516">
        <ele>1422.89</ele>
        <time>2012-11-18T15:47:21Z</time>
      </trkpt>
      <trkpt lat="44.8124" lon="5.51523">
        <ele>1420</ele>
        <time>2012-11-18T15:47:31Z</time>
      </trkpt>
      <trkpt lat="44.81241" lon="5.51527">
        <ele>1418.08</ele>
        <time>2012-11-18T15:47:37Z</time>
      </trkpt>
      <trkpt lat="44.81244" lon="5.51531">
        <ele>1417.12</ele>
        <time>2012-11-18T15:47:47Z</time>
      </trkpt>
      <trkpt lat="44.81246" lon="5.5153">
        <ele>1415.68</ele>
        <time>2012-11-18T15:47:50Z</time>
      </trkpt>
      <trkpt lat="44.81248" lon="5.5153">
        <ele>1415.2</ele>
        <time>2012-11-18T15:47:52Z</time>
      </trkpt>
      <trkpt lat="44.81255" lon="5.51538">
        <ele>1412.79</ele>
        <time>2012-11-18T15:48:03Z</time>
      </trkpt>
      <trkpt lat="44.81256" lon="5.51542">
        <ele>1411.35</ele>
        <time>2012-11-18T15:48:08Z</time>
      </trkpt>
      <trkpt lat="44.81257" lon="5.51545">
        <ele>1410.39</ele>
        <time>2012-11-18T15:48:10Z</time>
      </trkpt>
      <trkpt lat="44.81258" lon="5.5155">
        <ele>1408.95</ele>
        <time>2012-11-18T15:48:13Z</time>
      </trkpt>
      <trkpt lat="44.81262" lon="5.51561">
        <ele>1407.03</ele>
        <time>2012-11-18T15:48:23Z</time>
      </trkpt>
      <trkpt lat="44.8126" lon="5.51573">
        <ele>1404.62</ele>
        <time>2012-11-18T15:48:33Z</time>
      </trkpt>
      <trkpt lat="44.81256" lon="5.51577">
        <ele>1402.7</ele>
        <time>2012-11-18T15:48:40Z</time>
      </trkpt>
      <trkpt lat="44.81258" lon="5.51582">
        <ele>1400.78</ele>
        <time>2012-11-18T15:48:52Z</time>
      </trkpt>
      <trkpt lat="44.81258" lon="5.51582">
        <ele>1400.78</ele>
        <time>2012-11-18T15:49:43Z</time>
      </trkpt>
      <trkpt lat="44.81261" lon="5.51587">
        <ele>1399.82</ele>
        <time>2012-11-18T15:49:53Z</time>
      </trkpt>
      <trkpt lat="44.81264" lon="5.5159">
        <ele>1398.37</ele>
        <time>2012-11-18T15:49:57Z</time>
      </trkpt>
      <trkpt lat="44.81268" lon="5.51596">
        <ele>1398.86</ele>
        <time>2012-11-18T15:50:03Z</time>
      </trkpt>
      <trkpt lat="44.81269" lon="5.516">
        <ele>1395.97</ele>
        <time>2012-11-18T15:50:06Z</time>
      </trkpt>
      <trkpt lat="44.81269" lon="5.51601">
        <ele>1396.45</ele>
        <time>2012-11-18T15:50:07Z</time>
      </trkpt>
      <trkpt lat="44.81264" lon="5.51605">
        <ele>1394.53</ele>
        <time>2012-11-18T15:50:18Z</time>
      </trkpt>
      <trkpt lat="44.81265" lon="5.51615">
        <ele>1390.68</ele>
        <time>2012-11-18T15:50:28Z</time>
      </trkpt>
      <trkpt lat="44.81265" lon="5.51622">
        <ele>1388.76</ele>
        <time>2012-11-18T15:50:36Z</time>
      </trkpt>
      <trkpt lat="44.81271" lon="5.51626">
        <ele>1386.84</ele>
        <time>2012-11-18T15:50:43Z</time>
      </trkpt>
      <trkpt lat="44.8127" lon="5.51634">
        <ele>1385.4</ele>
        <time>2012-11-18T15:50:48Z</time>
      </trkpt>
      <trkpt lat="44.8127" lon="5.51636">
        <ele>1385.4</ele>
        <time>2012-11-18T15:50:49Z</time>
      </trkpt>
      <trkpt lat="44.81271" lon="5.5164">
        <ele>1382.99</ele>
        <time>2012-11-18T15:50:52Z</time>
      </trkpt>
      <trkpt lat="44.81275" lon="5.51646">
        <ele>1381.55</ele>
        <time>2012-11-18T15:50:57Z</time>
      </trkpt>
      <trkpt lat="44.81279" lon="5.51656">
        <ele>1378.19</ele>
        <time>2012-11-18T15:51:04Z</time>
      </trkpt>
      <trkpt lat="44.81281" lon="5.51658">
        <ele>1378.19</ele>
        <time>2012-11-18T15:51:06Z</time>
      </trkpt>
      <trkpt lat="44.81282" lon="5.51663">
        <ele>1375.78</ele>
        <time>2012-11-18T15:51:09Z</time>
      </trkpt>
      <trkpt lat="44.8128" lon="5.51664">
        <ele>1375.3</ele>
        <time>2012-11-18T15:51:11Z</time>
      </trkpt>
      <trkpt lat="44.81281" lon="5.51668">
        <ele>1374.34</ele>
        <time>2012-11-18T15:51:15Z</time>
      </trkpt>
      <trkpt lat="44.81286" lon="5.5167">
        <ele>1374.34</ele>
        <time>2012-11-18T15:51:19Z</time>
      </trkpt>
      <trkpt lat="44.81289" lon="5.51676">
        <ele>1371.46</ele>
        <time>2012-11-18T15:51:23Z</time>
      </trkpt>
      <trkpt lat="44.8129" lon="5.51681">
        <ele>1370.5</ele>
        <time>2012-11-18T15:51:27Z</time>
      </trkpt>
      <trkpt lat="44.81291" lon="5.51686">
        <ele>1370.02</ele>
        <time>2012-11-18T15:51:30Z</time>
      </trkpt>
      <trkpt lat="44.81294" lon="5.51688">
        <ele>1368.09</ele>
        <time>2012-11-18T15:51:33Z</time>
      </trkpt>
      <trkpt lat="44.81297" lon="5.51703">
        <ele>1364.73</ele>
        <time>2012-11-18T15:51:42Z</time>
      </trkpt>
      <trkpt lat="44.81297" lon="5.51708">
        <ele>1363.77</ele>
        <time>2012-11-18T15:51:44Z</time>
      </trkpt>
      <trkpt lat="44.81298" lon="5.51716">
        <ele>1362.33</ele>
        <time>2012-11-18T15:51:48Z</time>
      </trkpt>
      <trkpt lat="44.81298" lon="5.51718">
        <ele>1361.84</ele>
        <time>2012-11-18T15:51:51Z</time>
      </trkpt>
      <trkpt lat="44.81301" lon="5.51721">
        <ele>1361.84</ele>
        <time>2012-11-18T15:51:53Z</time>
      </trkpt>
      <trkpt lat="44.81303" lon="5.51723">
        <ele>1360.4</ele>
        <time>2012-11-18T15:51:55Z</time>
      </trkpt>
      <trkpt lat="44.81306" lon="5.51726">
        <ele>1359.92</ele>
        <time>2012-11-18T15:51:59Z</time>
      </trkpt>
      <trkpt lat="44.81312" lon="5.51731">
        <ele>1358.48</ele>
        <time>2012-11-18T15:52:03Z</time>
      </trkpt>
      <trkpt lat="44.81314" lon="5.51734">
        <ele>1358</ele>
        <time>2012-11-18T15:52:05Z</time>
      </trkpt>
      <trkpt lat="44.81319" lon="5.51743">
        <ele>1355.6</ele>
        <time>2012-11-18T15:52:11Z</time>
      </trkpt>
      <trkpt lat="44.81324" lon="5.51751">
        <ele>1353.67</ele>
        <time>2012-11-18T15:52:16Z</time>
      </trkpt>
      <trkpt lat="44.81328" lon="5.51757">
        <ele>1353.67</ele>
        <time>2012-11-18T15:52:20Z</time>
      </trkpt>
      <trkpt lat="44.81332" lon="5.51762">
        <ele>1351.75</ele>
        <time>2012-11-18T15:52:24Z</time>
      </trkpt>
      <trkpt lat="44.81336" lon="5.51771">
        <ele>1347.91</ele>
        <time>2012-11-18T15:52:34Z</time>
      </trkpt>
      <trkpt lat="44.81335" lon="5.51771">
        <ele>1348.39</ele>
        <time>2012-11-18T15:52:35Z</time>
      </trkpt>
      <trkpt lat="44.81331" lon="5.51788">
        <ele>1344.54</ele>
        <time>2012-11-18T15:52:45Z</time>
      </trkpt>
      <trkpt lat="44.8133" lon="5.51795">
        <ele>1343.1</ele>
        <time>2012-11-18T15:52:50Z</time>
      </trkpt>
      <trkpt lat="44.81328" lon="5.51797">
        <ele>1342.62</ele>
        <time>2012-11-18T15:52:52Z</time>
      </trkpt>
      <trkpt lat="44.81321" lon="5.51807">
        <ele>1340.22</ele>
        <time>2012-11-18T15:52:59Z</time>
      </trkpt>
      <trkpt lat="44.81318" lon="5.51816">
        <ele>1340.22</ele>
        <time>2012-11-18T15:53:02Z</time>
      </trkpt>
      <trkpt lat="44.81319" lon="5.51823">
        <ele>1338.77</ele>
        <time>2012-11-18T15:53:05Z</time>
      </trkpt>
      <trkpt lat="44.81318" lon="5.51825">
        <ele>1339.25</ele>
        <time>2012-11-18T15:53:06Z</time>
      </trkpt>
      <trkpt lat="44.81327" lon="5.51833">
        <ele>1336.37</ele>
        <time>2012-11-18T15:53:16Z</time>
      </trkpt>
      <trkpt lat="44.81329" lon="5.51836">
        <ele>1335.41</ele>
        <time>2012-11-18T15:53:18Z</time>
      </trkpt>
      <trkpt lat="44.81325" lon="5.51842">
        <ele>1333.01</ele>
        <time>2012-11-18T15:53:24Z</time>
      </trkpt>
      <trkpt lat="44.81324" lon="5.5185">
        <ele>1330.12</ele>
        <time>2012-11-18T15:53:30Z</time>
      </trkpt>
      <trkpt lat="44.81326" lon="5.51852">
        <ele>1330.12</ele>
        <time>2012-11-18T15:53:32Z</time>
      </trkpt>
      <trkpt lat="44.81329" lon="5.51862">
        <ele>1327.24</ele>
        <time>2012-11-18T15:53:37Z</time>
      </trkpt>
      <trkpt lat="44.81329" lon="5.51867">
        <ele>1326.76</ele>
        <time>2012-11-18T15:53:40Z</time>
      </trkpt>
      <trkpt lat="44.81325" lon="5.51869">
        <ele>1324.83</ele>
        <time>2012-11-18T15:53:44Z</time>
      </trkpt>
      <trkpt lat="44.81319" lon="5.51873">
        <ele>1323.39</ele>
        <time>2012-11-18T15:53:51Z</time>
      </trkpt>
      <trkpt lat="44.81318" lon="5.51882">
        <ele>1320.99</ele>
        <time>2012-11-18T15:53:58Z</time>
      </trkpt>
      <trkpt lat="44.81316" lon="5.51884">
        <ele>1318.1</ele>
        <time>2012-11-18T15:54:01Z</time>
      </trkpt>
      <trkpt lat="44.81314" lon="5.51899">
        <ele>1314.26</ele>
        <time>2012-11-18T15:54:08Z</time>
      </trkpt>
      <trkpt lat="44.81315" lon="5.51901">
        <ele>1315.22</ele>
        <time>2012-11-18T15:54:09Z</time>
      </trkpt>
      <trkpt lat="44.81316" lon="5.51908">
        <ele>1310.9</ele>
        <time>2012-11-18T15:54:12Z</time>
      </trkpt>
      <trkpt lat="44.81317" lon="5.5191">
        <ele>1310.41</ele>
        <time>2012-11-18T15:54:13Z</time>
      </trkpt>
      <trkpt lat="44.81317" lon="5.51924">
        <ele>1308.49</ele>
        <time>2012-11-18T15:54:19Z</time>
      </trkpt>
      <trkpt lat="44.81319" lon="5.51927">
        <ele>1307.05</ele>
        <time>2012-11-18T15:54:21Z</time>
      </trkpt>
      <trkpt lat="44.81322" lon="5.51937">
        <ele>1304.65</ele>
        <time>2012-11-18T15:54:25Z</time>
      </trkpt>
      <trkpt lat="44.81325" lon="5.51946">
        <ele>1301.76</ele>
        <time>2012-11-18T15:54:31Z</time>
      </trkpt>
      <trkpt lat="44.81326" lon="5.51947">
        <ele>1300.32</ele>
        <time>2012-11-18T15:54:32Z</time>
      </trkpt>
      <trkpt lat="44.81334" lon="5.51953">
        <ele>1298.88</ele>
        <time>2012-11-18T15:54:37Z</time>
      </trkpt>
      <trkpt lat="44.81337" lon="5.51958">
        <ele>1297.44</ele>
        <time>2012-11-18T15:54:40Z</time>
      </trkpt>
      <trkpt lat="44.81338" lon="5.51961">
        <ele>1297.44</ele>
        <time>2012-11-18T15:54:41Z</time>
      </trkpt>
      <trkpt lat="44.81339" lon="5.51969">
        <ele>1296.48</ele>
        <time>2012-11-18T15:54:55Z</time>
      </trkpt>
      <trkpt lat="44.81341" lon="5.51967">
        <ele>1296.48</ele>
        <time>2012-11-18T15:55:25Z</time>
      </trkpt>
      <trkpt lat="44.81346" lon="5.51968">
        <ele>1295.03</ele>
        <time>2012-11-18T15:55:29Z</time>
      </trkpt>
      <trkpt lat="44.8135" lon="5.5197">
        <ele>1293.59</ele>
        <time>2012-11-18T15:55:32Z</time>
      </trkpt>
      <trkpt lat="44.81355" lon="5.51972">
        <ele>1291.67</ele>
        <time>2012-11-18T15:55:37Z</time>
      </trkpt>
      <trkpt lat="44.81364" lon="5.51984">
        <ele>1288.78</ele>
        <time>2012-11-18T15:55:47Z</time>
      </trkpt>
      <trkpt lat="44.81365" lon="5.51985">
        <ele>1288.3</ele>
        <time>2012-11-18T15:55:48Z</time>
      </trkpt>
      <trkpt lat="44.81368" lon="5.51987">
        <ele>1287.34</ele>
        <time>2012-11-18T15:55:51Z</time>
      </trkpt>
      <trkpt lat="44.81377" lon="5.51992">
        <ele>1283.98</ele>
        <time>2012-11-18T15:55:58Z</time>
      </trkpt>
      <trkpt lat="44.81378" lon="5.51992">
        <ele>1284.46</ele>
        <time>2012-11-18T15:55:59Z</time>
      </trkpt>
      <trkpt lat="44.81382" lon="5.51993">
        <ele>1282.54</ele>
        <time>2012-11-18T15:56:05Z</time>
      </trkpt>
      <trkpt lat="44.81388" lon="5.52001">
        <ele>1280.13</ele>
        <time>2012-11-18T15:56:11Z</time>
      </trkpt>
      <trkpt lat="44.81391" lon="5.52004">
        <ele>1278.69</ele>
        <time>2012-11-18T15:56:20Z</time>
      </trkpt>
      <trkpt lat="44.81393" lon="5.52007">
        <ele>1278.69</ele>
        <time>2012-11-18T15:56:22Z</time>
      </trkpt>
      <trkpt lat="44.814" lon="5.52013">
        <ele>1276.29</ele>
        <time>2012-11-18T15:56:27Z</time>
      </trkpt>
      <trkpt lat="44.81403" lon="5.52014">
        <ele>1275.81</ele>
        <time>2012-11-18T15:56:29Z</time>
      </trkpt>
      <trkpt lat="44.81409" lon="5.52024">
        <ele>1274.36</ele>
        <time>2012-11-18T15:56:35Z</time>
      </trkpt>
      <trkpt lat="44.81413" lon="5.52029">
        <ele>1272.44</ele>
        <time>2012-11-18T15:56:38Z</time>
      </trkpt>
      <trkpt lat="44.81414" lon="5.52033">
        <ele>1271.48</ele>
        <time>2012-11-18T15:56:40Z</time>
      </trkpt>
      <trkpt lat="44.81418" lon="5.52043">
        <ele>1269.56</ele>
        <time>2012-11-18T15:56:46Z</time>
      </trkpt>
      <trkpt lat="44.81418" lon="5.52048">
        <ele>1269.56</ele>
        <time>2012-11-18T15:56:48Z</time>
      </trkpt>
      <trkpt lat="44.81427" lon="5.52058">
        <ele>1265.71</ele>
        <time>2012-11-18T15:56:56Z</time>
      </trkpt>
      <trkpt lat="44.81431" lon="5.5206">
        <ele>1265.23</ele>
        <time>2012-11-18T15:56:59Z</time>
      </trkpt>
      <trkpt lat="44.81437" lon="5.52063">
        <ele>1264.75</ele>
        <time>2012-11-18T15:57:03Z</time>
      </trkpt>
      <trkpt lat="44.81439" lon="5.52068">
        <ele>1262.35</ele>
        <time>2012-11-18T15:57:08Z</time>
      </trkpt>
      <trkpt lat="44.81445" lon="5.52073">
        <ele>1260.91</ele>
        <time>2012-11-18T15:57:13Z</time>
      </trkpt>
      <trkpt lat="44.8145" lon="5.52076">
        <ele>1258.5</ele>
        <time>2012-11-18T15:57:18Z</time>
      </trkpt>
      <trkpt lat="44.81456" lon="5.52078">
        <ele>1256.1</ele>
        <time>2012-11-18T15:57:21Z</time>
      </trkpt>
      <trkpt lat="44.8146" lon="5.52082">
        <ele>1256.1</ele>
        <time>2012-11-18T15:57:24Z</time>
      </trkpt>
      <trkpt lat="44.81463" lon="5.52087">
        <ele>1254.66</ele>
        <time>2012-11-18T15:57:27Z</time>
      </trkpt>
      <trkpt lat="44.81468" lon="5.52098">
        <ele>1251.77</ele>
        <time>2012-11-18T15:57:35Z</time>
      </trkpt>
      <trkpt lat="44.81467" lon="5.52102">
        <ele>1251.77</ele>
        <time>2012-11-18T15:57:38Z</time>
      </trkpt>
      <trkpt lat="44.81465" lon="5.52104">
        <ele>1251.29</ele>
        <time>2012-11-18T15:57:40Z</time>
      </trkpt>
      <trkpt lat="44.8146" lon="5.52107">
        <ele>1249.85</ele>
        <time>2012-11-18T15:57:44Z</time>
      </trkpt>
      <trkpt lat="44.81456" lon="5.52114">
        <ele>1249.37</ele>
        <time>2012-11-18T15:57:47Z</time>
      </trkpt>
      <trkpt lat="44.81455" lon="5.5212">
        <ele>1247.93</ele>
        <time>2012-11-18T15:57:50Z</time>
      </trkpt>
      <trkpt lat="44.81455" lon="5.52128">
        <ele>1246.49</ele>
        <time>2012-11-18T15:57:53Z</time>
      </trkpt>
      <trkpt lat="44.81453" lon="5.5214">
        <ele>1244.08</ele>
        <time>2012-11-18T15:57:59Z</time>
      </trkpt>
      <trkpt lat="44.81463" lon="5.52148">
        <ele>1240.72</ele>
        <time>2012-11-18T15:58:08Z</time>
      </trkpt>
      <trkpt lat="44.81474" lon="5.52154">
        <ele>1238.32</ele>
        <time>2012-11-18T15:58:17Z</time>
      </trkpt>
      <trkpt lat="44.81482" lon="5.52156">
        <ele>1235.91</ele>
        <time>2012-11-18T15:58:22Z</time>
      </trkpt>
      <trkpt lat="44.81487" lon="5.52159">
        <ele>1234.95</ele>
        <time>2012-11-18T15:58:27Z</time>
      </trkpt>
      <trkpt lat="44.81492" lon="5.52156">
        <ele>1233.51</ele>
        <time>2012-11-18T15:58:31Z</time>
      </trkpt>
      <trkpt lat="44.81496" lon="5.52157">
        <ele>1232.55</ele>
        <time>2012-11-18T15:58:34Z</time>
      </trkpt>
      <trkpt lat="44.81512" lon="5.52159">
        <ele>1229.18</ele>
        <time>2012-11-18T15:58:45Z</time>
      </trkpt>
      <trkpt lat="44.81524" lon="5.5216">
        <ele>1227.74</ele>
        <time>2012-11-18T15:58:53Z</time>
      </trkpt>
      <trkpt lat="44.81531" lon="5.52156">
        <ele>1225.34</ele>
        <time>2012-11-18T15:59:00Z</time>
      </trkpt>
      <trkpt lat="44.81542" lon="5.5216">
        <ele>1223.42</ele>
        <time>2012-11-18T15:59:07Z</time>
      </trkpt>
      <trkpt lat="44.81544" lon="5.52162">
        <ele>1222.45</ele>
        <time>2012-11-18T15:59:09Z</time>
      </trkpt>
      <trkpt lat="44.81551" lon="5.52159">
        <ele>1221.01</ele>
        <time>2012-11-18T15:59:13Z</time>
      </trkpt>
      <trkpt lat="44.81555" lon="5.52158">
        <ele>1221.01</ele>
        <time>2012-11-18T15:59:15Z</time>
      </trkpt>
      <trkpt lat="44.81563" lon="5.52164">
        <ele>1218.61</ele>
        <time>2012-11-18T15:59:22Z</time>
      </trkpt>
      <trkpt lat="44.81563" lon="5.52169">
        <ele>1218.13</ele>
        <time>2012-11-18T15:59:24Z</time>
      </trkpt>
      <trkpt lat="44.81572" lon="5.52188">
        <ele>1215.24</ele>
        <time>2012-11-18T15:59:35Z</time>
      </trkpt>
      <trkpt lat="44.81576" lon="5.52193">
        <ele>1212.36</ele>
        <time>2012-11-18T15:59:38Z</time>
      </trkpt>
      <trkpt lat="44.81577" lon="5.52195">
        <ele>1213.8</ele>
        <time>2012-11-18T15:59:39Z</time>
      </trkpt>
      <trkpt lat="44.81582" lon="5.52204">
        <ele>1212.36</ele>
        <time>2012-11-18T15:59:42Z</time>
      </trkpt>
      <trkpt lat="44.81587" lon="5.52211">
        <ele>1209</ele>
        <time>2012-11-18T15:59:44Z</time>
      </trkpt>
      <trkpt lat="44.81592" lon="5.52225">
        <ele>1208.03</ele>
        <time>2012-11-18T15:59:47Z</time>
      </trkpt>
      <trkpt lat="44.81593" lon="5.5223">
        <ele>1206.59</ele>
        <time>2012-11-18T15:59:48Z</time>
      </trkpt>
      <trkpt lat="44.81595" lon="5.52242">
        <ele>1205.15</ele>
        <time>2012-11-18T15:59:51Z</time>
      </trkpt>
      <trkpt lat="44.81596" lon="5.52252">
        <ele>1204.67</ele>
        <time>2012-11-18T15:59:56Z</time>
      </trkpt>
      <trkpt lat="44.81598" lon="5.52259">
        <ele>1202.27</ele>
        <time>2012-11-18T16:00:00Z</time>
      </trkpt>
      <trkpt lat="44.81595" lon="5.52265">
        <ele>1202.27</ele>
        <time>2012-11-18T16:00:12Z</time>
      </trkpt>
      <trkpt lat="44.81595" lon="5.52265">
        <ele>1201.79</ele>
        <time>2012-11-18T16:00:43Z</time>
      </trkpt>
      <trkpt lat="44.81595" lon="5.52265">
        <ele>1201.79</ele>
        <time>2012-11-18T16:01:44Z</time>
      </trkpt>
      <trkpt lat="44.81595" lon="5.52265">
        <ele>1202.75</ele>
        <time>2012-11-18T16:02:40Z</time>
      </trkpt>
      <trkpt lat="44.81595" lon="5.52265">
        <ele>1202.27</ele>
        <time>2012-11-18T16:02:41Z</time>
      </trkpt>
      <trkpt lat="44.816" lon="5.52272">
        <ele>1201.79</ele>
        <time>2012-11-18T16:02:48Z</time>
      </trkpt>
      <trkpt lat="44.81607" lon="5.5228">
        <ele>1200.82</ele>
        <time>2012-11-18T16:02:54Z</time>
      </trkpt>
      <trkpt lat="44.8161" lon="5.52282">
        <ele>1200.82</ele>
        <time>2012-11-18T16:02:56Z</time>
      </trkpt>
      <trkpt lat="44.81624" lon="5.52298">
        <ele>1198.9</ele>
        <time>2012-11-18T16:03:09Z</time>
      </trkpt>
      <trkpt lat="44.81641" lon="5.52305">
        <ele>1196.98</ele>
        <time>2012-11-18T16:03:22Z</time>
      </trkpt>
      <trkpt lat="44.81645" lon="5.52315">
        <ele>1195.54</ele>
        <time>2012-11-18T16:03:29Z</time>
      </trkpt>
      <trkpt lat="44.81645" lon="5.52325">
        <ele>1193.13</ele>
        <time>2012-11-18T16:03:39Z</time>
      </trkpt>
      <trkpt lat="44.81645" lon="5.52325">
        <ele>1194.09</ele>
        <time>2012-11-18T16:04:03Z</time>
      </trkpt>
      <trkpt lat="44.81645" lon="5.52324">
        <ele>1194.09</ele>
        <time>2012-11-18T16:04:41Z</time>
      </trkpt>
    </trkseg>
  </trk>
</gpx>